<?xml version="1.0" encoding="UTF-8" standalone="no" ?>
<gpx xmlns="http://www.topografix.com/GPX/1/1" xmlns:xsi="http://www.w3.org/2001/XMLSchema-instance" xsi:schemaLocation="http://www.topografix.com/GPX/1/1 http://www.topografix.com/GPX/1/1/gpx.xsd" version="1.1" creator="VisuGPX - https://www.visugpx.com">
  <metadata>
    <name>Des Mouettes aux Cigales 2021</name>
  </metadata>
  <trk>
    <name><![CDATA[Étape 12 : Viviers - Avignon]]></name>
    <extensions>
      <line xmlns="http://www.topografix.com/GPX/gpx_style/0/2">
        <color>0000FF</color>
        <width>4</width>
      </line>
    </extensions>
    <trkseg>
      <trkpt lat="44.48346" lon="4.68715">
        <ele>99.313376</ele>
        <time>2021-09-16T05:56:37.000Z</time>
      </trkpt>
      <trkpt lat="44.48346" lon="4.68715">
        <ele>99.313376</ele>
        <time>2021-09-16T05:56:40.000Z</time>
      </trkpt>
      <trkpt lat="44.48347" lon="4.68714">
        <ele>99.313376</ele>
        <time>2021-09-16T05:56:41.000Z</time>
      </trkpt>
      <trkpt lat="44.48346" lon="4.68715">
        <ele>99.313376</ele>
        <time>2021-09-16T05:56:42.000Z</time>
      </trkpt>
      <trkpt lat="44.48346" lon="4.68715">
        <ele>99.313376</ele>
        <time>2021-09-16T05:56:45.000Z</time>
      </trkpt>
      <trkpt lat="44.48352" lon="4.68738">
        <ele>99.313376</ele>
        <time>2021-09-16T05:56:49.000Z</time>
      </trkpt>
      <trkpt lat="44.48354" lon="4.68753">
        <ele>99.313376</ele>
        <time>2021-09-16T05:56:53.000Z</time>
      </trkpt>
      <trkpt lat="44.48356" lon="4.68772">
        <ele>99.313376</ele>
        <time>2021-09-16T05:56:57.000Z</time>
      </trkpt>
      <trkpt lat="44.48361" lon="4.68808">
        <ele>99.313376</ele>
        <time>2021-09-16T05:57:03.000Z</time>
      </trkpt>
      <trkpt lat="44.48362" lon="4.68829">
        <ele>99.313376</ele>
        <time>2021-09-16T05:57:08.000Z</time>
      </trkpt>
      <trkpt lat="44.48361" lon="4.68835">
        <ele>99.307493</ele>
        <time>2021-09-16T05:57:09.000Z</time>
      </trkpt>
      <trkpt lat="44.48363" lon="4.68845">
        <ele>98.694522</ele>
        <time>2021-09-16T05:57:11.000Z</time>
      </trkpt>
      <trkpt lat="44.48369" lon="4.68864">
        <ele>97.497951</ele>
        <time>2021-09-16T05:57:16.000Z</time>
      </trkpt>
      <trkpt lat="44.48371" lon="4.68879">
        <ele>96.596733</ele>
        <time>2021-09-16T05:57:20.000Z</time>
      </trkpt>
      <trkpt lat="44.48371" lon="4.68903">
        <ele>95.17959</ele>
        <time>2021-09-16T05:57:24.000Z</time>
      </trkpt>
      <trkpt lat="44.48372" lon="4.68923">
        <ele>93.970731</ele>
        <time>2021-09-16T05:57:28.000Z</time>
      </trkpt>
      <trkpt lat="44.48375" lon="4.68939">
        <ele>93.015371</ele>
        <time>2021-09-16T05:57:31.000Z</time>
      </trkpt>
      <trkpt lat="44.48376" lon="4.68946">
        <ele>92.568664</ele>
        <time>2021-09-16T05:57:32.000Z</time>
      </trkpt>
      <trkpt lat="44.48378" lon="4.68955">
        <ele>92.066538</ele>
        <time>2021-09-16T05:57:33.000Z</time>
      </trkpt>
      <trkpt lat="44.48383" lon="4.68983">
        <ele>90.326889</ele>
        <time>2021-09-16T05:57:37.000Z</time>
      </trkpt>
      <trkpt lat="44.48386" lon="4.68999">
        <ele>89.390318</ele>
        <time>2021-09-16T05:57:41.000Z</time>
      </trkpt>
      <trkpt lat="44.4838" lon="4.69001">
        <ele>88.861718</ele>
        <time>2021-09-16T05:57:45.000Z</time>
      </trkpt>
      <trkpt lat="44.48377" lon="4.69003">
        <ele>88.565395</ele>
        <time>2021-09-16T05:57:46.000Z</time>
      </trkpt>
      <trkpt lat="44.48362" lon="4.69019">
        <ele>87.061761</ele>
        <time>2021-09-16T05:57:51.000Z</time>
      </trkpt>
      <trkpt lat="44.48349" lon="4.69033">
        <ele>85.696099</ele>
        <time>2021-09-16T05:57:56.000Z</time>
      </trkpt>
      <trkpt lat="44.48332" lon="4.69055">
        <ele>84.046503</ele>
        <time>2021-09-16T05:58:02.000Z</time>
      </trkpt>
      <trkpt lat="44.4832" lon="4.69072">
        <ele>83.1481</ele>
        <time>2021-09-16T05:58:06.000Z</time>
      </trkpt>
      <trkpt lat="44.48315" lon="4.69081">
        <ele>82.709771</ele>
        <time>2021-09-16T05:58:08.000Z</time>
      </trkpt>
      <trkpt lat="44.48309" lon="4.69089">
        <ele>82.259684</ele>
        <time>2021-09-16T05:58:10.000Z</time>
      </trkpt>
      <trkpt lat="44.483" lon="4.69103">
        <ele>81.571401</ele>
        <time>2021-09-16T05:58:13.000Z</time>
      </trkpt>
      <trkpt lat="44.48297" lon="4.69107">
        <ele>81.349526</ele>
        <time>2021-09-16T05:58:14.000Z</time>
      </trkpt>
      <trkpt lat="44.48295" lon="4.69112">
        <ele>81.114701</ele>
        <time>2021-09-16T05:58:15.000Z</time>
      </trkpt>
      <trkpt lat="44.48286" lon="4.69138">
        <ele>80.05928</ele>
        <time>2021-09-16T05:58:20.000Z</time>
      </trkpt>
      <trkpt lat="44.4828" lon="4.69153">
        <ele>79.406794</ele>
        <time>2021-09-16T05:58:24.000Z</time>
      </trkpt>
      <trkpt lat="44.48271" lon="4.6918">
        <ele>78.292668</ele>
        <time>2021-09-16T05:58:30.000Z</time>
      </trkpt>
      <trkpt lat="44.48267" lon="4.69191">
        <ele>77.847838</ele>
        <time>2021-09-16T05:58:32.000Z</time>
      </trkpt>
      <trkpt lat="44.48257" lon="4.692">
        <ele>77.20419</ele>
        <time>2021-09-16T05:58:35.000Z</time>
      </trkpt>
      <trkpt lat="44.48244" lon="4.69209">
        <ele>76.419969</ele>
        <time>2021-09-16T05:58:38.000Z</time>
      </trkpt>
      <trkpt lat="44.48234" lon="4.69215">
        <ele>75.879758</ele>
        <time>2021-09-16T05:58:40.000Z</time>
      </trkpt>
      <trkpt lat="44.48204" lon="4.69232">
        <ele>74.444512</ele>
        <time>2021-09-16T05:58:46.000Z</time>
      </trkpt>
      <trkpt lat="44.48179" lon="4.69247">
        <ele>73.442697</ele>
        <time>2021-09-16T05:58:51.000Z</time>
      </trkpt>
      <trkpt lat="44.48173" lon="4.6925">
        <ele>73.237106</ele>
        <time>2021-09-16T05:58:52.000Z</time>
      </trkpt>
      <trkpt lat="44.48147" lon="4.69263">
        <ele>72.211988</ele>
        <time>2021-09-16T05:58:57.000Z</time>
      </trkpt>
      <trkpt lat="44.48142" lon="4.69265">
        <ele>72.019296</ele>
        <time>2021-09-16T05:58:58.000Z</time>
      </trkpt>
      <trkpt lat="44.48137" lon="4.69267">
        <ele>71.831728</ele>
        <time>2021-09-16T05:58:59.000Z</time>
      </trkpt>
      <trkpt lat="44.48118" lon="4.69277">
        <ele>71.116637</ele>
        <time>2021-09-16T05:59:03.000Z</time>
      </trkpt>
      <trkpt lat="44.48108" lon="4.69281">
        <ele>70.725255</ele>
        <time>2021-09-16T05:59:07.000Z</time>
      </trkpt>
      <trkpt lat="44.48108" lon="4.69281">
        <ele>70.725255</ele>
        <time>2021-09-16T05:59:09.000Z</time>
      </trkpt>
      <trkpt lat="44.48104" lon="4.69284">
        <ele>70.552263</ele>
        <time>2021-09-16T05:59:33.000Z</time>
      </trkpt>
      <trkpt lat="44.48104" lon="4.69288">
        <ele>70.450223</ele>
        <time>2021-09-16T05:59:34.000Z</time>
      </trkpt>
      <trkpt lat="44.48106" lon="4.69306">
        <ele>69.977887</ele>
        <time>2021-09-16T05:59:38.000Z</time>
      </trkpt>
      <trkpt lat="44.48111" lon="4.6937">
        <ele>68.45296</ele>
        <time>2021-09-16T05:59:47.000Z</time>
      </trkpt>
      <trkpt lat="44.48116" lon="4.69426">
        <ele>68.09391</ele>
        <time>2021-09-16T05:59:55.000Z</time>
      </trkpt>
      <trkpt lat="44.48121" lon="4.69481">
        <ele>67.7355</ele>
        <time>2021-09-16T06:00:02.000Z</time>
      </trkpt>
      <trkpt lat="44.48124" lon="4.69514">
        <ele>67.517317</ele>
        <time>2021-09-16T06:00:06.000Z</time>
      </trkpt>
      <trkpt lat="44.48119" lon="4.69545">
        <ele>67.314838</ele>
        <time>2021-09-16T06:00:10.000Z</time>
      </trkpt>
      <trkpt lat="44.48119" lon="4.69575">
        <ele>67.120251</ele>
        <time>2021-09-16T06:00:15.000Z</time>
      </trkpt>
      <trkpt lat="44.48122" lon="4.69605">
        <ele>66.926779</ele>
        <time>2021-09-16T06:00:20.000Z</time>
      </trkpt>
      <trkpt lat="44.48125" lon="4.69641">
        <ele>66.846782</ele>
        <time>2021-09-16T06:00:26.000Z</time>
      </trkpt>
      <trkpt lat="44.48126" lon="4.69656">
        <ele>66.829049</ele>
        <time>2021-09-16T06:00:29.000Z</time>
      </trkpt>
      <trkpt lat="44.48126" lon="4.69662">
        <ele>66.821795</ele>
        <time>2021-09-16T06:00:30.000Z</time>
      </trkpt>
      <trkpt lat="44.48127" lon="4.69669">
        <ele>66.81396</ele>
        <time>2021-09-16T06:00:31.000Z</time>
      </trkpt>
      <trkpt lat="44.48128" lon="4.69695">
        <ele>66.782073</ele>
        <time>2021-09-16T06:00:35.000Z</time>
      </trkpt>
      <trkpt lat="44.48125" lon="4.69719">
        <ele>66.75284</ele>
        <time>2021-09-16T06:00:39.000Z</time>
      </trkpt>
      <trkpt lat="44.48106" lon="4.69753">
        <ele>66.701599</ele>
        <time>2021-09-16T06:00:45.000Z</time>
      </trkpt>
      <trkpt lat="44.48096" lon="4.69753">
        <ele>66.683757</ele>
        <time>2021-09-16T06:00:48.000Z</time>
      </trkpt>
      <trkpt lat="44.48085" lon="4.69753">
        <ele>66.665901</ele>
        <time>2021-09-16T06:00:49.000Z</time>
      </trkpt>
      <trkpt lat="44.48059" lon="4.69754">
        <ele>66.62091</ele>
        <time>2021-09-16T06:00:54.000Z</time>
      </trkpt>
      <trkpt lat="44.48047" lon="4.69756">
        <ele>66.601173</ele>
        <time>2021-09-16T06:00:56.000Z</time>
      </trkpt>
      <trkpt lat="44.48041" lon="4.69756">
        <ele>66.591057</ele>
        <time>2021-09-16T06:00:57.000Z</time>
      </trkpt>
      <trkpt lat="44.48022" lon="4.69758">
        <ele>66.654653</ele>
        <time>2021-09-16T06:01:01.000Z</time>
      </trkpt>
      <trkpt lat="44.47992" lon="4.69761">
        <ele>66.845117</ele>
        <time>2021-09-16T06:01:05.000Z</time>
      </trkpt>
      <trkpt lat="44.47981" lon="4.69763">
        <ele>66.910671</ele>
        <time>2021-09-16T06:01:07.000Z</time>
      </trkpt>
      <trkpt lat="44.47971" lon="4.69766">
        <ele>66.97561</ele>
        <time>2021-09-16T06:01:09.000Z</time>
      </trkpt>
      <trkpt lat="44.4794" lon="4.69772">
        <ele>67.1735</ele>
        <time>2021-09-16T06:01:14.000Z</time>
      </trkpt>
      <trkpt lat="44.47902" lon="4.6977">
        <ele>67.41169</ele>
        <time>2021-09-16T06:01:20.000Z</time>
      </trkpt>
      <trkpt lat="44.4787" lon="4.69772">
        <ele>67.609325</ele>
        <time>2021-09-16T06:01:25.000Z</time>
      </trkpt>
      <trkpt lat="44.47851" lon="4.69774">
        <ele>67.681951</ele>
        <time>2021-09-16T06:01:28.000Z</time>
      </trkpt>
      <trkpt lat="44.47846" lon="4.69775">
        <ele>67.657988</ele>
        <time>2021-09-16T06:01:29.000Z</time>
      </trkpt>
      <trkpt lat="44.4784" lon="4.69776">
        <ele>67.634458</ele>
        <time>2021-09-16T06:01:30.000Z</time>
      </trkpt>
      <trkpt lat="44.4783" lon="4.69777">
        <ele>67.589989</ele>
        <time>2021-09-16T06:01:32.000Z</time>
      </trkpt>
      <trkpt lat="44.47819" lon="4.69779">
        <ele>67.539444</ele>
        <time>2021-09-16T06:01:34.000Z</time>
      </trkpt>
      <trkpt lat="44.47812" lon="4.6978">
        <ele>67.510209</ele>
        <time>2021-09-16T06:01:35.000Z</time>
      </trkpt>
      <trkpt lat="44.47753" lon="4.69788">
        <ele>67.2524</ele>
        <time>2021-09-16T06:01:44.000Z</time>
      </trkpt>
      <trkpt lat="44.47727" lon="4.6979">
        <ele>67.142414</ele>
        <time>2021-09-16T06:01:48.000Z</time>
      </trkpt>
      <trkpt lat="44.47689" lon="4.69794">
        <ele>66.973301</ele>
        <time>2021-09-16T06:01:54.000Z</time>
      </trkpt>
      <trkpt lat="44.47642" lon="4.698">
        <ele>66.203176</ele>
        <time>2021-09-16T06:02:01.000Z</time>
      </trkpt>
      <trkpt lat="44.47617" lon="4.69805">
        <ele>65.676629</ele>
        <time>2021-09-16T06:02:05.000Z</time>
      </trkpt>
      <trkpt lat="44.47611" lon="4.69807">
        <ele>65.540117</ele>
        <time>2021-09-16T06:02:06.000Z</time>
      </trkpt>
      <trkpt lat="44.47578" lon="4.69817">
        <ele>64.847827</ele>
        <time>2021-09-16T06:02:11.000Z</time>
      </trkpt>
      <trkpt lat="44.47553" lon="4.69822">
        <ele>64.310536</ele>
        <time>2021-09-16T06:02:15.000Z</time>
      </trkpt>
      <trkpt lat="44.47509" lon="4.69824">
        <ele>63.394168</ele>
        <time>2021-09-16T06:02:22.000Z</time>
      </trkpt>
      <trkpt lat="44.4748" lon="4.69823">
        <ele>62.810383</ele>
        <time>2021-09-16T06:02:28.000Z</time>
      </trkpt>
      <trkpt lat="44.47435" lon="4.69821">
        <ele>61.941047</ele>
        <time>2021-09-16T06:02:35.000Z</time>
      </trkpt>
      <trkpt lat="44.4737" lon="4.69818">
        <ele>60.688021</ele>
        <time>2021-09-16T06:02:44.000Z</time>
      </trkpt>
      <trkpt lat="44.4732" lon="4.69815">
        <ele>59.724774</ele>
        <time>2021-09-16T06:02:52.000Z</time>
      </trkpt>
      <trkpt lat="44.47316" lon="4.69815">
        <ele>59.683721</ele>
        <time>2021-09-16T06:02:55.000Z</time>
      </trkpt>
      <trkpt lat="44.47315" lon="4.69808">
        <ele>59.681493</ele>
        <time>2021-09-16T06:02:56.000Z</time>
      </trkpt>
      <trkpt lat="44.47315" lon="4.69805">
        <ele>59.680365</ele>
        <time>2021-09-16T06:02:58.000Z</time>
      </trkpt>
      <trkpt lat="44.47316" lon="4.69802">
        <ele>59.679311</ele>
        <time>2021-09-16T06:02:59.000Z</time>
      </trkpt>
      <trkpt lat="44.47319" lon="4.69782">
        <ele>59.672601</ele>
        <time>2021-09-16T06:03:03.000Z</time>
      </trkpt>
      <trkpt lat="44.47322" lon="4.69769">
        <ele>59.668265</ele>
        <time>2021-09-16T06:03:05.000Z</time>
      </trkpt>
      <trkpt lat="44.47322" lon="4.69762">
        <ele>59.665729</ele>
        <time>2021-09-16T06:03:06.000Z</time>
      </trkpt>
      <trkpt lat="44.47323" lon="4.69706">
        <ele>59.647225</ele>
        <time>2021-09-16T06:03:14.000Z</time>
      </trkpt>
      <trkpt lat="44.47319" lon="4.69687">
        <ele>59.640846</ele>
        <time>2021-09-16T06:03:17.000Z</time>
      </trkpt>
      <trkpt lat="44.47315" lon="4.69673">
        <ele>59.635785</ele>
        <time>2021-09-16T06:03:20.000Z</time>
      </trkpt>
      <trkpt lat="44.47299" lon="4.69649">
        <ele>59.624957</ele>
        <time>2021-09-16T06:03:26.000Z</time>
      </trkpt>
      <trkpt lat="44.47298" lon="4.69645">
        <ele>59.623291</ele>
        <time>2021-09-16T06:03:27.000Z</time>
      </trkpt>
      <trkpt lat="44.47297" lon="4.69638">
        <ele>59.620968</ele>
        <time>2021-09-16T06:03:29.000Z</time>
      </trkpt>
      <trkpt lat="44.47286" lon="4.69638">
        <ele>59.616089</ele>
        <time>2021-09-16T06:03:32.000Z</time>
      </trkpt>
      <trkpt lat="44.47265" lon="4.6964">
        <ele>59.606205</ele>
        <time>2021-09-16T06:03:38.000Z</time>
      </trkpt>
      <trkpt lat="44.47228" lon="4.69642">
        <ele>59.70821</ele>
        <time>2021-09-16T06:03:44.000Z</time>
      </trkpt>
      <trkpt lat="44.47198" lon="4.69643">
        <ele>59.832936</ele>
        <time>2021-09-16T06:03:50.000Z</time>
      </trkpt>
      <trkpt lat="44.47141" lon="4.69648">
        <ele>60.066847</ele>
        <time>2021-09-16T06:03:58.000Z</time>
      </trkpt>
      <trkpt lat="44.47103" lon="4.69644">
        <ele>60.22289</ele>
        <time>2021-09-16T06:04:04.000Z</time>
      </trkpt>
      <trkpt lat="44.47069" lon="4.69645">
        <ele>60.362913</ele>
        <time>2021-09-16T06:04:09.000Z</time>
      </trkpt>
      <trkpt lat="44.47042" lon="4.69647">
        <ele>60.478885</ele>
        <time>2021-09-16T06:04:13.000Z</time>
      </trkpt>
      <trkpt lat="44.46985" lon="4.69651">
        <ele>60.721491</ele>
        <time>2021-09-16T06:04:21.000Z</time>
      </trkpt>
      <trkpt lat="44.46943" lon="4.69653">
        <ele>60.898852</ele>
        <time>2021-09-16T06:04:27.000Z</time>
      </trkpt>
      <trkpt lat="44.46895" lon="4.69657">
        <ele>61.103935</ele>
        <time>2021-09-16T06:04:34.000Z</time>
      </trkpt>
      <trkpt lat="44.46846" lon="4.6966">
        <ele>61.392875</ele>
        <time>2021-09-16T06:04:41.000Z</time>
      </trkpt>
      <trkpt lat="44.46832" lon="4.69663">
        <ele>61.471772</ele>
        <time>2021-09-16T06:04:43.000Z</time>
      </trkpt>
      <trkpt lat="44.46812" lon="4.6967">
        <ele>61.59299</ele>
        <time>2021-09-16T06:04:46.000Z</time>
      </trkpt>
      <trkpt lat="44.46773" lon="4.69683">
        <ele>61.830381</ele>
        <time>2021-09-16T06:04:52.000Z</time>
      </trkpt>
      <trkpt lat="44.46766" lon="4.69686">
        <ele>61.869585</ele>
        <time>2021-09-16T06:04:53.000Z</time>
      </trkpt>
      <trkpt lat="44.46753" lon="4.6969">
        <ele>61.94856</ele>
        <time>2021-09-16T06:04:55.000Z</time>
      </trkpt>
      <trkpt lat="44.46747" lon="4.69693">
        <ele>61.987764</ele>
        <time>2021-09-16T06:04:56.000Z</time>
      </trkpt>
      <trkpt lat="44.46734" lon="4.69697">
        <ele>62.067874</ele>
        <time>2021-09-16T06:04:58.000Z</time>
      </trkpt>
      <trkpt lat="44.46714" lon="4.69704">
        <ele>62.164019</ele>
        <time>2021-09-16T06:05:01.000Z</time>
      </trkpt>
      <trkpt lat="44.46668" lon="4.6972">
        <ele>62.234668</ele>
        <time>2021-09-16T06:05:08.000Z</time>
      </trkpt>
      <trkpt lat="44.46622" lon="4.69736">
        <ele>62.303954</ele>
        <time>2021-09-16T06:05:15.000Z</time>
      </trkpt>
      <trkpt lat="44.46603" lon="4.69743">
        <ele>62.333404</ele>
        <time>2021-09-16T06:05:18.000Z</time>
      </trkpt>
      <trkpt lat="44.46589" lon="4.69748">
        <ele>62.353309</ele>
        <time>2021-09-16T06:05:20.000Z</time>
      </trkpt>
      <trkpt lat="44.4655" lon="4.69758">
        <ele>62.411968</ele>
        <time>2021-09-16T06:05:26.000Z</time>
      </trkpt>
      <trkpt lat="44.4653" lon="4.69761">
        <ele>62.406525</ele>
        <time>2021-09-16T06:05:29.000Z</time>
      </trkpt>
      <trkpt lat="44.46516" lon="4.69763">
        <ele>62.390662</ele>
        <time>2021-09-16T06:05:31.000Z</time>
      </trkpt>
      <trkpt lat="44.46475" lon="4.69768">
        <ele>62.343307</ele>
        <time>2021-09-16T06:05:37.000Z</time>
      </trkpt>
      <trkpt lat="44.4644" lon="4.69772">
        <ele>62.304067</ele>
        <time>2021-09-16T06:05:42.000Z</time>
      </trkpt>
      <trkpt lat="44.464" lon="4.69776">
        <ele>62.257852</ele>
        <time>2021-09-16T06:05:48.000Z</time>
      </trkpt>
      <trkpt lat="44.46369" lon="4.69778">
        <ele>62.222802</ele>
        <time>2021-09-16T06:05:53.000Z</time>
      </trkpt>
      <trkpt lat="44.46363" lon="4.69778">
        <ele>62.225221</ele>
        <time>2021-09-16T06:05:54.000Z</time>
      </trkpt>
      <trkpt lat="44.46324" lon="4.69782">
        <ele>62.402733</ele>
        <time>2021-09-16T06:06:00.000Z</time>
      </trkpt>
      <trkpt lat="44.46291" lon="4.69784">
        <ele>62.55723</ele>
        <time>2021-09-16T06:06:05.000Z</time>
      </trkpt>
      <trkpt lat="44.46256" lon="4.69785">
        <ele>62.716731</ele>
        <time>2021-09-16T06:06:10.000Z</time>
      </trkpt>
      <trkpt lat="44.46229" lon="4.69785">
        <ele>62.842025</ele>
        <time>2021-09-16T06:06:14.000Z</time>
      </trkpt>
      <trkpt lat="44.46216" lon="4.69786">
        <ele>62.903051</ele>
        <time>2021-09-16T06:06:16.000Z</time>
      </trkpt>
      <trkpt lat="44.46196" lon="4.69789">
        <ele>62.997099</ele>
        <time>2021-09-16T06:06:19.000Z</time>
      </trkpt>
      <trkpt lat="44.46189" lon="4.69791">
        <ele>63.027727</ele>
        <time>2021-09-16T06:06:20.000Z</time>
      </trkpt>
      <trkpt lat="44.46163" lon="4.69798">
        <ele>63.172864</ele>
        <time>2021-09-16T06:06:24.000Z</time>
      </trkpt>
      <trkpt lat="44.46122" lon="4.69809">
        <ele>63.401739</ele>
        <time>2021-09-16T06:06:30.000Z</time>
      </trkpt>
      <trkpt lat="44.46075" lon="4.69816">
        <ele>63.666641</ele>
        <time>2021-09-16T06:06:37.000Z</time>
      </trkpt>
      <trkpt lat="44.46027" lon="4.69815">
        <ele>63.933446</ele>
        <time>2021-09-16T06:06:44.000Z</time>
      </trkpt>
      <trkpt lat="44.45978" lon="4.69808">
        <ele>64.048749</ele>
        <time>2021-09-16T06:06:51.000Z</time>
      </trkpt>
      <trkpt lat="44.45931" lon="4.698">
        <ele>64.055962</ele>
        <time>2021-09-16T06:06:58.000Z</time>
      </trkpt>
      <trkpt lat="44.45918" lon="4.69798">
        <ele>64.057901</ele>
        <time>2021-09-16T06:07:00.000Z</time>
      </trkpt>
      <trkpt lat="44.45905" lon="4.69796">
        <ele>64.059795</ele>
        <time>2021-09-16T06:07:02.000Z</time>
      </trkpt>
      <trkpt lat="44.45867" lon="4.69787">
        <ele>64.065644</ele>
        <time>2021-09-16T06:07:08.000Z</time>
      </trkpt>
      <trkpt lat="44.45861" lon="4.69786">
        <ele>64.066638</ele>
        <time>2021-09-16T06:07:09.000Z</time>
      </trkpt>
      <trkpt lat="44.45847" lon="4.69782">
        <ele>64.068735</ele>
        <time>2021-09-16T06:07:11.000Z</time>
      </trkpt>
      <trkpt lat="44.45833" lon="4.69778">
        <ele>64.070816</ele>
        <time>2021-09-16T06:07:13.000Z</time>
      </trkpt>
      <trkpt lat="44.4582" lon="4.69775">
        <ele>64.061535</ele>
        <time>2021-09-16T06:07:15.000Z</time>
      </trkpt>
      <trkpt lat="44.45801" lon="4.6977">
        <ele>64.039982</ele>
        <time>2021-09-16T06:07:18.000Z</time>
      </trkpt>
      <trkpt lat="44.45795" lon="4.69769">
        <ele>64.033</ele>
        <time>2021-09-16T06:07:19.000Z</time>
      </trkpt>
      <trkpt lat="44.45771" lon="4.69762">
        <ele>64.003984</ele>
        <time>2021-09-16T06:07:23.000Z</time>
      </trkpt>
      <trkpt lat="44.45739" lon="4.69753">
        <ele>63.966626</ele>
        <time>2021-09-16T06:07:28.000Z</time>
      </trkpt>
      <trkpt lat="44.45707" lon="4.69744">
        <ele>63.929411</ele>
        <time>2021-09-16T06:07:33.000Z</time>
      </trkpt>
      <trkpt lat="44.45694" lon="4.6974">
        <ele>63.914439</ele>
        <time>2021-09-16T06:07:35.000Z</time>
      </trkpt>
      <trkpt lat="44.45675" lon="4.69735">
        <ele>63.892325</ele>
        <time>2021-09-16T06:07:38.000Z</time>
      </trkpt>
      <trkpt lat="44.45634" lon="4.69722">
        <ele>63.855008</ele>
        <time>2021-09-16T06:07:44.000Z</time>
      </trkpt>
      <trkpt lat="44.45595" lon="4.69707">
        <ele>63.832617</ele>
        <time>2021-09-16T06:07:50.000Z</time>
      </trkpt>
      <trkpt lat="44.45577" lon="4.697">
        <ele>63.822091</ele>
        <time>2021-09-16T06:07:53.000Z</time>
      </trkpt>
      <trkpt lat="44.45571" lon="4.69698">
        <ele>63.818308</ele>
        <time>2021-09-16T06:07:54.000Z</time>
      </trkpt>
      <trkpt lat="44.45557" lon="4.69693">
        <ele>63.810516</ele>
        <time>2021-09-16T06:07:56.000Z</time>
      </trkpt>
      <trkpt lat="44.45544" lon="4.69688">
        <ele>63.80266</ele>
        <time>2021-09-16T06:07:58.000Z</time>
      </trkpt>
      <trkpt lat="44.45531" lon="4.69681">
        <ele>63.795034</ele>
        <time>2021-09-16T06:08:00.000Z</time>
      </trkpt>
      <trkpt lat="44.45515" lon="4.69672">
        <ele>63.784971</ele>
        <time>2021-09-16T06:08:03.000Z</time>
      </trkpt>
      <trkpt lat="44.45503" lon="4.69665">
        <ele>63.777879</ele>
        <time>2021-09-16T06:08:05.000Z</time>
      </trkpt>
      <trkpt lat="44.45491" lon="4.69658">
        <ele>63.770667</ele>
        <time>2021-09-16T06:08:07.000Z</time>
      </trkpt>
      <trkpt lat="44.45456" lon="4.69638">
        <ele>63.745014</ele>
        <time>2021-09-16T06:08:13.000Z</time>
      </trkpt>
      <trkpt lat="44.45427" lon="4.69621">
        <ele>63.722706</ele>
        <time>2021-09-16T06:08:18.000Z</time>
      </trkpt>
      <trkpt lat="44.4542" lon="4.69618">
        <ele>63.71778</ele>
        <time>2021-09-16T06:08:19.000Z</time>
      </trkpt>
      <trkpt lat="44.45414" lon="4.69614">
        <ele>63.712618</ele>
        <time>2021-09-16T06:08:20.000Z</time>
      </trkpt>
      <trkpt lat="44.45402" lon="4.69611">
        <ele>63.704154</ele>
        <time>2021-09-16T06:08:22.000Z</time>
      </trkpt>
      <trkpt lat="44.45389" lon="4.69608">
        <ele>63.694704</ele>
        <time>2021-09-16T06:08:24.000Z</time>
      </trkpt>
      <trkpt lat="44.45374" lon="4.69609">
        <ele>63.684113</ele>
        <time>2021-09-16T06:08:26.000Z</time>
      </trkpt>
      <trkpt lat="44.45332" lon="4.69613">
        <ele>63.653843</ele>
        <time>2021-09-16T06:08:33.000Z</time>
      </trkpt>
      <trkpt lat="44.45322" lon="4.69614">
        <ele>63.646544</ele>
        <time>2021-09-16T06:08:35.000Z</time>
      </trkpt>
      <trkpt lat="44.45302" lon="4.69614">
        <ele>63.612508</ele>
        <time>2021-09-16T06:08:39.000Z</time>
      </trkpt>
      <trkpt lat="44.45291" lon="4.69614">
        <ele>63.56646</ele>
        <time>2021-09-16T06:08:41.000Z</time>
      </trkpt>
      <trkpt lat="44.45281" lon="4.6961">
        <ele>63.516515</ele>
        <time>2021-09-16T06:08:43.000Z</time>
      </trkpt>
      <trkpt lat="44.45273" lon="4.696">
        <ele>63.468248</ele>
        <time>2021-09-16T06:08:46.000Z</time>
      </trkpt>
      <trkpt lat="44.45264" lon="4.69583">
        <ele>63.403299</ele>
        <time>2021-09-16T06:08:51.000Z</time>
      </trkpt>
      <trkpt lat="44.45263" lon="4.69581">
        <ele>63.394728</ele>
        <time>2021-09-16T06:08:52.000Z</time>
      </trkpt>
      <trkpt lat="44.45252" lon="4.69582">
        <ele>63.343594</ele>
        <time>2021-09-16T06:08:55.000Z</time>
      </trkpt>
      <trkpt lat="44.45244" lon="4.69592">
        <ele>63.296653</ele>
        <time>2021-09-16T06:09:01.000Z</time>
      </trkpt>
      <trkpt lat="44.45238" lon="4.696">
        <ele>63.257333</ele>
        <time>2021-09-16T06:09:03.000Z</time>
      </trkpt>
      <trkpt lat="44.45232" lon="4.69603">
        <ele>63.231363</ele>
        <time>2021-09-16T06:09:04.000Z</time>
      </trkpt>
      <trkpt lat="44.45224" lon="4.69607">
        <ele>63.192702</ele>
        <time>2021-09-16T06:09:05.000Z</time>
      </trkpt>
      <trkpt lat="44.45213" lon="4.69598">
        <ele>63.136694</ele>
        <time>2021-09-16T06:09:07.000Z</time>
      </trkpt>
      <trkpt lat="44.45204" lon="4.69591">
        <ele>63.090826</ele>
        <time>2021-09-16T06:09:09.000Z</time>
      </trkpt>
      <trkpt lat="44.45188" lon="4.69579">
        <ele>63.007442</ele>
        <time>2021-09-16T06:09:12.000Z</time>
      </trkpt>
      <trkpt lat="44.4515" lon="4.69548">
        <ele>62.804325</ele>
        <time>2021-09-16T06:09:18.000Z</time>
      </trkpt>
      <trkpt lat="44.45118" lon="4.69526">
        <ele>62.600928</ele>
        <time>2021-09-16T06:09:23.000Z</time>
      </trkpt>
      <trkpt lat="44.45065" lon="4.69498">
        <ele>62.278549</ele>
        <time>2021-09-16T06:09:31.000Z</time>
      </trkpt>
      <trkpt lat="44.45014" lon="4.69471">
        <ele>61.965043</ele>
        <time>2021-09-16T06:09:39.000Z</time>
      </trkpt>
      <trkpt lat="44.44963" lon="4.69446">
        <ele>61.728863</ele>
        <time>2021-09-16T06:09:47.000Z</time>
      </trkpt>
      <trkpt lat="44.44957" lon="4.69442">
        <ele>61.71007</ele>
        <time>2021-09-16T06:09:48.000Z</time>
      </trkpt>
      <trkpt lat="44.4492" lon="4.69424">
        <ele>61.600834</ele>
        <time>2021-09-16T06:09:54.000Z</time>
      </trkpt>
      <trkpt lat="44.44914" lon="4.69417">
        <ele>61.580885</ele>
        <time>2021-09-16T06:09:55.000Z</time>
      </trkpt>
      <trkpt lat="44.44909" lon="4.69409">
        <ele>61.561033</ele>
        <time>2021-09-16T06:09:56.000Z</time>
      </trkpt>
      <trkpt lat="44.44907" lon="4.69394">
        <ele>61.528893</ele>
        <time>2021-09-16T06:09:58.000Z</time>
      </trkpt>
      <trkpt lat="44.44904" lon="4.69342">
        <ele>61.425941</ele>
        <time>2021-09-16T06:10:04.000Z</time>
      </trkpt>
      <trkpt lat="44.44902" lon="4.69287">
        <ele>61.317452</ele>
        <time>2021-09-16T06:10:10.000Z</time>
      </trkpt>
      <trkpt lat="44.44902" lon="4.69278">
        <ele>61.298489</ele>
        <time>2021-09-16T06:10:11.000Z</time>
      </trkpt>
      <trkpt lat="44.44891" lon="4.69264">
        <ele>61.240727</ele>
        <time>2021-09-16T06:10:13.000Z</time>
      </trkpt>
      <trkpt lat="44.44878" lon="4.69261">
        <ele>61.188593</ele>
        <time>2021-09-16T06:10:15.000Z</time>
      </trkpt>
      <trkpt lat="44.44871" lon="4.69261">
        <ele>61.161595</ele>
        <time>2021-09-16T06:10:16.000Z</time>
      </trkpt>
      <trkpt lat="44.4483" lon="4.69267">
        <ele>60.997543</ele>
        <time>2021-09-16T06:10:22.000Z</time>
      </trkpt>
      <trkpt lat="44.44805" lon="4.69271">
        <ele>60.897739</ele>
        <time>2021-09-16T06:10:26.000Z</time>
      </trkpt>
      <trkpt lat="44.44799" lon="4.69272">
        <ele>60.872688</ele>
        <time>2021-09-16T06:10:27.000Z</time>
      </trkpt>
      <trkpt lat="44.44793" lon="4.6927">
        <ele>60.848584</ele>
        <time>2021-09-16T06:10:28.000Z</time>
      </trkpt>
      <trkpt lat="44.44781" lon="4.69268">
        <ele>60.800333</ele>
        <time>2021-09-16T06:10:30.000Z</time>
      </trkpt>
      <trkpt lat="44.4477" lon="4.69261">
        <ele>60.752996</ele>
        <time>2021-09-16T06:10:32.000Z</time>
      </trkpt>
      <trkpt lat="44.44753" lon="4.69249">
        <ele>60.676938</ele>
        <time>2021-09-16T06:10:35.000Z</time>
      </trkpt>
      <trkpt lat="44.44731" lon="4.6923">
        <ele>60.560369</ele>
        <time>2021-09-16T06:10:39.000Z</time>
      </trkpt>
      <trkpt lat="44.44721" lon="4.69222">
        <ele>60.477306</ele>
        <time>2021-09-16T06:10:41.000Z</time>
      </trkpt>
      <trkpt lat="44.44709" lon="4.69213">
        <ele>60.377217</ele>
        <time>2021-09-16T06:10:43.000Z</time>
      </trkpt>
      <trkpt lat="44.44679" lon="4.6919">
        <ele>60.119825</ele>
        <time>2021-09-16T06:10:48.000Z</time>
      </trkpt>
      <trkpt lat="44.44653" lon="4.69171">
        <ele>59.899058</ele>
        <time>2021-09-16T06:10:52.000Z</time>
      </trkpt>
      <trkpt lat="44.4464" lon="4.69163">
        <ele>59.795515</ele>
        <time>2021-09-16T06:10:54.000Z</time>
      </trkpt>
      <trkpt lat="44.44628" lon="4.69155">
        <ele>59.695745</ele>
        <time>2021-09-16T06:10:56.000Z</time>
      </trkpt>
      <trkpt lat="44.44621" lon="4.69152">
        <ele>59.642651</ele>
        <time>2021-09-16T06:10:57.000Z</time>
      </trkpt>
      <trkpt lat="44.446" lon="4.69142">
        <ele>59.473951</ele>
        <time>2021-09-16T06:11:00.000Z</time>
      </trkpt>
      <trkpt lat="44.44573" lon="4.69131">
        <ele>59.267934</ele>
        <time>2021-09-16T06:11:04.000Z</time>
      </trkpt>
      <trkpt lat="44.44567" lon="4.69128">
        <ele>59.225631</ele>
        <time>2021-09-16T06:11:05.000Z</time>
      </trkpt>
      <trkpt lat="44.44534" lon="4.69114">
        <ele>59.037479</ele>
        <time>2021-09-16T06:11:10.000Z</time>
      </trkpt>
      <trkpt lat="44.44493" lon="4.69096">
        <ele>58.806949</ele>
        <time>2021-09-16T06:11:16.000Z</time>
      </trkpt>
      <trkpt lat="44.44458" lon="4.69074">
        <ele>58.599112</ele>
        <time>2021-09-16T06:11:21.000Z</time>
      </trkpt>
      <trkpt lat="44.44452" lon="4.69069">
        <ele>58.561226</ele>
        <time>2021-09-16T06:11:22.000Z</time>
      </trkpt>
      <trkpt lat="44.4443" lon="4.69046">
        <ele>58.413963</ele>
        <time>2021-09-16T06:11:26.000Z</time>
      </trkpt>
      <trkpt lat="44.44421" lon="4.69036">
        <ele>58.350479</ele>
        <time>2021-09-16T06:11:28.000Z</time>
      </trkpt>
      <trkpt lat="44.44416" lon="4.69032">
        <ele>58.320749</ele>
        <time>2021-09-16T06:11:29.000Z</time>
      </trkpt>
      <trkpt lat="44.44412" lon="4.69029">
        <ele>58.294133</ele>
        <time>2021-09-16T06:11:30.000Z</time>
      </trkpt>
      <trkpt lat="44.44397" lon="4.69038">
        <ele>58.322443</ele>
        <time>2021-09-16T06:11:32.000Z</time>
      </trkpt>
      <trkpt lat="44.44395" lon="4.69042">
        <ele>58.338787</ele>
        <time>2021-09-16T06:11:34.000Z</time>
      </trkpt>
      <trkpt lat="44.44386" lon="4.69056">
        <ele>58.395441</ele>
        <time>2021-09-16T06:11:35.000Z</time>
      </trkpt>
      <trkpt lat="44.44377" lon="4.69047">
        <ele>58.443011</ele>
        <time>2021-09-16T06:11:37.000Z</time>
      </trkpt>
      <trkpt lat="44.44373" lon="4.69042">
        <ele>58.467431</ele>
        <time>2021-09-16T06:11:38.000Z</time>
      </trkpt>
      <trkpt lat="44.4437" lon="4.69035">
        <ele>58.49238</ele>
        <time>2021-09-16T06:11:39.000Z</time>
      </trkpt>
      <trkpt lat="44.44364" lon="4.6902">
        <ele>58.544528</ele>
        <time>2021-09-16T06:11:41.000Z</time>
      </trkpt>
      <trkpt lat="44.44358" lon="4.69006">
        <ele>58.59566</ele>
        <time>2021-09-16T06:11:43.000Z</time>
      </trkpt>
      <trkpt lat="44.44351" lon="4.68993">
        <ele>58.646945</ele>
        <time>2021-09-16T06:11:45.000Z</time>
      </trkpt>
      <trkpt lat="44.44334" lon="4.68973">
        <ele>58.74133</ele>
        <time>2021-09-16T06:11:49.000Z</time>
      </trkpt>
      <trkpt lat="44.44312" lon="4.6894">
        <ele>58.880138</ele>
        <time>2021-09-16T06:11:54.000Z</time>
      </trkpt>
      <trkpt lat="44.4429" lon="4.68906">
        <ele>59.020391</ele>
        <time>2021-09-16T06:11:59.000Z</time>
      </trkpt>
      <trkpt lat="44.44283" lon="4.68896">
        <ele>59.045788</ele>
        <time>2021-09-16T06:12:01.000Z</time>
      </trkpt>
      <trkpt lat="44.44279" lon="4.6889">
        <ele>59.042575</ele>
        <time>2021-09-16T06:12:02.000Z</time>
      </trkpt>
      <trkpt lat="44.44275" lon="4.68884">
        <ele>59.039078</ele>
        <time>2021-09-16T06:12:03.000Z</time>
      </trkpt>
      <trkpt lat="44.44258" lon="4.68859">
        <ele>59.02435</ele>
        <time>2021-09-16T06:12:07.000Z</time>
      </trkpt>
      <trkpt lat="44.44236" lon="4.68826">
        <ele>59.00558</ele>
        <time>2021-09-16T06:12:12.000Z</time>
      </trkpt>
      <trkpt lat="44.44229" lon="4.68813">
        <ele>58.998601</ele>
        <time>2021-09-16T06:12:14.000Z</time>
      </trkpt>
      <trkpt lat="44.44217" lon="4.68792">
        <ele>58.98721</ele>
        <time>2021-09-16T06:12:17.000Z</time>
      </trkpt>
      <trkpt lat="44.44212" lon="4.68784">
        <ele>58.983004</ele>
        <time>2021-09-16T06:12:18.000Z</time>
      </trkpt>
      <trkpt lat="44.44203" lon="4.68768">
        <ele>58.974416</ele>
        <time>2021-09-16T06:12:20.000Z</time>
      </trkpt>
      <trkpt lat="44.44199" lon="4.6876">
        <ele>58.970415</ele>
        <time>2021-09-16T06:12:21.000Z</time>
      </trkpt>
      <trkpt lat="44.44195" lon="4.68754">
        <ele>58.966892</ele>
        <time>2021-09-16T06:12:22.000Z</time>
      </trkpt>
      <trkpt lat="44.44187" lon="4.68741">
        <ele>58.959623</ele>
        <time>2021-09-16T06:12:24.000Z</time>
      </trkpt>
      <trkpt lat="44.44171" lon="4.68723">
        <ele>58.94751</ele>
        <time>2021-09-16T06:12:27.000Z</time>
      </trkpt>
      <trkpt lat="44.44167" lon="4.68715">
        <ele>58.943461</ele>
        <time>2021-09-16T06:12:28.000Z</time>
      </trkpt>
      <trkpt lat="44.44163" lon="4.68708">
        <ele>58.947103</ele>
        <time>2021-09-16T06:12:29.000Z</time>
      </trkpt>
      <trkpt lat="44.44157" lon="4.68695">
        <ele>58.960412</ele>
        <time>2021-09-16T06:12:31.000Z</time>
      </trkpt>
      <trkpt lat="44.4414" lon="4.68655">
        <ele>58.997287</ele>
        <time>2021-09-16T06:12:36.000Z</time>
      </trkpt>
      <trkpt lat="44.44133" lon="4.6864">
        <ele>59.011554</ele>
        <time>2021-09-16T06:12:38.000Z</time>
      </trkpt>
      <trkpt lat="44.44121" lon="4.68621">
        <ele>59.032749</ele>
        <time>2021-09-16T06:12:41.000Z</time>
      </trkpt>
      <trkpt lat="44.44116" lon="4.68615">
        <ele>59.039539</ele>
        <time>2021-09-16T06:12:42.000Z</time>
      </trkpt>
      <trkpt lat="44.44112" lon="4.6861">
        <ele>59.046285</ele>
        <time>2021-09-16T06:12:43.000Z</time>
      </trkpt>
      <trkpt lat="44.44098" lon="4.68596">
        <ele>59.065189</ele>
        <time>2021-09-16T06:12:46.000Z</time>
      </trkpt>
      <trkpt lat="44.44083" lon="4.68577">
        <ele>59.088305</ele>
        <time>2021-09-16T06:12:49.000Z</time>
      </trkpt>
      <trkpt lat="44.44078" lon="4.68571">
        <ele>59.095532</ele>
        <time>2021-09-16T06:12:50.000Z</time>
      </trkpt>
      <trkpt lat="44.44062" lon="4.68565">
        <ele>59.114391</ele>
        <time>2021-09-16T06:12:52.000Z</time>
      </trkpt>
      <trkpt lat="44.44054" lon="4.68551">
        <ele>59.128172</ele>
        <time>2021-09-16T06:12:54.000Z</time>
      </trkpt>
      <trkpt lat="44.44047" lon="4.68533">
        <ele>59.145197</ele>
        <time>2021-09-16T06:12:56.000Z</time>
      </trkpt>
      <trkpt lat="44.44043" lon="4.68514">
        <ele>59.277535</ele>
        <time>2021-09-16T06:12:58.000Z</time>
      </trkpt>
      <trkpt lat="44.44031" lon="4.68453">
        <ele>59.700928</ele>
        <time>2021-09-16T06:13:05.000Z</time>
      </trkpt>
      <trkpt lat="44.44037" lon="4.68421">
        <ele>59.916819</ele>
        <time>2021-09-16T06:13:09.000Z</time>
      </trkpt>
      <trkpt lat="44.44039" lon="4.68415">
        <ele>59.961489</ele>
        <time>2021-09-16T06:13:10.000Z</time>
      </trkpt>
      <trkpt lat="44.44045" lon="4.68402">
        <ele>60.064854</ele>
        <time>2021-09-16T06:13:12.000Z</time>
      </trkpt>
      <trkpt lat="44.44048" lon="4.68395">
        <ele>60.120719</ele>
        <time>2021-09-16T06:13:13.000Z</time>
      </trkpt>
      <trkpt lat="44.44055" lon="4.68385">
        <ele>60.213438</ele>
        <time>2021-09-16T06:13:15.000Z</time>
      </trkpt>
      <trkpt lat="44.44055" lon="4.6837">
        <ele>60.310059</ele>
        <time>2021-09-16T06:13:17.000Z</time>
      </trkpt>
      <trkpt lat="44.44054" lon="4.68363">
        <ele>60.358281</ele>
        <time>2021-09-16T06:13:18.000Z</time>
      </trkpt>
      <trkpt lat="44.44052" lon="4.68349">
        <ele>60.454727</ele>
        <time>2021-09-16T06:13:20.000Z</time>
      </trkpt>
      <trkpt lat="44.44049" lon="4.6833">
        <ele>60.587086</ele>
        <time>2021-09-16T06:13:23.000Z</time>
      </trkpt>
      <trkpt lat="44.44047" lon="4.68298">
        <ele>60.796487</ele>
        <time>2021-09-16T06:13:27.000Z</time>
      </trkpt>
      <trkpt lat="44.44047" lon="4.68288">
        <ele>60.86986</ele>
        <time>2021-09-16T06:13:28.000Z</time>
      </trkpt>
      <trkpt lat="44.44044" lon="4.68282">
        <ele>60.929805</ele>
        <time>2021-09-16T06:13:29.000Z</time>
      </trkpt>
      <trkpt lat="44.44036" lon="4.6827">
        <ele>61.050786</ele>
        <time>2021-09-16T06:13:31.000Z</time>
      </trkpt>
      <trkpt lat="44.44023" lon="4.68259">
        <ele>61.214305</ele>
        <time>2021-09-16T06:13:34.000Z</time>
      </trkpt>
      <trkpt lat="44.44018" lon="4.68257">
        <ele>61.271174</ele>
        <time>2021-09-16T06:13:35.000Z</time>
      </trkpt>
      <trkpt lat="44.44013" lon="4.68255">
        <ele>61.331387</ele>
        <time>2021-09-16T06:13:36.000Z</time>
      </trkpt>
      <trkpt lat="44.44003" lon="4.68248">
        <ele>61.452753</ele>
        <time>2021-09-16T06:13:38.000Z</time>
      </trkpt>
      <trkpt lat="44.43999" lon="4.68244">
        <ele>61.502124</ele>
        <time>2021-09-16T06:13:39.000Z</time>
      </trkpt>
      <trkpt lat="44.43996" lon="4.68237">
        <ele>61.563896</ele>
        <time>2021-09-16T06:13:40.000Z</time>
      </trkpt>
      <trkpt lat="44.43997" lon="4.68233">
        <ele>61.598216</ele>
        <time>2021-09-16T06:13:41.000Z</time>
      </trkpt>
      <trkpt lat="44.44011" lon="4.68209">
        <ele>61.837172</ele>
        <time>2021-09-16T06:13:47.000Z</time>
      </trkpt>
      <trkpt lat="44.44017" lon="4.68201">
        <ele>61.927576</ele>
        <time>2021-09-16T06:13:49.000Z</time>
      </trkpt>
      <trkpt lat="44.44028" lon="4.68193">
        <ele>62.060629</ele>
        <time>2021-09-16T06:13:52.000Z</time>
      </trkpt>
      <trkpt lat="44.44049" lon="4.68187">
        <ele>62.292818</ele>
        <time>2021-09-16T06:13:57.000Z</time>
      </trkpt>
      <trkpt lat="44.44057" lon="4.68186">
        <ele>62.379198</ele>
        <time>2021-09-16T06:13:59.000Z</time>
      </trkpt>
      <trkpt lat="44.4406" lon="4.68185">
        <ele>62.419699</ele>
        <time>2021-09-16T06:14:00.000Z</time>
      </trkpt>
      <trkpt lat="44.44066" lon="4.68177">
        <ele>62.509029</ele>
        <time>2021-09-16T06:14:02.000Z</time>
      </trkpt>
      <trkpt lat="44.44068" lon="4.68151">
        <ele>62.712885</ele>
        <time>2021-09-16T06:14:07.000Z</time>
      </trkpt>
      <trkpt lat="44.44064" lon="4.68144">
        <ele>62.776736</ele>
        <time>2021-09-16T06:14:08.000Z</time>
      </trkpt>
      <trkpt lat="44.44058" lon="4.68141">
        <ele>62.794519</ele>
        <time>2021-09-16T06:14:10.000Z</time>
      </trkpt>
      <trkpt lat="44.44039" lon="4.68134">
        <ele>62.846071</ele>
        <time>2021-09-16T06:14:14.000Z</time>
      </trkpt>
      <trkpt lat="44.44022" lon="4.68127">
        <ele>62.890579</ele>
        <time>2021-09-16T06:14:17.000Z</time>
      </trkpt>
      <trkpt lat="44.44011" lon="4.68121">
        <ele>62.920823</ele>
        <time>2021-09-16T06:14:19.000Z</time>
      </trkpt>
      <trkpt lat="44.43993" lon="4.68126">
        <ele>62.969623</ele>
        <time>2021-09-16T06:14:22.000Z</time>
      </trkpt>
      <trkpt lat="44.43983" lon="4.68133">
        <ele>62.997828</ele>
        <time>2021-09-16T06:14:24.000Z</time>
      </trkpt>
      <trkpt lat="44.4398" lon="4.68138">
        <ele>63.010209</ele>
        <time>2021-09-16T06:14:25.000Z</time>
      </trkpt>
      <trkpt lat="44.43975" lon="4.68146">
        <ele>63.030133</ele>
        <time>2021-09-16T06:14:28.000Z</time>
      </trkpt>
      <trkpt lat="44.43985" lon="4.68146">
        <ele>63.054777</ele>
        <time>2021-09-16T06:14:36.000Z</time>
      </trkpt>
      <trkpt lat="44.4398" lon="4.68137">
        <ele>63.074521</ele>
        <time>2021-09-16T06:14:37.000Z</time>
      </trkpt>
      <trkpt lat="44.43986" lon="4.6813">
        <ele>63.094871</ele>
        <time>2021-09-16T06:14:40.000Z</time>
      </trkpt>
      <trkpt lat="44.43989" lon="4.68128">
        <ele>63.103336</ele>
        <time>2021-09-16T06:14:41.000Z</time>
      </trkpt>
      <trkpt lat="44.44" lon="4.68122">
        <ele>63.134091</ele>
        <time>2021-09-16T06:14:45.000Z</time>
      </trkpt>
      <trkpt lat="44.44002" lon="4.68121">
        <ele>63.138873</ele>
        <time>2021-09-16T06:14:46.000Z</time>
      </trkpt>
      <trkpt lat="44.44005" lon="4.68116">
        <ele>63.150377</ele>
        <time>2021-09-16T06:14:48.000Z</time>
      </trkpt>
      <trkpt lat="44.43996" lon="4.68105">
        <ele>63.180836</ele>
        <time>2021-09-16T06:14:53.000Z</time>
      </trkpt>
      <trkpt lat="44.43981" lon="4.68081">
        <ele>63.240127</ele>
        <time>2021-09-16T06:14:58.000Z</time>
      </trkpt>
      <trkpt lat="44.43959" lon="4.68038">
        <ele>63.101528</ele>
        <time>2021-09-16T06:15:05.000Z</time>
      </trkpt>
      <trkpt lat="44.43947" lon="4.68015">
        <ele>63.02575</ele>
        <time>2021-09-16T06:15:08.000Z</time>
      </trkpt>
      <trkpt lat="44.43943" lon="4.68005">
        <ele>62.995216</ele>
        <time>2021-09-16T06:15:09.000Z</time>
      </trkpt>
      <trkpt lat="44.43931" lon="4.67953">
        <ele>62.851331</ele>
        <time>2021-09-16T06:15:14.000Z</time>
      </trkpt>
      <trkpt lat="44.43931" lon="4.67933">
        <ele>62.797392</ele>
        <time>2021-09-16T06:15:16.000Z</time>
      </trkpt>
      <trkpt lat="44.43931" lon="4.67913">
        <ele>62.744022</ele>
        <time>2021-09-16T06:15:18.000Z</time>
      </trkpt>
      <trkpt lat="44.4393" lon="4.67895">
        <ele>62.694652</ele>
        <time>2021-09-16T06:15:20.000Z</time>
      </trkpt>
      <trkpt lat="44.43929" lon="4.67878">
        <ele>62.648467</ele>
        <time>2021-09-16T06:15:22.000Z</time>
      </trkpt>
      <trkpt lat="44.43916" lon="4.67827">
        <ele>62.466965</ele>
        <time>2021-09-16T06:15:28.000Z</time>
      </trkpt>
      <trkpt lat="44.4391" lon="4.67782">
        <ele>62.274904</ele>
        <time>2021-09-16T06:15:33.000Z</time>
      </trkpt>
      <trkpt lat="44.43905" lon="4.67733">
        <ele>62.067008</ele>
        <time>2021-09-16T06:15:38.000Z</time>
      </trkpt>
      <trkpt lat="44.43903" lon="4.67713">
        <ele>61.983314</ele>
        <time>2021-09-16T06:15:40.000Z</time>
      </trkpt>
      <trkpt lat="44.43901" lon="4.67693">
        <ele>61.898788</ele>
        <time>2021-09-16T06:15:42.000Z</time>
      </trkpt>
      <trkpt lat="44.43894" lon="4.67649">
        <ele>61.712846</ele>
        <time>2021-09-16T06:15:47.000Z</time>
      </trkpt>
      <trkpt lat="44.43881" lon="4.67613">
        <ele>61.539664</ele>
        <time>2021-09-16T06:15:52.000Z</time>
      </trkpt>
      <trkpt lat="44.43867" lon="4.67582">
        <ele>61.508997</ele>
        <time>2021-09-16T06:15:56.000Z</time>
      </trkpt>
      <trkpt lat="44.43842" lon="4.67526">
        <ele>61.499713</ele>
        <time>2021-09-16T06:16:03.000Z</time>
      </trkpt>
      <trkpt lat="44.43811" lon="4.67455">
        <ele>61.488205</ele>
        <time>2021-09-16T06:16:12.000Z</time>
      </trkpt>
      <trkpt lat="44.43785" lon="4.67392">
        <ele>61.476114</ele>
        <time>2021-09-16T06:16:20.000Z</time>
      </trkpt>
      <trkpt lat="44.43782" lon="4.67384">
        <ele>61.441993</ele>
        <time>2021-09-16T06:16:21.000Z</time>
      </trkpt>
      <trkpt lat="44.43769" lon="4.67352">
        <ele>61.307334</ele>
        <time>2021-09-16T06:16:25.000Z</time>
      </trkpt>
      <trkpt lat="44.43744" lon="4.67291">
        <ele>61.041407</ele>
        <time>2021-09-16T06:16:33.000Z</time>
      </trkpt>
      <trkpt lat="44.43734" lon="4.67266">
        <ele>60.933824</ele>
        <time>2021-09-16T06:16:37.000Z</time>
      </trkpt>
      <trkpt lat="44.43725" lon="4.6725">
        <ele>60.855359</ele>
        <time>2021-09-16T06:16:40.000Z</time>
      </trkpt>
      <trkpt lat="44.43721" lon="4.67244">
        <ele>60.824947</ele>
        <time>2021-09-16T06:16:41.000Z</time>
      </trkpt>
      <trkpt lat="44.43696" lon="4.67204">
        <ele>60.626509</ele>
        <time>2021-09-16T06:16:47.000Z</time>
      </trkpt>
      <trkpt lat="44.43676" lon="4.67174">
        <ele>60.464991</ele>
        <time>2021-09-16T06:16:52.000Z</time>
      </trkpt>
      <trkpt lat="44.43671" lon="4.67167">
        <ele>60.426227</ele>
        <time>2021-09-16T06:16:53.000Z</time>
      </trkpt>
      <trkpt lat="44.43667" lon="4.67161">
        <ele>60.38775</ele>
        <time>2021-09-16T06:16:54.000Z</time>
      </trkpt>
      <trkpt lat="44.43649" lon="4.67138">
        <ele>60.242459</ele>
        <time>2021-09-16T06:16:58.000Z</time>
      </trkpt>
      <trkpt lat="44.43626" lon="4.67108">
        <ele>60.060414</ele>
        <time>2021-09-16T06:17:03.000Z</time>
      </trkpt>
      <trkpt lat="44.43592" lon="4.67064">
        <ele>59.789929</ele>
        <time>2021-09-16T06:17:10.000Z</time>
      </trkpt>
      <trkpt lat="44.43564" lon="4.67031">
        <ele>59.571758</ele>
        <time>2021-09-16T06:17:16.000Z</time>
      </trkpt>
      <trkpt lat="44.43553" lon="4.67022">
        <ele>59.497602</ele>
        <time>2021-09-16T06:17:18.000Z</time>
      </trkpt>
      <trkpt lat="44.43542" lon="4.67012">
        <ele>59.430972</ele>
        <time>2021-09-16T06:17:20.000Z</time>
      </trkpt>
      <trkpt lat="44.43536" lon="4.67006">
        <ele>59.396892</ele>
        <time>2021-09-16T06:17:21.000Z</time>
      </trkpt>
      <trkpt lat="44.43515" lon="4.66983">
        <ele>59.271142</ele>
        <time>2021-09-16T06:17:25.000Z</time>
      </trkpt>
      <trkpt lat="44.43497" lon="4.66961">
        <ele>59.160584</ele>
        <time>2021-09-16T06:17:29.000Z</time>
      </trkpt>
      <trkpt lat="44.43474" lon="4.66933">
        <ele>59.016221</ele>
        <time>2021-09-16T06:17:34.000Z</time>
      </trkpt>
      <trkpt lat="44.43448" lon="4.66904">
        <ele>58.860124</ele>
        <time>2021-09-16T06:17:39.000Z</time>
      </trkpt>
      <trkpt lat="44.43426" lon="4.66882">
        <ele>58.732177</ele>
        <time>2021-09-16T06:17:43.000Z</time>
      </trkpt>
      <trkpt lat="44.4342" lon="4.66876">
        <ele>58.697348</ele>
        <time>2021-09-16T06:17:44.000Z</time>
      </trkpt>
      <trkpt lat="44.43414" lon="4.6687">
        <ele>58.662714</ele>
        <time>2021-09-16T06:17:45.000Z</time>
      </trkpt>
      <trkpt lat="44.43395" lon="4.66854">
        <ele>58.589973</ele>
        <time>2021-09-16T06:17:48.000Z</time>
      </trkpt>
      <trkpt lat="44.43356" lon="4.66826">
        <ele>58.481192</ele>
        <time>2021-09-16T06:17:54.000Z</time>
      </trkpt>
      <trkpt lat="44.43338" lon="4.66809">
        <ele>58.425942</ele>
        <time>2021-09-16T06:17:57.000Z</time>
      </trkpt>
      <trkpt lat="44.43325" lon="4.66798">
        <ele>58.38941</ele>
        <time>2021-09-16T06:17:59.000Z</time>
      </trkpt>
      <trkpt lat="44.43288" lon="4.66769">
        <ele>58.283801</ele>
        <time>2021-09-16T06:18:05.000Z</time>
      </trkpt>
      <trkpt lat="44.4326" lon="4.66747">
        <ele>58.201382</ele>
        <time>2021-09-16T06:18:10.000Z</time>
      </trkpt>
      <trkpt lat="44.43231" lon="4.66729">
        <ele>58.143535</ele>
        <time>2021-09-16T06:18:15.000Z</time>
      </trkpt>
      <trkpt lat="44.43204" lon="4.66713">
        <ele>58.096036</ele>
        <time>2021-09-16T06:18:20.000Z</time>
      </trkpt>
      <trkpt lat="44.43166" lon="4.6669">
        <ele>58.030293</ele>
        <time>2021-09-16T06:18:26.000Z</time>
      </trkpt>
      <trkpt lat="44.43136" lon="4.66672">
        <ele>57.977833</ele>
        <time>2021-09-16T06:18:31.000Z</time>
      </trkpt>
      <trkpt lat="44.431" lon="4.66649">
        <ele>57.914244</ele>
        <time>2021-09-16T06:18:37.000Z</time>
      </trkpt>
      <trkpt lat="44.43089" lon="4.66642">
        <ele>57.894934</ele>
        <time>2021-09-16T06:18:39.000Z</time>
      </trkpt>
      <trkpt lat="44.43072" lon="4.66631">
        <ele>57.873674</ele>
        <time>2021-09-16T06:18:42.000Z</time>
      </trkpt>
      <trkpt lat="44.43032" lon="4.66606">
        <ele>57.829142</ele>
        <time>2021-09-16T06:18:49.000Z</time>
      </trkpt>
      <trkpt lat="44.43004" lon="4.66589">
        <ele>57.797827</ele>
        <time>2021-09-16T06:18:54.000Z</time>
      </trkpt>
      <trkpt lat="44.42987" lon="4.66578">
        <ele>57.778688</ele>
        <time>2021-09-16T06:18:57.000Z</time>
      </trkpt>
      <trkpt lat="44.42975" lon="4.66572">
        <ele>57.766289</ele>
        <time>2021-09-16T06:18:59.000Z</time>
      </trkpt>
      <trkpt lat="44.42957" lon="4.66563">
        <ele>57.746975</ele>
        <time>2021-09-16T06:19:02.000Z</time>
      </trkpt>
      <trkpt lat="44.42947" lon="4.66558">
        <ele>57.736043</ele>
        <time>2021-09-16T06:19:04.000Z</time>
      </trkpt>
      <trkpt lat="44.42942" lon="4.66556">
        <ele>57.730491</ele>
        <time>2021-09-16T06:19:05.000Z</time>
      </trkpt>
      <trkpt lat="44.42925" lon="4.66551">
        <ele>57.712694</ele>
        <time>2021-09-16T06:19:08.000Z</time>
      </trkpt>
      <trkpt lat="44.42909" lon="4.66544">
        <ele>57.779467</ele>
        <time>2021-09-16T06:19:11.000Z</time>
      </trkpt>
      <trkpt lat="44.42898" lon="4.6654">
        <ele>57.854156</ele>
        <time>2021-09-16T06:19:13.000Z</time>
      </trkpt>
      <trkpt lat="44.42886" lon="4.66535">
        <ele>57.935296</ele>
        <time>2021-09-16T06:19:15.000Z</time>
      </trkpt>
      <trkpt lat="44.42876" lon="4.66529">
        <ele>58.008656</ele>
        <time>2021-09-16T06:19:17.000Z</time>
      </trkpt>
      <trkpt lat="44.42831" lon="4.66505">
        <ele>58.333926</ele>
        <time>2021-09-16T06:19:25.000Z</time>
      </trkpt>
      <trkpt lat="44.42791" lon="4.66485">
        <ele>58.614243</ele>
        <time>2021-09-16T06:19:32.000Z</time>
      </trkpt>
      <trkpt lat="44.42757" lon="4.66469">
        <ele>58.853732</ele>
        <time>2021-09-16T06:19:38.000Z</time>
      </trkpt>
      <trkpt lat="44.42745" lon="4.66464">
        <ele>58.923421</ele>
        <time>2021-09-16T06:19:40.000Z</time>
      </trkpt>
      <trkpt lat="44.42734" lon="4.66459">
        <ele>58.964561</ele>
        <time>2021-09-16T06:19:42.000Z</time>
      </trkpt>
      <trkpt lat="44.42723" lon="4.66454">
        <ele>59.003911</ele>
        <time>2021-09-16T06:19:44.000Z</time>
      </trkpt>
      <trkpt lat="44.42712" lon="4.6645">
        <ele>59.041799</ele>
        <time>2021-09-16T06:19:46.000Z</time>
      </trkpt>
      <trkpt lat="44.42707" lon="4.66448">
        <ele>59.060837</ele>
        <time>2021-09-16T06:19:47.000Z</time>
      </trkpt>
      <trkpt lat="44.42669" lon="4.66433">
        <ele>59.197202</ele>
        <time>2021-09-16T06:19:53.000Z</time>
      </trkpt>
      <trkpt lat="44.42634" lon="4.66416">
        <ele>59.324867</ele>
        <time>2021-09-16T06:19:59.000Z</time>
      </trkpt>
      <trkpt lat="44.42628" lon="4.66414">
        <ele>59.345263</ele>
        <time>2021-09-16T06:20:00.000Z</time>
      </trkpt>
      <trkpt lat="44.42611" lon="4.66406">
        <ele>59.406316</ele>
        <time>2021-09-16T06:20:03.000Z</time>
      </trkpt>
      <trkpt lat="44.42605" lon="4.66404">
        <ele>59.42701</ele>
        <time>2021-09-16T06:20:04.000Z</time>
      </trkpt>
      <trkpt lat="44.42568" lon="4.6639">
        <ele>59.451408</ele>
        <time>2021-09-16T06:20:10.000Z</time>
      </trkpt>
      <trkpt lat="44.42563" lon="4.66388">
        <ele>59.408232</ele>
        <time>2021-09-16T06:20:11.000Z</time>
      </trkpt>
      <trkpt lat="44.42545" lon="4.66381">
        <ele>59.252708</ele>
        <time>2021-09-16T06:20:14.000Z</time>
      </trkpt>
      <trkpt lat="44.42515" lon="4.6637">
        <ele>58.993656</ele>
        <time>2021-09-16T06:20:19.000Z</time>
      </trkpt>
      <trkpt lat="44.42509" lon="4.66367">
        <ele>58.941815</ele>
        <time>2021-09-16T06:20:20.000Z</time>
      </trkpt>
      <trkpt lat="44.42492" lon="4.66361">
        <ele>58.797617</ele>
        <time>2021-09-16T06:20:23.000Z</time>
      </trkpt>
      <trkpt lat="44.42469" lon="4.66354">
        <ele>58.596622</ele>
        <time>2021-09-16T06:20:27.000Z</time>
      </trkpt>
      <trkpt lat="44.42463" lon="4.66352">
        <ele>58.545223</ele>
        <time>2021-09-16T06:20:28.000Z</time>
      </trkpt>
      <trkpt lat="44.42446" lon="4.66346">
        <ele>58.398872</ele>
        <time>2021-09-16T06:20:31.000Z</time>
      </trkpt>
      <trkpt lat="44.42439" lon="4.66344">
        <ele>58.340574</ele>
        <time>2021-09-16T06:20:32.000Z</time>
      </trkpt>
      <trkpt lat="44.42429" lon="4.66341">
        <ele>58.252084</ele>
        <time>2021-09-16T06:20:34.000Z</time>
      </trkpt>
      <trkpt lat="44.42418" lon="4.66338">
        <ele>58.160209</ele>
        <time>2021-09-16T06:20:36.000Z</time>
      </trkpt>
      <trkpt lat="44.42405" lon="4.66334">
        <ele>58.048598</ele>
        <time>2021-09-16T06:20:38.000Z</time>
      </trkpt>
      <trkpt lat="44.42371" lon="4.66324">
        <ele>57.751601</ele>
        <time>2021-09-16T06:20:43.000Z</time>
      </trkpt>
      <trkpt lat="44.42339" lon="4.66315">
        <ele>57.459879</ele>
        <time>2021-09-16T06:20:48.000Z</time>
      </trkpt>
      <trkpt lat="44.42328" lon="4.66312">
        <ele>57.362436</ele>
        <time>2021-09-16T06:20:50.000Z</time>
      </trkpt>
      <trkpt lat="44.42316" lon="4.66309">
        <ele>57.255752</ele>
        <time>2021-09-16T06:20:52.000Z</time>
      </trkpt>
      <trkpt lat="44.42292" lon="4.66303">
        <ele>57.039794</ele>
        <time>2021-09-16T06:20:56.000Z</time>
      </trkpt>
      <trkpt lat="44.42258" lon="4.66295">
        <ele>56.745416</ele>
        <time>2021-09-16T06:21:01.000Z</time>
      </trkpt>
      <trkpt lat="44.42222" lon="4.66286">
        <ele>56.437632</ele>
        <time>2021-09-16T06:21:07.000Z</time>
      </trkpt>
      <trkpt lat="44.42198" lon="4.66281">
        <ele>56.328359</ele>
        <time>2021-09-16T06:21:11.000Z</time>
      </trkpt>
      <trkpt lat="44.42159" lon="4.66271">
        <ele>56.148156</ele>
        <time>2021-09-16T06:21:17.000Z</time>
      </trkpt>
      <trkpt lat="44.42136" lon="4.66267">
        <ele>56.041486</ele>
        <time>2021-09-16T06:21:21.000Z</time>
      </trkpt>
      <trkpt lat="44.42099" lon="4.66259">
        <ele>55.868579</ele>
        <time>2021-09-16T06:21:27.000Z</time>
      </trkpt>
      <trkpt lat="44.42053" lon="4.66249">
        <ele>55.658435</ele>
        <time>2021-09-16T06:21:34.000Z</time>
      </trkpt>
      <trkpt lat="44.42014" lon="4.66242">
        <ele>55.326618</ele>
        <time>2021-09-16T06:21:40.000Z</time>
      </trkpt>
      <trkpt lat="44.4197" lon="4.66235">
        <ele>54.937431</ele>
        <time>2021-09-16T06:21:47.000Z</time>
      </trkpt>
      <trkpt lat="44.41933" lon="4.6623">
        <ele>54.60553</ele>
        <time>2021-09-16T06:21:53.000Z</time>
      </trkpt>
      <trkpt lat="44.41928" lon="4.66229">
        <ele>54.558951</ele>
        <time>2021-09-16T06:21:54.000Z</time>
      </trkpt>
      <trkpt lat="44.41916" lon="4.66228">
        <ele>54.453333</ele>
        <time>2021-09-16T06:21:56.000Z</time>
      </trkpt>
      <trkpt lat="44.41904" lon="4.66227">
        <ele>54.347716</ele>
        <time>2021-09-16T06:21:58.000Z</time>
      </trkpt>
      <trkpt lat="44.41893" lon="4.66226">
        <ele>54.242098</ele>
        <time>2021-09-16T06:22:00.000Z</time>
      </trkpt>
      <trkpt lat="44.41874" lon="4.66224">
        <ele>54.074721</ele>
        <time>2021-09-16T06:22:03.000Z</time>
      </trkpt>
      <trkpt lat="44.41848" lon="4.66221">
        <ele>54.044862</ele>
        <time>2021-09-16T06:22:07.000Z</time>
      </trkpt>
      <trkpt lat="44.41806" lon="4.66217">
        <ele>54.073829</ele>
        <time>2021-09-16T06:22:13.000Z</time>
      </trkpt>
      <trkpt lat="44.4176" lon="4.66212">
        <ele>54.105851</ele>
        <time>2021-09-16T06:22:20.000Z</time>
      </trkpt>
      <trkpt lat="44.41735" lon="4.66209">
        <ele>54.123287</ele>
        <time>2021-09-16T06:22:24.000Z</time>
      </trkpt>
      <trkpt lat="44.4169" lon="4.66208">
        <ele>54.154261</ele>
        <time>2021-09-16T06:22:31.000Z</time>
      </trkpt>
      <trkpt lat="44.41683" lon="4.6622">
        <ele>54.239431</ele>
        <time>2021-09-16T06:22:33.000Z</time>
      </trkpt>
      <trkpt lat="44.41682" lon="4.66241">
        <ele>54.357134</ele>
        <time>2021-09-16T06:22:35.000Z</time>
      </trkpt>
      <trkpt lat="44.41683" lon="4.66251">
        <ele>54.409956</ele>
        <time>2021-09-16T06:22:36.000Z</time>
      </trkpt>
      <trkpt lat="44.41684" lon="4.66259">
        <ele>54.455442</ele>
        <time>2021-09-16T06:22:37.000Z</time>
      </trkpt>
      <trkpt lat="44.41685" lon="4.66276">
        <ele>54.551411</ele>
        <time>2021-09-16T06:22:39.000Z</time>
      </trkpt>
      <trkpt lat="44.41686" lon="4.66284">
        <ele>54.596896</ele>
        <time>2021-09-16T06:22:40.000Z</time>
      </trkpt>
      <trkpt lat="44.41688" lon="4.66296">
        <ele>54.670303</ele>
        <time>2021-09-16T06:22:42.000Z</time>
      </trkpt>
      <trkpt lat="44.4168" lon="4.66298">
        <ele>54.733771</ele>
        <time>2021-09-16T06:22:43.000Z</time>
      </trkpt>
      <trkpt lat="44.41674" lon="4.66299">
        <ele>54.77647</ele>
        <time>2021-09-16T06:22:44.000Z</time>
      </trkpt>
      <trkpt lat="44.41668" lon="4.663">
        <ele>54.826326</ele>
        <time>2021-09-16T06:22:45.000Z</time>
      </trkpt>
      <trkpt lat="44.41662" lon="4.66301">
        <ele>54.873776</ele>
        <time>2021-09-16T06:22:46.000Z</time>
      </trkpt>
      <trkpt lat="44.41653" lon="4.66302">
        <ele>54.948108</ele>
        <time>2021-09-16T06:22:48.000Z</time>
      </trkpt>
      <trkpt lat="44.41648" lon="4.66302">
        <ele>54.981995</ele>
        <time>2021-09-16T06:22:49.000Z</time>
      </trkpt>
      <trkpt lat="44.41639" lon="4.66303">
        <ele>55.056046</ele>
        <time>2021-09-16T06:22:51.000Z</time>
      </trkpt>
      <trkpt lat="44.41628" lon="4.66304">
        <ele>55.139519</ele>
        <time>2021-09-16T06:22:53.000Z</time>
      </trkpt>
      <trkpt lat="44.41588" lon="4.66307">
        <ele>55.460028</ele>
        <time>2021-09-16T06:23:00.000Z</time>
      </trkpt>
      <trkpt lat="44.41558" lon="4.66309">
        <ele>55.674467</ele>
        <time>2021-09-16T06:23:05.000Z</time>
      </trkpt>
      <trkpt lat="44.41523" lon="4.66311">
        <ele>55.915316</ele>
        <time>2021-09-16T06:23:11.000Z</time>
      </trkpt>
      <trkpt lat="44.41499" lon="4.66312">
        <ele>56.079054</ele>
        <time>2021-09-16T06:23:15.000Z</time>
      </trkpt>
      <trkpt lat="44.41461" lon="4.66314">
        <ele>56.336839</ele>
        <time>2021-09-16T06:23:21.000Z</time>
      </trkpt>
      <trkpt lat="44.41423" lon="4.66308">
        <ele>56.601929</ele>
        <time>2021-09-16T06:23:27.000Z</time>
      </trkpt>
      <trkpt lat="44.41385" lon="4.66303">
        <ele>56.740282</ele>
        <time>2021-09-16T06:23:33.000Z</time>
      </trkpt>
      <trkpt lat="44.41366" lon="4.66301">
        <ele>56.630193</ele>
        <time>2021-09-16T06:23:36.000Z</time>
      </trkpt>
      <trkpt lat="44.41348" lon="4.66298">
        <ele>56.523546</ele>
        <time>2021-09-16T06:23:39.000Z</time>
      </trkpt>
      <trkpt lat="44.41325" lon="4.66294">
        <ele>56.389401</ele>
        <time>2021-09-16T06:23:43.000Z</time>
      </trkpt>
      <trkpt lat="44.413" lon="4.66289">
        <ele>56.24588</ele>
        <time>2021-09-16T06:23:47.000Z</time>
      </trkpt>
      <trkpt lat="44.41271" lon="4.66284">
        <ele>56.07423</ele>
        <time>2021-09-16T06:23:52.000Z</time>
      </trkpt>
      <trkpt lat="44.41264" lon="4.66283">
        <ele>56.034421</ele>
        <time>2021-09-16T06:23:53.000Z</time>
      </trkpt>
      <trkpt lat="44.41251" lon="4.6628">
        <ele>55.954751</ele>
        <time>2021-09-16T06:23:55.000Z</time>
      </trkpt>
      <trkpt lat="44.41231" lon="4.66277">
        <ele>55.838206</ele>
        <time>2021-09-16T06:23:58.000Z</time>
      </trkpt>
      <trkpt lat="44.41201" lon="4.66271">
        <ele>55.522906</ele>
        <time>2021-09-16T06:24:02.000Z</time>
      </trkpt>
      <trkpt lat="44.41182" lon="4.66265">
        <ele>55.237218</ele>
        <time>2021-09-16T06:24:05.000Z</time>
      </trkpt>
      <trkpt lat="44.41146" lon="4.66254">
        <ele>54.690492</ele>
        <time>2021-09-16T06:24:11.000Z</time>
      </trkpt>
      <trkpt lat="44.41135" lon="4.6625">
        <ele>54.517917</ele>
        <time>2021-09-16T06:24:14.000Z</time>
      </trkpt>
      <trkpt lat="44.41118" lon="4.66247">
        <ele>54.270659</ele>
        <time>2021-09-16T06:24:17.000Z</time>
      </trkpt>
      <trkpt lat="44.41087" lon="4.66247">
        <ele>53.797116</ele>
        <time>2021-09-16T06:24:22.000Z</time>
      </trkpt>
      <trkpt lat="44.41061" lon="4.66245">
        <ele>53.410656</ele>
        <time>2021-09-16T06:24:26.000Z</time>
      </trkpt>
      <trkpt lat="44.41048" lon="4.66243">
        <ele>53.223738</ele>
        <time>2021-09-16T06:24:28.000Z</time>
      </trkpt>
      <trkpt lat="44.41035" lon="4.66242">
        <ele>53.026422</ele>
        <time>2021-09-16T06:24:30.000Z</time>
      </trkpt>
      <trkpt lat="44.4103" lon="4.66241">
        <ele>52.926808</ele>
        <time>2021-09-16T06:24:31.000Z</time>
      </trkpt>
      <trkpt lat="44.41026" lon="4.66241">
        <ele>52.861499</ele>
        <time>2021-09-16T06:24:32.000Z</time>
      </trkpt>
      <trkpt lat="44.41019" lon="4.66217">
        <ele>52.548941</ele>
        <time>2021-09-16T06:24:34.000Z</time>
      </trkpt>
      <trkpt lat="44.41019" lon="4.66201">
        <ele>52.354468</ele>
        <time>2021-09-16T06:24:36.000Z</time>
      </trkpt>
      <trkpt lat="44.41019" lon="4.66185">
        <ele>52.161269</ele>
        <time>2021-09-16T06:24:38.000Z</time>
      </trkpt>
      <trkpt lat="44.41017" lon="4.6617">
        <ele>51.972895</ele>
        <time>2021-09-16T06:24:40.000Z</time>
      </trkpt>
      <trkpt lat="44.4098" lon="4.66153">
        <ele>51.308683</ele>
        <time>2021-09-16T06:24:45.000Z</time>
      </trkpt>
      <trkpt lat="44.4097" lon="4.66149">
        <ele>51.120377</ele>
        <time>2021-09-16T06:24:47.000Z</time>
      </trkpt>
      <trkpt lat="44.40966" lon="4.66149">
        <ele>51.058583</ele>
        <time>2021-09-16T06:24:48.000Z</time>
      </trkpt>
      <trkpt lat="44.40949" lon="4.66161">
        <ele>50.743263</ele>
        <time>2021-09-16T06:24:52.000Z</time>
      </trkpt>
      <trkpt lat="44.40943" lon="4.66162">
        <ele>50.630538</ele>
        <time>2021-09-16T06:24:53.000Z</time>
      </trkpt>
      <trkpt lat="44.40936" lon="4.66159">
        <ele>50.49937</ele>
        <time>2021-09-16T06:24:54.000Z</time>
      </trkpt>
      <trkpt lat="44.40914" lon="4.6614">
        <ele>50.055902</ele>
        <time>2021-09-16T06:24:58.000Z</time>
      </trkpt>
      <trkpt lat="44.40908" lon="4.66136">
        <ele>50.01177</ele>
        <time>2021-09-16T06:24:59.000Z</time>
      </trkpt>
      <trkpt lat="44.40898" lon="4.66128">
        <ele>50.081295</ele>
        <time>2021-09-16T06:25:01.000Z</time>
      </trkpt>
      <trkpt lat="44.40891" lon="4.6612">
        <ele>50.136268</ele>
        <time>2021-09-16T06:25:03.000Z</time>
      </trkpt>
      <trkpt lat="44.40882" lon="4.66116">
        <ele>50.190641</ele>
        <time>2021-09-16T06:25:05.000Z</time>
      </trkpt>
      <trkpt lat="44.40873" lon="4.66113">
        <ele>50.242702</ele>
        <time>2021-09-16T06:25:07.000Z</time>
      </trkpt>
      <trkpt lat="44.40864" lon="4.66112">
        <ele>50.297325</ele>
        <time>2021-09-16T06:25:09.000Z</time>
      </trkpt>
      <trkpt lat="44.4085" lon="4.66112">
        <ele>50.38404</ele>
        <time>2021-09-16T06:25:12.000Z</time>
      </trkpt>
      <trkpt lat="44.4084" lon="4.66114">
        <ele>50.444826</ele>
        <time>2021-09-16T06:25:14.000Z</time>
      </trkpt>
      <trkpt lat="44.40803" lon="4.66126">
        <ele>50.669442</ele>
        <time>2021-09-16T06:25:20.000Z</time>
      </trkpt>
      <trkpt lat="44.40793" lon="4.6613">
        <ele>50.733599</ele>
        <time>2021-09-16T06:25:22.000Z</time>
      </trkpt>
      <trkpt lat="44.40787" lon="4.66133">
        <ele>50.771036</ele>
        <time>2021-09-16T06:25:23.000Z</time>
      </trkpt>
      <trkpt lat="44.40781" lon="4.66135">
        <ele>50.807087</ele>
        <time>2021-09-16T06:25:24.000Z</time>
      </trkpt>
      <trkpt lat="44.40763" lon="4.66142">
        <ele>50.919271</ele>
        <time>2021-09-16T06:25:27.000Z</time>
      </trkpt>
      <trkpt lat="44.40751" lon="4.66145">
        <ele>50.990564</ele>
        <time>2021-09-16T06:25:29.000Z</time>
      </trkpt>
      <trkpt lat="44.40745" lon="4.66147">
        <ele>51.030108</ele>
        <time>2021-09-16T06:25:30.000Z</time>
      </trkpt>
      <trkpt lat="44.4071" lon="4.66155">
        <ele>51.119019</ele>
        <time>2021-09-16T06:25:35.000Z</time>
      </trkpt>
      <trkpt lat="44.40683" lon="4.66161">
        <ele>51.164056</ele>
        <time>2021-09-16T06:25:39.000Z</time>
      </trkpt>
      <trkpt lat="44.40677" lon="4.66163">
        <ele>51.174852</ele>
        <time>2021-09-16T06:25:40.000Z</time>
      </trkpt>
      <trkpt lat="44.40665" lon="4.66166">
        <ele>51.195904</ele>
        <time>2021-09-16T06:25:42.000Z</time>
      </trkpt>
      <trkpt lat="44.40654" lon="4.66168">
        <ele>51.21527</ele>
        <time>2021-09-16T06:25:44.000Z</time>
      </trkpt>
      <trkpt lat="44.40609" lon="4.66179">
        <ele>51.291634</ele>
        <time>2021-09-16T06:25:51.000Z</time>
      </trkpt>
      <trkpt lat="44.40577" lon="4.66186">
        <ele>51.34626</ele>
        <time>2021-09-16T06:25:56.000Z</time>
      </trkpt>
      <trkpt lat="44.40571" lon="4.66188">
        <ele>51.357056</ele>
        <time>2021-09-16T06:25:57.000Z</time>
      </trkpt>
      <trkpt lat="44.40545" lon="4.66192">
        <ele>51.190785</ele>
        <time>2021-09-16T06:26:01.000Z</time>
      </trkpt>
      <trkpt lat="44.4051" lon="4.66197">
        <ele>50.767999</ele>
        <time>2021-09-16T06:26:06.000Z</time>
      </trkpt>
      <trkpt lat="44.40504" lon="4.66184">
        <ele>50.630022</ele>
        <time>2021-09-16T06:26:09.000Z</time>
      </trkpt>
      <trkpt lat="44.40496" lon="4.6617">
        <ele>50.481456</ele>
        <time>2021-09-16T06:26:11.000Z</time>
      </trkpt>
      <trkpt lat="44.40487" lon="4.66156">
        <ele>50.329421</ele>
        <time>2021-09-16T06:26:13.000Z</time>
      </trkpt>
      <trkpt lat="44.40485" lon="4.66133">
        <ele>50.128801</ele>
        <time>2021-09-16T06:26:16.000Z</time>
      </trkpt>
      <trkpt lat="44.40484" lon="4.66124">
        <ele>50.052722</ele>
        <time>2021-09-16T06:26:17.000Z</time>
      </trkpt>
      <trkpt lat="44.40482" lon="4.66115">
        <ele>49.968085</ele>
        <time>2021-09-16T06:26:18.000Z</time>
      </trkpt>
      <trkpt lat="44.40474" lon="4.66101">
        <ele>49.826736</ele>
        <time>2021-09-16T06:26:20.000Z</time>
      </trkpt>
      <trkpt lat="44.40464" lon="4.66097">
        <ele>49.698975</ele>
        <time>2021-09-16T06:26:22.000Z</time>
      </trkpt>
      <trkpt lat="44.40459" lon="4.66094">
        <ele>49.636353</ele>
        <time>2021-09-16T06:26:23.000Z</time>
      </trkpt>
      <trkpt lat="44.40454" lon="4.66092">
        <ele>49.572608</ele>
        <time>2021-09-16T06:26:24.000Z</time>
      </trkpt>
      <trkpt lat="44.40445" lon="4.66084">
        <ele>49.448348</ele>
        <time>2021-09-16T06:26:26.000Z</time>
      </trkpt>
      <trkpt lat="44.40442" lon="4.66079">
        <ele>49.391673</ele>
        <time>2021-09-16T06:26:27.000Z</time>
      </trkpt>
      <trkpt lat="44.40436" lon="4.66069">
        <ele>49.278965</ele>
        <time>2021-09-16T06:26:29.000Z</time>
      </trkpt>
      <trkpt lat="44.40429" lon="4.66059">
        <ele>49.268447</ele>
        <time>2021-09-16T06:26:31.000Z</time>
      </trkpt>
      <trkpt lat="44.40424" lon="4.66049">
        <ele>49.302349</ele>
        <time>2021-09-16T06:26:33.000Z</time>
      </trkpt>
      <trkpt lat="44.40417" lon="4.66039">
        <ele>49.338475</ele>
        <time>2021-09-16T06:26:35.000Z</time>
      </trkpt>
      <trkpt lat="44.40399" lon="4.66008">
        <ele>49.447034</ele>
        <time>2021-09-16T06:26:40.000Z</time>
      </trkpt>
      <trkpt lat="44.40384" lon="4.65976">
        <ele>49.550834</ele>
        <time>2021-09-16T06:26:45.000Z</time>
      </trkpt>
      <trkpt lat="44.40382" lon="4.65971">
        <ele>49.5685</ele>
        <time>2021-09-16T06:26:46.000Z</time>
      </trkpt>
      <trkpt lat="44.40379" lon="4.6597">
        <ele>49.578374</ele>
        <time>2021-09-16T06:26:48.000Z</time>
      </trkpt>
      <trkpt lat="44.40371" lon="4.65972">
        <ele>49.608164</ele>
        <time>2021-09-16T06:26:52.000Z</time>
      </trkpt>
      <trkpt lat="44.40369" lon="4.65973">
        <ele>49.616675</ele>
        <time>2021-09-16T06:26:54.000Z</time>
      </trkpt>
      <trkpt lat="44.40364" lon="4.65974">
        <ele>49.638806</ele>
        <time>2021-09-16T06:26:57.000Z</time>
      </trkpt>
      <trkpt lat="44.40355" lon="4.65977">
        <ele>49.673703</ele>
        <time>2021-09-16T06:27:00.000Z</time>
      </trkpt>
      <trkpt lat="44.40351" lon="4.65978">
        <ele>49.686283</ele>
        <time>2021-09-16T06:27:01.000Z</time>
      </trkpt>
      <trkpt lat="44.40348" lon="4.65976">
        <ele>49.701071</ele>
        <time>2021-09-16T06:27:02.000Z</time>
      </trkpt>
      <trkpt lat="44.40344" lon="4.65967">
        <ele>49.730058</ele>
        <time>2021-09-16T06:27:04.000Z</time>
      </trkpt>
      <trkpt lat="44.40322" lon="4.65917">
        <ele>49.889401</ele>
        <time>2021-09-16T06:27:10.000Z</time>
      </trkpt>
      <trkpt lat="44.40301" lon="4.65874">
        <ele>50.212291</ele>
        <time>2021-09-16T06:27:17.000Z</time>
      </trkpt>
      <trkpt lat="44.40276" lon="4.65824">
        <ele>50.670025</ele>
        <time>2021-09-16T06:27:23.000Z</time>
      </trkpt>
      <trkpt lat="44.40276" lon="4.65824">
        <ele>50.670025</ele>
        <time>2021-09-16T06:27:24.000Z</time>
      </trkpt>
      <trkpt lat="44.40263" lon="4.65784">
        <ele>50.995748</ele>
        <time>2021-09-16T06:27:29.000Z</time>
      </trkpt>
      <trkpt lat="44.40254" lon="4.6577">
        <ele>51.140874</ele>
        <time>2021-09-16T06:27:31.000Z</time>
      </trkpt>
      <trkpt lat="44.40244" lon="4.65775">
        <ele>51.251269</ele>
        <time>2021-09-16T06:27:33.000Z</time>
      </trkpt>
      <trkpt lat="44.40239" lon="4.65778">
        <ele>51.311175</ele>
        <time>2021-09-16T06:27:34.000Z</time>
      </trkpt>
      <trkpt lat="44.40233" lon="4.65782">
        <ele>51.373294</ele>
        <time>2021-09-16T06:27:35.000Z</time>
      </trkpt>
      <trkpt lat="44.40226" lon="4.65794">
        <ele>51.497217</ele>
        <time>2021-09-16T06:27:37.000Z</time>
      </trkpt>
      <trkpt lat="44.40216" lon="4.65833">
        <ele>51.798588</ele>
        <time>2021-09-16T06:27:42.000Z</time>
      </trkpt>
      <trkpt lat="44.40199" lon="4.65906">
        <ele>52.234754</ele>
        <time>2021-09-16T06:27:51.000Z</time>
      </trkpt>
      <trkpt lat="44.40185" lon="4.65964">
        <ele>52.576872</ele>
        <time>2021-09-16T06:27:58.000Z</time>
      </trkpt>
      <trkpt lat="44.40183" lon="4.65972">
        <ele>52.625731</ele>
        <time>2021-09-16T06:27:59.000Z</time>
      </trkpt>
      <trkpt lat="44.4018" lon="4.65979">
        <ele>52.673481</ele>
        <time>2021-09-16T06:28:00.000Z</time>
      </trkpt>
      <trkpt lat="44.40174" lon="4.65983">
        <ele>52.725309</ele>
        <time>2021-09-16T06:28:01.000Z</time>
      </trkpt>
      <trkpt lat="44.40168" lon="4.65984">
        <ele>52.773572</ele>
        <time>2021-09-16T06:28:02.000Z</time>
      </trkpt>
      <trkpt lat="44.40137" lon="4.65979">
        <ele>53.021429</ele>
        <time>2021-09-16T06:28:07.000Z</time>
      </trkpt>
      <trkpt lat="44.4008" lon="4.6597">
        <ele>53.338505</ele>
        <time>2021-09-16T06:28:16.000Z</time>
      </trkpt>
      <trkpt lat="44.40068" lon="4.65969">
        <ele>53.385022</ele>
        <time>2021-09-16T06:28:18.000Z</time>
      </trkpt>
      <trkpt lat="44.40056" lon="4.65971">
        <ele>53.428847</ele>
        <time>2021-09-16T06:28:20.000Z</time>
      </trkpt>
      <trkpt lat="44.4005" lon="4.65973">
        <ele>53.448895</ele>
        <time>2021-09-16T06:28:21.000Z</time>
      </trkpt>
      <trkpt lat="44.40031" lon="4.65988">
        <ele>53.531641</ele>
        <time>2021-09-16T06:28:25.000Z</time>
      </trkpt>
      <trkpt lat="44.40026" lon="4.65991">
        <ele>53.553029</ele>
        <time>2021-09-16T06:28:26.000Z</time>
      </trkpt>
      <trkpt lat="44.4002" lon="4.65995">
        <ele>53.574861</ele>
        <time>2021-09-16T06:28:27.000Z</time>
      </trkpt>
      <trkpt lat="44.4" lon="4.65997">
        <ele>53.648872</ele>
        <time>2021-09-16T06:28:30.000Z</time>
      </trkpt>
      <trkpt lat="44.39954" lon="4.65981">
        <ele>53.822691</ele>
        <time>2021-09-16T06:28:37.000Z</time>
      </trkpt>
      <trkpt lat="44.399" lon="4.6596">
        <ele>54.025297</ele>
        <time>2021-09-16T06:28:45.000Z</time>
      </trkpt>
      <trkpt lat="44.39894" lon="4.65958">
        <ele>54.048815</ele>
        <time>2021-09-16T06:28:46.000Z</time>
      </trkpt>
      <trkpt lat="44.39881" lon="4.65953">
        <ele>54.094884</ele>
        <time>2021-09-16T06:28:48.000Z</time>
      </trkpt>
      <trkpt lat="44.39869" lon="4.65947">
        <ele>54.141531</ele>
        <time>2021-09-16T06:28:50.000Z</time>
      </trkpt>
      <trkpt lat="44.39864" lon="4.65942">
        <ele>54.163114</ele>
        <time>2021-09-16T06:28:51.000Z</time>
      </trkpt>
      <trkpt lat="44.39848" lon="4.65932">
        <ele>54.224292</ele>
        <time>2021-09-16T06:28:54.000Z</time>
      </trkpt>
      <trkpt lat="44.39826" lon="4.65927">
        <ele>54.304485</ele>
        <time>2021-09-16T06:28:58.000Z</time>
      </trkpt>
      <trkpt lat="44.39821" lon="4.65926">
        <ele>54.322076</ele>
        <time>2021-09-16T06:28:59.000Z</time>
      </trkpt>
      <trkpt lat="44.3981" lon="4.65921">
        <ele>54.363996</ele>
        <time>2021-09-16T06:29:01.000Z</time>
      </trkpt>
      <trkpt lat="44.3978" lon="4.65902">
        <ele>54.48098</ele>
        <time>2021-09-16T06:29:06.000Z</time>
      </trkpt>
      <trkpt lat="44.39756" lon="4.65878">
        <ele>54.52361</ele>
        <time>2021-09-16T06:29:11.000Z</time>
      </trkpt>
      <trkpt lat="44.39735" lon="4.65858">
        <ele>54.521703</ele>
        <time>2021-09-16T06:29:15.000Z</time>
      </trkpt>
      <trkpt lat="44.3973" lon="4.65853">
        <ele>54.521243</ele>
        <time>2021-09-16T06:29:16.000Z</time>
      </trkpt>
      <trkpt lat="44.39714" lon="4.65842">
        <ele>54.519903</ele>
        <time>2021-09-16T06:29:19.000Z</time>
      </trkpt>
      <trkpt lat="44.39686" lon="4.65823">
        <ele>54.517566</ele>
        <time>2021-09-16T06:29:24.000Z</time>
      </trkpt>
      <trkpt lat="44.39638" lon="4.65791">
        <ele>54.513556</ele>
        <time>2021-09-16T06:29:32.000Z</time>
      </trkpt>
      <trkpt lat="44.39618" lon="4.65777">
        <ele>54.511899</ele>
        <time>2021-09-16T06:29:36.000Z</time>
      </trkpt>
      <trkpt lat="44.39588" lon="4.65756">
        <ele>54.465264</ele>
        <time>2021-09-16T06:29:41.000Z</time>
      </trkpt>
      <trkpt lat="44.39582" lon="4.65752">
        <ele>54.45335</ele>
        <time>2021-09-16T06:29:42.000Z</time>
      </trkpt>
      <trkpt lat="44.39565" lon="4.6574">
        <ele>54.420469</ele>
        <time>2021-09-16T06:29:45.000Z</time>
      </trkpt>
      <trkpt lat="44.39554" lon="4.65732">
        <ele>54.399502</ele>
        <time>2021-09-16T06:29:47.000Z</time>
      </trkpt>
      <trkpt lat="44.39543" lon="4.65723">
        <ele>54.378027</ele>
        <time>2021-09-16T06:29:49.000Z</time>
      </trkpt>
      <trkpt lat="44.39533" lon="4.65711">
        <ele>54.355031</ele>
        <time>2021-09-16T06:29:51.000Z</time>
      </trkpt>
      <trkpt lat="44.39528" lon="4.65693">
        <ele>54.33157</ele>
        <time>2021-09-16T06:29:53.000Z</time>
      </trkpt>
      <trkpt lat="44.39529" lon="4.65683">
        <ele>54.319125</ele>
        <time>2021-09-16T06:29:54.000Z</time>
      </trkpt>
      <trkpt lat="44.39534" lon="4.65647">
        <ele>54.273798</ele>
        <time>2021-09-16T06:29:58.000Z</time>
      </trkpt>
      <trkpt lat="44.39544" lon="4.65572">
        <ele>54.208712</ele>
        <time>2021-09-16T06:30:06.000Z</time>
      </trkpt>
      <trkpt lat="44.39545" lon="4.65563">
        <ele>54.212201</ele>
        <time>2021-09-16T06:30:07.000Z</time>
      </trkpt>
      <trkpt lat="44.39554" lon="4.65497">
        <ele>54.238823</ele>
        <time>2021-09-16T06:30:14.000Z</time>
      </trkpt>
      <trkpt lat="44.39563" lon="4.6544">
        <ele>54.261652</ele>
        <time>2021-09-16T06:30:20.000Z</time>
      </trkpt>
      <trkpt lat="44.39572" lon="4.65386">
        <ele>54.283653</ele>
        <time>2021-09-16T06:30:26.000Z</time>
      </trkpt>
      <trkpt lat="44.39581" lon="4.65324">
        <ele>54.267614</ele>
        <time>2021-09-16T06:30:33.000Z</time>
      </trkpt>
      <trkpt lat="44.39586" lon="4.6529">
        <ele>54.207735</ele>
        <time>2021-09-16T06:30:37.000Z</time>
      </trkpt>
      <trkpt lat="44.39588" lon="4.65273">
        <ele>54.179225</ele>
        <time>2021-09-16T06:30:39.000Z</time>
      </trkpt>
      <trkpt lat="44.39599" lon="4.65208">
        <ele>54.06457</ele>
        <time>2021-09-16T06:30:47.000Z</time>
      </trkpt>
      <trkpt lat="44.39603" lon="4.65183">
        <ele>54.021889</ele>
        <time>2021-09-16T06:30:50.000Z</time>
      </trkpt>
      <trkpt lat="44.39605" lon="4.65167">
        <ele>53.99393</ele>
        <time>2021-09-16T06:30:52.000Z</time>
      </trkpt>
      <trkpt lat="44.39607" lon="4.65153">
        <ele>53.969127</ele>
        <time>2021-09-16T06:30:54.000Z</time>
      </trkpt>
      <trkpt lat="44.39609" lon="4.65145">
        <ele>53.955121</ele>
        <time>2021-09-16T06:30:55.000Z</time>
      </trkpt>
      <trkpt lat="44.3961" lon="4.65137">
        <ele>53.941501</ele>
        <time>2021-09-16T06:30:56.000Z</time>
      </trkpt>
      <trkpt lat="44.39612" lon="4.65122">
        <ele>53.914543</ele>
        <time>2021-09-16T06:30:58.000Z</time>
      </trkpt>
      <trkpt lat="44.39614" lon="4.65114">
        <ele>53.900371</ele>
        <time>2021-09-16T06:30:59.000Z</time>
      </trkpt>
      <trkpt lat="44.39624" lon="4.65051">
        <ele>53.6191</ele>
        <time>2021-09-16T06:31:07.000Z</time>
      </trkpt>
      <trkpt lat="44.39624" lon="4.65043">
        <ele>53.578745</ele>
        <time>2021-09-16T06:31:08.000Z</time>
      </trkpt>
      <trkpt lat="44.39623" lon="4.65028">
        <ele>53.501319</ele>
        <time>2021-09-16T06:31:10.000Z</time>
      </trkpt>
      <trkpt lat="44.39622" lon="4.65021">
        <ele>53.462227</ele>
        <time>2021-09-16T06:31:11.000Z</time>
      </trkpt>
      <trkpt lat="44.39618" lon="4.65007">
        <ele>53.383775</ele>
        <time>2021-09-16T06:31:13.000Z</time>
      </trkpt>
      <trkpt lat="44.39612" lon="4.6499">
        <ele>53.283992</ele>
        <time>2021-09-16T06:31:16.000Z</time>
      </trkpt>
      <trkpt lat="44.39606" lon="4.64974">
        <ele>53.186432</ele>
        <time>2021-09-16T06:31:21.000Z</time>
      </trkpt>
      <trkpt lat="44.39601" lon="4.64957">
        <ele>53.087138</ele>
        <time>2021-09-16T06:31:26.000Z</time>
      </trkpt>
      <trkpt lat="44.39597" lon="4.64938">
        <ele>52.982376</ele>
        <time>2021-09-16T06:31:30.000Z</time>
      </trkpt>
      <trkpt lat="44.39596" lon="4.64918">
        <ele>52.878947</ele>
        <time>2021-09-16T06:31:34.000Z</time>
      </trkpt>
      <trkpt lat="44.39596" lon="4.64913">
        <ele>52.85189</ele>
        <time>2021-09-16T06:31:35.000Z</time>
      </trkpt>
      <trkpt lat="44.39589" lon="4.64903">
        <ele>52.77545</ele>
        <time>2021-09-16T06:31:37.000Z</time>
      </trkpt>
      <trkpt lat="44.39585" lon="4.64904">
        <ele>52.74409</ele>
        <time>2021-09-16T06:31:38.000Z</time>
      </trkpt>
      <trkpt lat="44.3958" lon="4.64906">
        <ele>52.70637</ele>
        <time>2021-09-16T06:31:39.000Z</time>
      </trkpt>
      <trkpt lat="44.39569" lon="4.64915">
        <ele>52.616226</ele>
        <time>2021-09-16T06:31:42.000Z</time>
      </trkpt>
      <trkpt lat="44.39564" lon="4.64923">
        <ele>52.559178</ele>
        <time>2021-09-16T06:31:45.000Z</time>
      </trkpt>
      <trkpt lat="44.39562" lon="4.64928">
        <ele>52.533546</ele>
        <time>2021-09-16T06:31:46.000Z</time>
      </trkpt>
      <trkpt lat="44.39558" lon="4.64943">
        <ele>52.494226</ele>
        <time>2021-09-16T06:31:48.000Z</time>
      </trkpt>
      <trkpt lat="44.39554" lon="4.64965">
        <ele>52.438393</ele>
        <time>2021-09-16T06:31:51.000Z</time>
      </trkpt>
      <trkpt lat="44.39548" lon="4.6499">
        <ele>52.373243</ele>
        <time>2021-09-16T06:31:54.000Z</time>
      </trkpt>
      <trkpt lat="44.39546" lon="4.64998">
        <ele>52.35277</ele>
        <time>2021-09-16T06:31:55.000Z</time>
      </trkpt>
      <trkpt lat="44.39523" lon="4.65033">
        <ele>52.237326</ele>
        <time>2021-09-16T06:32:00.000Z</time>
      </trkpt>
      <trkpt lat="44.39519" lon="4.6504">
        <ele>52.214383</ele>
        <time>2021-09-16T06:32:01.000Z</time>
      </trkpt>
      <trkpt lat="44.39514" lon="4.65046">
        <ele>52.1918</ele>
        <time>2021-09-16T06:32:02.000Z</time>
      </trkpt>
      <trkpt lat="44.39506" lon="4.65058">
        <ele>52.152073</ele>
        <time>2021-09-16T06:32:04.000Z</time>
      </trkpt>
      <trkpt lat="44.39502" lon="4.65062">
        <ele>52.134804</ele>
        <time>2021-09-16T06:32:05.000Z</time>
      </trkpt>
      <trkpt lat="44.39498" lon="4.65067">
        <ele>52.116113</ele>
        <time>2021-09-16T06:32:06.000Z</time>
      </trkpt>
      <trkpt lat="44.39494" lon="4.65089">
        <ele>52.062262</ele>
        <time>2021-09-16T06:32:08.000Z</time>
      </trkpt>
      <trkpt lat="44.39494" lon="4.65097">
        <ele>52.041852</ele>
        <time>2021-09-16T06:32:09.000Z</time>
      </trkpt>
      <trkpt lat="44.39493" lon="4.65105">
        <ele>52.020661</ele>
        <time>2021-09-16T06:32:10.000Z</time>
      </trkpt>
      <trkpt lat="44.39485" lon="4.6512">
        <ele>51.975414</ele>
        <time>2021-09-16T06:32:12.000Z</time>
      </trkpt>
      <trkpt lat="44.39476" lon="4.65129">
        <ele>51.936127</ele>
        <time>2021-09-16T06:32:14.000Z</time>
      </trkpt>
      <trkpt lat="44.39473" lon="4.65133">
        <ele>51.922749</ele>
        <time>2021-09-16T06:32:15.000Z</time>
      </trkpt>
      <trkpt lat="44.39459" lon="4.65154">
        <ele>52.101602</ele>
        <time>2021-09-16T06:32:18.000Z</time>
      </trkpt>
      <trkpt lat="44.3945" lon="4.65167">
        <ele>52.21692</ele>
        <time>2021-09-16T06:32:20.000Z</time>
      </trkpt>
      <trkpt lat="44.39446" lon="4.65173">
        <ele>52.270561</ele>
        <time>2021-09-16T06:32:21.000Z</time>
      </trkpt>
      <trkpt lat="44.39432" lon="4.65193">
        <ele>52.455148</ele>
        <time>2021-09-16T06:32:24.000Z</time>
      </trkpt>
      <trkpt lat="44.39407" lon="4.65208">
        <ele>52.696201</ele>
        <time>2021-09-16T06:32:28.000Z</time>
      </trkpt>
      <trkpt lat="44.3938" lon="4.65225">
        <ele>52.966512</ele>
        <time>2021-09-16T06:32:33.000Z</time>
      </trkpt>
      <trkpt lat="44.39351" lon="4.65242">
        <ele>53.246062</ele>
        <time>2021-09-16T06:32:38.000Z</time>
      </trkpt>
      <trkpt lat="44.39338" lon="4.65247">
        <ele>53.361811</ele>
        <time>2021-09-16T06:32:40.000Z</time>
      </trkpt>
      <trkpt lat="44.39326" lon="4.65253">
        <ele>53.47461</ele>
        <time>2021-09-16T06:32:42.000Z</time>
      </trkpt>
      <trkpt lat="44.39303" lon="4.65264">
        <ele>53.672573</ele>
        <time>2021-09-16T06:32:46.000Z</time>
      </trkpt>
      <trkpt lat="44.39298" lon="4.65268">
        <ele>53.720003</ele>
        <time>2021-09-16T06:32:47.000Z</time>
      </trkpt>
      <trkpt lat="44.39275" lon="4.65284">
        <ele>53.918887</ele>
        <time>2021-09-16T06:32:51.000Z</time>
      </trkpt>
      <trkpt lat="44.3927" lon="4.65288">
        <ele>53.965368</ele>
        <time>2021-09-16T06:32:52.000Z</time>
      </trkpt>
      <trkpt lat="44.39236" lon="4.65312">
        <ele>54.260755</ele>
        <time>2021-09-16T06:32:58.000Z</time>
      </trkpt>
      <trkpt lat="44.39206" lon="4.65329">
        <ele>54.511931</ele>
        <time>2021-09-16T06:33:03.000Z</time>
      </trkpt>
      <trkpt lat="44.39195" lon="4.65335">
        <ele>54.603484</ele>
        <time>2021-09-16T06:33:05.000Z</time>
      </trkpt>
      <trkpt lat="44.39178" lon="4.65339">
        <ele>54.742567</ele>
        <time>2021-09-16T06:33:08.000Z</time>
      </trkpt>
      <trkpt lat="44.39134" lon="4.65342">
        <ele>55.010565</ele>
        <time>2021-09-16T06:33:15.000Z</time>
      </trkpt>
      <trkpt lat="44.39084" lon="4.65333">
        <ele>55.209322</ele>
        <time>2021-09-16T06:33:23.000Z</time>
      </trkpt>
      <trkpt lat="44.3904" lon="4.65329">
        <ele>55.379766</ele>
        <time>2021-09-16T06:33:30.000Z</time>
      </trkpt>
      <trkpt lat="44.39034" lon="4.6533">
        <ele>55.402791</ele>
        <time>2021-09-16T06:33:31.000Z</time>
      </trkpt>
      <trkpt lat="44.38993" lon="4.65331">
        <ele>55.563949</ele>
        <time>2021-09-16T06:33:38.000Z</time>
      </trkpt>
      <trkpt lat="44.38958" lon="4.65332">
        <ele>55.65286</ele>
        <time>2021-09-16T06:33:44.000Z</time>
      </trkpt>
      <trkpt lat="44.38951" lon="4.65332">
        <ele>55.658206</ele>
        <time>2021-09-16T06:33:45.000Z</time>
      </trkpt>
      <trkpt lat="44.38928" lon="4.65326">
        <ele>55.678437</ele>
        <time>2021-09-16T06:33:49.000Z</time>
      </trkpt>
      <trkpt lat="44.389" lon="4.65319">
        <ele>55.701804</ele>
        <time>2021-09-16T06:33:54.000Z</time>
      </trkpt>
      <trkpt lat="44.38883" lon="4.65315">
        <ele>55.716388</ele>
        <time>2021-09-16T06:33:57.000Z</time>
      </trkpt>
      <trkpt lat="44.38878" lon="4.65314">
        <ele>55.720765</ele>
        <time>2021-09-16T06:33:58.000Z</time>
      </trkpt>
      <trkpt lat="44.38849" lon="4.65305">
        <ele>55.745074</ele>
        <time>2021-09-16T06:34:02.000Z</time>
      </trkpt>
      <trkpt lat="44.38849" lon="4.65305">
        <ele>55.745074</ele>
        <time>2021-09-16T06:34:03.000Z</time>
      </trkpt>
      <trkpt lat="44.38838" lon="4.65295">
        <ele>55.755982</ele>
        <time>2021-09-16T06:34:05.000Z</time>
      </trkpt>
      <trkpt lat="44.38822" lon="4.65278">
        <ele>55.772896</ele>
        <time>2021-09-16T06:34:08.000Z</time>
      </trkpt>
      <trkpt lat="44.38786" lon="4.65238">
        <ele>55.770393</ele>
        <time>2021-09-16T06:34:15.000Z</time>
      </trkpt>
      <trkpt lat="44.38757" lon="4.65203">
        <ele>55.740725</ele>
        <time>2021-09-16T06:34:21.000Z</time>
      </trkpt>
      <trkpt lat="44.38728" lon="4.65168">
        <ele>55.711506</ele>
        <time>2021-09-16T06:34:27.000Z</time>
      </trkpt>
      <trkpt lat="44.38694" lon="4.65129">
        <ele>55.676958</ele>
        <time>2021-09-16T06:34:34.000Z</time>
      </trkpt>
      <trkpt lat="44.38672" lon="4.6511">
        <ele>55.657199</ele>
        <time>2021-09-16T06:34:38.000Z</time>
      </trkpt>
      <trkpt lat="44.38661" lon="4.65101">
        <ele>55.639925</ele>
        <time>2021-09-16T06:34:40.000Z</time>
      </trkpt>
      <trkpt lat="44.38623" lon="4.6507">
        <ele>55.534246</ele>
        <time>2021-09-16T06:34:47.000Z</time>
      </trkpt>
      <trkpt lat="44.38583" lon="4.65043">
        <ele>55.42885</ele>
        <time>2021-09-16T06:34:54.000Z</time>
      </trkpt>
      <trkpt lat="44.38536" lon="4.65011">
        <ele>55.305308</ele>
        <time>2021-09-16T06:35:02.000Z</time>
      </trkpt>
      <trkpt lat="44.38485" lon="4.64974">
        <ele>55.222137</ele>
        <time>2021-09-16T06:35:11.000Z</time>
      </trkpt>
      <trkpt lat="44.38437" lon="4.64931">
        <ele>55.220262</ele>
        <time>2021-09-16T06:35:20.000Z</time>
      </trkpt>
      <trkpt lat="44.38425" lon="4.64925">
        <ele>55.219869</ele>
        <time>2021-09-16T06:35:22.000Z</time>
      </trkpt>
      <trkpt lat="44.38413" lon="4.64925">
        <ele>55.219478</ele>
        <time>2021-09-16T06:35:24.000Z</time>
      </trkpt>
      <trkpt lat="44.38378" lon="4.64924">
        <ele>55.218337</ele>
        <time>2021-09-16T06:35:30.000Z</time>
      </trkpt>
      <trkpt lat="44.38372" lon="4.64923">
        <ele>55.218144</ele>
        <time>2021-09-16T06:35:31.000Z</time>
      </trkpt>
      <trkpt lat="44.38361" lon="4.64922">
        <ele>55.217755</ele>
        <time>2021-09-16T06:35:33.000Z</time>
      </trkpt>
      <trkpt lat="44.38349" lon="4.6492">
        <ele>55.217363</ele>
        <time>2021-09-16T06:35:35.000Z</time>
      </trkpt>
      <trkpt lat="44.38306" lon="4.64904">
        <ele>55.144081</ele>
        <time>2021-09-16T06:35:42.000Z</time>
      </trkpt>
      <trkpt lat="44.38271" lon="4.64889">
        <ele>55.066237</ele>
        <time>2021-09-16T06:35:48.000Z</time>
      </trkpt>
      <trkpt lat="44.38259" lon="4.64884">
        <ele>55.040054</ele>
        <time>2021-09-16T06:35:50.000Z</time>
      </trkpt>
      <trkpt lat="44.38248" lon="4.64876">
        <ele>55.012861</ele>
        <time>2021-09-16T06:35:52.000Z</time>
      </trkpt>
      <trkpt lat="44.38232" lon="4.64863">
        <ele>54.973263</ele>
        <time>2021-09-16T06:35:55.000Z</time>
      </trkpt>
      <trkpt lat="44.38218" lon="4.64846">
        <ele>54.934485</ele>
        <time>2021-09-16T06:35:58.000Z</time>
      </trkpt>
      <trkpt lat="44.38196" lon="4.64819">
        <ele>54.870837</ele>
        <time>2021-09-16T06:36:03.000Z</time>
      </trkpt>
      <trkpt lat="44.38191" lon="4.64814">
        <ele>54.857615</ele>
        <time>2021-09-16T06:36:04.000Z</time>
      </trkpt>
      <trkpt lat="44.38177" lon="4.64797">
        <ele>54.798717</ele>
        <time>2021-09-16T06:36:07.000Z</time>
      </trkpt>
      <trkpt lat="44.38168" lon="4.64786">
        <ele>54.736803</ele>
        <time>2021-09-16T06:36:09.000Z</time>
      </trkpt>
      <trkpt lat="44.38153" lon="4.64769">
        <ele>54.640562</ele>
        <time>2021-09-16T06:36:12.000Z</time>
      </trkpt>
      <trkpt lat="44.38125" lon="4.64734">
        <ele>54.447513</ele>
        <time>2021-09-16T06:36:18.000Z</time>
      </trkpt>
      <trkpt lat="44.38114" lon="4.64725">
        <ele>54.382004</ele>
        <time>2021-09-16T06:36:20.000Z</time>
      </trkpt>
      <trkpt lat="44.38107" lon="4.64722">
        <ele>54.343056</ele>
        <time>2021-09-16T06:36:21.000Z</time>
      </trkpt>
      <trkpt lat="44.38057" lon="4.64738">
        <ele>54.080801</ele>
        <time>2021-09-16T06:36:29.000Z</time>
      </trkpt>
      <trkpt lat="44.38045" lon="4.64742">
        <ele>54.017854</ele>
        <time>2021-09-16T06:36:31.000Z</time>
      </trkpt>
      <trkpt lat="44.38027" lon="4.64748">
        <ele>53.92443</ele>
        <time>2021-09-16T06:36:34.000Z</time>
      </trkpt>
      <trkpt lat="44.38013" lon="4.64746">
        <ele>53.966179</ele>
        <time>2021-09-16T06:36:36.000Z</time>
      </trkpt>
      <trkpt lat="44.38002" lon="4.6474">
        <ele>54.025157</ele>
        <time>2021-09-16T06:36:38.000Z</time>
      </trkpt>
      <trkpt lat="44.37986" lon="4.64728">
        <ele>54.11346</ele>
        <time>2021-09-16T06:36:41.000Z</time>
      </trkpt>
      <trkpt lat="44.37977" lon="4.6472">
        <ele>54.164977</ele>
        <time>2021-09-16T06:36:43.000Z</time>
      </trkpt>
      <trkpt lat="44.37967" lon="4.6471">
        <ele>54.224815</ele>
        <time>2021-09-16T06:36:45.000Z</time>
      </trkpt>
      <trkpt lat="44.37951" lon="4.64697">
        <ele>54.311026</ele>
        <time>2021-09-16T06:36:48.000Z</time>
      </trkpt>
      <trkpt lat="44.37946" lon="4.64697">
        <ele>54.33531</ele>
        <time>2021-09-16T06:36:49.000Z</time>
      </trkpt>
      <trkpt lat="44.37931" lon="4.64698">
        <ele>54.4101</ele>
        <time>2021-09-16T06:36:53.000Z</time>
      </trkpt>
      <trkpt lat="44.37914" lon="4.64704">
        <ele>54.497139</ele>
        <time>2021-09-16T06:37:00.000Z</time>
      </trkpt>
      <trkpt lat="44.37902" lon="4.64717">
        <ele>54.568955</ele>
        <time>2021-09-16T06:37:06.000Z</time>
      </trkpt>
      <trkpt lat="44.37902" lon="4.64717">
        <ele>54.571219</ele>
        <time>2021-09-16T06:37:07.000Z</time>
      </trkpt>
      <trkpt lat="44.37894" lon="4.64719">
        <ele>54.610175</ele>
        <time>2021-09-16T06:37:10.000Z</time>
      </trkpt>
      <trkpt lat="44.3789" lon="4.6472">
        <ele>54.627442</ele>
        <time>2021-09-16T06:37:11.000Z</time>
      </trkpt>
      <trkpt lat="44.37878" lon="4.64724">
        <ele>54.689642</ele>
        <time>2021-09-16T06:37:14.000Z</time>
      </trkpt>
      <trkpt lat="44.37844" lon="4.64732">
        <ele>54.787619</ele>
        <time>2021-09-16T06:37:20.000Z</time>
      </trkpt>
      <trkpt lat="44.37796" lon="4.64742">
        <ele>54.798526</ele>
        <time>2021-09-16T06:37:27.000Z</time>
      </trkpt>
      <trkpt lat="44.37755" lon="4.6475">
        <ele>54.808109</ele>
        <time>2021-09-16T06:37:33.000Z</time>
      </trkpt>
      <trkpt lat="44.37748" lon="4.64751">
        <ele>54.809618</ele>
        <time>2021-09-16T06:37:34.000Z</time>
      </trkpt>
      <trkpt lat="44.37729" lon="4.64749">
        <ele>54.813846</ele>
        <time>2021-09-16T06:37:37.000Z</time>
      </trkpt>
      <trkpt lat="44.37717" lon="4.64754">
        <ele>54.816817</ele>
        <time>2021-09-16T06:37:39.000Z</time>
      </trkpt>
      <trkpt lat="44.37711" lon="4.64757">
        <ele>54.818261</ele>
        <time>2021-09-16T06:37:40.000Z</time>
      </trkpt>
      <trkpt lat="44.3769" lon="4.64767">
        <ele>54.823126</ele>
        <time>2021-09-16T06:37:44.000Z</time>
      </trkpt>
      <trkpt lat="44.37646" lon="4.6477">
        <ele>54.873677</ele>
        <time>2021-09-16T06:37:52.000Z</time>
      </trkpt>
      <trkpt lat="44.37602" lon="4.64773">
        <ele>54.932821</ele>
        <time>2021-09-16T06:38:00.000Z</time>
      </trkpt>
      <trkpt lat="44.37567" lon="4.64771">
        <ele>54.981001</ele>
        <time>2021-09-16T06:38:06.000Z</time>
      </trkpt>
      <trkpt lat="44.37561" lon="4.6477">
        <ele>54.98872</ele>
        <time>2021-09-16T06:38:07.000Z</time>
      </trkpt>
      <trkpt lat="44.37516" lon="4.64768">
        <ele>55.049042</ele>
        <time>2021-09-16T06:38:14.000Z</time>
      </trkpt>
      <trkpt lat="44.3747" lon="4.64766">
        <ele>55.082463</ele>
        <time>2021-09-16T06:38:21.000Z</time>
      </trkpt>
      <trkpt lat="44.3742" lon="4.64768">
        <ele>55.105162</ele>
        <time>2021-09-16T06:38:29.000Z</time>
      </trkpt>
      <trkpt lat="44.37366" lon="4.64771">
        <ele>55.129584</ele>
        <time>2021-09-16T06:38:37.000Z</time>
      </trkpt>
      <trkpt lat="44.37359" lon="4.64771">
        <ele>55.132738</ele>
        <time>2021-09-16T06:38:38.000Z</time>
      </trkpt>
      <trkpt lat="44.37304" lon="4.64774">
        <ele>55.086816</ele>
        <time>2021-09-16T06:38:46.000Z</time>
      </trkpt>
      <trkpt lat="44.37252" lon="4.64777">
        <ele>54.904452</ele>
        <time>2021-09-16T06:38:54.000Z</time>
      </trkpt>
      <trkpt lat="44.37239" lon="4.64778">
        <ele>54.858606</ele>
        <time>2021-09-16T06:38:56.000Z</time>
      </trkpt>
      <trkpt lat="44.37226" lon="4.64778">
        <ele>54.813485</ele>
        <time>2021-09-16T06:38:58.000Z</time>
      </trkpt>
      <trkpt lat="44.3722" lon="4.64777">
        <ele>54.792755</ele>
        <time>2021-09-16T06:38:59.000Z</time>
      </trkpt>
      <trkpt lat="44.37208" lon="4.64777">
        <ele>54.752804</ele>
        <time>2021-09-16T06:39:01.000Z</time>
      </trkpt>
      <trkpt lat="44.37198" lon="4.64782">
        <ele>54.714473</ele>
        <time>2021-09-16T06:39:03.000Z</time>
      </trkpt>
      <trkpt lat="44.37186" lon="4.64784">
        <ele>54.672185</ele>
        <time>2021-09-16T06:39:05.000Z</time>
      </trkpt>
      <trkpt lat="44.3718" lon="4.64785">
        <ele>54.652041</ele>
        <time>2021-09-16T06:39:06.000Z</time>
      </trkpt>
      <trkpt lat="44.37153" lon="4.64786">
        <ele>54.557575</ele>
        <time>2021-09-16T06:39:11.000Z</time>
      </trkpt>
      <trkpt lat="44.37122" lon="4.64786">
        <ele>54.494071</ele>
        <time>2021-09-16T06:39:17.000Z</time>
      </trkpt>
      <trkpt lat="44.37117" lon="4.64786">
        <ele>54.486701</ele>
        <time>2021-09-16T06:39:18.000Z</time>
      </trkpt>
      <trkpt lat="44.3708" lon="4.6478">
        <ele>54.431092</ele>
        <time>2021-09-16T06:39:25.000Z</time>
      </trkpt>
      <trkpt lat="44.37034" lon="4.6477">
        <ele>54.362401</ele>
        <time>2021-09-16T06:39:33.000Z</time>
      </trkpt>
      <trkpt lat="44.36998" lon="4.64763">
        <ele>54.309918</ele>
        <time>2021-09-16T06:39:39.000Z</time>
      </trkpt>
      <trkpt lat="44.36956" lon="4.64754">
        <ele>54.414106</ele>
        <time>2021-09-16T06:39:46.000Z</time>
      </trkpt>
      <trkpt lat="44.3692" lon="4.64744">
        <ele>55.031249</ele>
        <time>2021-09-16T06:39:52.000Z</time>
      </trkpt>
      <trkpt lat="44.36893" lon="4.64737">
        <ele>55.508395</ele>
        <time>2021-09-16T06:39:57.000Z</time>
      </trkpt>
      <trkpt lat="44.36889" lon="4.64725">
        <ele>55.670462</ele>
        <time>2021-09-16T06:40:00.000Z</time>
      </trkpt>
      <trkpt lat="44.36884" lon="4.64719">
        <ele>55.776162</ele>
        <time>2021-09-16T06:40:04.000Z</time>
      </trkpt>
      <trkpt lat="44.36882" lon="4.64718">
        <ele>55.808538</ele>
        <time>2021-09-16T06:40:05.000Z</time>
      </trkpt>
      <trkpt lat="44.36875" lon="4.64718">
        <ele>55.927657</ele>
        <time>2021-09-16T06:40:08.000Z</time>
      </trkpt>
      <trkpt lat="44.36868" lon="4.6473">
        <ele>56.11497</ele>
        <time>2021-09-16T06:40:13.000Z</time>
      </trkpt>
      <trkpt lat="44.36862" lon="4.6473">
        <ele>56.215286</ele>
        <time>2021-09-16T06:40:17.000Z</time>
      </trkpt>
      <trkpt lat="44.36861" lon="4.6473">
        <ele>56.242491</ele>
        <time>2021-09-16T06:40:18.000Z</time>
      </trkpt>
      <trkpt lat="44.36859" lon="4.64729">
        <ele>56.278212</ele>
        <time>2021-09-16T06:40:19.000Z</time>
      </trkpt>
      <trkpt lat="44.36861" lon="4.6473">
        <ele>56.313934</ele>
        <time>2021-09-16T06:40:21.000Z</time>
      </trkpt>
      <trkpt lat="44.36859" lon="4.64755">
        <ele>56.618729</ele>
        <time>2021-09-16T06:40:27.000Z</time>
      </trkpt>
      <trkpt lat="44.36857" lon="4.64783">
        <ele>56.955671</ele>
        <time>2021-09-16T06:40:35.000Z</time>
      </trkpt>
      <trkpt lat="44.36855" lon="4.64807">
        <ele>57.257004</ele>
        <time>2021-09-16T06:40:43.000Z</time>
      </trkpt>
      <trkpt lat="44.36852" lon="4.64838">
        <ele>57.711462</ele>
        <time>2021-09-16T06:40:52.000Z</time>
      </trkpt>
      <trkpt lat="44.36849" lon="4.64866">
        <ele>58.161274</ele>
        <time>2021-09-16T06:41:00.000Z</time>
      </trkpt>
      <trkpt lat="44.36848" lon="4.64883">
        <ele>58.418349</ele>
        <time>2021-09-16T06:41:05.000Z</time>
      </trkpt>
      <trkpt lat="44.36846" lon="4.64908">
        <ele>58.821342</ele>
        <time>2021-09-16T06:41:11.000Z</time>
      </trkpt>
      <trkpt lat="44.36842" lon="4.64945">
        <ele>59.400402</ele>
        <time>2021-09-16T06:41:18.000Z</time>
      </trkpt>
      <trkpt lat="44.36837" lon="4.64995">
        <ele>60.175275</ele>
        <time>2021-09-16T06:41:26.000Z</time>
      </trkpt>
      <trkpt lat="44.36833" lon="4.65043">
        <ele>60.93753</ele>
        <time>2021-09-16T06:41:33.000Z</time>
      </trkpt>
      <trkpt lat="44.36827" lon="4.65106">
        <ele>61.235476</ele>
        <time>2021-09-16T06:41:41.000Z</time>
      </trkpt>
      <trkpt lat="44.36822" lon="4.65156">
        <ele>61.240749</ele>
        <time>2021-09-16T06:41:47.000Z</time>
      </trkpt>
      <trkpt lat="44.36817" lon="4.65209">
        <ele>61.246367</ele>
        <time>2021-09-16T06:41:53.000Z</time>
      </trkpt>
      <trkpt lat="44.3681" lon="4.65289">
        <ele>61.254863</ele>
        <time>2021-09-16T06:42:01.000Z</time>
      </trkpt>
      <trkpt lat="44.36804" lon="4.65348">
        <ele>61.251517</ele>
        <time>2021-09-16T06:42:07.000Z</time>
      </trkpt>
      <trkpt lat="44.36798" lon="4.65418">
        <ele>61.240681</ele>
        <time>2021-09-16T06:42:14.000Z</time>
      </trkpt>
      <trkpt lat="44.36791" lon="4.65494">
        <ele>61.228724</ele>
        <time>2021-09-16T06:42:22.000Z</time>
      </trkpt>
      <trkpt lat="44.36786" lon="4.65552">
        <ele>61.219666</ele>
        <time>2021-09-16T06:42:28.000Z</time>
      </trkpt>
      <trkpt lat="44.36781" lon="4.65612">
        <ele>60.889733</ele>
        <time>2021-09-16T06:42:34.000Z</time>
      </trkpt>
      <trkpt lat="44.3678" lon="4.65622">
        <ele>60.826011</ele>
        <time>2021-09-16T06:42:35.000Z</time>
      </trkpt>
      <trkpt lat="44.36772" lon="4.65636">
        <ele>60.713255</ele>
        <time>2021-09-16T06:42:37.000Z</time>
      </trkpt>
      <trkpt lat="44.3676" lon="4.65648">
        <ele>60.581853</ele>
        <time>2021-09-16T06:42:39.000Z</time>
      </trkpt>
      <trkpt lat="44.36758" lon="4.65647">
        <ele>60.565574</ele>
        <time>2021-09-16T06:42:40.000Z</time>
      </trkpt>
      <trkpt lat="44.3673" lon="4.65641">
        <ele>60.312364</ele>
        <time>2021-09-16T06:42:46.000Z</time>
      </trkpt>
      <trkpt lat="44.36677" lon="4.65627">
        <ele>59.825217</ele>
        <time>2021-09-16T06:42:55.000Z</time>
      </trkpt>
      <trkpt lat="44.36646" lon="4.65621">
        <ele>59.546595</ele>
        <time>2021-09-16T06:43:00.000Z</time>
      </trkpt>
      <trkpt lat="44.36593" lon="4.65616">
        <ele>59.024231</ele>
        <time>2021-09-16T06:43:08.000Z</time>
      </trkpt>
      <trkpt lat="44.36553" lon="4.65612">
        <ele>58.629288</ele>
        <time>2021-09-16T06:43:14.000Z</time>
      </trkpt>
      <trkpt lat="44.36502" lon="4.65607">
        <ele>58.130524</ele>
        <time>2021-09-16T06:43:22.000Z</time>
      </trkpt>
      <trkpt lat="44.36471" lon="4.65604">
        <ele>57.840247</ele>
        <time>2021-09-16T06:43:27.000Z</time>
      </trkpt>
      <trkpt lat="44.36416" lon="4.65599">
        <ele>57.500478</ele>
        <time>2021-09-16T06:43:36.000Z</time>
      </trkpt>
      <trkpt lat="44.36372" lon="4.65595">
        <ele>57.227914</ele>
        <time>2021-09-16T06:43:43.000Z</time>
      </trkpt>
      <trkpt lat="44.36329" lon="4.65589">
        <ele>56.961958</ele>
        <time>2021-09-16T06:43:50.000Z</time>
      </trkpt>
      <trkpt lat="44.36281" lon="4.65579">
        <ele>56.699256</ele>
        <time>2021-09-16T06:43:58.000Z</time>
      </trkpt>
      <trkpt lat="44.36234" lon="4.65566">
        <ele>56.527633</ele>
        <time>2021-09-16T06:44:06.000Z</time>
      </trkpt>
      <trkpt lat="44.36194" lon="4.65556">
        <ele>56.38243</ele>
        <time>2021-09-16T06:44:13.000Z</time>
      </trkpt>
      <trkpt lat="44.36159" lon="4.65553">
        <ele>56.258993</ele>
        <time>2021-09-16T06:44:19.000Z</time>
      </trkpt>
      <trkpt lat="44.36118" lon="4.65556">
        <ele>56.112144</ele>
        <time>2021-09-16T06:44:26.000Z</time>
      </trkpt>
      <trkpt lat="44.36069" lon="4.65561">
        <ele>55.930834</ele>
        <time>2021-09-16T06:44:34.000Z</time>
      </trkpt>
      <trkpt lat="44.3602" lon="4.65565">
        <ele>55.74732</ele>
        <time>2021-09-16T06:44:42.000Z</time>
      </trkpt>
      <trkpt lat="44.35966" lon="4.65572">
        <ele>55.5471</ele>
        <time>2021-09-16T06:44:51.000Z</time>
      </trkpt>
      <trkpt lat="44.35927" lon="4.65585">
        <ele>55.385491</ele>
        <time>2021-09-16T06:44:58.000Z</time>
      </trkpt>
      <trkpt lat="44.35921" lon="4.65587">
        <ele>55.357111</ele>
        <time>2021-09-16T06:44:59.000Z</time>
      </trkpt>
      <trkpt lat="44.35903" lon="4.65594">
        <ele>55.267163</ele>
        <time>2021-09-16T06:45:02.000Z</time>
      </trkpt>
      <trkpt lat="44.35897" lon="4.65596">
        <ele>55.237394</ele>
        <time>2021-09-16T06:45:03.000Z</time>
      </trkpt>
      <trkpt lat="44.35859" lon="4.65611">
        <ele>55.047514</ele>
        <time>2021-09-16T06:45:09.000Z</time>
      </trkpt>
      <trkpt lat="44.35801" lon="4.65633">
        <ele>54.759736</ele>
        <time>2021-09-16T06:45:18.000Z</time>
      </trkpt>
      <trkpt lat="44.35782" lon="4.6564">
        <ele>54.664797</ele>
        <time>2021-09-16T06:45:21.000Z</time>
      </trkpt>
      <trkpt lat="44.35775" lon="4.65642">
        <ele>54.632996</ele>
        <time>2021-09-16T06:45:22.000Z</time>
      </trkpt>
      <trkpt lat="44.35768" lon="4.65647">
        <ele>54.593962</ele>
        <time>2021-09-16T06:45:23.000Z</time>
      </trkpt>
      <trkpt lat="44.35759" lon="4.65663">
        <ele>54.549022</ele>
        <time>2021-09-16T06:45:25.000Z</time>
      </trkpt>
      <trkpt lat="44.35755" lon="4.65669">
        <ele>54.533427</ele>
        <time>2021-09-16T06:45:26.000Z</time>
      </trkpt>
      <trkpt lat="44.35749" lon="4.65674">
        <ele>54.516862</ele>
        <time>2021-09-16T06:45:27.000Z</time>
      </trkpt>
      <trkpt lat="44.35735" lon="4.65677">
        <ele>54.482053</ele>
        <time>2021-09-16T06:45:29.000Z</time>
      </trkpt>
      <trkpt lat="44.357" lon="4.65675">
        <ele>54.396556</ele>
        <time>2021-09-16T06:45:34.000Z</time>
      </trkpt>
      <trkpt lat="44.35652" lon="4.6567">
        <ele>54.276305</ele>
        <time>2021-09-16T06:45:41.000Z</time>
      </trkpt>
      <trkpt lat="44.35598" lon="4.65666">
        <ele>54.143252</ele>
        <time>2021-09-16T06:45:49.000Z</time>
      </trkpt>
      <trkpt lat="44.35551" lon="4.65667">
        <ele>54.103138</ele>
        <time>2021-09-16T06:45:56.000Z</time>
      </trkpt>
      <trkpt lat="44.35518" lon="4.65665">
        <ele>54.080053</ele>
        <time>2021-09-16T06:46:01.000Z</time>
      </trkpt>
      <trkpt lat="44.3548" lon="4.65646">
        <ele>54.052176</ele>
        <time>2021-09-16T06:46:07.000Z</time>
      </trkpt>
      <trkpt lat="44.35436" lon="4.65622">
        <ele>54.01952</ele>
        <time>2021-09-16T06:46:14.000Z</time>
      </trkpt>
      <trkpt lat="44.35397" lon="4.65597">
        <ele>54.013999</ele>
        <time>2021-09-16T06:46:20.000Z</time>
      </trkpt>
      <trkpt lat="44.35378" lon="4.65584">
        <ele>54.019164</ele>
        <time>2021-09-16T06:46:23.000Z</time>
      </trkpt>
      <trkpt lat="44.35372" lon="4.65581">
        <ele>54.020857</ele>
        <time>2021-09-16T06:46:24.000Z</time>
      </trkpt>
      <trkpt lat="44.35365" lon="4.65581">
        <ele>54.022552</ele>
        <time>2021-09-16T06:46:25.000Z</time>
      </trkpt>
      <trkpt lat="44.35352" lon="4.65583">
        <ele>54.025957</ele>
        <time>2021-09-16T06:46:27.000Z</time>
      </trkpt>
      <trkpt lat="44.35303" lon="4.65617">
        <ele>54.039436</ele>
        <time>2021-09-16T06:46:35.000Z</time>
      </trkpt>
      <trkpt lat="44.35251" lon="4.65656">
        <ele>54.049762</ele>
        <time>2021-09-16T06:46:44.000Z</time>
      </trkpt>
      <trkpt lat="44.35199" lon="4.65695">
        <ele>54.029614</ele>
        <time>2021-09-16T06:46:53.000Z</time>
      </trkpt>
      <trkpt lat="44.35157" lon="4.65726">
        <ele>54.013383</ele>
        <time>2021-09-16T06:47:00.000Z</time>
      </trkpt>
      <trkpt lat="44.35115" lon="4.65757">
        <ele>53.997338</ele>
        <time>2021-09-16T06:47:07.000Z</time>
      </trkpt>
      <trkpt lat="44.35067" lon="4.65793">
        <ele>53.872735</ele>
        <time>2021-09-16T06:47:15.000Z</time>
      </trkpt>
      <trkpt lat="44.35055" lon="4.65803">
        <ele>53.827002</ele>
        <time>2021-09-16T06:47:17.000Z</time>
      </trkpt>
      <trkpt lat="44.35006" lon="4.65839">
        <ele>53.647541</ele>
        <time>2021-09-16T06:47:25.000Z</time>
      </trkpt>
      <trkpt lat="44.34983" lon="4.65857">
        <ele>53.561425</ele>
        <time>2021-09-16T06:47:29.000Z</time>
      </trkpt>
      <trkpt lat="44.34941" lon="4.65888">
        <ele>53.406612</ele>
        <time>2021-09-16T06:47:36.000Z</time>
      </trkpt>
      <trkpt lat="44.34911" lon="4.65902">
        <ele>53.290447</ele>
        <time>2021-09-16T06:47:41.000Z</time>
      </trkpt>
      <trkpt lat="44.34898" lon="4.65906">
        <ele>53.243743</ele>
        <time>2021-09-16T06:47:43.000Z</time>
      </trkpt>
      <trkpt lat="44.34886" lon="4.65909">
        <ele>53.200784</ele>
        <time>2021-09-16T06:47:45.000Z</time>
      </trkpt>
      <trkpt lat="44.34855" lon="4.65915">
        <ele>53.086053</ele>
        <time>2021-09-16T06:47:50.000Z</time>
      </trkpt>
      <trkpt lat="44.34814" lon="4.6592">
        <ele>52.935369</ele>
        <time>2021-09-16T06:47:56.000Z</time>
      </trkpt>
      <trkpt lat="44.34793" lon="4.65919">
        <ele>52.862596</ele>
        <time>2021-09-16T06:47:59.000Z</time>
      </trkpt>
      <trkpt lat="44.34787" lon="4.65918">
        <ele>52.839824</ele>
        <time>2021-09-16T06:48:00.000Z</time>
      </trkpt>
      <trkpt lat="44.34744" lon="4.65894">
        <ele>52.803529</ele>
        <time>2021-09-16T06:48:07.000Z</time>
      </trkpt>
      <trkpt lat="44.34703" lon="4.65864">
        <ele>52.906855</ele>
        <time>2021-09-16T06:48:14.000Z</time>
      </trkpt>
      <trkpt lat="44.34675" lon="4.65843">
        <ele>52.977319</ele>
        <time>2021-09-16T06:48:19.000Z</time>
      </trkpt>
      <trkpt lat="44.34664" lon="4.65834">
        <ele>53.005658</ele>
        <time>2021-09-16T06:48:21.000Z</time>
      </trkpt>
      <trkpt lat="44.34653" lon="4.65827">
        <ele>53.032205</ele>
        <time>2021-09-16T06:48:23.000Z</time>
      </trkpt>
      <trkpt lat="44.34631" lon="4.65823">
        <ele>53.080967</ele>
        <time>2021-09-16T06:48:27.000Z</time>
      </trkpt>
      <trkpt lat="44.34626" lon="4.65823">
        <ele>53.093421</ele>
        <time>2021-09-16T06:48:28.000Z</time>
      </trkpt>
      <trkpt lat="44.34613" lon="4.65826">
        <ele>53.121435</ele>
        <time>2021-09-16T06:48:30.000Z</time>
      </trkpt>
      <trkpt lat="44.34608" lon="4.6583">
        <ele>53.134808</ele>
        <time>2021-09-16T06:48:31.000Z</time>
      </trkpt>
      <trkpt lat="44.34567" lon="4.65855">
        <ele>53.120816</ele>
        <time>2021-09-16T06:48:37.000Z</time>
      </trkpt>
      <trkpt lat="44.34514" lon="4.65887">
        <ele>53.069809</ele>
        <time>2021-09-16T06:48:45.000Z</time>
      </trkpt>
      <trkpt lat="44.34463" lon="4.65917">
        <ele>53.02099</ele>
        <time>2021-09-16T06:48:53.000Z</time>
      </trkpt>
      <trkpt lat="44.34427" lon="4.65939">
        <ele>52.977318</ele>
        <time>2021-09-16T06:48:59.000Z</time>
      </trkpt>
      <trkpt lat="44.34414" lon="4.65947">
        <ele>52.952932</ele>
        <time>2021-09-16T06:49:01.000Z</time>
      </trkpt>
      <trkpt lat="44.34364" lon="4.65977">
        <ele>52.855542</ele>
        <time>2021-09-16T06:49:09.000Z</time>
      </trkpt>
      <trkpt lat="44.34352" lon="4.65985">
        <ele>52.831586</ele>
        <time>2021-09-16T06:49:11.000Z</time>
      </trkpt>
      <trkpt lat="44.34296" lon="4.66019">
        <ele>52.722867</ele>
        <time>2021-09-16T06:49:20.000Z</time>
      </trkpt>
      <trkpt lat="44.3429" lon="4.66022">
        <ele>52.710618</ele>
        <time>2021-09-16T06:49:21.000Z</time>
      </trkpt>
      <trkpt lat="44.3424" lon="4.66052">
        <ele>52.657209</ele>
        <time>2021-09-16T06:49:29.000Z</time>
      </trkpt>
      <trkpt lat="44.34182" lon="4.66076">
        <ele>52.629572</ele>
        <time>2021-09-16T06:49:38.000Z</time>
      </trkpt>
      <trkpt lat="44.34123" lon="4.66099">
        <ele>52.60174</ele>
        <time>2021-09-16T06:49:47.000Z</time>
      </trkpt>
      <trkpt lat="44.34104" lon="4.66107">
        <ele>52.592542</ele>
        <time>2021-09-16T06:49:50.000Z</time>
      </trkpt>
      <trkpt lat="44.34046" lon="4.6613">
        <ele>52.543065</ele>
        <time>2021-09-16T06:49:59.000Z</time>
      </trkpt>
      <trkpt lat="44.3404" lon="4.66132">
        <ele>52.537316</ele>
        <time>2021-09-16T06:50:00.000Z</time>
      </trkpt>
      <trkpt lat="44.33994" lon="4.66148">
        <ele>52.496789</ele>
        <time>2021-09-16T06:50:09.000Z</time>
      </trkpt>
      <trkpt lat="44.33966" lon="4.66152">
        <ele>52.472428</ele>
        <time>2021-09-16T06:50:11.000Z</time>
      </trkpt>
      <trkpt lat="44.33952" lon="4.66154">
        <ele>52.460088</ele>
        <time>2021-09-16T06:50:13.000Z</time>
      </trkpt>
      <trkpt lat="44.33917" lon="4.66136">
        <ele>52.462148</ele>
        <time>2021-09-16T06:50:18.000Z</time>
      </trkpt>
      <trkpt lat="44.3387" lon="4.66109">
        <ele>52.653943</ele>
        <time>2021-09-16T06:50:25.000Z</time>
      </trkpt>
      <trkpt lat="44.33839" lon="4.66091">
        <ele>52.778112</ele>
        <time>2021-09-16T06:50:30.000Z</time>
      </trkpt>
      <trkpt lat="44.33804" lon="4.66074">
        <ele>52.917148</ele>
        <time>2021-09-16T06:50:36.000Z</time>
      </trkpt>
      <trkpt lat="44.33772" lon="4.6606">
        <ele>53.044437</ele>
        <time>2021-09-16T06:50:41.000Z</time>
      </trkpt>
      <trkpt lat="44.33713" lon="4.66041">
        <ele>53.199294</ele>
        <time>2021-09-16T06:50:49.000Z</time>
      </trkpt>
      <trkpt lat="44.33706" lon="4.66038">
        <ele>53.213748</ele>
        <time>2021-09-16T06:50:50.000Z</time>
      </trkpt>
      <trkpt lat="44.33651" lon="4.66012">
        <ele>53.33571</ele>
        <time>2021-09-16T06:50:58.000Z</time>
      </trkpt>
      <trkpt lat="44.33593" lon="4.65984">
        <ele>53.463809</ele>
        <time>2021-09-16T06:51:06.000Z</time>
      </trkpt>
      <trkpt lat="44.33571" lon="4.65973">
        <ele>53.472</ele>
        <time>2021-09-16T06:51:09.000Z</time>
      </trkpt>
      <trkpt lat="44.33523" lon="4.65956">
        <ele>53.427934</ele>
        <time>2021-09-16T06:51:16.000Z</time>
      </trkpt>
      <trkpt lat="44.33502" lon="4.6595">
        <ele>53.408515</ele>
        <time>2021-09-16T06:51:20.000Z</time>
      </trkpt>
      <trkpt lat="44.33484" lon="4.65944">
        <ele>53.392189</ele>
        <time>2021-09-16T06:51:25.000Z</time>
      </trkpt>
      <trkpt lat="44.33463" lon="4.65938">
        <ele>53.373577</ele>
        <time>2021-09-16T06:51:29.000Z</time>
      </trkpt>
      <trkpt lat="44.33422" lon="4.65926">
        <ele>53.336105</ele>
        <time>2021-09-16T06:51:35.000Z</time>
      </trkpt>
      <trkpt lat="44.33385" lon="4.65919">
        <ele>53.383769</ele>
        <time>2021-09-16T06:51:40.000Z</time>
      </trkpt>
      <trkpt lat="44.3335" lon="4.65919">
        <ele>53.472665</ele>
        <time>2021-09-16T06:51:45.000Z</time>
      </trkpt>
      <trkpt lat="44.33328" lon="4.65922">
        <ele>53.52884</ele>
        <time>2021-09-16T06:51:49.000Z</time>
      </trkpt>
      <trkpt lat="44.33318" lon="4.65925">
        <ele>53.555718</ele>
        <time>2021-09-16T06:51:51.000Z</time>
      </trkpt>
      <trkpt lat="44.33314" lon="4.65927">
        <ele>53.566931</ele>
        <time>2021-09-16T06:51:52.000Z</time>
      </trkpt>
      <trkpt lat="44.33301" lon="4.65931">
        <ele>53.601106</ele>
        <time>2021-09-16T06:51:55.000Z</time>
      </trkpt>
      <trkpt lat="44.33281" lon="4.65938">
        <ele>53.653337</ele>
        <time>2021-09-16T06:51:59.000Z</time>
      </trkpt>
      <trkpt lat="44.33276" lon="4.65939">
        <ele>53.6669</ele>
        <time>2021-09-16T06:52:00.000Z</time>
      </trkpt>
      <trkpt lat="44.33258" lon="4.65945">
        <ele>53.711546</ele>
        <time>2021-09-16T06:52:03.000Z</time>
      </trkpt>
      <trkpt lat="44.33223" lon="4.65957">
        <ele>53.685102</ele>
        <time>2021-09-16T06:52:07.000Z</time>
      </trkpt>
      <trkpt lat="44.3317" lon="4.65974">
        <ele>53.098388</ele>
        <time>2021-09-16T06:52:13.000Z</time>
      </trkpt>
      <trkpt lat="44.33145" lon="4.65982">
        <ele>52.820562</ele>
        <time>2021-09-16T06:52:16.000Z</time>
      </trkpt>
      <trkpt lat="44.3312" lon="4.65983">
        <ele>52.54474</ele>
        <time>2021-09-16T06:52:20.000Z</time>
      </trkpt>
      <trkpt lat="44.33113" lon="4.65983">
        <ele>52.473229</ele>
        <time>2021-09-16T06:52:21.000Z</time>
      </trkpt>
      <trkpt lat="44.3306" lon="4.65974">
        <ele>51.890959</ele>
        <time>2021-09-16T06:52:29.000Z</time>
      </trkpt>
      <trkpt lat="44.33008" lon="4.65965">
        <ele>51.306454</ele>
        <time>2021-09-16T06:52:37.000Z</time>
      </trkpt>
      <trkpt lat="44.32975" lon="4.65967">
        <ele>50.938283</ele>
        <time>2021-09-16T06:52:42.000Z</time>
      </trkpt>
      <trkpt lat="44.32947" lon="4.65967">
        <ele>50.629525</ele>
        <time>2021-09-16T06:52:46.000Z</time>
      </trkpt>
      <trkpt lat="44.32941" lon="4.65967">
        <ele>50.561535</ele>
        <time>2021-09-16T06:52:47.000Z</time>
      </trkpt>
      <trkpt lat="44.32886" lon="4.65959">
        <ele>49.950701</ele>
        <time>2021-09-16T06:52:55.000Z</time>
      </trkpt>
      <trkpt lat="44.32844" lon="4.6595">
        <ele>49.819701</ele>
        <time>2021-09-16T06:53:01.000Z</time>
      </trkpt>
      <trkpt lat="44.32796" lon="4.65939">
        <ele>49.800904</ele>
        <time>2021-09-16T06:53:08.000Z</time>
      </trkpt>
      <trkpt lat="44.32747" lon="4.65929">
        <ele>49.782068</ele>
        <time>2021-09-16T06:53:15.000Z</time>
      </trkpt>
      <trkpt lat="44.327" lon="4.65918">
        <ele>49.763973</ele>
        <time>2021-09-16T06:53:22.000Z</time>
      </trkpt>
      <trkpt lat="44.32674" lon="4.65911">
        <ele>49.814462</ele>
        <time>2021-09-16T06:53:26.000Z</time>
      </trkpt>
      <trkpt lat="44.32661" lon="4.6591">
        <ele>49.840615</ele>
        <time>2021-09-16T06:53:28.000Z</time>
      </trkpt>
      <trkpt lat="44.32624" lon="4.65917">
        <ele>49.918158</ele>
        <time>2021-09-16T06:53:34.000Z</time>
      </trkpt>
      <trkpt lat="44.32604" lon="4.6592">
        <ele>49.959128</ele>
        <time>2021-09-16T06:53:38.000Z</time>
      </trkpt>
      <trkpt lat="44.32584" lon="4.65925">
        <ele>50.002273</ele>
        <time>2021-09-16T06:53:41.000Z</time>
      </trkpt>
      <trkpt lat="44.32576" lon="4.65928">
        <ele>50.018787</ele>
        <time>2021-09-16T06:53:42.000Z</time>
      </trkpt>
      <trkpt lat="44.32568" lon="4.65931">
        <ele>50.037495</ele>
        <time>2021-09-16T06:53:43.000Z</time>
      </trkpt>
      <trkpt lat="44.32543" lon="4.65955">
        <ele>50.099415</ele>
        <time>2021-09-16T06:53:47.000Z</time>
      </trkpt>
      <trkpt lat="44.32503" lon="4.66007">
        <ele>50.215879</ele>
        <time>2021-09-16T06:53:55.000Z</time>
      </trkpt>
      <trkpt lat="44.32493" lon="4.6602">
        <ele>50.244406</ele>
        <time>2021-09-16T06:53:57.000Z</time>
      </trkpt>
      <trkpt lat="44.32456" lon="4.66071">
        <ele>50.357729</ele>
        <time>2021-09-16T06:54:05.000Z</time>
      </trkpt>
      <trkpt lat="44.32432" lon="4.66104">
        <ele>50.430175</ele>
        <time>2021-09-16T06:54:10.000Z</time>
      </trkpt>
      <trkpt lat="44.32399" lon="4.66152">
        <ele>50.515379</ele>
        <time>2021-09-16T06:54:17.000Z</time>
      </trkpt>
      <trkpt lat="44.32367" lon="4.66201">
        <ele>50.406467</ele>
        <time>2021-09-16T06:54:24.000Z</time>
      </trkpt>
      <trkpt lat="44.32336" lon="4.66247">
        <ele>50.303619</ele>
        <time>2021-09-16T06:54:31.000Z</time>
      </trkpt>
      <trkpt lat="44.32306" lon="4.66296">
        <ele>50.198312</ele>
        <time>2021-09-16T06:54:38.000Z</time>
      </trkpt>
      <trkpt lat="44.32283" lon="4.66327">
        <ele>50.127117</ele>
        <time>2021-09-16T06:54:43.000Z</time>
      </trkpt>
      <trkpt lat="44.32249" lon="4.66372">
        <ele>50.136548</ele>
        <time>2021-09-16T06:54:50.000Z</time>
      </trkpt>
      <trkpt lat="44.32226" lon="4.66402">
        <ele>50.153759</ele>
        <time>2021-09-16T06:54:55.000Z</time>
      </trkpt>
      <trkpt lat="44.32194" lon="4.66439">
        <ele>50.175674</ele>
        <time>2021-09-16T06:55:01.000Z</time>
      </trkpt>
      <trkpt lat="44.32181" lon="4.66457">
        <ele>50.185542</ele>
        <time>2021-09-16T06:55:04.000Z</time>
      </trkpt>
      <trkpt lat="44.32177" lon="4.66463">
        <ele>50.188875</ele>
        <time>2021-09-16T06:55:05.000Z</time>
      </trkpt>
      <trkpt lat="44.32164" lon="4.66484">
        <ele>50.199718</ele>
        <time>2021-09-16T06:55:08.000Z</time>
      </trkpt>
      <trkpt lat="44.32156" lon="4.665">
        <ele>50.20698</ele>
        <time>2021-09-16T06:55:10.000Z</time>
      </trkpt>
      <trkpt lat="44.32141" lon="4.66536">
        <ele>50.573975</ele>
        <time>2021-09-16T06:55:15.000Z</time>
      </trkpt>
      <trkpt lat="44.3213" lon="4.66567">
        <ele>50.952406</ele>
        <time>2021-09-16T06:55:19.000Z</time>
      </trkpt>
      <trkpt lat="44.32119" lon="4.66609">
        <ele>51.458444</ele>
        <time>2021-09-16T06:55:24.000Z</time>
      </trkpt>
      <trkpt lat="44.32117" lon="4.66617">
        <ele>51.556221</ele>
        <time>2021-09-16T06:55:25.000Z</time>
      </trkpt>
      <trkpt lat="44.32114" lon="4.66633">
        <ele>51.742269</ele>
        <time>2021-09-16T06:55:27.000Z</time>
      </trkpt>
      <trkpt lat="44.3211" lon="4.6665">
        <ele>51.935209</ele>
        <time>2021-09-16T06:55:29.000Z</time>
      </trkpt>
      <trkpt lat="44.32097" lon="4.66698">
        <ele>52.515819</ele>
        <time>2021-09-16T06:55:34.000Z</time>
      </trkpt>
      <trkpt lat="44.32073" lon="4.66751">
        <ele>53.127462</ele>
        <time>2021-09-16T06:55:40.000Z</time>
      </trkpt>
      <trkpt lat="44.32069" lon="4.66758">
        <ele>53.179524</ele>
        <time>2021-09-16T06:55:41.000Z</time>
      </trkpt>
      <trkpt lat="44.32049" lon="4.66782">
        <ele>53.389811</ele>
        <time>2021-09-16T06:55:45.000Z</time>
      </trkpt>
      <trkpt lat="44.32013" lon="4.66818">
        <ele>53.74785</ele>
        <time>2021-09-16T06:55:52.000Z</time>
      </trkpt>
      <trkpt lat="44.31997" lon="4.66831">
        <ele>53.897527</ele>
        <time>2021-09-16T06:55:55.000Z</time>
      </trkpt>
      <trkpt lat="44.31987" lon="4.6684">
        <ele>53.992626</ele>
        <time>2021-09-16T06:55:57.000Z</time>
      </trkpt>
      <trkpt lat="44.31982" lon="4.66844">
        <ele>54.04067</ele>
        <time>2021-09-16T06:55:58.000Z</time>
      </trkpt>
      <trkpt lat="44.31967" lon="4.66857">
        <ele>54.183122</ele>
        <time>2021-09-16T06:56:01.000Z</time>
      </trkpt>
      <trkpt lat="44.31941" lon="4.66879">
        <ele>54.428284</ele>
        <time>2021-09-16T06:56:06.000Z</time>
      </trkpt>
      <trkpt lat="44.31903" lon="4.66905">
        <ele>54.310056</ele>
        <time>2021-09-16T06:56:12.000Z</time>
      </trkpt>
      <trkpt lat="44.31893" lon="4.66912">
        <ele>54.256252</ele>
        <time>2021-09-16T06:56:14.000Z</time>
      </trkpt>
      <trkpt lat="44.3188" lon="4.66915">
        <ele>54.188065</ele>
        <time>2021-09-16T06:56:16.000Z</time>
      </trkpt>
      <trkpt lat="44.31859" lon="4.66918">
        <ele>54.085331</ele>
        <time>2021-09-16T06:56:19.000Z</time>
      </trkpt>
      <trkpt lat="44.31847" lon="4.6692">
        <ele>54.027828</ele>
        <time>2021-09-16T06:56:21.000Z</time>
      </trkpt>
      <trkpt lat="44.31833" lon="4.66934">
        <ele>53.941785</ele>
        <time>2021-09-16T06:56:24.000Z</time>
      </trkpt>
      <trkpt lat="44.31818" lon="4.66989">
        <ele>53.736569</ele>
        <time>2021-09-16T06:56:30.000Z</time>
      </trkpt>
      <trkpt lat="44.31805" lon="4.67034">
        <ele>53.578772</ele>
        <time>2021-09-16T06:56:35.000Z</time>
      </trkpt>
      <trkpt lat="44.31797" lon="4.67062">
        <ele>53.512293</ele>
        <time>2021-09-16T06:56:38.000Z</time>
      </trkpt>
      <trkpt lat="44.3179" lon="4.67088">
        <ele>53.44763</ele>
        <time>2021-09-16T06:56:41.000Z</time>
      </trkpt>
      <trkpt lat="44.3177" lon="4.67157">
        <ele>53.277376</ele>
        <time>2021-09-16T06:56:49.000Z</time>
      </trkpt>
      <trkpt lat="44.31748" lon="4.67236">
        <ele>53.084891</ele>
        <time>2021-09-16T06:56:58.000Z</time>
      </trkpt>
      <trkpt lat="44.31727" lon="4.67314">
        <ele>52.899668</ele>
        <time>2021-09-16T06:57:07.000Z</time>
      </trkpt>
      <trkpt lat="44.31717" lon="4.6735">
        <ele>52.817256</ele>
        <time>2021-09-16T06:57:11.000Z</time>
      </trkpt>
      <trkpt lat="44.31712" lon="4.67368">
        <ele>52.77559</ele>
        <time>2021-09-16T06:57:13.000Z</time>
      </trkpt>
      <trkpt lat="44.31691" lon="4.67441">
        <ele>52.605256</ele>
        <time>2021-09-16T06:57:21.000Z</time>
      </trkpt>
      <trkpt lat="44.31689" lon="4.6745">
        <ele>52.583808</ele>
        <time>2021-09-16T06:57:22.000Z</time>
      </trkpt>
      <trkpt lat="44.31681" lon="4.67469">
        <ele>52.535851</ele>
        <time>2021-09-16T06:57:24.000Z</time>
      </trkpt>
      <trkpt lat="44.31638" lon="4.67504">
        <ele>52.436522</ele>
        <time>2021-09-16T06:57:31.000Z</time>
      </trkpt>
      <trkpt lat="44.31589" lon="4.67544">
        <ele>52.352687</ele>
        <time>2021-09-16T06:57:39.000Z</time>
      </trkpt>
      <trkpt lat="44.31583" lon="4.67549">
        <ele>52.342026</ele>
        <time>2021-09-16T06:57:40.000Z</time>
      </trkpt>
      <trkpt lat="44.31534" lon="4.67589">
        <ele>52.25739</ele>
        <time>2021-09-16T06:57:48.000Z</time>
      </trkpt>
      <trkpt lat="44.31478" lon="4.67635">
        <ele>52.305628</ele>
        <time>2021-09-16T06:57:56.000Z</time>
      </trkpt>
      <trkpt lat="44.31472" lon="4.6764">
        <ele>52.322155</ele>
        <time>2021-09-16T06:57:58.000Z</time>
      </trkpt>
      <trkpt lat="44.31424" lon="4.67678">
        <ele>52.452429</ele>
        <time>2021-09-16T06:58:06.000Z</time>
      </trkpt>
      <trkpt lat="44.31394" lon="4.67701">
        <ele>52.532799</ele>
        <time>2021-09-16T06:58:11.000Z</time>
      </trkpt>
      <trkpt lat="44.31365" lon="4.67724">
        <ele>52.612309</ele>
        <time>2021-09-16T06:58:16.000Z</time>
      </trkpt>
      <trkpt lat="44.31331" lon="4.67752">
        <ele>52.589364</ele>
        <time>2021-09-16T06:58:22.000Z</time>
      </trkpt>
      <trkpt lat="44.31284" lon="4.67789">
        <ele>52.490773</ele>
        <time>2021-09-16T06:58:30.000Z</time>
      </trkpt>
      <trkpt lat="44.31237" lon="4.67828">
        <ele>52.390148</ele>
        <time>2021-09-16T06:58:38.000Z</time>
      </trkpt>
      <trkpt lat="44.3122" lon="4.67842">
        <ele>52.352555</ele>
        <time>2021-09-16T06:58:41.000Z</time>
      </trkpt>
      <trkpt lat="44.31168" lon="4.67884">
        <ele>52.237629</ele>
        <time>2021-09-16T06:58:50.000Z</time>
      </trkpt>
      <trkpt lat="44.31162" lon="4.67889">
        <ele>52.225465</ele>
        <time>2021-09-16T06:58:51.000Z</time>
      </trkpt>
      <trkpt lat="44.31152" lon="4.67897">
        <ele>52.202365</ele>
        <time>2021-09-16T06:58:53.000Z</time>
      </trkpt>
      <trkpt lat="44.31142" lon="4.67905">
        <ele>52.178377</ele>
        <time>2021-09-16T06:58:55.000Z</time>
      </trkpt>
      <trkpt lat="44.31136" lon="4.6791">
        <ele>52.166144</ele>
        <time>2021-09-16T06:58:56.000Z</time>
      </trkpt>
      <trkpt lat="44.31114" lon="4.67927">
        <ele>52.116362</ele>
        <time>2021-09-16T06:59:00.000Z</time>
      </trkpt>
      <trkpt lat="44.31075" lon="4.67959">
        <ele>52.028822</ele>
        <time>2021-09-16T06:59:07.000Z</time>
      </trkpt>
      <trkpt lat="44.31032" lon="4.67994">
        <ele>51.910783</ele>
        <time>2021-09-16T06:59:14.000Z</time>
      </trkpt>
      <trkpt lat="44.30984" lon="4.68033">
        <ele>51.709459</ele>
        <time>2021-09-16T06:59:22.000Z</time>
      </trkpt>
      <trkpt lat="44.30979" lon="4.68039">
        <ele>51.684445</ele>
        <time>2021-09-16T06:59:23.000Z</time>
      </trkpt>
      <trkpt lat="44.30939" lon="4.68075">
        <ele>51.513321</ele>
        <time>2021-09-16T06:59:30.000Z</time>
      </trkpt>
      <trkpt lat="44.30905" lon="4.6812">
        <ele>51.344444</ele>
        <time>2021-09-16T06:59:37.000Z</time>
      </trkpt>
      <trkpt lat="44.30882" lon="4.68153">
        <ele>51.283772</ele>
        <time>2021-09-16T06:59:42.000Z</time>
      </trkpt>
      <trkpt lat="44.30877" lon="4.6816">
        <ele>51.277136</ele>
        <time>2021-09-16T06:59:43.000Z</time>
      </trkpt>
      <trkpt lat="44.30841" lon="4.682">
        <ele>51.23044</ele>
        <time>2021-09-16T06:59:50.000Z</time>
      </trkpt>
      <trkpt lat="44.30811" lon="4.68227">
        <ele>51.194114</ele>
        <time>2021-09-16T06:59:55.000Z</time>
      </trkpt>
      <trkpt lat="44.30757" lon="4.68255">
        <ele>51.135312</ele>
        <time>2021-09-16T07:00:03.000Z</time>
      </trkpt>
      <trkpt lat="44.3075" lon="4.68258">
        <ele>51.128322</ele>
        <time>2021-09-16T07:00:04.000Z</time>
      </trkpt>
      <trkpt lat="44.30744" lon="4.68262">
        <ele>51.122694</ele>
        <time>2021-09-16T07:00:05.000Z</time>
      </trkpt>
      <trkpt lat="44.30726" lon="4.68277">
        <ele>51.109935</ele>
        <time>2021-09-16T07:00:08.000Z</time>
      </trkpt>
      <trkpt lat="44.30713" lon="4.68298">
        <ele>51.097598</ele>
        <time>2021-09-16T07:00:11.000Z</time>
      </trkpt>
      <trkpt lat="44.30709" lon="4.68306">
        <ele>51.093633</ele>
        <time>2021-09-16T07:00:12.000Z</time>
      </trkpt>
      <trkpt lat="44.30708" lon="4.68314">
        <ele>51.089998</ele>
        <time>2021-09-16T07:00:13.000Z</time>
      </trkpt>
      <trkpt lat="44.30706" lon="4.68321">
        <ele>51.086775</ele>
        <time>2021-09-16T07:00:14.000Z</time>
      </trkpt>
      <trkpt lat="44.30697" lon="4.68328">
        <ele>51.080174</ele>
        <time>2021-09-16T07:00:15.000Z</time>
      </trkpt>
      <trkpt lat="44.30692" lon="4.68324">
        <ele>51.077011</ele>
        <time>2021-09-16T07:00:16.000Z</time>
      </trkpt>
      <trkpt lat="44.30688" lon="4.68318">
        <ele>51.07319</ele>
        <time>2021-09-16T07:00:17.000Z</time>
      </trkpt>
      <trkpt lat="44.30672" lon="4.68289">
        <ele>51.057018</ele>
        <time>2021-09-16T07:00:21.000Z</time>
      </trkpt>
      <trkpt lat="44.30663" lon="4.68275">
        <ele>51.048897</ele>
        <time>2021-09-16T07:00:23.000Z</time>
      </trkpt>
      <trkpt lat="44.30652" lon="4.68264">
        <ele>51.040901</ele>
        <time>2021-09-16T07:00:25.000Z</time>
      </trkpt>
      <trkpt lat="44.30616" lon="4.68248">
        <ele>51.017747</ele>
        <time>2021-09-16T07:00:31.000Z</time>
      </trkpt>
      <trkpt lat="44.30563" lon="4.68226">
        <ele>50.769095</ele>
        <time>2021-09-16T07:00:39.000Z</time>
      </trkpt>
      <trkpt lat="44.30509" lon="4.68205">
        <ele>50.496956</ele>
        <time>2021-09-16T07:00:47.000Z</time>
      </trkpt>
      <trkpt lat="44.30503" lon="4.68203">
        <ele>50.463411</ele>
        <time>2021-09-16T07:00:48.000Z</time>
      </trkpt>
      <trkpt lat="44.30476" lon="4.68197">
        <ele>50.32998</ele>
        <time>2021-09-16T07:00:52.000Z</time>
      </trkpt>
      <trkpt lat="44.30456" lon="4.68196">
        <ele>50.233482</ele>
        <time>2021-09-16T07:00:55.000Z</time>
      </trkpt>
      <trkpt lat="44.30409" lon="4.68199">
        <ele>50.091395</ele>
        <time>2021-09-16T07:01:02.000Z</time>
      </trkpt>
      <trkpt lat="44.30353" lon="4.68212">
        <ele>50.002152</ele>
        <time>2021-09-16T07:01:10.000Z</time>
      </trkpt>
      <trkpt lat="44.30346" lon="4.68214">
        <ele>49.990985</ele>
        <time>2021-09-16T07:01:11.000Z</time>
      </trkpt>
      <trkpt lat="44.30304" lon="4.68226">
        <ele>49.923423</ele>
        <time>2021-09-16T07:01:17.000Z</time>
      </trkpt>
      <trkpt lat="44.30298" lon="4.68228">
        <ele>49.912721</ele>
        <time>2021-09-16T07:01:18.000Z</time>
      </trkpt>
      <trkpt lat="44.30254" lon="4.68233">
        <ele>49.837524</ele>
        <time>2021-09-16T07:01:24.000Z</time>
      </trkpt>
      <trkpt lat="44.30198" lon="4.68226">
        <ele>49.662061</ele>
        <time>2021-09-16T07:01:32.000Z</time>
      </trkpt>
      <trkpt lat="44.30185" lon="4.68224">
        <ele>49.619533</ele>
        <time>2021-09-16T07:01:34.000Z</time>
      </trkpt>
      <trkpt lat="44.30136" lon="4.68232">
        <ele>49.468181</ele>
        <time>2021-09-16T07:01:41.000Z</time>
      </trkpt>
      <trkpt lat="44.30081" lon="4.68247">
        <ele>49.290665</ele>
        <time>2021-09-16T07:01:49.000Z</time>
      </trkpt>
      <trkpt lat="44.30054" lon="4.68258">
        <ele>49.179826</ele>
        <time>2021-09-16T07:01:53.000Z</time>
      </trkpt>
      <trkpt lat="44.30048" lon="4.68261">
        <ele>49.154992</ele>
        <time>2021-09-16T07:01:54.000Z</time>
      </trkpt>
      <trkpt lat="44.30015" lon="4.68277">
        <ele>49.014835</ele>
        <time>2021-09-16T07:01:59.000Z</time>
      </trkpt>
      <trkpt lat="44.2998" lon="4.68289">
        <ele>48.871948</ele>
        <time>2021-09-16T07:02:04.000Z</time>
      </trkpt>
      <trkpt lat="44.29973" lon="4.6829">
        <ele>48.842786</ele>
        <time>2021-09-16T07:02:05.000Z</time>
      </trkpt>
      <trkpt lat="44.29951" lon="4.68288">
        <ele>48.756167</ele>
        <time>2021-09-16T07:02:08.000Z</time>
      </trkpt>
      <trkpt lat="44.29905" lon="4.68263">
        <ele>48.578119</ele>
        <time>2021-09-16T07:02:15.000Z</time>
      </trkpt>
      <trkpt lat="44.29864" lon="4.68224">
        <ele>48.683812</ele>
        <time>2021-09-16T07:02:22.000Z</time>
      </trkpt>
      <trkpt lat="44.29833" lon="4.68204">
        <ele>48.757499</ele>
        <time>2021-09-16T07:02:27.000Z</time>
      </trkpt>
      <trkpt lat="44.29827" lon="4.682">
        <ele>48.772397</ele>
        <time>2021-09-16T07:02:28.000Z</time>
      </trkpt>
      <trkpt lat="44.2979" lon="4.68175">
        <ele>48.861059</ele>
        <time>2021-09-16T07:02:34.000Z</time>
      </trkpt>
      <trkpt lat="44.29754" lon="4.68147">
        <ele>48.950314</ele>
        <time>2021-09-16T07:02:40.000Z</time>
      </trkpt>
      <trkpt lat="44.29712" lon="4.68112">
        <ele>49.244806</ele>
        <time>2021-09-16T07:02:47.000Z</time>
      </trkpt>
      <trkpt lat="44.2968" lon="4.68077">
        <ele>49.503987</ele>
        <time>2021-09-16T07:02:53.000Z</time>
      </trkpt>
      <trkpt lat="44.29653" lon="4.68039">
        <ele>49.750287</ele>
        <time>2021-09-16T07:02:59.000Z</time>
      </trkpt>
      <trkpt lat="44.2964" lon="4.68018">
        <ele>49.874853</ele>
        <time>2021-09-16T07:03:02.000Z</time>
      </trkpt>
      <trkpt lat="44.29631" lon="4.68005">
        <ele>49.957592</ele>
        <time>2021-09-16T07:03:04.000Z</time>
      </trkpt>
      <trkpt lat="44.29607" lon="4.67966">
        <ele>50.126353</ele>
        <time>2021-09-16T07:03:10.000Z</time>
      </trkpt>
      <trkpt lat="44.296" lon="4.67953">
        <ele>50.144199</ele>
        <time>2021-09-16T07:03:12.000Z</time>
      </trkpt>
      <trkpt lat="44.29594" lon="4.67939">
        <ele>50.162989</ele>
        <time>2021-09-16T07:03:14.000Z</time>
      </trkpt>
      <trkpt lat="44.29588" lon="4.67923">
        <ele>50.182037</ele>
        <time>2021-09-16T07:03:16.000Z</time>
      </trkpt>
      <trkpt lat="44.29589" lon="4.67905">
        <ele>50.201741</ele>
        <time>2021-09-16T07:03:18.000Z</time>
      </trkpt>
      <trkpt lat="44.29588" lon="4.67844">
        <ele>50.269925</ele>
        <time>2021-09-16T07:03:25.000Z</time>
      </trkpt>
      <trkpt lat="44.29585" lon="4.67782">
        <ele>50.338188</ele>
        <time>2021-09-16T07:03:32.000Z</time>
      </trkpt>
      <trkpt lat="44.29588" lon="4.67719">
        <ele>50.343389</ele>
        <time>2021-09-16T07:03:39.000Z</time>
      </trkpt>
      <trkpt lat="44.2959" lon="4.67705">
        <ele>50.317319</ele>
        <time>2021-09-16T07:03:41.000Z</time>
      </trkpt>
      <trkpt lat="44.29592" lon="4.67683">
        <ele>50.278335</ele>
        <time>2021-09-16T07:03:44.000Z</time>
      </trkpt>
      <trkpt lat="44.29597" lon="4.67614">
        <ele>50.153245</ele>
        <time>2021-09-16T07:03:51.000Z</time>
      </trkpt>
      <trkpt lat="44.29592" lon="4.67561">
        <ele>50.057938</ele>
        <time>2021-09-16T07:03:57.000Z</time>
      </trkpt>
      <trkpt lat="44.29583" lon="4.6752">
        <ele>49.981392</ele>
        <time>2021-09-16T07:04:02.000Z</time>
      </trkpt>
      <trkpt lat="44.2958" lon="4.67503">
        <ele>49.950092</ele>
        <time>2021-09-16T07:04:04.000Z</time>
      </trkpt>
      <trkpt lat="44.2957" lon="4.6749">
        <ele>49.909153</ele>
        <time>2021-09-16T07:04:06.000Z</time>
      </trkpt>
      <trkpt lat="44.29564" lon="4.67487">
        <ele>49.886662</ele>
        <time>2021-09-16T07:04:07.000Z</time>
      </trkpt>
      <trkpt lat="44.29524" lon="4.67487">
        <ele>49.744273</ele>
        <time>2021-09-16T07:04:13.000Z</time>
      </trkpt>
      <trkpt lat="44.29468" lon="4.67491">
        <ele>49.545119</ele>
        <time>2021-09-16T07:04:21.000Z</time>
      </trkpt>
      <trkpt lat="44.29461" lon="4.67491">
        <ele>49.519113</ele>
        <time>2021-09-16T07:04:22.000Z</time>
      </trkpt>
      <trkpt lat="44.29417" lon="4.67483">
        <ele>49.36306</ele>
        <time>2021-09-16T07:04:28.000Z</time>
      </trkpt>
      <trkpt lat="44.29362" lon="4.67457">
        <ele>49.17505</ele>
        <time>2021-09-16T07:04:36.000Z</time>
      </trkpt>
      <trkpt lat="44.29307" lon="4.67434">
        <ele>49.001941</ele>
        <time>2021-09-16T07:04:44.000Z</time>
      </trkpt>
      <trkpt lat="44.293" lon="4.67432">
        <ele>48.980538</ele>
        <time>2021-09-16T07:04:45.000Z</time>
      </trkpt>
      <trkpt lat="44.29244" lon="4.67418">
        <ele>48.808802</ele>
        <time>2021-09-16T07:04:53.000Z</time>
      </trkpt>
      <trkpt lat="44.29237" lon="4.67416">
        <ele>48.787918</ele>
        <time>2021-09-16T07:04:54.000Z</time>
      </trkpt>
      <trkpt lat="44.29181" lon="4.67401">
        <ele>48.616728</ele>
        <time>2021-09-16T07:05:02.000Z</time>
      </trkpt>
      <trkpt lat="44.29174" lon="4.67399">
        <ele>48.594772</ele>
        <time>2021-09-16T07:05:03.000Z</time>
      </trkpt>
      <trkpt lat="44.29118" lon="4.67382">
        <ele>48.421065</ele>
        <time>2021-09-16T07:05:11.000Z</time>
      </trkpt>
      <trkpt lat="44.29104" lon="4.67377">
        <ele>48.377846</ele>
        <time>2021-09-16T07:05:13.000Z</time>
      </trkpt>
      <trkpt lat="44.29051" lon="4.67359">
        <ele>48.211613</ele>
        <time>2021-09-16T07:05:21.000Z</time>
      </trkpt>
      <trkpt lat="44.29044" lon="4.67357">
        <ele>48.194592</ele>
        <time>2021-09-16T07:05:22.000Z</time>
      </trkpt>
      <trkpt lat="44.28989" lon="4.67345">
        <ele>48.079578</ele>
        <time>2021-09-16T07:05:30.000Z</time>
      </trkpt>
      <trkpt lat="44.28975" lon="4.67342">
        <ele>48.050752</ele>
        <time>2021-09-16T07:05:32.000Z</time>
      </trkpt>
      <trkpt lat="44.2892" lon="4.67332">
        <ele>47.935855</ele>
        <time>2021-09-16T07:05:40.000Z</time>
      </trkpt>
      <trkpt lat="44.28864" lon="4.67321">
        <ele>47.859198</ele>
        <time>2021-09-16T07:05:48.000Z</time>
      </trkpt>
      <trkpt lat="44.2881" lon="4.67311">
        <ele>48.032922</ele>
        <time>2021-09-16T07:05:56.000Z</time>
      </trkpt>
      <trkpt lat="44.28763" lon="4.67304">
        <ele>48.185143</ele>
        <time>2021-09-16T07:06:03.000Z</time>
      </trkpt>
      <trkpt lat="44.28721" lon="4.67299">
        <ele>48.318552</ele>
        <time>2021-09-16T07:06:09.000Z</time>
      </trkpt>
      <trkpt lat="44.28667" lon="4.67291">
        <ele>48.476484</ele>
        <time>2021-09-16T07:06:17.000Z</time>
      </trkpt>
      <trkpt lat="44.2866" lon="4.67291">
        <ele>48.493586</ele>
        <time>2021-09-16T07:06:18.000Z</time>
      </trkpt>
      <trkpt lat="44.28612" lon="4.67287">
        <ele>48.615116</ele>
        <time>2021-09-16T07:06:25.000Z</time>
      </trkpt>
      <trkpt lat="44.28598" lon="4.67281">
        <ele>48.652062</ele>
        <time>2021-09-16T07:06:27.000Z</time>
      </trkpt>
      <trkpt lat="44.28588" lon="4.67237">
        <ele>48.735984</ele>
        <time>2021-09-16T07:06:32.000Z</time>
      </trkpt>
      <trkpt lat="44.28577" lon="4.67191">
        <ele>48.823418</ele>
        <time>2021-09-16T07:06:37.000Z</time>
      </trkpt>
      <trkpt lat="44.28575" lon="4.67183">
        <ele>48.83902</ele>
        <time>2021-09-16T07:06:38.000Z</time>
      </trkpt>
      <trkpt lat="44.28571" lon="4.67176">
        <ele>48.85501</ele>
        <time>2021-09-16T07:06:39.000Z</time>
      </trkpt>
      <trkpt lat="44.28566" lon="4.67172">
        <ele>48.868085</ele>
        <time>2021-09-16T07:06:40.000Z</time>
      </trkpt>
      <trkpt lat="44.28529" lon="4.67171">
        <ele>48.83091</ele>
        <time>2021-09-16T07:06:45.000Z</time>
      </trkpt>
      <trkpt lat="44.28521" lon="4.67171">
        <ele>48.823652</ele>
        <time>2021-09-16T07:06:46.000Z</time>
      </trkpt>
      <trkpt lat="44.28492" lon="4.67172">
        <ele>48.795308</ele>
        <time>2021-09-16T07:06:50.000Z</time>
      </trkpt>
      <trkpt lat="44.28485" lon="4.67172">
        <ele>48.788344</ele>
        <time>2021-09-16T07:06:51.000Z</time>
      </trkpt>
      <trkpt lat="44.28457" lon="4.67172">
        <ele>48.761177</ele>
        <time>2021-09-16T07:06:55.000Z</time>
      </trkpt>
      <trkpt lat="44.28417" lon="4.67173">
        <ele>48.721455</ele>
        <time>2021-09-16T07:07:01.000Z</time>
      </trkpt>
      <trkpt lat="44.2841" lon="4.67173">
        <ele>48.714884</ele>
        <time>2021-09-16T07:07:02.000Z</time>
      </trkpt>
      <trkpt lat="44.28376" lon="4.67173">
        <ele>48.672777</ele>
        <time>2021-09-16T07:07:07.000Z</time>
      </trkpt>
      <trkpt lat="44.28362" lon="4.67173">
        <ele>48.649384</ele>
        <time>2021-09-16T07:07:09.000Z</time>
      </trkpt>
      <trkpt lat="44.28349" lon="4.6717">
        <ele>48.627154</ele>
        <time>2021-09-16T07:07:11.000Z</time>
      </trkpt>
      <trkpt lat="44.28332" lon="4.67153">
        <ele>48.592687</ele>
        <time>2021-09-16T07:07:14.000Z</time>
      </trkpt>
      <trkpt lat="44.28327" lon="4.67147">
        <ele>48.580979</ele>
        <time>2021-09-16T07:07:15.000Z</time>
      </trkpt>
      <trkpt lat="44.28321" lon="4.67141">
        <ele>48.568814</ele>
        <time>2021-09-16T07:07:16.000Z</time>
      </trkpt>
      <trkpt lat="44.28315" lon="4.67139">
        <ele>48.557059</ele>
        <time>2021-09-16T07:07:17.000Z</time>
      </trkpt>
      <trkpt lat="44.28308" lon="4.67141">
        <ele>48.545694</ele>
        <time>2021-09-16T07:07:18.000Z</time>
      </trkpt>
      <trkpt lat="44.28291" lon="4.67155">
        <ele>48.51151</ele>
        <time>2021-09-16T07:07:21.000Z</time>
      </trkpt>
      <trkpt lat="44.28246" lon="4.67195">
        <ele>48.421823</ele>
        <time>2021-09-16T07:07:29.000Z</time>
      </trkpt>
      <trkpt lat="44.28207" lon="4.67229">
        <ele>48.41029</ele>
        <time>2021-09-16T07:07:36.000Z</time>
      </trkpt>
      <trkpt lat="44.28201" lon="4.67233">
        <ele>48.416083</ele>
        <time>2021-09-16T07:07:37.000Z</time>
      </trkpt>
      <trkpt lat="44.28195" lon="4.67235">
        <ele>48.422002</ele>
        <time>2021-09-16T07:07:38.000Z</time>
      </trkpt>
      <trkpt lat="44.28181" lon="4.67234">
        <ele>48.434035</ele>
        <time>2021-09-16T07:07:40.000Z</time>
      </trkpt>
      <trkpt lat="44.28158" lon="4.67217">
        <ele>48.458162</ele>
        <time>2021-09-16T07:07:44.000Z</time>
      </trkpt>
      <trkpt lat="44.28127" lon="4.67183">
        <ele>48.493731</ele>
        <time>2021-09-16T07:07:50.000Z</time>
      </trkpt>
      <trkpt lat="44.28115" lon="4.67175">
        <ele>48.505422</ele>
        <time>2021-09-16T07:07:52.000Z</time>
      </trkpt>
      <trkpt lat="44.2807" lon="4.67162">
        <ele>48.546709</ele>
        <time>2021-09-16T07:07:59.000Z</time>
      </trkpt>
      <trkpt lat="44.28014" lon="4.67147">
        <ele>48.536358</ele>
        <time>2021-09-16T07:08:07.000Z</time>
      </trkpt>
      <trkpt lat="44.27958" lon="4.6713">
        <ele>48.522209</ele>
        <time>2021-09-16T07:08:15.000Z</time>
      </trkpt>
      <trkpt lat="44.27937" lon="4.67123">
        <ele>48.516798</ele>
        <time>2021-09-16T07:08:18.000Z</time>
      </trkpt>
      <trkpt lat="44.27917" lon="4.67113">
        <ele>48.511633</ele>
        <time>2021-09-16T07:08:21.000Z</time>
      </trkpt>
      <trkpt lat="44.2788" lon="4.67088">
        <ele>48.493517</ele>
        <time>2021-09-16T07:08:27.000Z</time>
      </trkpt>
      <trkpt lat="44.27837" lon="4.67059">
        <ele>48.45773</ele>
        <time>2021-09-16T07:08:34.000Z</time>
      </trkpt>
      <trkpt lat="44.27785" lon="4.67038">
        <ele>48.416832</ele>
        <time>2021-09-16T07:08:42.000Z</time>
      </trkpt>
      <trkpt lat="44.2774" lon="4.67019">
        <ele>48.381462</ele>
        <time>2021-09-16T07:08:49.000Z</time>
      </trkpt>
      <trkpt lat="44.27721" lon="4.67012">
        <ele>48.368385</ele>
        <time>2021-09-16T07:08:52.000Z</time>
      </trkpt>
      <trkpt lat="44.27709" lon="4.67001">
        <ele>48.363481</ele>
        <time>2021-09-16T07:08:54.000Z</time>
      </trkpt>
      <trkpt lat="44.27678" lon="4.66961">
        <ele>48.349084</ele>
        <time>2021-09-16T07:09:00.000Z</time>
      </trkpt>
      <trkpt lat="44.27639" lon="4.66905">
        <ele>48.329675</ele>
        <time>2021-09-16T07:09:08.000Z</time>
      </trkpt>
      <trkpt lat="44.27619" lon="4.66877">
        <ele>48.320035</ele>
        <time>2021-09-16T07:09:12.000Z</time>
      </trkpt>
      <trkpt lat="44.2758" lon="4.66821">
        <ele>48.356745</ele>
        <time>2021-09-16T07:09:20.000Z</time>
      </trkpt>
      <trkpt lat="44.27569" lon="4.66808">
        <ele>48.388471</ele>
        <time>2021-09-16T07:09:22.000Z</time>
      </trkpt>
      <trkpt lat="44.2753" lon="4.6677">
        <ele>48.498823</ele>
        <time>2021-09-16T07:09:29.000Z</time>
      </trkpt>
      <trkpt lat="44.27486" lon="4.66727">
        <ele>48.622639</ele>
        <time>2021-09-16T07:09:37.000Z</time>
      </trkpt>
      <trkpt lat="44.27481" lon="4.66722">
        <ele>48.636574</ele>
        <time>2021-09-16T07:09:38.000Z</time>
      </trkpt>
      <trkpt lat="44.27463" lon="4.66704">
        <ele>48.687419</ele>
        <time>2021-09-16T07:09:42.000Z</time>
      </trkpt>
      <trkpt lat="44.27459" lon="4.66699">
        <ele>48.699945</ele>
        <time>2021-09-16T07:09:43.000Z</time>
      </trkpt>
      <trkpt lat="44.27439" lon="4.6668">
        <ele>48.726402</ele>
        <time>2021-09-16T07:09:47.000Z</time>
      </trkpt>
      <trkpt lat="44.27406" lon="4.66654">
        <ele>48.740281</ele>
        <time>2021-09-16T07:09:53.000Z</time>
      </trkpt>
      <trkpt lat="44.27399" lon="4.66651">
        <ele>48.742675</ele>
        <time>2021-09-16T07:09:54.000Z</time>
      </trkpt>
      <trkpt lat="44.27393" lon="4.66648">
        <ele>48.744993</ele>
        <time>2021-09-16T07:09:55.000Z</time>
      </trkpt>
      <trkpt lat="44.27375" lon="4.66642">
        <ele>48.751881</ele>
        <time>2021-09-16T07:09:58.000Z</time>
      </trkpt>
      <trkpt lat="44.27341" lon="4.6664">
        <ele>48.763941</ele>
        <time>2021-09-16T07:10:03.000Z</time>
      </trkpt>
      <trkpt lat="44.273" lon="4.66639">
        <ele>48.778988</ele>
        <time>2021-09-16T07:10:09.000Z</time>
      </trkpt>
      <trkpt lat="44.2726" lon="4.66658">
        <ele>48.721822</ele>
        <time>2021-09-16T07:10:15.000Z</time>
      </trkpt>
      <trkpt lat="44.27226" lon="4.66673">
        <ele>48.621319</ele>
        <time>2021-09-16T07:10:20.000Z</time>
      </trkpt>
      <trkpt lat="44.27219" lon="4.66673">
        <ele>48.601375</ele>
        <time>2021-09-16T07:10:21.000Z</time>
      </trkpt>
      <trkpt lat="44.27212" lon="4.66673">
        <ele>48.581146</ele>
        <time>2021-09-16T07:10:22.000Z</time>
      </trkpt>
      <trkpt lat="44.27184" lon="4.66668">
        <ele>48.49923</ele>
        <time>2021-09-16T07:10:26.000Z</time>
      </trkpt>
      <trkpt lat="44.27127" lon="4.66652">
        <ele>48.335976</ele>
        <time>2021-09-16T07:10:34.000Z</time>
      </trkpt>
      <trkpt lat="44.2712" lon="4.6665">
        <ele>48.315856</ele>
        <time>2021-09-16T07:10:35.000Z</time>
      </trkpt>
      <trkpt lat="44.27065" lon="4.66633">
        <ele>48.182674</ele>
        <time>2021-09-16T07:10:43.000Z</time>
      </trkpt>
      <trkpt lat="44.27058" lon="4.66634">
        <ele>48.166383</ele>
        <time>2021-09-16T07:10:44.000Z</time>
      </trkpt>
      <trkpt lat="44.27044" lon="4.66639">
        <ele>48.135915</ele>
        <time>2021-09-16T07:10:46.000Z</time>
      </trkpt>
      <trkpt lat="44.27038" lon="4.66642">
        <ele>48.121376</ele>
        <time>2021-09-16T07:10:47.000Z</time>
      </trkpt>
      <trkpt lat="44.2702" lon="4.66658">
        <ele>48.075371</ele>
        <time>2021-09-16T07:10:50.000Z</time>
      </trkpt>
      <trkpt lat="44.27007" lon="4.66669">
        <ele>48.040748</ele>
        <time>2021-09-16T07:10:52.000Z</time>
      </trkpt>
      <trkpt lat="44.26996" lon="4.66663">
        <ele>48.014195</ele>
        <time>2021-09-16T07:10:54.000Z</time>
      </trkpt>
      <trkpt lat="44.26985" lon="4.66657">
        <ele>47.989818</ele>
        <time>2021-09-16T07:10:56.000Z</time>
      </trkpt>
      <trkpt lat="44.26968" lon="4.66644">
        <ele>47.947789</ele>
        <time>2021-09-16T07:11:00.000Z</time>
      </trkpt>
      <trkpt lat="44.2695" lon="4.66617">
        <ele>47.889373</ele>
        <time>2021-09-16T07:11:05.000Z</time>
      </trkpt>
      <trkpt lat="44.26926" lon="4.6658">
        <ele>47.844486</ele>
        <time>2021-09-16T07:11:10.000Z</time>
      </trkpt>
      <trkpt lat="44.26888" lon="4.66527">
        <ele>47.782501</ele>
        <time>2021-09-16T07:11:17.000Z</time>
      </trkpt>
      <trkpt lat="44.26851" lon="4.66496">
        <ele>47.732917</ele>
        <time>2021-09-16T07:11:23.000Z</time>
      </trkpt>
      <trkpt lat="44.26801" lon="4.66464">
        <ele>47.666341</ele>
        <time>2021-09-16T07:11:31.000Z</time>
      </trkpt>
      <trkpt lat="44.26794" lon="4.6646">
        <ele>47.653799</ele>
        <time>2021-09-16T07:11:32.000Z</time>
      </trkpt>
      <trkpt lat="44.26754" lon="4.66427">
        <ele>47.568956</ele>
        <time>2021-09-16T07:11:39.000Z</time>
      </trkpt>
      <trkpt lat="44.26736" lon="4.66417">
        <ele>47.53514</ele>
        <time>2021-09-16T07:11:42.000Z</time>
      </trkpt>
      <trkpt lat="44.26718" lon="4.66408">
        <ele>47.499933</ele>
        <time>2021-09-16T07:11:45.000Z</time>
      </trkpt>
      <trkpt lat="44.26674" lon="4.66403">
        <ele>47.418842</ele>
        <time>2021-09-16T07:11:52.000Z</time>
      </trkpt>
      <trkpt lat="44.26635" lon="4.66406">
        <ele>47.348266</ele>
        <time>2021-09-16T07:11:58.000Z</time>
      </trkpt>
      <trkpt lat="44.26582" lon="4.6641">
        <ele>47.182829</ele>
        <time>2021-09-16T07:12:06.000Z</time>
      </trkpt>
      <trkpt lat="44.26522" lon="4.66413">
        <ele>46.996818</ele>
        <time>2021-09-16T07:12:15.000Z</time>
      </trkpt>
      <trkpt lat="44.26463" lon="4.66415">
        <ele>46.810813</ele>
        <time>2021-09-16T07:12:24.000Z</time>
      </trkpt>
      <trkpt lat="44.26456" lon="4.66415">
        <ele>46.790179</ele>
        <time>2021-09-16T07:12:25.000Z</time>
      </trkpt>
      <trkpt lat="44.26412" lon="4.66422">
        <ele>46.753516</ele>
        <time>2021-09-16T07:12:32.000Z</time>
      </trkpt>
      <trkpt lat="44.26367" lon="4.66434">
        <ele>46.719172</ele>
        <time>2021-09-16T07:12:39.000Z</time>
      </trkpt>
      <trkpt lat="44.26361" lon="4.66437">
        <ele>46.714312</ele>
        <time>2021-09-16T07:12:40.000Z</time>
      </trkpt>
      <trkpt lat="44.26348" lon="4.66442">
        <ele>46.704609</ele>
        <time>2021-09-16T07:12:42.000Z</time>
      </trkpt>
      <trkpt lat="44.26315" lon="4.66423">
        <ele>46.677691</ele>
        <time>2021-09-16T07:12:47.000Z</time>
      </trkpt>
      <trkpt lat="44.2626" lon="4.6639">
        <ele>46.717943</ele>
        <time>2021-09-16T07:12:56.000Z</time>
      </trkpt>
      <trkpt lat="44.2622" lon="4.66356">
        <ele>46.842916</ele>
        <time>2021-09-16T07:13:03.000Z</time>
      </trkpt>
      <trkpt lat="44.26185" lon="4.66307">
        <ele>46.978282</ele>
        <time>2021-09-16T07:13:11.000Z</time>
      </trkpt>
      <trkpt lat="44.26181" lon="4.66301">
        <ele>46.993586</ele>
        <time>2021-09-16T07:13:12.000Z</time>
      </trkpt>
      <trkpt lat="44.26168" lon="4.66289">
        <ele>47.035593</ele>
        <time>2021-09-16T07:13:15.000Z</time>
      </trkpt>
      <trkpt lat="44.26164" lon="4.66286">
        <ele>47.050096</ele>
        <time>2021-09-16T07:13:16.000Z</time>
      </trkpt>
      <trkpt lat="44.26148" lon="4.66284">
        <ele>47.092021</ele>
        <time>2021-09-16T07:13:19.000Z</time>
      </trkpt>
      <trkpt lat="44.26142" lon="4.66281">
        <ele>47.109552</ele>
        <time>2021-09-16T07:13:20.000Z</time>
      </trkpt>
      <trkpt lat="44.26137" lon="4.66278">
        <ele>47.123154</ele>
        <time>2021-09-16T07:13:21.000Z</time>
      </trkpt>
      <trkpt lat="44.26131" lon="4.6627">
        <ele>47.151974</ele>
        <time>2021-09-16T07:13:23.000Z</time>
      </trkpt>
      <trkpt lat="44.26126" lon="4.6626">
        <ele>47.18535</ele>
        <time>2021-09-16T07:13:25.000Z</time>
      </trkpt>
      <trkpt lat="44.26124" lon="4.66247">
        <ele>47.224071</ele>
        <time>2021-09-16T07:13:27.000Z</time>
      </trkpt>
      <trkpt lat="44.26119" lon="4.66227">
        <ele>47.282457</ele>
        <time>2021-09-16T07:13:30.000Z</time>
      </trkpt>
      <trkpt lat="44.26118" lon="4.66219">
        <ele>47.305231</ele>
        <time>2021-09-16T07:13:31.000Z</time>
      </trkpt>
      <trkpt lat="44.26115" lon="4.66203">
        <ele>47.352762</ele>
        <time>2021-09-16T07:13:33.000Z</time>
      </trkpt>
      <trkpt lat="44.26106" lon="4.6618">
        <ele>47.426522</ele>
        <time>2021-09-16T07:13:36.000Z</time>
      </trkpt>
      <trkpt lat="44.26098" lon="4.66143">
        <ele>47.535492</ele>
        <time>2021-09-16T07:13:41.000Z</time>
      </trkpt>
      <trkpt lat="44.26091" lon="4.66113">
        <ele>47.625997</ele>
        <time>2021-09-16T07:13:45.000Z</time>
      </trkpt>
      <trkpt lat="44.26088" lon="4.66099">
        <ele>47.666963</ele>
        <time>2021-09-16T07:13:47.000Z</time>
      </trkpt>
      <trkpt lat="44.26093" lon="4.66078">
        <ele>47.729811</ele>
        <time>2021-09-16T07:13:50.000Z</time>
      </trkpt>
      <trkpt lat="44.26095" lon="4.66071">
        <ele>47.749705</ele>
        <time>2021-09-16T07:13:51.000Z</time>
      </trkpt>
      <trkpt lat="44.26097" lon="4.66027">
        <ele>47.857234</ele>
        <time>2021-09-16T07:13:56.000Z</time>
      </trkpt>
      <trkpt lat="44.26099" lon="4.65986">
        <ele>47.880953</ele>
        <time>2021-09-16T07:14:01.000Z</time>
      </trkpt>
      <trkpt lat="44.26103" lon="4.65959">
        <ele>47.897306</ele>
        <time>2021-09-16T07:14:06.000Z</time>
      </trkpt>
      <trkpt lat="44.26104" lon="4.65954">
        <ele>47.90073</ele>
        <time>2021-09-16T07:14:07.000Z</time>
      </trkpt>
      <trkpt lat="44.26105" lon="4.65939">
        <ele>47.909102</ele>
        <time>2021-09-16T07:14:09.000Z</time>
      </trkpt>
      <trkpt lat="44.26097" lon="4.65929">
        <ele>47.918143</ele>
        <time>2021-09-16T07:14:10.000Z</time>
      </trkpt>
      <trkpt lat="44.2609" lon="4.6593">
        <ele>47.923826</ele>
        <time>2021-09-16T07:14:11.000Z</time>
      </trkpt>
      <trkpt lat="44.26084" lon="4.65933">
        <ele>47.928764</ele>
        <time>2021-09-16T07:14:12.000Z</time>
      </trkpt>
      <trkpt lat="44.26067" lon="4.65945">
        <ele>47.944455</ele>
        <time>2021-09-16T07:14:15.000Z</time>
      </trkpt>
      <trkpt lat="44.26057" lon="4.65953">
        <ele>47.954518</ele>
        <time>2021-09-16T07:14:17.000Z</time>
      </trkpt>
      <trkpt lat="44.26045" lon="4.65963">
        <ele>47.96543</ele>
        <time>2021-09-16T07:14:19.000Z</time>
      </trkpt>
      <trkpt lat="44.26039" lon="4.65967">
        <ele>47.971037</ele>
        <time>2021-09-16T07:14:20.000Z</time>
      </trkpt>
      <trkpt lat="44.26013" lon="4.65973">
        <ele>47.992777</ele>
        <time>2021-09-16T07:14:24.000Z</time>
      </trkpt>
      <trkpt lat="44.25973" lon="4.65978">
        <ele>48.085076</ele>
        <time>2021-09-16T07:14:30.000Z</time>
      </trkpt>
      <trkpt lat="44.25955" lon="4.65983">
        <ele>48.135543</ele>
        <time>2021-09-16T07:14:33.000Z</time>
      </trkpt>
      <trkpt lat="44.25943" lon="4.65981">
        <ele>48.168315</ele>
        <time>2021-09-16T07:14:35.000Z</time>
      </trkpt>
      <trkpt lat="44.25923" lon="4.6596">
        <ele>48.238934</ele>
        <time>2021-09-16T07:14:39.000Z</time>
      </trkpt>
      <trkpt lat="44.25912" lon="4.65952">
        <ele>48.271537</ele>
        <time>2021-09-16T07:14:41.000Z</time>
      </trkpt>
      <trkpt lat="44.25906" lon="4.65952">
        <ele>48.288288</ele>
        <time>2021-09-16T07:14:42.000Z</time>
      </trkpt>
      <trkpt lat="44.25875" lon="4.6596">
        <ele>48.374276</ele>
        <time>2021-09-16T07:14:47.000Z</time>
      </trkpt>
      <trkpt lat="44.25869" lon="4.65962">
        <ele>48.392749</ele>
        <time>2021-09-16T07:14:48.000Z</time>
      </trkpt>
      <trkpt lat="44.25848" lon="4.65965">
        <ele>48.449818</ele>
        <time>2021-09-16T07:14:51.000Z</time>
      </trkpt>
      <trkpt lat="44.25821" lon="4.65967">
        <ele>48.50598</ele>
        <time>2021-09-16T07:14:55.000Z</time>
      </trkpt>
      <trkpt lat="44.25815" lon="4.65968">
        <ele>48.513301</ele>
        <time>2021-09-16T07:14:56.000Z</time>
      </trkpt>
      <trkpt lat="44.25809" lon="4.6597">
        <ele>48.520847</ele>
        <time>2021-09-16T07:14:57.000Z</time>
      </trkpt>
      <trkpt lat="44.25798" lon="4.65981">
        <ele>48.536324</ele>
        <time>2021-09-16T07:14:59.000Z</time>
      </trkpt>
      <trkpt lat="44.25793" lon="4.65986">
        <ele>48.544061</ele>
        <time>2021-09-16T07:15:00.000Z</time>
      </trkpt>
      <trkpt lat="44.25763" lon="4.66025">
        <ele>48.592382</ele>
        <time>2021-09-16T07:15:06.000Z</time>
      </trkpt>
      <trkpt lat="44.25754" lon="4.66036">
        <ele>48.606283</ele>
        <time>2021-09-16T07:15:08.000Z</time>
      </trkpt>
      <trkpt lat="44.25725" lon="4.66059">
        <ele>48.645809</ele>
        <time>2021-09-16T07:15:13.000Z</time>
      </trkpt>
      <trkpt lat="44.25719" lon="4.66063">
        <ele>48.653831</ele>
        <time>2021-09-16T07:15:14.000Z</time>
      </trkpt>
      <trkpt lat="44.25701" lon="4.66076">
        <ele>48.677898</ele>
        <time>2021-09-16T07:15:17.000Z</time>
      </trkpt>
      <trkpt lat="44.25649" lon="4.66091">
        <ele>48.551865</ele>
        <time>2021-09-16T07:15:25.000Z</time>
      </trkpt>
      <trkpt lat="44.25619" lon="4.66098">
        <ele>48.395545</ele>
        <time>2021-09-16T07:15:30.000Z</time>
      </trkpt>
      <trkpt lat="44.25607" lon="4.661">
        <ele>48.334125</ele>
        <time>2021-09-16T07:15:32.000Z</time>
      </trkpt>
      <trkpt lat="44.25575" lon="4.66087">
        <ele>48.156784</ele>
        <time>2021-09-16T07:15:38.000Z</time>
      </trkpt>
      <trkpt lat="44.25559" lon="4.66079">
        <ele>48.073706</ele>
        <time>2021-09-16T07:15:41.000Z</time>
      </trkpt>
      <trkpt lat="44.25555" lon="4.66077">
        <ele>48.046664</ele>
        <time>2021-09-16T07:15:42.000Z</time>
      </trkpt>
      <trkpt lat="44.25547" lon="4.66084">
        <ele>47.997146</ele>
        <time>2021-09-16T07:15:44.000Z</time>
      </trkpt>
      <trkpt lat="44.25553" lon="4.66122">
        <ele>47.855225</ele>
        <time>2021-09-16T07:15:49.000Z</time>
      </trkpt>
      <trkpt lat="44.25564" lon="4.66184">
        <ele>47.623746</ele>
        <time>2021-09-16T07:15:57.000Z</time>
      </trkpt>
      <trkpt lat="44.25567" lon="4.66206">
        <ele>47.53922</ele>
        <time>2021-09-16T07:16:00.000Z</time>
      </trkpt>
      <trkpt lat="44.2557" lon="4.66221">
        <ele>47.484266</ele>
        <time>2021-09-16T07:16:04.000Z</time>
      </trkpt>
      <trkpt lat="44.25571" lon="4.6623">
        <ele>47.452246</ele>
        <time>2021-09-16T07:16:06.000Z</time>
      </trkpt>
      <trkpt lat="44.25573" lon="4.66242">
        <ele>47.408114</ele>
        <time>2021-09-16T07:16:08.000Z</time>
      </trkpt>
      <trkpt lat="44.25578" lon="4.66287">
        <ele>47.245733</ele>
        <time>2021-09-16T07:16:13.000Z</time>
      </trkpt>
      <trkpt lat="44.25585" lon="4.66364">
        <ele>46.966261</ele>
        <time>2021-09-16T07:16:21.000Z</time>
      </trkpt>
      <trkpt lat="44.25586" lon="4.66373">
        <ele>46.93178</ele>
        <time>2021-09-16T07:16:22.000Z</time>
      </trkpt>
      <trkpt lat="44.25592" lon="4.66427">
        <ele>46.784313</ele>
        <time>2021-09-16T07:16:28.000Z</time>
      </trkpt>
      <trkpt lat="44.25593" lon="4.66444">
        <ele>46.74579</ele>
        <time>2021-09-16T07:16:30.000Z</time>
      </trkpt>
      <trkpt lat="44.25591" lon="4.6646">
        <ele>46.708579</ele>
        <time>2021-09-16T07:16:32.000Z</time>
      </trkpt>
      <trkpt lat="44.25563" lon="4.66474">
        <ele>46.612427</ele>
        <time>2021-09-16T07:16:37.000Z</time>
      </trkpt>
      <trkpt lat="44.25519" lon="4.66496">
        <ele>46.462445</ele>
        <time>2021-09-16T07:16:44.000Z</time>
      </trkpt>
      <trkpt lat="44.25462" lon="4.66524">
        <ele>46.286714</ele>
        <time>2021-09-16T07:16:53.000Z</time>
      </trkpt>
      <trkpt lat="44.25418" lon="4.66546">
        <ele>46.26304</ele>
        <time>2021-09-16T07:17:00.000Z</time>
      </trkpt>
      <trkpt lat="44.25367" lon="4.66572">
        <ele>46.235845</ele>
        <time>2021-09-16T07:17:08.000Z</time>
      </trkpt>
      <trkpt lat="44.25315" lon="4.66598">
        <ele>46.208425</ele>
        <time>2021-09-16T07:17:16.000Z</time>
      </trkpt>
      <trkpt lat="44.25264" lon="4.66622">
        <ele>46.14298</ele>
        <time>2021-09-16T07:17:24.000Z</time>
      </trkpt>
      <trkpt lat="44.25258" lon="4.66625">
        <ele>46.132759</ele>
        <time>2021-09-16T07:17:25.000Z</time>
      </trkpt>
      <trkpt lat="44.25226" lon="4.6664">
        <ele>46.081546</ele>
        <time>2021-09-16T07:17:30.000Z</time>
      </trkpt>
      <trkpt lat="44.25221" lon="4.66644">
        <ele>46.071514</ele>
        <time>2021-09-16T07:17:31.000Z</time>
      </trkpt>
      <trkpt lat="44.25215" lon="4.66649">
        <ele>46.061496</ele>
        <time>2021-09-16T07:17:32.000Z</time>
      </trkpt>
      <trkpt lat="44.25208" lon="4.66664">
        <ele>46.04163</ele>
        <time>2021-09-16T07:17:34.000Z</time>
      </trkpt>
      <trkpt lat="44.25205" lon="4.66673">
        <ele>46.031767</ele>
        <time>2021-09-16T07:17:35.000Z</time>
      </trkpt>
      <trkpt lat="44.25181" lon="4.66748">
        <ele>45.94126</ele>
        <time>2021-09-16T07:17:44.000Z</time>
      </trkpt>
      <trkpt lat="44.2516" lon="4.66815">
        <ele>45.895344</ele>
        <time>2021-09-16T07:17:52.000Z</time>
      </trkpt>
      <trkpt lat="44.25135" lon="4.66892">
        <ele>45.854291</ele>
        <time>2021-09-16T07:18:01.000Z</time>
      </trkpt>
      <trkpt lat="44.25113" lon="4.6696">
        <ele>45.817788</ele>
        <time>2021-09-16T07:18:09.000Z</time>
      </trkpt>
      <trkpt lat="44.25093" lon="4.67021">
        <ele>45.763683</ele>
        <time>2021-09-16T07:18:16.000Z</time>
      </trkpt>
      <trkpt lat="44.25081" lon="4.67057">
        <ele>45.720089</ele>
        <time>2021-09-16T07:18:20.000Z</time>
      </trkpt>
      <trkpt lat="44.25071" lon="4.6708">
        <ele>45.688542</ele>
        <time>2021-09-16T07:18:23.000Z</time>
      </trkpt>
      <trkpt lat="44.2505" lon="4.67104">
        <ele>45.645646</ele>
        <time>2021-09-16T07:18:27.000Z</time>
      </trkpt>
      <trkpt lat="44.2504" lon="4.67112">
        <ele>45.627765</ele>
        <time>2021-09-16T07:18:29.000Z</time>
      </trkpt>
      <trkpt lat="44.25036" lon="4.67123">
        <ele>45.614684</ele>
        <time>2021-09-16T07:18:30.000Z</time>
      </trkpt>
      <trkpt lat="44.25021" lon="4.67168">
        <ele>45.558726</ele>
        <time>2021-09-16T07:18:35.000Z</time>
      </trkpt>
      <trkpt lat="44.24998" lon="4.67237">
        <ele>45.479537</ele>
        <time>2021-09-16T07:18:43.000Z</time>
      </trkpt>
      <trkpt lat="44.24981" lon="4.67297">
        <ele>45.418099</ele>
        <time>2021-09-16T07:18:50.000Z</time>
      </trkpt>
      <trkpt lat="44.24975" lon="4.67314">
        <ele>45.40036</ele>
        <time>2021-09-16T07:18:52.000Z</time>
      </trkpt>
      <trkpt lat="44.24964" lon="4.67337">
        <ele>45.374426</ele>
        <time>2021-09-16T07:18:55.000Z</time>
      </trkpt>
      <trkpt lat="44.24938" lon="4.6738">
        <ele>45.321426</ele>
        <time>2021-09-16T07:19:01.000Z</time>
      </trkpt>
      <trkpt lat="44.24916" lon="4.674">
        <ele>45.286089</ele>
        <time>2021-09-16T07:19:05.000Z</time>
      </trkpt>
      <trkpt lat="44.24905" lon="4.67411">
        <ele>45.27094</ele>
        <time>2021-09-16T07:19:07.000Z</time>
      </trkpt>
      <trkpt lat="44.24855" lon="4.67438">
        <ele>45.215471</ele>
        <time>2021-09-16T07:19:15.000Z</time>
      </trkpt>
      <trkpt lat="44.24812" lon="4.67464">
        <ele>45.167264</ele>
        <time>2021-09-16T07:19:22.000Z</time>
      </trkpt>
      <trkpt lat="44.24772" lon="4.67493">
        <ele>45.119721</ele>
        <time>2021-09-16T07:19:29.000Z</time>
      </trkpt>
      <trkpt lat="44.2474" lon="4.67524">
        <ele>45.071221</ele>
        <time>2021-09-16T07:19:35.000Z</time>
      </trkpt>
      <trkpt lat="44.24717" lon="4.67542">
        <ele>45.028743</ele>
        <time>2021-09-16T07:19:39.000Z</time>
      </trkpt>
      <trkpt lat="44.24711" lon="4.67546">
        <ele>45.018294</ele>
        <time>2021-09-16T07:19:40.000Z</time>
      </trkpt>
      <trkpt lat="44.24706" lon="4.67551">
        <ele>45.008044</ele>
        <time>2021-09-16T07:19:41.000Z</time>
      </trkpt>
      <trkpt lat="44.24679" lon="4.67554">
        <ele>44.965268</ele>
        <time>2021-09-16T07:19:45.000Z</time>
      </trkpt>
      <trkpt lat="44.24667" lon="4.67556">
        <ele>44.944176</ele>
        <time>2021-09-16T07:19:46.000Z</time>
      </trkpt>
      <trkpt lat="44.2466" lon="4.67559">
        <ele>44.933452</ele>
        <time>2021-09-16T07:19:48.000Z</time>
      </trkpt>
      <trkpt lat="44.24653" lon="4.67574">
        <ele>44.912051</ele>
        <time>2021-09-16T07:19:50.000Z</time>
      </trkpt>
      <trkpt lat="44.24653" lon="4.67583">
        <ele>44.90144</ele>
        <time>2021-09-16T07:19:51.000Z</time>
      </trkpt>
      <trkpt lat="44.24653" lon="4.67649">
        <ele>44.825253</ele>
        <time>2021-09-16T07:19:58.000Z</time>
      </trkpt>
      <trkpt lat="44.24655" lon="4.67685">
        <ele>44.80063</ele>
        <time>2021-09-16T07:20:02.000Z</time>
      </trkpt>
      <trkpt lat="44.24653" lon="4.67703">
        <ele>44.799759</ele>
        <time>2021-09-16T07:20:04.000Z</time>
      </trkpt>
      <trkpt lat="44.2464" lon="4.67765">
        <ele>44.796778</ele>
        <time>2021-09-16T07:20:11.000Z</time>
      </trkpt>
      <trkpt lat="44.24624" lon="4.67825">
        <ele>44.793775</ele>
        <time>2021-09-16T07:20:18.000Z</time>
      </trkpt>
      <trkpt lat="44.24609" lon="4.67876">
        <ele>44.791206</ele>
        <time>2021-09-16T07:20:24.000Z</time>
      </trkpt>
      <trkpt lat="44.24606" lon="4.67884">
        <ele>44.790785</ele>
        <time>2021-09-16T07:20:25.000Z</time>
      </trkpt>
      <trkpt lat="44.24599" lon="4.67908">
        <ele>44.788032</ele>
        <time>2021-09-16T07:20:28.000Z</time>
      </trkpt>
      <trkpt lat="44.2459" lon="4.67962">
        <ele>44.742021</ele>
        <time>2021-09-16T07:20:34.000Z</time>
      </trkpt>
      <trkpt lat="44.24594" lon="4.68026">
        <ele>44.688822</ele>
        <time>2021-09-16T07:20:41.000Z</time>
      </trkpt>
      <trkpt lat="44.24608" lon="4.68086">
        <ele>44.636753</ele>
        <time>2021-09-16T07:20:48.000Z</time>
      </trkpt>
      <trkpt lat="44.24618" lon="4.68128">
        <ele>44.599981</ele>
        <time>2021-09-16T07:20:53.000Z</time>
      </trkpt>
      <trkpt lat="44.24619" lon="4.68145">
        <ele>44.5858</ele>
        <time>2021-09-16T07:20:55.000Z</time>
      </trkpt>
      <trkpt lat="44.24619" lon="4.68162">
        <ele>44.565499</ele>
        <time>2021-09-16T07:20:57.000Z</time>
      </trkpt>
      <trkpt lat="44.24617" lon="4.68179">
        <ele>44.541562</ele>
        <time>2021-09-16T07:20:59.000Z</time>
      </trkpt>
      <trkpt lat="44.24613" lon="4.68197">
        <ele>44.516041</ele>
        <time>2021-09-16T07:21:00.000Z</time>
      </trkpt>
      <trkpt lat="44.24606" lon="4.68212">
        <ele>44.49113</ele>
        <time>2021-09-16T07:21:03.000Z</time>
      </trkpt>
      <trkpt lat="44.24602" lon="4.68229">
        <ele>44.466042</ele>
        <time>2021-09-16T07:21:05.000Z</time>
      </trkpt>
      <trkpt lat="44.24607" lon="4.68284">
        <ele>44.390521</ele>
        <time>2021-09-16T07:21:11.000Z</time>
      </trkpt>
      <trkpt lat="44.24621" lon="4.68344">
        <ele>44.303305</ele>
        <time>2021-09-16T07:21:18.000Z</time>
      </trkpt>
      <trkpt lat="44.24642" lon="4.68419">
        <ele>44.246826</ele>
        <time>2021-09-16T07:21:27.000Z</time>
      </trkpt>
      <trkpt lat="44.24645" lon="4.68427">
        <ele>44.250008</ele>
        <time>2021-09-16T07:21:28.000Z</time>
      </trkpt>
      <trkpt lat="44.24662" lon="4.68485">
        <ele>44.272606</ele>
        <time>2021-09-16T07:21:35.000Z</time>
      </trkpt>
      <trkpt lat="44.24678" lon="4.68545">
        <ele>44.29569</ele>
        <time>2021-09-16T07:21:42.000Z</time>
      </trkpt>
      <trkpt lat="44.24695" lon="4.68616">
        <ele>44.322463</ele>
        <time>2021-09-16T07:21:50.000Z</time>
      </trkpt>
      <trkpt lat="44.24701" lon="4.68649">
        <ele>44.299928</ele>
        <time>2021-09-16T07:21:54.000Z</time>
      </trkpt>
      <trkpt lat="44.24703" lon="4.68666">
        <ele>44.282179</ele>
        <time>2021-09-16T07:21:56.000Z</time>
      </trkpt>
      <trkpt lat="44.24704" lon="4.68683">
        <ele>44.263706</ele>
        <time>2021-09-16T07:21:58.000Z</time>
      </trkpt>
      <trkpt lat="44.24702" lon="4.68709">
        <ele>44.235983</ele>
        <time>2021-09-16T07:22:01.000Z</time>
      </trkpt>
      <trkpt lat="44.24694" lon="4.68765">
        <ele>44.174934</ele>
        <time>2021-09-16T07:22:08.000Z</time>
      </trkpt>
      <trkpt lat="44.24682" lon="4.68841">
        <ele>44.091947</ele>
        <time>2021-09-16T07:22:17.000Z</time>
      </trkpt>
      <trkpt lat="44.24675" lon="4.68912">
        <ele>44.017238</ele>
        <time>2021-09-16T07:22:25.000Z</time>
      </trkpt>
      <trkpt lat="44.24675" lon="4.68965">
        <ele>43.962926</ele>
        <time>2021-09-16T07:22:31.000Z</time>
      </trkpt>
      <trkpt lat="44.24674" lon="4.69028">
        <ele>43.898083</ele>
        <time>2021-09-16T07:22:38.000Z</time>
      </trkpt>
      <trkpt lat="44.24673" lon="4.69104">
        <ele>43.818963</ele>
        <time>2021-09-16T07:22:47.000Z</time>
      </trkpt>
      <trkpt lat="44.24666" lon="4.69173">
        <ele>43.808075</ele>
        <time>2021-09-16T07:22:55.000Z</time>
      </trkpt>
      <trkpt lat="44.24658" lon="4.69252">
        <ele>43.820521</ele>
        <time>2021-09-16T07:23:03.000Z</time>
      </trkpt>
      <trkpt lat="44.24656" lon="4.6927">
        <ele>43.823313</ele>
        <time>2021-09-16T07:23:06.000Z</time>
      </trkpt>
      <trkpt lat="44.24648" lon="4.6934">
        <ele>43.834499</ele>
        <time>2021-09-16T07:23:14.000Z</time>
      </trkpt>
      <trkpt lat="44.24642" lon="4.69421">
        <ele>43.772499</ele>
        <time>2021-09-16T07:23:22.000Z</time>
      </trkpt>
      <trkpt lat="44.24641" lon="4.6943">
        <ele>43.76028</ele>
        <time>2021-09-16T07:23:24.000Z</time>
      </trkpt>
      <trkpt lat="44.24635" lon="4.69511">
        <ele>43.650682</ele>
        <time>2021-09-16T07:23:32.000Z</time>
      </trkpt>
      <trkpt lat="44.24629" lon="4.69584">
        <ele>43.553569</ele>
        <time>2021-09-16T07:23:41.000Z</time>
      </trkpt>
      <trkpt lat="44.24623" lon="4.69665">
        <ele>43.484494</ele>
        <time>2021-09-16T07:23:50.000Z</time>
      </trkpt>
      <trkpt lat="44.24622" lon="4.69674">
        <ele>43.480394</ele>
        <time>2021-09-16T07:23:51.000Z</time>
      </trkpt>
      <trkpt lat="44.24616" lon="4.69754">
        <ele>43.444608</ele>
        <time>2021-09-16T07:23:59.000Z</time>
      </trkpt>
      <trkpt lat="44.24616" lon="4.69754">
        <ele>43.444608</ele>
        <time>2021-09-16T07:24:00.000Z</time>
      </trkpt>
      <trkpt lat="44.2461" lon="4.69825">
        <ele>43.413121</ele>
        <time>2021-09-16T07:24:08.000Z</time>
      </trkpt>
      <trkpt lat="44.24608" lon="4.6985">
        <ele>43.401793</ele>
        <time>2021-09-16T07:24:12.000Z</time>
      </trkpt>
      <trkpt lat="44.24607" lon="4.69861">
        <ele>43.397019</ele>
        <time>2021-09-16T07:24:16.000Z</time>
      </trkpt>
      <trkpt lat="44.24604" lon="4.6988">
        <ele>43.391117</ele>
        <time>2021-09-16T07:24:20.000Z</time>
      </trkpt>
      <trkpt lat="44.24602" lon="4.69886">
        <ele>43.389977</ele>
        <time>2021-09-16T07:24:21.000Z</time>
      </trkpt>
      <trkpt lat="44.24601" lon="4.69899">
        <ele>43.38771</ele>
        <time>2021-09-16T07:24:23.000Z</time>
      </trkpt>
      <trkpt lat="44.24605" lon="4.6991">
        <ele>43.385417</ele>
        <time>2021-09-16T07:24:25.000Z</time>
      </trkpt>
      <trkpt lat="44.24605" lon="4.69916">
        <ele>43.384357</ele>
        <time>2021-09-16T07:24:26.000Z</time>
      </trkpt>
      <trkpt lat="44.24605" lon="4.69923">
        <ele>43.383154</ele>
        <time>2021-09-16T07:24:27.000Z</time>
      </trkpt>
      <trkpt lat="44.246" lon="4.69932">
        <ele>43.381024</ele>
        <time>2021-09-16T07:24:29.000Z</time>
      </trkpt>
      <trkpt lat="44.24589" lon="4.69951">
        <ele>43.37669</ele>
        <time>2021-09-16T07:24:32.000Z</time>
      </trkpt>
      <trkpt lat="44.24578" lon="4.69972">
        <ele>43.372061</ele>
        <time>2021-09-16T07:24:35.000Z</time>
      </trkpt>
      <trkpt lat="44.24571" lon="4.69988">
        <ele>43.368836</ele>
        <time>2021-09-16T07:24:37.000Z</time>
      </trkpt>
      <trkpt lat="44.24561" lon="4.70009">
        <ele>43.364387</ele>
        <time>2021-09-16T07:24:40.000Z</time>
      </trkpt>
      <trkpt lat="44.24544" lon="4.70044">
        <ele>43.356939</ele>
        <time>2021-09-16T07:24:46.000Z</time>
      </trkpt>
      <trkpt lat="44.24537" lon="4.70057">
        <ele>43.35406</ele>
        <time>2021-09-16T07:24:49.000Z</time>
      </trkpt>
      <trkpt lat="44.24535" lon="4.7006">
        <ele>43.353254</ele>
        <time>2021-09-16T07:24:50.000Z</time>
      </trkpt>
      <trkpt lat="44.24538" lon="4.70068">
        <ele>43.351738</ele>
        <time>2021-09-16T07:24:53.000Z</time>
      </trkpt>
      <trkpt lat="44.24548" lon="4.70073">
        <ele>43.349209</ele>
        <time>2021-09-16T07:24:58.000Z</time>
      </trkpt>
      <trkpt lat="44.24546" lon="4.70091">
        <ele>43.379116</ele>
        <time>2021-09-16T07:25:03.000Z</time>
      </trkpt>
      <trkpt lat="44.2454" lon="4.70107">
        <ele>43.412728</ele>
        <time>2021-09-16T07:25:08.000Z</time>
      </trkpt>
      <trkpt lat="44.24531" lon="4.70132">
        <ele>43.468054</ele>
        <time>2021-09-16T07:25:15.000Z</time>
      </trkpt>
      <trkpt lat="44.24518" lon="4.70167">
        <ele>43.545644</ele>
        <time>2021-09-16T07:25:22.000Z</time>
      </trkpt>
      <trkpt lat="44.24502" lon="4.70209">
        <ele>43.636563</ele>
        <time>2021-09-16T07:25:29.000Z</time>
      </trkpt>
      <trkpt lat="44.24491" lon="4.7024">
        <ele>43.705342</ele>
        <time>2021-09-16T07:25:34.000Z</time>
      </trkpt>
      <trkpt lat="44.24486" lon="4.70251">
        <ele>43.73096</ele>
        <time>2021-09-16T07:25:36.000Z</time>
      </trkpt>
      <trkpt lat="44.24473" lon="4.70288">
        <ele>43.810738</ele>
        <time>2021-09-16T07:25:42.000Z</time>
      </trkpt>
      <trkpt lat="44.24454" lon="4.70339">
        <ele>43.745157</ele>
        <time>2021-09-16T07:25:49.000Z</time>
      </trkpt>
      <trkpt lat="44.24436" lon="4.70387">
        <ele>43.626962</ele>
        <time>2021-09-16T07:25:55.000Z</time>
      </trkpt>
      <trkpt lat="44.24415" lon="4.70444">
        <ele>43.490621</ele>
        <time>2021-09-16T07:26:02.000Z</time>
      </trkpt>
      <trkpt lat="44.24406" lon="4.70469">
        <ele>43.427853</ele>
        <time>2021-09-16T07:26:05.000Z</time>
      </trkpt>
      <trkpt lat="44.24397" lon="4.70486">
        <ele>43.383565</ele>
        <time>2021-09-16T07:26:07.000Z</time>
      </trkpt>
      <trkpt lat="44.24382" lon="4.70507">
        <ele>43.319666</ele>
        <time>2021-09-16T07:26:10.000Z</time>
      </trkpt>
      <trkpt lat="44.24371" lon="4.7052">
        <ele>43.313711</ele>
        <time>2021-09-16T07:26:12.000Z</time>
      </trkpt>
      <trkpt lat="44.24358" lon="4.70529">
        <ele>43.353824</ele>
        <time>2021-09-16T07:26:14.000Z</time>
      </trkpt>
      <trkpt lat="44.24344" lon="4.70535">
        <ele>43.394743</ele>
        <time>2021-09-16T07:26:16.000Z</time>
      </trkpt>
      <trkpt lat="44.24307" lon="4.70538">
        <ele>43.497289</ele>
        <time>2021-09-16T07:26:21.000Z</time>
      </trkpt>
      <trkpt lat="44.24251" lon="4.70531">
        <ele>43.651539</ele>
        <time>2021-09-16T07:26:29.000Z</time>
      </trkpt>
      <trkpt lat="44.24238" lon="4.70529">
        <ele>43.688579</ele>
        <time>2021-09-16T07:26:31.000Z</time>
      </trkpt>
      <trkpt lat="44.24194" lon="4.70525">
        <ele>43.818658</ele>
        <time>2021-09-16T07:26:38.000Z</time>
      </trkpt>
      <trkpt lat="44.2416" lon="4.70532">
        <ele>43.950523</ele>
        <time>2021-09-16T07:26:44.000Z</time>
      </trkpt>
      <trkpt lat="44.24141" lon="4.70542">
        <ele>44.029518</ele>
        <time>2021-09-16T07:26:48.000Z</time>
      </trkpt>
      <trkpt lat="44.24124" lon="4.70533">
        <ele>44.102465</ele>
        <time>2021-09-16T07:26:51.000Z</time>
      </trkpt>
      <trkpt lat="44.24093" lon="4.70536">
        <ele>44.224344</ele>
        <time>2021-09-16T07:26:57.000Z</time>
      </trkpt>
      <trkpt lat="44.24054" lon="4.7054">
        <ele>44.376539</ele>
        <time>2021-09-16T07:27:03.000Z</time>
      </trkpt>
      <trkpt lat="44.23994" lon="4.70546">
        <ele>44.440274</ele>
        <time>2021-09-16T07:27:11.000Z</time>
      </trkpt>
      <trkpt lat="44.23933" lon="4.70552">
        <ele>44.329116</ele>
        <time>2021-09-16T07:27:19.000Z</time>
      </trkpt>
      <trkpt lat="44.23918" lon="4.70553">
        <ele>44.301864</ele>
        <time>2021-09-16T07:27:21.000Z</time>
      </trkpt>
      <trkpt lat="44.23859" lon="4.70559">
        <ele>44.194773</ele>
        <time>2021-09-16T07:27:29.000Z</time>
      </trkpt>
      <trkpt lat="44.23845" lon="4.70561">
        <ele>44.168902</ele>
        <time>2021-09-16T07:27:31.000Z</time>
      </trkpt>
      <trkpt lat="44.23803" lon="4.70567">
        <ele>44.13759</ele>
        <time>2021-09-16T07:27:37.000Z</time>
      </trkpt>
      <trkpt lat="44.23796" lon="4.70568">
        <ele>44.132641</ele>
        <time>2021-09-16T07:27:38.000Z</time>
      </trkpt>
      <trkpt lat="44.2379" lon="4.70569">
        <ele>44.127914</ele>
        <time>2021-09-16T07:27:39.000Z</time>
      </trkpt>
      <trkpt lat="44.23783" lon="4.70576">
        <ele>44.121353</ele>
        <time>2021-09-16T07:27:40.000Z</time>
      </trkpt>
      <trkpt lat="44.23785" lon="4.70583">
        <ele>44.117373</ele>
        <time>2021-09-16T07:27:41.000Z</time>
      </trkpt>
      <trkpt lat="44.2379" lon="4.70601">
        <ele>44.107348</ele>
        <time>2021-09-16T07:27:43.000Z</time>
      </trkpt>
      <trkpt lat="44.23798" lon="4.70627">
        <ele>44.092359</ele>
        <time>2021-09-16T07:27:46.000Z</time>
      </trkpt>
      <trkpt lat="44.238" lon="4.70635">
        <ele>44.087649</ele>
        <time>2021-09-16T07:27:47.000Z</time>
      </trkpt>
      <trkpt lat="44.238" lon="4.70644">
        <ele>44.08305</ele>
        <time>2021-09-16T07:27:48.000Z</time>
      </trkpt>
      <trkpt lat="44.23797" lon="4.70652">
        <ele>44.078383</ele>
        <time>2021-09-16T07:27:49.000Z</time>
      </trkpt>
      <trkpt lat="44.23791" lon="4.70654">
        <ele>44.073996</ele>
        <time>2021-09-16T07:27:50.000Z</time>
      </trkpt>
      <trkpt lat="44.23779" lon="4.70654">
        <ele>44.064815</ele>
        <time>2021-09-16T07:27:52.000Z</time>
      </trkpt>
      <trkpt lat="44.23721" lon="4.70654">
        <ele>44.024406</ele>
        <time>2021-09-16T07:28:01.000Z</time>
      </trkpt>
      <trkpt lat="44.23661" lon="4.70657">
        <ele>43.989961</ele>
        <time>2021-09-16T07:28:10.000Z</time>
      </trkpt>
      <trkpt lat="44.23648" lon="4.70658">
        <ele>43.982218</ele>
        <time>2021-09-16T07:28:12.000Z</time>
      </trkpt>
      <trkpt lat="44.23588" lon="4.70664">
        <ele>43.947536</ele>
        <time>2021-09-16T07:28:21.000Z</time>
      </trkpt>
      <trkpt lat="44.23536" lon="4.70672">
        <ele>43.883317</ele>
        <time>2021-09-16T07:28:29.000Z</time>
      </trkpt>
      <trkpt lat="44.2348" lon="4.70685">
        <ele>43.765704</ele>
        <time>2021-09-16T07:28:38.000Z</time>
      </trkpt>
      <trkpt lat="44.23442" lon="4.70695">
        <ele>43.686541</ele>
        <time>2021-09-16T07:28:44.000Z</time>
      </trkpt>
      <trkpt lat="44.23397" lon="4.7071">
        <ele>43.591437</ele>
        <time>2021-09-16T07:28:51.000Z</time>
      </trkpt>
      <trkpt lat="44.23364" lon="4.70722">
        <ele>43.565286</ele>
        <time>2021-09-16T07:28:56.000Z</time>
      </trkpt>
      <trkpt lat="44.23331" lon="4.70734">
        <ele>43.574737</ele>
        <time>2021-09-16T07:29:01.000Z</time>
      </trkpt>
      <trkpt lat="44.23299" lon="4.70748">
        <ele>43.583851</ele>
        <time>2021-09-16T07:29:06.000Z</time>
      </trkpt>
      <trkpt lat="44.23262" lon="4.70765">
        <ele>43.594661</ele>
        <time>2021-09-16T07:29:12.000Z</time>
      </trkpt>
      <trkpt lat="44.23206" lon="4.70794">
        <ele>43.569114</ele>
        <time>2021-09-16T07:29:21.000Z</time>
      </trkpt>
      <trkpt lat="44.23181" lon="4.70807">
        <ele>43.374391</ele>
        <time>2021-09-16T07:29:25.000Z</time>
      </trkpt>
      <trkpt lat="44.23168" lon="4.70814">
        <ele>43.277394</ele>
        <time>2021-09-16T07:29:27.000Z</time>
      </trkpt>
      <trkpt lat="44.23153" lon="4.70813">
        <ele>43.169897</ele>
        <time>2021-09-16T07:29:29.000Z</time>
      </trkpt>
      <trkpt lat="44.23148" lon="4.70808">
        <ele>43.123191</ele>
        <time>2021-09-16T07:29:30.000Z</time>
      </trkpt>
      <trkpt lat="44.23137" lon="4.70797">
        <ele>43.031842</ele>
        <time>2021-09-16T07:29:32.000Z</time>
      </trkpt>
      <trkpt lat="44.23132" lon="4.70792">
        <ele>42.98395</ele>
        <time>2021-09-16T07:29:33.000Z</time>
      </trkpt>
      <trkpt lat="44.23122" lon="4.70788">
        <ele>42.91195</ele>
        <time>2021-09-16T07:29:34.000Z</time>
      </trkpt>
      <trkpt lat="44.23115" lon="4.70798">
        <ele>42.834362</ele>
        <time>2021-09-16T07:29:36.000Z</time>
      </trkpt>
      <trkpt lat="44.23105" lon="4.70814">
        <ele>42.725237</ele>
        <time>2021-09-16T07:29:39.000Z</time>
      </trkpt>
      <trkpt lat="44.231" lon="4.70819">
        <ele>42.682632</ele>
        <time>2021-09-16T07:29:40.000Z</time>
      </trkpt>
      <trkpt lat="44.23094" lon="4.70822">
        <ele>42.638388</ele>
        <time>2021-09-16T07:29:41.000Z</time>
      </trkpt>
      <trkpt lat="44.23076" lon="4.70828">
        <ele>42.505551</ele>
        <time>2021-09-16T07:29:44.000Z</time>
      </trkpt>
      <trkpt lat="44.2307" lon="4.7083">
        <ele>42.458732</ele>
        <time>2021-09-16T07:29:45.000Z</time>
      </trkpt>
      <trkpt lat="44.23064" lon="4.70832">
        <ele>42.410514</ele>
        <time>2021-09-16T07:29:46.000Z</time>
      </trkpt>
      <trkpt lat="44.23058" lon="4.70838">
        <ele>42.35873</ele>
        <time>2021-09-16T07:29:47.000Z</time>
      </trkpt>
      <trkpt lat="44.23053" lon="4.70845">
        <ele>42.311724</ele>
        <time>2021-09-16T07:29:48.000Z</time>
      </trkpt>
      <trkpt lat="44.23053" lon="4.7087">
        <ele>42.254882</ele>
        <time>2021-09-16T07:29:50.000Z</time>
      </trkpt>
      <trkpt lat="44.23042" lon="4.70879">
        <ele>42.214483</ele>
        <time>2021-09-16T07:29:52.000Z</time>
      </trkpt>
      <trkpt lat="44.23035" lon="4.70882">
        <ele>42.19276</ele>
        <time>2021-09-16T07:29:53.000Z</time>
      </trkpt>
      <trkpt lat="44.23003" lon="4.709">
        <ele>42.084061</ele>
        <time>2021-09-16T07:29:58.000Z</time>
      </trkpt>
      <trkpt lat="44.22957" lon="4.70925">
        <ele>41.927972</ele>
        <time>2021-09-16T07:30:05.000Z</time>
      </trkpt>
      <trkpt lat="44.22906" lon="4.70953">
        <ele>41.754774</ele>
        <time>2021-09-16T07:30:13.000Z</time>
      </trkpt>
      <trkpt lat="44.229" lon="4.70956">
        <ele>41.748343</ele>
        <time>2021-09-16T07:30:14.000Z</time>
      </trkpt>
      <trkpt lat="44.22848" lon="4.70985">
        <ele>41.807139</ele>
        <time>2021-09-16T07:30:22.000Z</time>
      </trkpt>
      <trkpt lat="44.22842" lon="4.70989">
        <ele>41.814609</ele>
        <time>2021-09-16T07:30:23.000Z</time>
      </trkpt>
      <trkpt lat="44.22816" lon="4.71003">
        <ele>41.843944</ele>
        <time>2021-09-16T07:30:27.000Z</time>
      </trkpt>
      <trkpt lat="44.22809" lon="4.71006">
        <ele>41.851414</ele>
        <time>2021-09-16T07:30:28.000Z</time>
      </trkpt>
      <trkpt lat="44.22796" lon="4.71012">
        <ele>41.865836</ele>
        <time>2021-09-16T07:30:30.000Z</time>
      </trkpt>
      <trkpt lat="44.22789" lon="4.71013">
        <ele>41.873166</ele>
        <time>2021-09-16T07:30:31.000Z</time>
      </trkpt>
      <trkpt lat="44.22748" lon="4.71008">
        <ele>41.917007</ele>
        <time>2021-09-16T07:30:37.000Z</time>
      </trkpt>
      <trkpt lat="44.22694" lon="4.71">
        <ele>41.882296</ele>
        <time>2021-09-16T07:30:45.000Z</time>
      </trkpt>
      <trkpt lat="44.22687" lon="4.70999">
        <ele>41.872808</ele>
        <time>2021-09-16T07:30:46.000Z</time>
      </trkpt>
      <trkpt lat="44.22666" lon="4.70996">
        <ele>41.844607</ele>
        <time>2021-09-16T07:30:49.000Z</time>
      </trkpt>
      <trkpt lat="44.22655" lon="4.70995">
        <ele>41.828784</ele>
        <time>2021-09-16T07:30:51.000Z</time>
      </trkpt>
      <trkpt lat="44.226" lon="4.70987">
        <ele>41.753951</ele>
        <time>2021-09-16T07:30:59.000Z</time>
      </trkpt>
      <trkpt lat="44.22594" lon="4.70986">
        <ele>41.74459</ele>
        <time>2021-09-16T07:31:00.000Z</time>
      </trkpt>
      <trkpt lat="44.22541" lon="4.70979">
        <ele>41.662082</ele>
        <time>2021-09-16T07:31:08.000Z</time>
      </trkpt>
      <trkpt lat="44.22528" lon="4.70984">
        <ele>41.632397</ele>
        <time>2021-09-16T07:31:10.000Z</time>
      </trkpt>
      <trkpt lat="44.22514" lon="4.71034">
        <ele>41.547706</ele>
        <time>2021-09-16T07:31:16.000Z</time>
      </trkpt>
      <trkpt lat="44.22495" lon="4.71103">
        <ele>41.431746</ele>
        <time>2021-09-16T07:31:24.000Z</time>
      </trkpt>
      <trkpt lat="44.22478" lon="4.71164">
        <ele>41.32941</ele>
        <time>2021-09-16T07:31:31.000Z</time>
      </trkpt>
      <trkpt lat="44.22462" lon="4.71225">
        <ele>41.253747</ele>
        <time>2021-09-16T07:31:38.000Z</time>
      </trkpt>
      <trkpt lat="44.22459" lon="4.71233">
        <ele>41.245201</ele>
        <time>2021-09-16T07:31:39.000Z</time>
      </trkpt>
      <trkpt lat="44.22451" lon="4.71248">
        <ele>41.227309</ele>
        <time>2021-09-16T07:31:41.000Z</time>
      </trkpt>
      <trkpt lat="44.22446" lon="4.71253">
        <ele>41.218731</ele>
        <time>2021-09-16T07:31:42.000Z</time>
      </trkpt>
      <trkpt lat="44.2244" lon="4.71258">
        <ele>41.209719</ele>
        <time>2021-09-16T07:31:43.000Z</time>
      </trkpt>
      <trkpt lat="44.22417" lon="4.71278">
        <ele>41.174455</ele>
        <time>2021-09-16T07:31:47.000Z</time>
      </trkpt>
      <trkpt lat="44.22364" lon="4.71323">
        <ele>41.09353</ele>
        <time>2021-09-16T07:31:55.000Z</time>
      </trkpt>
      <trkpt lat="44.22326" lon="4.71361">
        <ele>41.071671</ele>
        <time>2021-09-16T07:32:02.000Z</time>
      </trkpt>
      <trkpt lat="44.22282" lon="4.71403">
        <ele>41.110623</ele>
        <time>2021-09-16T07:32:11.000Z</time>
      </trkpt>
      <trkpt lat="44.22245" lon="4.71441">
        <ele>41.14407</ele>
        <time>2021-09-16T07:32:18.000Z</time>
      </trkpt>
      <trkpt lat="44.22209" lon="4.71479">
        <ele>41.177535</ele>
        <time>2021-09-16T07:32:25.000Z</time>
      </trkpt>
      <trkpt lat="44.22174" lon="4.71517">
        <ele>41.269391</ele>
        <time>2021-09-16T07:32:32.000Z</time>
      </trkpt>
      <trkpt lat="44.2214" lon="4.71556">
        <ele>41.396505</ele>
        <time>2021-09-16T07:32:39.000Z</time>
      </trkpt>
      <trkpt lat="44.22106" lon="4.71595">
        <ele>41.519773</ele>
        <time>2021-09-16T07:32:46.000Z</time>
      </trkpt>
      <trkpt lat="44.22101" lon="4.71601">
        <ele>41.538514</ele>
        <time>2021-09-16T07:32:47.000Z</time>
      </trkpt>
      <trkpt lat="44.22072" lon="4.71634">
        <ele>41.64501</ele>
        <time>2021-09-16T07:32:53.000Z</time>
      </trkpt>
      <trkpt lat="44.22054" lon="4.71655">
        <ele>41.755636</ele>
        <time>2021-09-16T07:32:57.000Z</time>
      </trkpt>
      <trkpt lat="44.22045" lon="4.71665">
        <ele>41.895653</ele>
        <time>2021-09-16T07:32:59.000Z</time>
      </trkpt>
      <trkpt lat="44.22021" lon="4.71692">
        <ele>42.280435</ele>
        <time>2021-09-16T07:33:05.000Z</time>
      </trkpt>
      <trkpt lat="44.21997" lon="4.7172">
        <ele>42.674998</ele>
        <time>2021-09-16T07:33:12.000Z</time>
      </trkpt>
      <trkpt lat="44.21979" lon="4.71735">
        <ele>42.938303</ele>
        <time>2021-09-16T07:33:18.000Z</time>
      </trkpt>
      <trkpt lat="44.21952" lon="4.7175">
        <ele>43.302455</ele>
        <time>2021-09-16T07:33:26.000Z</time>
      </trkpt>
      <trkpt lat="44.21919" lon="4.71771">
        <ele>43.753827</ele>
        <time>2021-09-16T07:33:36.000Z</time>
      </trkpt>
      <trkpt lat="44.21901" lon="4.71788">
        <ele>43.973481</ele>
        <time>2021-09-16T07:33:42.000Z</time>
      </trkpt>
      <trkpt lat="44.21899" lon="4.71792">
        <ele>43.989367</ele>
        <time>2021-09-16T07:33:43.000Z</time>
      </trkpt>
      <trkpt lat="44.2188" lon="4.71826">
        <ele>44.113995</ele>
        <time>2021-09-16T07:33:49.000Z</time>
      </trkpt>
      <trkpt lat="44.21859" lon="4.71868">
        <ele>44.26584</ele>
        <time>2021-09-16T07:33:55.000Z</time>
      </trkpt>
      <trkpt lat="44.21829" lon="4.71907">
        <ele>44.435651</ele>
        <time>2021-09-16T07:34:01.000Z</time>
      </trkpt>
      <trkpt lat="44.21792" lon="4.71946">
        <ele>44.624893</ele>
        <time>2021-09-16T07:34:07.000Z</time>
      </trkpt>
      <trkpt lat="44.21743" lon="4.71993">
        <ele>44.610316</ele>
        <time>2021-09-16T07:34:14.000Z</time>
      </trkpt>
      <trkpt lat="44.21715" lon="4.72018">
        <ele>44.549555</ele>
        <time>2021-09-16T07:34:18.000Z</time>
      </trkpt>
      <trkpt lat="44.21708" lon="4.72024">
        <ele>44.535146</ele>
        <time>2021-09-16T07:34:19.000Z</time>
      </trkpt>
      <trkpt lat="44.21669" lon="4.72058">
        <ele>44.451544</ele>
        <time>2021-09-16T07:34:25.000Z</time>
      </trkpt>
      <trkpt lat="44.21663" lon="4.72064">
        <ele>44.437805</ele>
        <time>2021-09-16T07:34:26.000Z</time>
      </trkpt>
      <trkpt lat="44.21633" lon="4.7209">
        <ele>44.372716</ele>
        <time>2021-09-16T07:34:31.000Z</time>
      </trkpt>
      <trkpt lat="44.21586" lon="4.72129">
        <ele>44.288539</ele>
        <time>2021-09-16T07:34:39.000Z</time>
      </trkpt>
      <trkpt lat="44.2158" lon="4.72134">
        <ele>44.278341</ele>
        <time>2021-09-16T07:34:40.000Z</time>
      </trkpt>
      <trkpt lat="44.21532" lon="4.72168">
        <ele>44.198126</ele>
        <time>2021-09-16T07:34:48.000Z</time>
      </trkpt>
      <trkpt lat="44.2149" lon="4.72199">
        <ele>44.126639</ele>
        <time>2021-09-16T07:34:55.000Z</time>
      </trkpt>
      <trkpt lat="44.21448" lon="4.72227">
        <ele>44.062409</ele>
        <time>2021-09-16T07:35:02.000Z</time>
      </trkpt>
      <trkpt lat="44.21418" lon="4.72246">
        <ele>44.021895</ele>
        <time>2021-09-16T07:35:07.000Z</time>
      </trkpt>
      <trkpt lat="44.21367" lon="4.72272">
        <ele>43.954269</ele>
        <time>2021-09-16T07:35:15.000Z</time>
      </trkpt>
      <trkpt lat="44.21354" lon="4.72278">
        <ele>43.937215</ele>
        <time>2021-09-16T07:35:17.000Z</time>
      </trkpt>
      <trkpt lat="44.21316" lon="4.72297">
        <ele>43.886115</ele>
        <time>2021-09-16T07:35:23.000Z</time>
      </trkpt>
      <trkpt lat="44.2127" lon="4.72317">
        <ele>44.040231</ele>
        <time>2021-09-16T07:35:30.000Z</time>
      </trkpt>
      <trkpt lat="44.21225" lon="4.72334">
        <ele>44.287311</ele>
        <time>2021-09-16T07:35:38.000Z</time>
      </trkpt>
      <trkpt lat="44.21195" lon="4.72345">
        <ele>44.444263</ele>
        <time>2021-09-16T07:35:44.000Z</time>
      </trkpt>
      <trkpt lat="44.21187" lon="4.72348">
        <ele>44.49018</ele>
        <time>2021-09-16T07:35:45.000Z</time>
      </trkpt>
      <trkpt lat="44.21165" lon="4.72349">
        <ele>44.604994</ele>
        <time>2021-09-16T07:35:52.000Z</time>
      </trkpt>
      <trkpt lat="44.21135" lon="4.72344">
        <ele>44.761965</ele>
        <time>2021-09-16T07:36:01.000Z</time>
      </trkpt>
      <trkpt lat="44.21104" lon="4.72339">
        <ele>44.858569</ele>
        <time>2021-09-16T07:36:11.000Z</time>
      </trkpt>
      <trkpt lat="44.21083" lon="4.72339">
        <ele>44.906811</ele>
        <time>2021-09-16T07:36:18.000Z</time>
      </trkpt>
      <trkpt lat="44.21063" lon="4.72347">
        <ele>44.953017</ele>
        <time>2021-09-16T07:36:23.000Z</time>
      </trkpt>
      <trkpt lat="44.21029" lon="4.72364">
        <ele>45.035157</ele>
        <time>2021-09-16T07:36:28.000Z</time>
      </trkpt>
      <trkpt lat="44.20996" lon="4.72378">
        <ele>45.114331</ele>
        <time>2021-09-16T07:36:34.000Z</time>
      </trkpt>
      <trkpt lat="44.20949" lon="4.72381">
        <ele>45.195486</ele>
        <time>2021-09-16T07:36:39.000Z</time>
      </trkpt>
      <trkpt lat="44.20897" lon="4.7238">
        <ele>44.777818</ele>
        <time>2021-09-16T07:36:46.000Z</time>
      </trkpt>
      <trkpt lat="44.20841" lon="4.72378">
        <ele>44.318733</ele>
        <time>2021-09-16T07:36:53.000Z</time>
      </trkpt>
      <trkpt lat="44.20833" lon="4.72378">
        <ele>44.255361</ele>
        <time>2021-09-16T07:36:54.000Z</time>
      </trkpt>
      <trkpt lat="44.20774" lon="4.72377">
        <ele>43.773531</ele>
        <time>2021-09-16T07:37:02.000Z</time>
      </trkpt>
      <trkpt lat="44.20725" lon="4.72376">
        <ele>43.494187</ele>
        <time>2021-09-16T07:37:09.000Z</time>
      </trkpt>
      <trkpt lat="44.20676" lon="4.72375">
        <ele>43.221411</ele>
        <time>2021-09-16T07:37:16.000Z</time>
      </trkpt>
      <trkpt lat="44.20621" lon="4.72374">
        <ele>42.912869</ele>
        <time>2021-09-16T07:37:24.000Z</time>
      </trkpt>
      <trkpt lat="44.20614" lon="4.72374">
        <ele>42.874305</ele>
        <time>2021-09-16T07:37:25.000Z</time>
      </trkpt>
      <trkpt lat="44.20558" lon="4.72376">
        <ele>42.63302</ele>
        <time>2021-09-16T07:37:33.000Z</time>
      </trkpt>
      <trkpt lat="44.20502" lon="4.72384">
        <ele>42.436886</ele>
        <time>2021-09-16T07:37:41.000Z</time>
      </trkpt>
      <trkpt lat="44.20446" lon="4.72398">
        <ele>42.24089</ele>
        <time>2021-09-16T07:37:48.000Z</time>
      </trkpt>
      <trkpt lat="44.20446" lon="4.72398">
        <ele>42.24089</ele>
        <time>2021-09-16T07:37:49.000Z</time>
      </trkpt>
      <trkpt lat="44.20391" lon="4.72414">
        <ele>42.068996</ele>
        <time>2021-09-16T07:37:57.000Z</time>
      </trkpt>
      <trkpt lat="44.20384" lon="4.72417">
        <ele>42.051676</ele>
        <time>2021-09-16T07:37:58.000Z</time>
      </trkpt>
      <trkpt lat="44.20328" lon="4.72437">
        <ele>41.912033</ele>
        <time>2021-09-16T07:38:06.000Z</time>
      </trkpt>
      <trkpt lat="44.20289" lon="4.72455">
        <ele>41.81086</ele>
        <time>2021-09-16T07:38:12.000Z</time>
      </trkpt>
      <trkpt lat="44.20275" lon="4.72459">
        <ele>41.77654</ele>
        <time>2021-09-16T07:38:14.000Z</time>
      </trkpt>
      <trkpt lat="44.20261" lon="4.72461">
        <ele>41.742085</ele>
        <time>2021-09-16T07:38:16.000Z</time>
      </trkpt>
      <trkpt lat="44.20227" lon="4.7245">
        <ele>41.614897</ele>
        <time>2021-09-16T07:38:21.000Z</time>
      </trkpt>
      <trkpt lat="44.20174" lon="4.72427">
        <ele>41.306823</ele>
        <time>2021-09-16T07:38:29.000Z</time>
      </trkpt>
      <trkpt lat="44.20161" lon="4.72421">
        <ele>41.230646</ele>
        <time>2021-09-16T07:38:31.000Z</time>
      </trkpt>
      <trkpt lat="44.20109" lon="4.72398">
        <ele>40.927815</ele>
        <time>2021-09-16T07:38:38.000Z</time>
      </trkpt>
      <trkpt lat="44.20102" lon="4.72395">
        <ele>40.890581</ele>
        <time>2021-09-16T07:38:39.000Z</time>
      </trkpt>
      <trkpt lat="44.20058" lon="4.72375">
        <ele>40.68265</ele>
        <time>2021-09-16T07:38:46.000Z</time>
      </trkpt>
      <trkpt lat="44.20058" lon="4.72375">
        <ele>40.68265</ele>
        <time>2021-09-16T07:38:47.000Z</time>
      </trkpt>
      <trkpt lat="44.20053" lon="4.72372">
        <ele>40.678432</ele>
        <time>2021-09-16T07:38:48.000Z</time>
      </trkpt>
      <trkpt lat="44.20042" lon="4.72377">
        <ele>40.6702</ele>
        <time>2021-09-16T07:38:50.000Z</time>
      </trkpt>
      <trkpt lat="44.20042" lon="4.72383">
        <ele>40.666827</ele>
        <time>2021-09-16T07:38:51.000Z</time>
      </trkpt>
      <trkpt lat="44.20044" lon="4.72407">
        <ele>40.654415</ele>
        <time>2021-09-16T07:38:54.000Z</time>
      </trkpt>
      <trkpt lat="44.20051" lon="4.72464">
        <ele>40.624047</ele>
        <time>2021-09-16T07:39:01.000Z</time>
      </trkpt>
      <trkpt lat="44.20057" lon="4.72511">
        <ele>40.598924</ele>
        <time>2021-09-16T07:39:08.000Z</time>
      </trkpt>
      <trkpt lat="44.20059" lon="4.72551">
        <ele>40.577674</ele>
        <time>2021-09-16T07:39:16.000Z</time>
      </trkpt>
      <trkpt lat="44.20054" lon="4.72594">
        <ele>40.551441</ele>
        <time>2021-09-16T07:39:25.000Z</time>
      </trkpt>
      <trkpt lat="44.20051" lon="4.72603">
        <ele>40.540429</ele>
        <time>2021-09-16T07:39:27.000Z</time>
      </trkpt>
      <trkpt lat="44.20043" lon="4.72625">
        <ele>40.513801</ele>
        <time>2021-09-16T07:39:30.000Z</time>
      </trkpt>
      <trkpt lat="44.2004" lon="4.72631">
        <ele>40.505868</ele>
        <time>2021-09-16T07:39:32.000Z</time>
      </trkpt>
      <trkpt lat="44.20029" lon="4.72651">
        <ele>40.477861</ele>
        <time>2021-09-16T07:39:35.000Z</time>
      </trkpt>
      <trkpt lat="44.20019" lon="4.72663">
        <ele>40.457638</ele>
        <time>2021-09-16T07:39:37.000Z</time>
      </trkpt>
      <trkpt lat="44.20015" lon="4.72667">
        <ele>40.449364</ele>
        <time>2021-09-16T07:39:38.000Z</time>
      </trkpt>
      <trkpt lat="44.19996" lon="4.72651">
        <ele>40.416435</ele>
        <time>2021-09-16T07:39:41.000Z</time>
      </trkpt>
      <trkpt lat="44.19986" lon="4.72645">
        <ele>40.399599</ele>
        <time>2021-09-16T07:39:44.000Z</time>
      </trkpt>
      <trkpt lat="44.19976" lon="4.72641">
        <ele>40.382842</ele>
        <time>2021-09-16T07:39:46.000Z</time>
      </trkpt>
      <trkpt lat="44.19937" lon="4.72629">
        <ele>40.321745</ele>
        <time>2021-09-16T07:39:53.000Z</time>
      </trkpt>
      <trkpt lat="44.19896" lon="4.72619">
        <ele>40.253562</ele>
        <time>2021-09-16T07:40:00.000Z</time>
      </trkpt>
      <trkpt lat="44.19846" lon="4.72607">
        <ele>40.162016</ele>
        <time>2021-09-16T07:40:08.000Z</time>
      </trkpt>
      <trkpt lat="44.1984" lon="4.72605">
        <ele>40.150987</ele>
        <time>2021-09-16T07:40:09.000Z</time>
      </trkpt>
      <trkpt lat="44.19834" lon="4.72604">
        <ele>40.140895</ele>
        <time>2021-09-16T07:40:10.000Z</time>
      </trkpt>
      <trkpt lat="44.19811" lon="4.72599">
        <ele>40.098838</ele>
        <time>2021-09-16T07:40:14.000Z</time>
      </trkpt>
      <trkpt lat="44.19769" lon="4.72596">
        <ele>40.022362</ele>
        <time>2021-09-16T07:40:21.000Z</time>
      </trkpt>
      <trkpt lat="44.19738" lon="4.726">
        <ele>39.966332</ele>
        <time>2021-09-16T07:40:26.000Z</time>
      </trkpt>
      <trkpt lat="44.19721" lon="4.72611">
        <ele>39.940742</ele>
        <time>2021-09-16T07:40:29.000Z</time>
      </trkpt>
      <trkpt lat="44.19705" lon="4.72622">
        <ele>39.919964</ele>
        <time>2021-09-16T07:40:31.000Z</time>
      </trkpt>
      <trkpt lat="44.19696" lon="4.72629">
        <ele>39.906758</ele>
        <time>2021-09-16T07:40:34.000Z</time>
      </trkpt>
      <trkpt lat="44.19683" lon="4.72632">
        <ele>39.892048</ele>
        <time>2021-09-16T07:40:36.000Z</time>
      </trkpt>
      <trkpt lat="44.19675" lon="4.72624">
        <ele>39.880343</ele>
        <time>2021-09-16T07:40:38.000Z</time>
      </trkpt>
      <trkpt lat="44.19664" lon="4.72596">
        <ele>39.853283</ele>
        <time>2021-09-16T07:40:41.000Z</time>
      </trkpt>
      <trkpt lat="44.1966" lon="4.72591">
        <ele>39.846456</ele>
        <time>2021-09-16T07:40:43.000Z</time>
      </trkpt>
      <trkpt lat="44.19623" lon="4.72584">
        <ele>39.803004</ele>
        <time>2021-09-16T07:40:48.000Z</time>
      </trkpt>
      <trkpt lat="44.19567" lon="4.7258">
        <ele>39.728326</ele>
        <time>2021-09-16T07:40:58.000Z</time>
      </trkpt>
      <trkpt lat="44.19516" lon="4.72581">
        <ele>39.613571</ele>
        <time>2021-09-16T07:41:06.000Z</time>
      </trkpt>
      <trkpt lat="44.19478" lon="4.72585">
        <ele>39.526627</ele>
        <time>2021-09-16T07:41:12.000Z</time>
      </trkpt>
      <trkpt lat="44.19452" lon="4.72586">
        <ele>39.468306</ele>
        <time>2021-09-16T07:41:16.000Z</time>
      </trkpt>
      <trkpt lat="44.19433" lon="4.72582">
        <ele>39.424496</ele>
        <time>2021-09-16T07:41:18.000Z</time>
      </trkpt>
      <trkpt lat="44.19389" lon="4.72568">
        <ele>39.335691</ele>
        <time>2021-09-16T07:41:26.000Z</time>
      </trkpt>
      <trkpt lat="44.19366" lon="4.7256">
        <ele>39.329263</ele>
        <time>2021-09-16T07:41:29.000Z</time>
      </trkpt>
      <trkpt lat="44.19366" lon="4.7256">
        <ele>39.329263</ele>
        <time>2021-09-16T07:41:30.000Z</time>
      </trkpt>
      <trkpt lat="44.19361" lon="4.72558">
        <ele>39.327909</ele>
        <time>2021-09-16T07:41:31.000Z</time>
      </trkpt>
      <trkpt lat="44.19354" lon="4.72546">
        <ele>39.325047</ele>
        <time>2021-09-16T07:41:32.000Z</time>
      </trkpt>
      <trkpt lat="44.19356" lon="4.72532">
        <ele>39.322354</ele>
        <time>2021-09-16T07:41:34.000Z</time>
      </trkpt>
      <trkpt lat="44.19359" lon="4.72519">
        <ele>39.319703</ele>
        <time>2021-09-16T07:41:36.000Z</time>
      </trkpt>
      <trkpt lat="44.19352" lon="4.72497">
        <ele>39.315208</ele>
        <time>2021-09-16T07:41:39.000Z</time>
      </trkpt>
      <trkpt lat="44.19348" lon="4.72482">
        <ele>39.312103</ele>
        <time>2021-09-16T07:41:41.000Z</time>
      </trkpt>
      <trkpt lat="44.19338" lon="4.7245">
        <ele>39.305622</ele>
        <time>2021-09-16T07:41:45.000Z</time>
      </trkpt>
      <trkpt lat="44.19335" lon="4.72443">
        <ele>39.304005</ele>
        <time>2021-09-16T07:41:46.000Z</time>
      </trkpt>
      <trkpt lat="44.19333" lon="4.72435">
        <ele>39.302434</ele>
        <time>2021-09-16T07:41:47.000Z</time>
      </trkpt>
      <trkpt lat="44.19323" lon="4.72405">
        <ele>39.296158</ele>
        <time>2021-09-16T07:41:51.000Z</time>
      </trkpt>
      <trkpt lat="44.19303" lon="4.72342">
        <ele>39.371501</ele>
        <time>2021-09-16T07:41:59.000Z</time>
      </trkpt>
      <trkpt lat="44.19281" lon="4.72276">
        <ele>39.544143</ele>
        <time>2021-09-16T07:42:08.000Z</time>
      </trkpt>
      <trkpt lat="44.19259" lon="4.72209">
        <ele>39.717993</ele>
        <time>2021-09-16T07:42:17.000Z</time>
      </trkpt>
      <trkpt lat="44.19237" lon="4.7214">
        <ele>39.903942</ele>
        <time>2021-09-16T07:42:26.000Z</time>
      </trkpt>
      <trkpt lat="44.19235" lon="4.72132">
        <ele>39.933347</ele>
        <time>2021-09-16T07:42:27.000Z</time>
      </trkpt>
      <trkpt lat="44.1921" lon="4.72057">
        <ele>40.230585</ele>
        <time>2021-09-16T07:42:37.000Z</time>
      </trkpt>
      <trkpt lat="44.19197" lon="4.71993">
        <ele>40.46709</ele>
        <time>2021-09-16T07:42:45.000Z</time>
      </trkpt>
      <trkpt lat="44.19185" lon="4.71939">
        <ele>40.669866</ele>
        <time>2021-09-16T07:42:52.000Z</time>
      </trkpt>
      <trkpt lat="44.19184" lon="4.71932">
        <ele>40.696367</ele>
        <time>2021-09-16T07:42:53.000Z</time>
      </trkpt>
      <trkpt lat="44.19182" lon="4.71925">
        <ele>40.722524</ele>
        <time>2021-09-16T07:42:54.000Z</time>
      </trkpt>
      <trkpt lat="44.19178" lon="4.71911">
        <ele>40.776199</ele>
        <time>2021-09-16T07:42:56.000Z</time>
      </trkpt>
      <trkpt lat="44.19144" lon="4.71885">
        <ele>41.191771</ele>
        <time>2021-09-16T07:43:03.000Z</time>
      </trkpt>
      <trkpt lat="44.19115" lon="4.7186">
        <ele>41.552972</ele>
        <time>2021-09-16T07:43:09.000Z</time>
      </trkpt>
      <trkpt lat="44.19099" lon="4.71839">
        <ele>41.781133</ele>
        <time>2021-09-16T07:43:13.000Z</time>
      </trkpt>
      <trkpt lat="44.19093" lon="4.71831">
        <ele>41.874059</ele>
        <time>2021-09-16T07:43:15.000Z</time>
      </trkpt>
      <trkpt lat="44.19083" lon="4.71824">
        <ele>41.987907</ele>
        <time>2021-09-16T07:43:17.000Z</time>
      </trkpt>
      <trkpt lat="44.19072" lon="4.71824">
        <ele>42.110186</ele>
        <time>2021-09-16T07:43:19.000Z</time>
      </trkpt>
      <trkpt lat="44.19068" lon="4.71827">
        <ele>42.160805</ele>
        <time>2021-09-16T07:43:20.000Z</time>
      </trkpt>
      <trkpt lat="44.19031" lon="4.7186">
        <ele>42.621188</ele>
        <time>2021-09-16T07:43:28.000Z</time>
      </trkpt>
      <trkpt lat="44.19013" lon="4.71876">
        <ele>42.714266</ele>
        <time>2021-09-16T07:43:32.000Z</time>
      </trkpt>
      <trkpt lat="44.18999" lon="4.71889">
        <ele>42.740076</ele>
        <time>2021-09-16T07:43:35.000Z</time>
      </trkpt>
      <trkpt lat="44.1899" lon="4.71897">
        <ele>42.757532</ele>
        <time>2021-09-16T07:43:37.000Z</time>
      </trkpt>
      <trkpt lat="44.1898" lon="4.71906">
        <ele>42.775117</ele>
        <time>2021-09-16T07:43:39.000Z</time>
      </trkpt>
      <trkpt lat="44.18978" lon="4.71914">
        <ele>42.784599</ele>
        <time>2021-09-16T07:43:40.000Z</time>
      </trkpt>
      <trkpt lat="44.18975" lon="4.71929">
        <ele>42.801448</ele>
        <time>2021-09-16T07:43:42.000Z</time>
      </trkpt>
      <trkpt lat="44.18974" lon="4.71935">
        <ele>42.808693</ele>
        <time>2021-09-16T07:43:43.000Z</time>
      </trkpt>
      <trkpt lat="44.18972" lon="4.71941">
        <ele>42.816003</ele>
        <time>2021-09-16T07:43:44.000Z</time>
      </trkpt>
      <trkpt lat="44.1897" lon="4.71953">
        <ele>42.829984</ele>
        <time>2021-09-16T07:43:46.000Z</time>
      </trkpt>
      <trkpt lat="44.18964" lon="4.71979">
        <ele>42.859624</ele>
        <time>2021-09-16T07:43:51.000Z</time>
      </trkpt>
      <trkpt lat="44.1896" lon="4.7199">
        <ele>42.873143</ele>
        <time>2021-09-16T07:43:53.000Z</time>
      </trkpt>
      <trkpt lat="44.18957" lon="4.71996">
        <ele>42.881428</ele>
        <time>2021-09-16T07:43:54.000Z</time>
      </trkpt>
      <trkpt lat="44.18939" lon="4.72024">
        <ele>42.922948</ele>
        <time>2021-09-16T07:43:58.000Z</time>
      </trkpt>
      <trkpt lat="44.18926" lon="4.72042">
        <ele>42.951448</ele>
        <time>2021-09-16T07:44:01.000Z</time>
      </trkpt>
      <trkpt lat="44.18922" lon="4.72048">
        <ele>42.960745</ele>
        <time>2021-09-16T07:44:02.000Z</time>
      </trkpt>
      <trkpt lat="44.18912" lon="4.72061">
        <ele>42.897815</ele>
        <time>2021-09-16T07:44:04.000Z</time>
      </trkpt>
      <trkpt lat="44.18902" lon="4.72075">
        <ele>42.791144</ele>
        <time>2021-09-16T07:44:06.000Z</time>
      </trkpt>
      <trkpt lat="44.18894" lon="4.72087">
        <ele>42.693444</ele>
        <time>2021-09-16T07:44:08.000Z</time>
      </trkpt>
      <trkpt lat="44.18889" lon="4.72093">
        <ele>42.63922</ele>
        <time>2021-09-16T07:44:09.000Z</time>
      </trkpt>
      <trkpt lat="44.18871" lon="4.72118">
        <ele>42.437758</ele>
        <time>2021-09-16T07:44:13.000Z</time>
      </trkpt>
      <trkpt lat="44.18866" lon="4.72124">
        <ele>42.387816</ele>
        <time>2021-09-16T07:44:14.000Z</time>
      </trkpt>
      <trkpt lat="44.18862" lon="4.72131">
        <ele>42.333995</ele>
        <time>2021-09-16T07:44:15.000Z</time>
      </trkpt>
      <trkpt lat="44.18848" lon="4.72149">
        <ele>42.184414</ele>
        <time>2021-09-16T07:44:18.000Z</time>
      </trkpt>
      <trkpt lat="44.1884" lon="4.7216">
        <ele>42.094309</ele>
        <time>2021-09-16T07:44:20.000Z</time>
      </trkpt>
      <trkpt lat="44.18837" lon="4.72166">
        <ele>42.051802</ele>
        <time>2021-09-16T07:44:21.000Z</time>
      </trkpt>
      <trkpt lat="44.18816" lon="4.72172">
        <ele>41.881868</ele>
        <time>2021-09-16T07:44:22.000Z</time>
      </trkpt>
      <trkpt lat="44.18798" lon="4.72147">
        <ele>41.677023</ele>
        <time>2021-09-16T07:44:26.000Z</time>
      </trkpt>
      <trkpt lat="44.18794" lon="4.7214">
        <ele>41.625968</ele>
        <time>2021-09-16T07:44:27.000Z</time>
      </trkpt>
      <trkpt lat="44.18785" lon="4.72125">
        <ele>41.525264</ele>
        <time>2021-09-16T07:44:29.000Z</time>
      </trkpt>
      <trkpt lat="44.18782" lon="4.72118">
        <ele>41.505822</ele>
        <time>2021-09-16T07:44:30.000Z</time>
      </trkpt>
      <trkpt lat="44.18776" lon="4.72074">
        <ele>41.402331</ele>
        <time>2021-09-16T07:44:35.000Z</time>
      </trkpt>
      <trkpt lat="44.18772" lon="4.72032">
        <ele>41.304477</ele>
        <time>2021-09-16T07:44:40.000Z</time>
      </trkpt>
      <trkpt lat="44.18771" lon="4.72024">
        <ele>41.285536</ele>
        <time>2021-09-16T07:44:41.000Z</time>
      </trkpt>
      <trkpt lat="44.18769" lon="4.72009">
        <ele>41.251288</ele>
        <time>2021-09-16T07:44:43.000Z</time>
      </trkpt>
      <trkpt lat="44.18766" lon="4.71994">
        <ele>41.214259</ele>
        <time>2021-09-16T07:44:45.000Z</time>
      </trkpt>
      <trkpt lat="44.18764" lon="4.7198">
        <ele>41.182405</ele>
        <time>2021-09-16T07:44:47.000Z</time>
      </trkpt>
      <trkpt lat="44.18763" lon="4.71972">
        <ele>41.164489</ele>
        <time>2021-09-16T07:44:48.000Z</time>
      </trkpt>
      <trkpt lat="44.18756" lon="4.71923">
        <ele>41.048843</ele>
        <time>2021-09-16T07:44:53.000Z</time>
      </trkpt>
      <trkpt lat="44.18748" lon="4.71871">
        <ele>40.949597</ele>
        <time>2021-09-16T07:44:59.000Z</time>
      </trkpt>
      <trkpt lat="44.18743" lon="4.71838">
        <ele>40.940342</ele>
        <time>2021-09-16T07:45:03.000Z</time>
      </trkpt>
      <trkpt lat="44.1874" lon="4.71814">
        <ele>40.933828</ele>
        <time>2021-09-16T07:45:05.000Z</time>
      </trkpt>
      <trkpt lat="44.18731" lon="4.71747">
        <ele>40.915717</ele>
        <time>2021-09-16T07:45:13.000Z</time>
      </trkpt>
      <trkpt lat="44.18721" lon="4.71674">
        <ele>40.895689</ele>
        <time>2021-09-16T07:45:22.000Z</time>
      </trkpt>
      <trkpt lat="44.18713" lon="4.71618">
        <ele>40.870755</ele>
        <time>2021-09-16T07:45:29.000Z</time>
      </trkpt>
      <trkpt lat="44.18711" lon="4.71603">
        <ele>40.859003</ele>
        <time>2021-09-16T07:45:31.000Z</time>
      </trkpt>
      <trkpt lat="44.18708" lon="4.71575">
        <ele>40.836394</ele>
        <time>2021-09-16T07:45:35.000Z</time>
      </trkpt>
      <trkpt lat="44.18702" lon="4.71531">
        <ele>40.80106</ele>
        <time>2021-09-16T07:45:41.000Z</time>
      </trkpt>
      <trkpt lat="44.187" lon="4.71524">
        <ele>40.795215</ele>
        <time>2021-09-16T07:45:42.000Z</time>
      </trkpt>
      <trkpt lat="44.18698" lon="4.71509">
        <ele>40.78245</ele>
        <time>2021-09-16T07:45:44.000Z</time>
      </trkpt>
      <trkpt lat="44.18696" lon="4.715">
        <ele>40.775709</ele>
        <time>2021-09-16T07:45:45.000Z</time>
      </trkpt>
      <trkpt lat="44.18695" lon="4.71492">
        <ele>40.769044</ele>
        <time>2021-09-16T07:45:46.000Z</time>
      </trkpt>
      <trkpt lat="44.18692" lon="4.71475">
        <ele>40.7553</ele>
        <time>2021-09-16T07:45:48.000Z</time>
      </trkpt>
      <trkpt lat="44.18688" lon="4.71452">
        <ele>40.736788</ele>
        <time>2021-09-16T07:45:51.000Z</time>
      </trkpt>
      <trkpt lat="44.18687" lon="4.71446">
        <ele>40.731609</ele>
        <time>2021-09-16T07:45:53.000Z</time>
      </trkpt>
      <trkpt lat="44.18685" lon="4.71431">
        <ele>40.719758</ele>
        <time>2021-09-16T07:45:54.000Z</time>
      </trkpt>
      <trkpt lat="44.18682" lon="4.71409">
        <ele>40.701467</ele>
        <time>2021-09-16T07:45:57.000Z</time>
      </trkpt>
      <trkpt lat="44.18682" lon="4.71408">
        <ele>40.701387</ele>
        <time>2021-09-16T07:45:58.000Z</time>
      </trkpt>
      <trkpt lat="44.18675" lon="4.71388">
        <ele>40.679687</ele>
        <time>2021-09-16T07:46:00.000Z</time>
      </trkpt>
      <trkpt lat="44.18667" lon="4.71393">
        <ele>40.659759</ele>
        <time>2021-09-16T07:46:02.000Z</time>
      </trkpt>
      <trkpt lat="44.18652" lon="4.71402">
        <ele>40.624048</ele>
        <time>2021-09-16T07:46:04.000Z</time>
      </trkpt>
      <trkpt lat="44.18632" lon="4.71413">
        <ele>40.576297</ele>
        <time>2021-09-16T07:46:08.000Z</time>
      </trkpt>
      <trkpt lat="44.18621" lon="4.71419">
        <ele>40.550196</ele>
        <time>2021-09-16T07:46:10.000Z</time>
      </trkpt>
      <trkpt lat="44.18604" lon="4.71429">
        <ele>40.508939</ele>
        <time>2021-09-16T07:46:13.000Z</time>
      </trkpt>
      <trkpt lat="44.18558" lon="4.71455">
        <ele>40.396262</ele>
        <time>2021-09-16T07:46:21.000Z</time>
      </trkpt>
      <trkpt lat="44.18522" lon="4.71476">
        <ele>40.309894</ele>
        <time>2021-09-16T07:46:27.000Z</time>
      </trkpt>
      <trkpt lat="44.18506" lon="4.71485">
        <ele>40.300326</ele>
        <time>2021-09-16T07:46:30.000Z</time>
      </trkpt>
      <trkpt lat="44.1849" lon="4.71494">
        <ele>40.341759</ele>
        <time>2021-09-16T07:46:33.000Z</time>
      </trkpt>
      <trkpt lat="44.18471" lon="4.71505">
        <ele>40.393477</ele>
        <time>2021-09-16T07:46:36.000Z</time>
      </trkpt>
      <trkpt lat="44.18464" lon="4.71508">
        <ele>40.410415</ele>
        <time>2021-09-16T07:46:37.000Z</time>
      </trkpt>
      <trkpt lat="44.18433" lon="4.71526">
        <ele>40.492469</ele>
        <time>2021-09-16T07:46:42.000Z</time>
      </trkpt>
      <trkpt lat="44.18409" lon="4.71541">
        <ele>40.557214</ele>
        <time>2021-09-16T07:46:46.000Z</time>
      </trkpt>
      <trkpt lat="44.18385" lon="4.71557">
        <ele>40.622466</ele>
        <time>2021-09-16T07:46:50.000Z</time>
      </trkpt>
      <trkpt lat="44.18349" lon="4.71575">
        <ele>40.715805</ele>
        <time>2021-09-16T07:46:56.000Z</time>
      </trkpt>
      <trkpt lat="44.18345" lon="4.71578">
        <ele>40.726708</ele>
        <time>2021-09-16T07:46:57.000Z</time>
      </trkpt>
      <trkpt lat="44.18327" lon="4.71589">
        <ele>40.771193</ele>
        <time>2021-09-16T07:47:00.000Z</time>
      </trkpt>
      <trkpt lat="44.18296" lon="4.71609">
        <ele>40.850016</ele>
        <time>2021-09-16T07:47:05.000Z</time>
      </trkpt>
      <trkpt lat="44.18264" lon="4.71637">
        <ele>40.936711</ele>
        <time>2021-09-16T07:47:11.000Z</time>
      </trkpt>
      <trkpt lat="44.18237" lon="4.7166">
        <ele>41.009661</ele>
        <time>2021-09-16T07:47:16.000Z</time>
      </trkpt>
      <trkpt lat="44.18205" lon="4.71687">
        <ele>41.095965</ele>
        <time>2021-09-16T07:47:22.000Z</time>
      </trkpt>
      <trkpt lat="44.18185" lon="4.71705">
        <ele>41.122749</ele>
        <time>2021-09-16T07:47:26.000Z</time>
      </trkpt>
      <trkpt lat="44.18149" lon="4.71728">
        <ele>41.009328</ele>
        <time>2021-09-16T07:47:32.000Z</time>
      </trkpt>
      <trkpt lat="44.18123" lon="4.71755">
        <ele>40.915013</ele>
        <time>2021-09-16T07:47:37.000Z</time>
      </trkpt>
      <trkpt lat="44.18096" lon="4.71776">
        <ele>40.82766</ele>
        <time>2021-09-16T07:47:42.000Z</time>
      </trkpt>
      <trkpt lat="44.18068" lon="4.71798">
        <ele>40.733657</ele>
        <time>2021-09-16T07:47:47.000Z</time>
      </trkpt>
      <trkpt lat="44.18038" lon="4.71822">
        <ele>40.635121</ele>
        <time>2021-09-16T07:47:52.000Z</time>
      </trkpt>
      <trkpt lat="44.18028" lon="4.7183">
        <ele>40.638436</ele>
        <time>2021-09-16T07:47:54.000Z</time>
      </trkpt>
      <trkpt lat="44.18015" lon="4.71839">
        <ele>40.676145</ele>
        <time>2021-09-16T07:47:56.000Z</time>
      </trkpt>
      <trkpt lat="44.17973" lon="4.71872">
        <ele>40.806966</ele>
        <time>2021-09-16T07:48:03.000Z</time>
      </trkpt>
      <trkpt lat="44.17957" lon="4.71884">
        <ele>40.857082</ele>
        <time>2021-09-16T07:48:06.000Z</time>
      </trkpt>
      <trkpt lat="44.17953" lon="4.71887">
        <ele>40.870799</ele>
        <time>2021-09-16T07:48:07.000Z</time>
      </trkpt>
      <trkpt lat="44.17943" lon="4.71894">
        <ele>40.900943</ele>
        <time>2021-09-16T07:48:09.000Z</time>
      </trkpt>
      <trkpt lat="44.17938" lon="4.71898">
        <ele>40.916224</ele>
        <time>2021-09-16T07:48:10.000Z</time>
      </trkpt>
      <trkpt lat="44.17921" lon="4.71904">
        <ele>40.961549</ele>
        <time>2021-09-16T07:48:13.000Z</time>
      </trkpt>
      <trkpt lat="44.17917" lon="4.71907">
        <ele>40.975266</ele>
        <time>2021-09-16T07:48:14.000Z</time>
      </trkpt>
      <trkpt lat="44.17905" lon="4.71914">
        <ele>41.009499</ele>
        <time>2021-09-16T07:48:16.000Z</time>
      </trkpt>
      <trkpt lat="44.17893" lon="4.71921">
        <ele>41.04538</ele>
        <time>2021-09-16T07:48:18.000Z</time>
      </trkpt>
      <trkpt lat="44.17864" lon="4.71945">
        <ele>41.275407</ele>
        <time>2021-09-16T07:48:23.000Z</time>
      </trkpt>
      <trkpt lat="44.17841" lon="4.71958">
        <ele>41.654762</ele>
        <time>2021-09-16T07:48:27.000Z</time>
      </trkpt>
      <trkpt lat="44.17835" lon="4.71961">
        <ele>41.746268</ele>
        <time>2021-09-16T07:48:28.000Z</time>
      </trkpt>
      <trkpt lat="44.1783" lon="4.71964">
        <ele>41.830287</ele>
        <time>2021-09-16T07:48:29.000Z</time>
      </trkpt>
      <trkpt lat="44.17817" lon="4.71972">
        <ele>42.050845</ele>
        <time>2021-09-16T07:48:31.000Z</time>
      </trkpt>
      <trkpt lat="44.17782" lon="4.71994">
        <ele>42.645658</ele>
        <time>2021-09-16T07:48:37.000Z</time>
      </trkpt>
      <trkpt lat="44.1776" lon="4.72007">
        <ele>43.012967</ele>
        <time>2021-09-16T07:48:41.000Z</time>
      </trkpt>
      <trkpt lat="44.17756" lon="4.72009">
        <ele>43.075168</ele>
        <time>2021-09-16T07:48:42.000Z</time>
      </trkpt>
      <trkpt lat="44.1774" lon="4.72015">
        <ele>43.328459</ele>
        <time>2021-09-16T07:48:45.000Z</time>
      </trkpt>
      <trkpt lat="44.17709" lon="4.72032">
        <ele>43.838302</ele>
        <time>2021-09-16T07:48:50.000Z</time>
      </trkpt>
      <trkpt lat="44.17668" lon="4.72049">
        <ele>44.398933</ele>
        <time>2021-09-16T07:48:56.000Z</time>
      </trkpt>
      <trkpt lat="44.17645" lon="4.72058">
        <ele>44.706247</ele>
        <time>2021-09-16T07:49:00.000Z</time>
      </trkpt>
      <trkpt lat="44.17616" lon="4.72071">
        <ele>45.101226</ele>
        <time>2021-09-16T07:49:05.000Z</time>
      </trkpt>
      <trkpt lat="44.17602" lon="4.72076">
        <ele>45.288763</ele>
        <time>2021-09-16T07:49:08.000Z</time>
      </trkpt>
      <trkpt lat="44.1759" lon="4.72081">
        <ele>45.450646</ele>
        <time>2021-09-16T07:49:10.000Z</time>
      </trkpt>
      <trkpt lat="44.17576" lon="4.72087">
        <ele>45.642164</ele>
        <time>2021-09-16T07:49:12.000Z</time>
      </trkpt>
      <trkpt lat="44.17564" lon="4.72092">
        <ele>45.805287</ele>
        <time>2021-09-16T07:49:14.000Z</time>
      </trkpt>
      <trkpt lat="44.17559" lon="4.72094">
        <ele>45.867298</ele>
        <time>2021-09-16T07:49:15.000Z</time>
      </trkpt>
      <trkpt lat="44.17539" lon="4.72098">
        <ele>46.131918</ele>
        <time>2021-09-16T07:49:18.000Z</time>
      </trkpt>
      <trkpt lat="44.17523" lon="4.72104">
        <ele>46.210717</ele>
        <time>2021-09-16T07:49:21.000Z</time>
      </trkpt>
      <trkpt lat="44.17511" lon="4.72112">
        <ele>46.230245</ele>
        <time>2021-09-16T07:49:23.000Z</time>
      </trkpt>
      <trkpt lat="44.17506" lon="4.72113">
        <ele>46.23829</ele>
        <time>2021-09-16T07:49:24.000Z</time>
      </trkpt>
      <trkpt lat="44.17493" lon="4.72117">
        <ele>46.256835</ele>
        <time>2021-09-16T07:49:26.000Z</time>
      </trkpt>
      <trkpt lat="44.17465" lon="4.72124">
        <ele>46.297424</ele>
        <time>2021-09-16T07:49:31.000Z</time>
      </trkpt>
      <trkpt lat="44.17433" lon="4.72132">
        <ele>46.34445</ele>
        <time>2021-09-16T07:49:36.000Z</time>
      </trkpt>
      <trkpt lat="44.17409" lon="4.72139">
        <ele>46.379648</ele>
        <time>2021-09-16T07:49:40.000Z</time>
      </trkpt>
      <trkpt lat="44.17376" lon="4.72147">
        <ele>46.426956</ele>
        <time>2021-09-16T07:49:45.000Z</time>
      </trkpt>
      <trkpt lat="44.17356" lon="4.72152">
        <ele>46.433823</ele>
        <time>2021-09-16T07:49:49.000Z</time>
      </trkpt>
      <trkpt lat="44.17323" lon="4.72153">
        <ele>46.183562</ele>
        <time>2021-09-16T07:49:54.000Z</time>
      </trkpt>
      <trkpt lat="44.17301" lon="4.72161">
        <ele>46.006725</ele>
        <time>2021-09-16T07:49:58.000Z</time>
      </trkpt>
      <trkpt lat="44.1727" lon="4.72165">
        <ele>45.769092</ele>
        <time>2021-09-16T07:50:03.000Z</time>
      </trkpt>
      <trkpt lat="44.17233" lon="4.7217">
        <ele>45.489269</ele>
        <time>2021-09-16T07:50:08.000Z</time>
      </trkpt>
      <trkpt lat="44.17204" lon="4.72173">
        <ele>45.268202</ele>
        <time>2021-09-16T07:50:12.000Z</time>
      </trkpt>
      <trkpt lat="44.17197" lon="4.72174">
        <ele>45.212409</ele>
        <time>2021-09-16T07:50:13.000Z</time>
      </trkpt>
      <trkpt lat="44.17154" lon="4.72177">
        <ele>44.772315</ele>
        <time>2021-09-16T07:50:19.000Z</time>
      </trkpt>
      <trkpt lat="44.171" lon="4.72179">
        <ele>44.110659</ele>
        <time>2021-09-16T07:50:27.000Z</time>
      </trkpt>
      <trkpt lat="44.17086" lon="4.72179">
        <ele>43.944974</ele>
        <time>2021-09-16T07:50:29.000Z</time>
      </trkpt>
      <trkpt lat="44.17079" lon="4.72179">
        <ele>43.859118</ele>
        <time>2021-09-16T07:50:30.000Z</time>
      </trkpt>
      <trkpt lat="44.17058" lon="4.72178">
        <ele>43.611103</ele>
        <time>2021-09-16T07:50:33.000Z</time>
      </trkpt>
      <trkpt lat="44.17052" lon="4.72178">
        <ele>43.528834</ele>
        <time>2021-09-16T07:50:34.000Z</time>
      </trkpt>
      <trkpt lat="44.17004" lon="4.72176">
        <ele>42.950476</ele>
        <time>2021-09-16T07:50:41.000Z</time>
      </trkpt>
      <trkpt lat="44.16949" lon="4.72172">
        <ele>42.432569</ele>
        <time>2021-09-16T07:50:49.000Z</time>
      </trkpt>
      <trkpt lat="44.169" lon="4.72166">
        <ele>41.983784</ele>
        <time>2021-09-16T07:50:56.000Z</time>
      </trkpt>
      <trkpt lat="44.16844" lon="4.72158">
        <ele>41.468803</ele>
        <time>2021-09-16T07:51:04.000Z</time>
      </trkpt>
      <trkpt lat="44.16789" lon="4.72151">
        <ele>41.069109</ele>
        <time>2021-09-16T07:51:12.000Z</time>
      </trkpt>
      <trkpt lat="44.16776" lon="4.7215">
        <ele>40.987418</ele>
        <time>2021-09-16T07:51:14.000Z</time>
      </trkpt>
      <trkpt lat="44.16721" lon="4.72143">
        <ele>40.657557</ele>
        <time>2021-09-16T07:51:22.000Z</time>
      </trkpt>
      <trkpt lat="44.16661" lon="4.72135">
        <ele>40.29946</ele>
        <time>2021-09-16T07:51:31.000Z</time>
      </trkpt>
      <trkpt lat="44.16655" lon="4.72134">
        <ele>40.259825</ele>
        <time>2021-09-16T07:51:32.000Z</time>
      </trkpt>
      <trkpt lat="44.16595" lon="4.72126">
        <ele>39.914443</ele>
        <time>2021-09-16T07:51:41.000Z</time>
      </trkpt>
      <trkpt lat="44.16589" lon="4.72126">
        <ele>39.875744</ele>
        <time>2021-09-16T07:51:42.000Z</time>
      </trkpt>
      <trkpt lat="44.16537" lon="4.72119">
        <ele>39.574936</ele>
        <time>2021-09-16T07:51:50.000Z</time>
      </trkpt>
      <trkpt lat="44.16477" lon="4.72111">
        <ele>39.232567</ele>
        <time>2021-09-16T07:51:59.000Z</time>
      </trkpt>
      <trkpt lat="44.16471" lon="4.7211">
        <ele>39.195013</ele>
        <time>2021-09-16T07:52:00.000Z</time>
      </trkpt>
      <trkpt lat="44.16424" lon="4.72104">
        <ele>38.929623</ele>
        <time>2021-09-16T07:52:07.000Z</time>
      </trkpt>
      <trkpt lat="44.16373" lon="4.72098">
        <ele>38.634292</ele>
        <time>2021-09-16T07:52:15.000Z</time>
      </trkpt>
      <trkpt lat="44.16332" lon="4.72093">
        <ele>38.401878</ele>
        <time>2021-09-16T07:52:22.000Z</time>
      </trkpt>
      <trkpt lat="44.16322" lon="4.72091">
        <ele>38.340625</ele>
        <time>2021-09-16T07:52:24.000Z</time>
      </trkpt>
      <trkpt lat="44.16316" lon="4.72091">
        <ele>38.310886</ele>
        <time>2021-09-16T07:52:25.000Z</time>
      </trkpt>
      <trkpt lat="44.16291" lon="4.72087">
        <ele>38.167799</ele>
        <time>2021-09-16T07:52:29.000Z</time>
      </trkpt>
      <trkpt lat="44.16235" lon="4.72082">
        <ele>38.160156</ele>
        <time>2021-09-16T07:52:38.000Z</time>
      </trkpt>
      <trkpt lat="44.16229" lon="4.72082">
        <ele>38.164662</ele>
        <time>2021-09-16T07:52:39.000Z</time>
      </trkpt>
      <trkpt lat="44.16169" lon="4.72078">
        <ele>38.209414</ele>
        <time>2021-09-16T07:52:49.000Z</time>
      </trkpt>
      <trkpt lat="44.16127" lon="4.72077">
        <ele>38.241404</ele>
        <time>2021-09-16T07:52:56.000Z</time>
      </trkpt>
      <trkpt lat="44.1609" lon="4.72077">
        <ele>38.292895</ele>
        <time>2021-09-16T07:53:02.000Z</time>
      </trkpt>
      <trkpt lat="44.16078" lon="4.72077">
        <ele>38.322033</ele>
        <time>2021-09-16T07:53:04.000Z</time>
      </trkpt>
      <trkpt lat="44.16055" lon="4.72077">
        <ele>38.379811</ele>
        <time>2021-09-16T07:53:08.000Z</time>
      </trkpt>
      <trkpt lat="44.16044" lon="4.7208">
        <ele>38.408248</ele>
        <time>2021-09-16T07:53:10.000Z</time>
      </trkpt>
      <trkpt lat="44.16035" lon="4.72069">
        <ele>38.436891</ele>
        <time>2021-09-16T07:53:12.000Z</time>
      </trkpt>
      <trkpt lat="44.15995" lon="4.72069">
        <ele>38.53651</ele>
        <time>2021-09-16T07:53:19.000Z</time>
      </trkpt>
      <trkpt lat="44.15939" lon="4.72072">
        <ele>38.676775</ele>
        <time>2021-09-16T07:53:28.000Z</time>
      </trkpt>
      <trkpt lat="44.15889" lon="4.72078">
        <ele>38.722918</ele>
        <time>2021-09-16T07:53:36.000Z</time>
      </trkpt>
      <trkpt lat="44.15837" lon="4.72085">
        <ele>38.744956</ele>
        <time>2021-09-16T07:53:44.000Z</time>
      </trkpt>
      <trkpt lat="44.1579" lon="4.72091">
        <ele>38.764924</ele>
        <time>2021-09-16T07:53:51.000Z</time>
      </trkpt>
      <trkpt lat="44.15737" lon="4.72098">
        <ele>38.880047</ele>
        <time>2021-09-16T07:53:59.000Z</time>
      </trkpt>
      <trkpt lat="44.15717" lon="4.72101">
        <ele>39.044148</ele>
        <time>2021-09-16T07:54:02.000Z</time>
      </trkpt>
      <trkpt lat="44.15704" lon="4.721">
        <ele>39.155913</ele>
        <time>2021-09-16T07:54:04.000Z</time>
      </trkpt>
      <trkpt lat="44.15695" lon="4.72088">
        <ele>39.257276</ele>
        <time>2021-09-16T07:54:06.000Z</time>
      </trkpt>
      <trkpt lat="44.15693" lon="4.72065">
        <ele>39.398191</ele>
        <time>2021-09-16T07:54:09.000Z</time>
      </trkpt>
      <trkpt lat="44.15694" lon="4.72059">
        <ele>39.436774</ele>
        <time>2021-09-16T07:54:10.000Z</time>
      </trkpt>
      <trkpt lat="44.15695" lon="4.72053">
        <ele>39.473026</ele>
        <time>2021-09-16T07:54:11.000Z</time>
      </trkpt>
      <trkpt lat="44.15705" lon="4.72035">
        <ele>39.608909</ele>
        <time>2021-09-16T07:54:15.000Z</time>
      </trkpt>
      <trkpt lat="44.15726" lon="4.72019">
        <ele>39.80401</ele>
        <time>2021-09-16T07:54:23.000Z</time>
      </trkpt>
      <trkpt lat="44.1573" lon="4.72015">
        <ele>39.848799</ele>
        <time>2021-09-16T07:54:25.000Z</time>
      </trkpt>
      <trkpt lat="44.15732" lon="4.72008">
        <ele>39.894115</ele>
        <time>2021-09-16T07:54:27.000Z</time>
      </trkpt>
      <trkpt lat="44.15726" lon="4.72002">
        <ele>39.960788</ele>
        <time>2021-09-16T07:54:30.000Z</time>
      </trkpt>
      <trkpt lat="44.15702" lon="4.72007">
        <ele>40.161579</ele>
        <time>2021-09-16T07:54:36.000Z</time>
      </trkpt>
      <trkpt lat="44.15668" lon="4.72014">
        <ele>40.427795</ele>
        <time>2021-09-16T07:54:43.000Z</time>
      </trkpt>
      <trkpt lat="44.1563" lon="4.72023">
        <ele>40.718195</ele>
        <time>2021-09-16T07:54:50.000Z</time>
      </trkpt>
      <trkpt lat="44.15619" lon="4.72025">
        <ele>40.803482</ele>
        <time>2021-09-16T07:54:52.000Z</time>
      </trkpt>
      <trkpt lat="44.15607" lon="4.7203">
        <ele>40.896844</ele>
        <time>2021-09-16T07:54:54.000Z</time>
      </trkpt>
      <trkpt lat="44.15602" lon="4.72037">
        <ele>40.945927</ele>
        <time>2021-09-16T07:54:55.000Z</time>
      </trkpt>
      <trkpt lat="44.15553" lon="4.7205">
        <ele>41.318374</ele>
        <time>2021-09-16T07:55:03.000Z</time>
      </trkpt>
      <trkpt lat="44.15509" lon="4.72063">
        <ele>41.634514</ele>
        <time>2021-09-16T07:55:10.000Z</time>
      </trkpt>
      <trkpt lat="44.15457" lon="4.72078">
        <ele>41.778544</ele>
        <time>2021-09-16T07:55:18.000Z</time>
      </trkpt>
      <trkpt lat="44.15404" lon="4.72095">
        <ele>41.925876</ele>
        <time>2021-09-16T07:55:26.000Z</time>
      </trkpt>
      <trkpt lat="44.15344" lon="4.72113">
        <ele>42.092922</ele>
        <time>2021-09-16T07:55:34.000Z</time>
      </trkpt>
      <trkpt lat="44.15337" lon="4.72115">
        <ele>42.111071</ele>
        <time>2021-09-16T07:55:36.000Z</time>
      </trkpt>
      <trkpt lat="44.15283" lon="4.72132">
        <ele>42.203372</ele>
        <time>2021-09-16T07:55:44.000Z</time>
      </trkpt>
      <trkpt lat="44.15229" lon="4.72148">
        <ele>42.295319</ele>
        <time>2021-09-16T07:55:52.000Z</time>
      </trkpt>
      <trkpt lat="44.15174" lon="4.72165">
        <ele>42.390336</ele>
        <time>2021-09-16T07:56:00.000Z</time>
      </trkpt>
      <trkpt lat="44.15167" lon="4.72167">
        <ele>42.402203</ele>
        <time>2021-09-16T07:56:01.000Z</time>
      </trkpt>
      <trkpt lat="44.15112" lon="4.72185">
        <ele>42.53531</ele>
        <time>2021-09-16T07:56:09.000Z</time>
      </trkpt>
      <trkpt lat="44.15059" lon="4.72202">
        <ele>42.668801</ele>
        <time>2021-09-16T07:56:17.000Z</time>
      </trkpt>
      <trkpt lat="44.15052" lon="4.72204">
        <ele>42.684838</ele>
        <time>2021-09-16T07:56:18.000Z</time>
      </trkpt>
      <trkpt lat="44.15035" lon="4.72203">
        <ele>42.728292</ele>
        <time>2021-09-16T07:56:21.000Z</time>
      </trkpt>
      <trkpt lat="44.15021" lon="4.72202">
        <ele>42.762517</ele>
        <time>2021-09-16T07:56:24.000Z</time>
      </trkpt>
      <trkpt lat="44.15017" lon="4.72203">
        <ele>42.772061</ele>
        <time>2021-09-16T07:56:25.000Z</time>
      </trkpt>
      <trkpt lat="44.1499" lon="4.72212">
        <ele>42.838193</ele>
        <time>2021-09-16T07:56:29.000Z</time>
      </trkpt>
      <trkpt lat="44.14955" lon="4.72228">
        <ele>42.800732</ele>
        <time>2021-09-16T07:56:34.000Z</time>
      </trkpt>
      <trkpt lat="44.14925" lon="4.72239">
        <ele>42.754486</ele>
        <time>2021-09-16T07:56:39.000Z</time>
      </trkpt>
      <trkpt lat="44.14872" lon="4.72254">
        <ele>42.673357</ele>
        <time>2021-09-16T07:56:46.000Z</time>
      </trkpt>
      <trkpt lat="44.14864" lon="4.72256">
        <ele>42.662058</ele>
        <time>2021-09-16T07:56:47.000Z</time>
      </trkpt>
      <trkpt lat="44.14804" lon="4.72272">
        <ele>42.573428</ele>
        <time>2021-09-16T07:56:54.000Z</time>
      </trkpt>
      <trkpt lat="44.14744" lon="4.72285">
        <ele>42.510194</ele>
        <time>2021-09-16T07:57:02.000Z</time>
      </trkpt>
      <trkpt lat="44.14729" lon="4.72287">
        <ele>42.494435</ele>
        <time>2021-09-16T07:57:04.000Z</time>
      </trkpt>
      <trkpt lat="44.14671" lon="4.72294">
        <ele>42.433841</ele>
        <time>2021-09-16T07:57:12.000Z</time>
      </trkpt>
      <trkpt lat="44.14614" lon="4.72299">
        <ele>42.369328</ele>
        <time>2021-09-16T07:57:20.000Z</time>
      </trkpt>
      <trkpt lat="44.14599" lon="4.723">
        <ele>42.350574</ele>
        <time>2021-09-16T07:57:22.000Z</time>
      </trkpt>
      <trkpt lat="44.14542" lon="4.72305">
        <ele>42.274894</ele>
        <time>2021-09-16T07:57:30.000Z</time>
      </trkpt>
      <trkpt lat="44.14527" lon="4.72306">
        <ele>42.255879</ele>
        <time>2021-09-16T07:57:32.000Z</time>
      </trkpt>
      <trkpt lat="44.14471" lon="4.72309">
        <ele>42.181871</ele>
        <time>2021-09-16T07:57:40.000Z</time>
      </trkpt>
      <trkpt lat="44.14464" lon="4.72309">
        <ele>42.172838</ele>
        <time>2021-09-16T07:57:41.000Z</time>
      </trkpt>
      <trkpt lat="44.14407" lon="4.7231">
        <ele>42.159415</ele>
        <time>2021-09-16T07:57:49.000Z</time>
      </trkpt>
      <trkpt lat="44.14393" lon="4.7231">
        <ele>42.159816</ele>
        <time>2021-09-16T07:57:51.000Z</time>
      </trkpt>
      <trkpt lat="44.14337" lon="4.72307">
        <ele>42.161439</ele>
        <time>2021-09-16T07:57:59.000Z</time>
      </trkpt>
      <trkpt lat="44.14329" lon="4.72306">
        <ele>42.161645</ele>
        <time>2021-09-16T07:58:00.000Z</time>
      </trkpt>
      <trkpt lat="44.14273" lon="4.72301">
        <ele>42.16327</ele>
        <time>2021-09-16T07:58:08.000Z</time>
      </trkpt>
      <trkpt lat="44.14266" lon="4.723">
        <ele>42.149345</ele>
        <time>2021-09-16T07:58:09.000Z</time>
      </trkpt>
      <trkpt lat="44.14209" lon="4.72292">
        <ele>42.039166</ele>
        <time>2021-09-16T07:58:17.000Z</time>
      </trkpt>
      <trkpt lat="44.14202" lon="4.72291">
        <ele>42.025416</ele>
        <time>2021-09-16T07:58:18.000Z</time>
      </trkpt>
      <trkpt lat="44.14153" lon="4.72281">
        <ele>41.931057</ele>
        <time>2021-09-16T07:58:25.000Z</time>
      </trkpt>
      <trkpt lat="44.14099" lon="4.72267">
        <ele>41.824282</ele>
        <time>2021-09-16T07:58:33.000Z</time>
      </trkpt>
      <trkpt lat="44.14085" lon="4.72264">
        <ele>41.796172</ele>
        <time>2021-09-16T07:58:35.000Z</time>
      </trkpt>
      <trkpt lat="44.14032" lon="4.72248">
        <ele>41.684783</ele>
        <time>2021-09-16T07:58:43.000Z</time>
      </trkpt>
      <trkpt lat="44.14025" lon="4.72246">
        <ele>41.670444</ele>
        <time>2021-09-16T07:58:44.000Z</time>
      </trkpt>
      <trkpt lat="44.13972" lon="4.72228">
        <ele>41.558627</ele>
        <time>2021-09-16T07:58:52.000Z</time>
      </trkpt>
      <trkpt lat="44.13959" lon="4.72223">
        <ele>41.530749</ele>
        <time>2021-09-16T07:58:54.000Z</time>
      </trkpt>
      <trkpt lat="44.13906" lon="4.722">
        <ele>41.434372</ele>
        <time>2021-09-16T07:59:02.000Z</time>
      </trkpt>
      <trkpt lat="44.139" lon="4.72197">
        <ele>41.428396</ele>
        <time>2021-09-16T07:59:03.000Z</time>
      </trkpt>
      <trkpt lat="44.13849" lon="4.72175">
        <ele>41.381404</ele>
        <time>2021-09-16T07:59:11.000Z</time>
      </trkpt>
      <trkpt lat="44.13798" lon="4.72149">
        <ele>41.333932</ele>
        <time>2021-09-16T07:59:19.000Z</time>
      </trkpt>
      <trkpt lat="44.13785" lon="4.72142">
        <ele>41.321937</ele>
        <time>2021-09-16T07:59:21.000Z</time>
      </trkpt>
      <trkpt lat="44.13733" lon="4.72115">
        <ele>41.262569</ele>
        <time>2021-09-16T07:59:29.000Z</time>
      </trkpt>
      <trkpt lat="44.13683" lon="4.72086">
        <ele>41.182989</ele>
        <time>2021-09-16T07:59:37.000Z</time>
      </trkpt>
      <trkpt lat="44.1367" lon="4.72079">
        <ele>41.163355</ele>
        <time>2021-09-16T07:59:39.000Z</time>
      </trkpt>
      <trkpt lat="44.1362" lon="4.7205">
        <ele>41.083713</ele>
        <time>2021-09-16T07:59:47.000Z</time>
      </trkpt>
      <trkpt lat="44.13614" lon="4.72047">
        <ele>41.073876</ele>
        <time>2021-09-16T07:59:48.000Z</time>
      </trkpt>
      <trkpt lat="44.13559" lon="4.72015">
        <ele>40.99483</ele>
        <time>2021-09-16T07:59:57.000Z</time>
      </trkpt>
      <trkpt lat="44.13503" lon="4.71984">
        <ele>40.926085</ele>
        <time>2021-09-16T08:00:06.000Z</time>
      </trkpt>
      <trkpt lat="44.13491" lon="4.71976">
        <ele>40.910372</ele>
        <time>2021-09-16T08:00:08.000Z</time>
      </trkpt>
      <trkpt lat="44.1344" lon="4.71948">
        <ele>40.847385</ele>
        <time>2021-09-16T08:00:16.000Z</time>
      </trkpt>
      <trkpt lat="44.13428" lon="4.71941">
        <ele>40.832408</ele>
        <time>2021-09-16T08:00:18.000Z</time>
      </trkpt>
      <trkpt lat="44.13379" lon="4.71912">
        <ele>40.733777</ele>
        <time>2021-09-16T08:00:26.000Z</time>
      </trkpt>
      <trkpt lat="44.13328" lon="4.71883">
        <ele>40.621676</ele>
        <time>2021-09-16T08:00:34.000Z</time>
      </trkpt>
      <trkpt lat="44.13315" lon="4.71876">
        <ele>40.594245</ele>
        <time>2021-09-16T08:00:36.000Z</time>
      </trkpt>
      <trkpt lat="44.13266" lon="4.71847">
        <ele>40.484862</ele>
        <time>2021-09-16T08:00:44.000Z</time>
      </trkpt>
      <trkpt lat="44.13217" lon="4.71819">
        <ele>40.429843</ele>
        <time>2021-09-16T08:00:52.000Z</time>
      </trkpt>
      <trkpt lat="44.13166" lon="4.71789">
        <ele>40.39411</ele>
        <time>2021-09-16T08:01:01.000Z</time>
      </trkpt>
      <trkpt lat="44.1316" lon="4.71785">
        <ele>40.390077</ele>
        <time>2021-09-16T08:01:02.000Z</time>
      </trkpt>
      <trkpt lat="44.1311" lon="4.71756">
        <ele>40.354847</ele>
        <time>2021-09-16T08:01:11.000Z</time>
      </trkpt>
      <trkpt lat="44.13057" lon="4.71726">
        <ele>40.326223</ele>
        <time>2021-09-16T08:01:20.000Z</time>
      </trkpt>
      <trkpt lat="44.13016" lon="4.71702">
        <ele>40.308763</ele>
        <time>2021-09-16T08:01:27.000Z</time>
      </trkpt>
      <trkpt lat="44.12973" lon="4.71681">
        <ele>40.291067</ele>
        <time>2021-09-16T08:01:34.000Z</time>
      </trkpt>
      <trkpt lat="44.12917" lon="4.71661">
        <ele>40.268357</ele>
        <time>2021-09-16T08:01:43.000Z</time>
      </trkpt>
      <trkpt lat="44.12911" lon="4.71659">
        <ele>40.272943</ele>
        <time>2021-09-16T08:01:44.000Z</time>
      </trkpt>
      <trkpt lat="44.1286" lon="4.71642">
        <ele>40.330899</ele>
        <time>2021-09-16T08:01:53.000Z</time>
      </trkpt>
      <trkpt lat="44.12847" lon="4.71637">
        <ele>40.345219</ele>
        <time>2021-09-16T08:01:54.000Z</time>
      </trkpt>
      <trkpt lat="44.12836" lon="4.71628">
        <ele>40.359183</ele>
        <time>2021-09-16T08:01:56.000Z</time>
      </trkpt>
      <trkpt lat="44.1283" lon="4.71612">
        <ele>40.373189</ele>
        <time>2021-09-16T08:01:58.000Z</time>
      </trkpt>
      <trkpt lat="44.12829" lon="4.71604">
        <ele>40.380152</ele>
        <time>2021-09-16T08:01:59.000Z</time>
      </trkpt>
      <trkpt lat="44.12829" lon="4.71595">
        <ele>40.38668</ele>
        <time>2021-09-16T08:02:00.000Z</time>
      </trkpt>
      <trkpt lat="44.12829" lon="4.71587">
        <ele>40.393286</ele>
        <time>2021-09-16T08:02:02.000Z</time>
      </trkpt>
      <trkpt lat="44.12828" lon="4.71572">
        <ele>40.405446</ele>
        <time>2021-09-16T08:02:03.000Z</time>
      </trkpt>
      <trkpt lat="44.12822" lon="4.71566">
        <ele>40.412638</ele>
        <time>2021-09-16T08:02:04.000Z</time>
      </trkpt>
      <trkpt lat="44.12816" lon="4.71563">
        <ele>40.419604</ele>
        <time>2021-09-16T08:02:06.000Z</time>
      </trkpt>
      <trkpt lat="44.12797" lon="4.71565">
        <ele>40.440507</ele>
        <time>2021-09-16T08:02:08.000Z</time>
      </trkpt>
      <trkpt lat="44.12793" lon="4.71581">
        <ele>40.453723</ele>
        <time>2021-09-16T08:02:10.000Z</time>
      </trkpt>
      <trkpt lat="44.12785" lon="4.71623">
        <ele>40.473775</ele>
        <time>2021-09-16T08:02:15.000Z</time>
      </trkpt>
      <trkpt lat="44.1278" lon="4.71627">
        <ele>40.476354</ele>
        <time>2021-09-16T08:02:16.000Z</time>
      </trkpt>
      <trkpt lat="44.12774" lon="4.71629">
        <ele>40.478947</ele>
        <time>2021-09-16T08:02:17.000Z</time>
      </trkpt>
      <trkpt lat="44.12768" lon="4.71628">
        <ele>40.481599</ele>
        <time>2021-09-16T08:02:18.000Z</time>
      </trkpt>
      <trkpt lat="44.12722" lon="4.71625">
        <ele>40.501066</ele>
        <time>2021-09-16T08:02:25.000Z</time>
      </trkpt>
      <trkpt lat="44.12663" lon="4.71628">
        <ele>40.52633</ele>
        <time>2021-09-16T08:02:34.000Z</time>
      </trkpt>
      <trkpt lat="44.12656" lon="4.71628">
        <ele>40.529149</ele>
        <time>2021-09-16T08:02:35.000Z</time>
      </trkpt>
      <trkpt lat="44.12604" lon="4.71629">
        <ele>40.525517</ele>
        <time>2021-09-16T08:02:43.000Z</time>
      </trkpt>
      <trkpt lat="44.12551" lon="4.7163">
        <ele>40.489237</ele>
        <time>2021-09-16T08:02:51.000Z</time>
      </trkpt>
      <trkpt lat="44.12492" lon="4.7163">
        <ele>40.447912</ele>
        <time>2021-09-16T08:03:00.000Z</time>
      </trkpt>
      <trkpt lat="44.12485" lon="4.71631">
        <ele>40.44342</ele>
        <time>2021-09-16T08:03:01.000Z</time>
      </trkpt>
      <trkpt lat="44.12425" lon="4.71631">
        <ele>40.422516</ele>
        <time>2021-09-16T08:03:10.000Z</time>
      </trkpt>
      <trkpt lat="44.12419" lon="4.71632">
        <ele>40.424058</ele>
        <time>2021-09-16T08:03:11.000Z</time>
      </trkpt>
      <trkpt lat="44.12359" lon="4.71634">
        <ele>40.438346</ele>
        <time>2021-09-16T08:03:20.000Z</time>
      </trkpt>
      <trkpt lat="44.12306" lon="4.71641">
        <ele>40.450959</ele>
        <time>2021-09-16T08:03:28.000Z</time>
      </trkpt>
      <trkpt lat="44.12253" lon="4.71654">
        <ele>40.469922</ele>
        <time>2021-09-16T08:03:36.000Z</time>
      </trkpt>
      <trkpt lat="44.12196" lon="4.71674">
        <ele>40.508531</ele>
        <time>2021-09-16T08:03:45.000Z</time>
      </trkpt>
      <trkpt lat="44.1219" lon="4.71676">
        <ele>40.512812</ele>
        <time>2021-09-16T08:03:46.000Z</time>
      </trkpt>
      <trkpt lat="44.12135" lon="4.71697">
        <ele>40.550141</ele>
        <time>2021-09-16T08:03:55.000Z</time>
      </trkpt>
      <trkpt lat="44.12081" lon="4.71718">
        <ele>40.593948</ele>
        <time>2021-09-16T08:04:04.000Z</time>
      </trkpt>
      <trkpt lat="44.12027" lon="4.71739">
        <ele>40.660126</ele>
        <time>2021-09-16T08:04:13.000Z</time>
      </trkpt>
      <trkpt lat="44.12021" lon="4.71741">
        <ele>40.667439</ele>
        <time>2021-09-16T08:04:14.000Z</time>
      </trkpt>
      <trkpt lat="44.11978" lon="4.71758">
        <ele>40.71924</ele>
        <time>2021-09-16T08:04:21.000Z</time>
      </trkpt>
      <trkpt lat="44.11922" lon="4.71775">
        <ele>40.786512</ele>
        <time>2021-09-16T08:04:30.000Z</time>
      </trkpt>
      <trkpt lat="44.11895" lon="4.71779">
        <ele>40.901918</ele>
        <time>2021-09-16T08:04:35.000Z</time>
      </trkpt>
      <trkpt lat="44.11854" lon="4.71794">
        <ele>41.086403</ele>
        <time>2021-09-16T08:04:43.000Z</time>
      </trkpt>
      <trkpt lat="44.11807" lon="4.71811">
        <ele>41.29997</ele>
        <time>2021-09-16T08:04:52.000Z</time>
      </trkpt>
      <trkpt lat="44.11757" lon="4.7183">
        <ele>41.526845</ele>
        <time>2021-09-16T08:05:01.000Z</time>
      </trkpt>
      <trkpt lat="44.11705" lon="4.71849">
        <ele>41.717346</ele>
        <time>2021-09-16T08:05:10.000Z</time>
      </trkpt>
      <trkpt lat="44.1165" lon="4.7187">
        <ele>41.900365</ele>
        <time>2021-09-16T08:05:19.000Z</time>
      </trkpt>
      <trkpt lat="44.11644" lon="4.71872">
        <ele>41.92072</ele>
        <time>2021-09-16T08:05:20.000Z</time>
      </trkpt>
      <trkpt lat="44.11589" lon="4.71892">
        <ele>42.103502</ele>
        <time>2021-09-16T08:05:29.000Z</time>
      </trkpt>
      <trkpt lat="44.11533" lon="4.71911">
        <ele>42.322368</ele>
        <time>2021-09-16T08:05:38.000Z</time>
      </trkpt>
      <trkpt lat="44.11527" lon="4.71913">
        <ele>42.347939</ele>
        <time>2021-09-16T08:05:39.000Z</time>
      </trkpt>
      <trkpt lat="44.11474" lon="4.71931">
        <ele>42.574372</ele>
        <time>2021-09-16T08:05:48.000Z</time>
      </trkpt>
      <trkpt lat="44.11421" lon="4.71951">
        <ele>42.801908</ele>
        <time>2021-09-16T08:05:57.000Z</time>
      </trkpt>
      <trkpt lat="44.11373" lon="4.71971">
        <ele>42.750518</ele>
        <time>2021-09-16T08:06:05.000Z</time>
      </trkpt>
      <trkpt lat="44.11331" lon="4.71988">
        <ele>42.492191</ele>
        <time>2021-09-16T08:06:12.000Z</time>
      </trkpt>
      <trkpt lat="44.1129" lon="4.72005">
        <ele>42.238488</ele>
        <time>2021-09-16T08:06:19.000Z</time>
      </trkpt>
      <trkpt lat="44.11243" lon="4.72021">
        <ele>41.948282</ele>
        <time>2021-09-16T08:06:25.000Z</time>
      </trkpt>
      <trkpt lat="44.1122" lon="4.72027">
        <ele>41.800219</ele>
        <time>2021-09-16T08:06:28.000Z</time>
      </trkpt>
      <trkpt lat="44.1121" lon="4.72032">
        <ele>41.700452</ele>
        <time>2021-09-16T08:06:29.000Z</time>
      </trkpt>
      <trkpt lat="44.11209" lon="4.7204">
        <ele>41.645779</ele>
        <time>2021-09-16T08:06:30.000Z</time>
      </trkpt>
      <trkpt lat="44.11209" lon="4.7204">
        <ele>41.645779</ele>
        <time>2021-09-16T08:06:31.000Z</time>
      </trkpt>
      <trkpt lat="44.11209" lon="4.72047">
        <ele>41.600864</ele>
        <time>2021-09-16T08:06:32.000Z</time>
      </trkpt>
      <trkpt lat="44.11204" lon="4.72056">
        <ele>41.530074</ele>
        <time>2021-09-16T08:06:33.000Z</time>
      </trkpt>
      <trkpt lat="44.11186" lon="4.72059">
        <ele>41.358838</ele>
        <time>2021-09-16T08:06:37.000Z</time>
      </trkpt>
      <trkpt lat="44.11153" lon="4.72066">
        <ele>41.051147</ele>
        <time>2021-09-16T08:06:43.000Z</time>
      </trkpt>
      <trkpt lat="44.11116" lon="4.72079">
        <ele>40.698729</ele>
        <time>2021-09-16T08:06:49.000Z</time>
      </trkpt>
      <trkpt lat="44.11067" lon="4.72104">
        <ele>40.215233</ele>
        <time>2021-09-16T08:06:57.000Z</time>
      </trkpt>
      <trkpt lat="44.1102" lon="4.7213">
        <ele>39.961445</ele>
        <time>2021-09-16T08:07:05.000Z</time>
      </trkpt>
      <trkpt lat="44.10992" lon="4.7215">
        <ele>39.82467</ele>
        <time>2021-09-16T08:07:10.000Z</time>
      </trkpt>
      <trkpt lat="44.10982" lon="4.72159">
        <ele>39.77144</ele>
        <time>2021-09-16T08:07:12.000Z</time>
      </trkpt>
      <trkpt lat="44.10968" lon="4.72171">
        <ele>39.696147</ele>
        <time>2021-09-16T08:07:15.000Z</time>
      </trkpt>
      <trkpt lat="44.10947" lon="4.72191">
        <ele>39.585436</ele>
        <time>2021-09-16T08:07:19.000Z</time>
      </trkpt>
      <trkpt lat="44.10943" lon="4.72196">
        <ele>39.558467</ele>
        <time>2021-09-16T08:07:20.000Z</time>
      </trkpt>
      <trkpt lat="44.1092" lon="4.72222">
        <ele>39.426562</ele>
        <time>2021-09-16T08:07:25.000Z</time>
      </trkpt>
      <trkpt lat="44.10897" lon="4.7225">
        <ele>39.640551</ele>
        <time>2021-09-16T08:07:30.000Z</time>
      </trkpt>
      <trkpt lat="44.10881" lon="4.72271">
        <ele>40.026067</ele>
        <time>2021-09-16T08:07:34.000Z</time>
      </trkpt>
      <trkpt lat="44.10873" lon="4.72282">
        <ele>40.209707</ele>
        <time>2021-09-16T08:07:36.000Z</time>
      </trkpt>
      <trkpt lat="44.1086" lon="4.72299">
        <ele>40.512193</ele>
        <time>2021-09-16T08:07:39.000Z</time>
      </trkpt>
      <trkpt lat="44.10847" lon="4.72316">
        <ele>40.817979</ele>
        <time>2021-09-16T08:07:42.000Z</time>
      </trkpt>
      <trkpt lat="44.10839" lon="4.72327">
        <ele>41.000395</ele>
        <time>2021-09-16T08:07:44.000Z</time>
      </trkpt>
      <trkpt lat="44.10815" lon="4.72358">
        <ele>41.562527</ele>
        <time>2021-09-16T08:07:49.000Z</time>
      </trkpt>
      <trkpt lat="44.10811" lon="4.72365">
        <ele>41.671393</ele>
        <time>2021-09-16T08:07:50.000Z</time>
      </trkpt>
      <trkpt lat="44.10793" lon="4.72389">
        <ele>42.103089</ele>
        <time>2021-09-16T08:07:54.000Z</time>
      </trkpt>
      <trkpt lat="44.10788" lon="4.72395">
        <ele>42.209036</ele>
        <time>2021-09-16T08:07:55.000Z</time>
      </trkpt>
      <trkpt lat="44.10779" lon="4.72407">
        <ele>42.426539</ele>
        <time>2021-09-16T08:07:57.000Z</time>
      </trkpt>
      <trkpt lat="44.10774" lon="4.72413">
        <ele>42.537121</ele>
        <time>2021-09-16T08:07:58.000Z</time>
      </trkpt>
      <trkpt lat="44.10763" lon="4.72428">
        <ele>42.82167</ele>
        <time>2021-09-16T08:08:01.000Z</time>
      </trkpt>
      <trkpt lat="44.10754" lon="4.72439">
        <ele>43.043737</ele>
        <time>2021-09-16T08:08:03.000Z</time>
      </trkpt>
      <trkpt lat="44.10746" lon="4.72451">
        <ele>43.261313</ele>
        <time>2021-09-16T08:08:05.000Z</time>
      </trkpt>
      <trkpt lat="44.10736" lon="4.72463">
        <ele>43.505405</ele>
        <time>2021-09-16T08:08:07.000Z</time>
      </trkpt>
      <trkpt lat="44.10731" lon="4.7247">
        <ele>43.629026</ele>
        <time>2021-09-16T08:08:08.000Z</time>
      </trkpt>
      <trkpt lat="44.10716" lon="4.72489">
        <ele>44.008874</ele>
        <time>2021-09-16T08:08:11.000Z</time>
      </trkpt>
      <trkpt lat="44.10707" lon="4.72501">
        <ele>44.24083</ele>
        <time>2021-09-16T08:08:13.000Z</time>
      </trkpt>
      <trkpt lat="44.10692" lon="4.72521">
        <ele>44.623828</ele>
        <time>2021-09-16T08:08:16.000Z</time>
      </trkpt>
      <trkpt lat="44.1068" lon="4.72536">
        <ele>44.907037</ele>
        <time>2021-09-16T08:08:18.000Z</time>
      </trkpt>
      <trkpt lat="44.10652" lon="4.72573">
        <ele>45.630329</ele>
        <time>2021-09-16T08:08:24.000Z</time>
      </trkpt>
      <trkpt lat="44.10642" lon="4.72585">
        <ele>45.74944</ele>
        <time>2021-09-16T08:08:26.000Z</time>
      </trkpt>
      <trkpt lat="44.10626" lon="4.72599">
        <ele>45.793177</ele>
        <time>2021-09-16T08:08:29.000Z</time>
      </trkpt>
      <trkpt lat="44.10612" lon="4.72617">
        <ele>45.835635</ele>
        <time>2021-09-16T08:08:32.000Z</time>
      </trkpt>
      <trkpt lat="44.10598" lon="4.72634">
        <ele>45.87695</ele>
        <time>2021-09-16T08:08:35.000Z</time>
      </trkpt>
      <trkpt lat="44.10577" lon="4.72668">
        <ele>45.947336</ele>
        <time>2021-09-16T08:08:40.000Z</time>
      </trkpt>
      <trkpt lat="44.10548" lon="4.72697">
        <ele>46.027095</ele>
        <time>2021-09-16T08:08:46.000Z</time>
      </trkpt>
      <trkpt lat="44.10513" lon="4.72725">
        <ele>46.117622</ele>
        <time>2021-09-16T08:08:53.000Z</time>
      </trkpt>
      <trkpt lat="44.10492" lon="4.7274">
        <ele>46.07467</ele>
        <time>2021-09-16T08:08:57.000Z</time>
      </trkpt>
      <trkpt lat="44.10444" lon="4.72761">
        <ele>45.884665</ele>
        <time>2021-09-16T08:09:05.000Z</time>
      </trkpt>
      <trkpt lat="44.10395" lon="4.72772">
        <ele>45.697238</ele>
        <time>2021-09-16T08:09:13.000Z</time>
      </trkpt>
      <trkpt lat="44.10358" lon="4.72774">
        <ele>45.560747</ele>
        <time>2021-09-16T08:09:19.000Z</time>
      </trkpt>
      <trkpt lat="44.10309" lon="4.72771">
        <ele>45.401433</ele>
        <time>2021-09-16T08:09:27.000Z</time>
      </trkpt>
      <trkpt lat="44.10266" lon="4.7276">
        <ele>45.291118</ele>
        <time>2021-09-16T08:09:34.000Z</time>
      </trkpt>
      <trkpt lat="44.10225" lon="4.72743">
        <ele>45.183797</ele>
        <time>2021-09-16T08:09:41.000Z</time>
      </trkpt>
      <trkpt lat="44.10197" lon="4.72727">
        <ele>45.108368</ele>
        <time>2021-09-16T08:09:46.000Z</time>
      </trkpt>
      <trkpt lat="44.10182" lon="4.72718">
        <ele>45.067762</ele>
        <time>2021-09-16T08:09:49.000Z</time>
      </trkpt>
      <trkpt lat="44.10147" lon="4.72698">
        <ele>44.922423</ele>
        <time>2021-09-16T08:09:55.000Z</time>
      </trkpt>
      <trkpt lat="44.10103" lon="4.72673">
        <ele>44.611274</ele>
        <time>2021-09-16T08:10:03.000Z</time>
      </trkpt>
      <trkpt lat="44.10059" lon="4.72647">
        <ele>44.300124</ele>
        <time>2021-09-16T08:10:11.000Z</time>
      </trkpt>
      <trkpt lat="44.1002" lon="4.7263">
        <ele>44.035644</ele>
        <time>2021-09-16T08:10:18.000Z</time>
      </trkpt>
      <trkpt lat="44.10004" lon="4.72624">
        <ele>43.926975</ele>
        <time>2021-09-16T08:10:21.000Z</time>
      </trkpt>
      <trkpt lat="44.09993" lon="4.72624">
        <ele>43.856062</ele>
        <time>2021-09-16T08:10:23.000Z</time>
      </trkpt>
      <trkpt lat="44.09988" lon="4.72627">
        <ele>43.815774</ele>
        <time>2021-09-16T08:10:24.000Z</time>
      </trkpt>
      <trkpt lat="44.0998" lon="4.72632">
        <ele>43.720785</ele>
        <time>2021-09-16T08:10:26.000Z</time>
      </trkpt>
      <trkpt lat="44.0997" lon="4.72632">
        <ele>43.624779</ele>
        <time>2021-09-16T08:10:28.000Z</time>
      </trkpt>
      <trkpt lat="44.09929" lon="4.72618">
        <ele>43.215606</ele>
        <time>2021-09-16T08:10:36.000Z</time>
      </trkpt>
      <trkpt lat="44.0989" lon="4.72611">
        <ele>42.835183</ele>
        <time>2021-09-16T08:10:43.000Z</time>
      </trkpt>
      <trkpt lat="44.09873" lon="4.72609">
        <ele>42.676454</ele>
        <time>2021-09-16T08:10:46.000Z</time>
      </trkpt>
      <trkpt lat="44.09829" lon="4.72606">
        <ele>42.245237</ele>
        <time>2021-09-16T08:10:54.000Z</time>
      </trkpt>
      <trkpt lat="44.09791" lon="4.72606">
        <ele>41.907994</ele>
        <time>2021-09-16T08:11:01.000Z</time>
      </trkpt>
      <trkpt lat="44.09742" lon="4.72607">
        <ele>41.497711</ele>
        <time>2021-09-16T08:11:10.000Z</time>
      </trkpt>
      <trkpt lat="44.09689" lon="4.72608">
        <ele>41.052321</ele>
        <time>2021-09-16T08:11:20.000Z</time>
      </trkpt>
      <trkpt lat="44.09681" lon="4.72617">
        <ele>40.966764</ele>
        <time>2021-09-16T08:11:22.000Z</time>
      </trkpt>
      <trkpt lat="44.09682" lon="4.72637">
        <ele>40.845919</ele>
        <time>2021-09-16T08:11:26.000Z</time>
      </trkpt>
      <trkpt lat="44.09684" lon="4.72707">
        <ele>40.548236</ele>
        <time>2021-09-16T08:11:34.000Z</time>
      </trkpt>
      <trkpt lat="44.09684" lon="4.72715">
        <ele>40.536964</ele>
        <time>2021-09-16T08:11:35.000Z</time>
      </trkpt>
      <trkpt lat="44.09686" lon="4.72752">
        <ele>40.481372</ele>
        <time>2021-09-16T08:11:40.000Z</time>
      </trkpt>
      <trkpt lat="44.09688" lon="4.72804">
        <ele>40.404979</ele>
        <time>2021-09-16T08:11:47.000Z</time>
      </trkpt>
      <trkpt lat="44.09688" lon="4.72814">
        <ele>40.38985</ele>
        <time>2021-09-16T08:13:00.000Z</time>
      </trkpt>
      <trkpt lat="44.09689" lon="4.72838">
        <ele>40.353803</ele>
        <time>2021-09-16T08:13:07.000Z</time>
      </trkpt>
      <trkpt lat="44.0969" lon="4.72859">
        <ele>40.322826</ele>
        <time>2021-09-16T08:13:14.000Z</time>
      </trkpt>
      <trkpt lat="44.0969" lon="4.72884">
        <ele>40.286209</ele>
        <time>2021-09-16T08:13:19.000Z</time>
      </trkpt>
      <trkpt lat="44.09692" lon="4.7292">
        <ele>40.232993</ele>
        <time>2021-09-16T08:13:28.000Z</time>
      </trkpt>
      <trkpt lat="44.09692" lon="4.72942">
        <ele>40.207942</ele>
        <time>2021-09-16T08:13:33.000Z</time>
      </trkpt>
      <trkpt lat="44.09693" lon="4.7297">
        <ele>40.184499</ele>
        <time>2021-09-16T08:13:39.000Z</time>
      </trkpt>
      <trkpt lat="44.09695" lon="4.73013">
        <ele>40.149758</ele>
        <time>2021-09-16T08:13:47.000Z</time>
      </trkpt>
      <trkpt lat="44.0969" lon="4.73048">
        <ele>40.120931</ele>
        <time>2021-09-16T08:13:54.000Z</time>
      </trkpt>
      <trkpt lat="44.09725" lon="4.7307">
        <ele>40.07803</ele>
        <time>2021-09-16T08:14:01.000Z</time>
      </trkpt>
      <trkpt lat="44.09719" lon="4.73092">
        <ele>40.058856</ele>
        <time>2021-09-16T08:14:07.000Z</time>
      </trkpt>
      <trkpt lat="44.09715" lon="4.73097">
        <ele>40.053453</ele>
        <time>2021-09-16T08:14:09.000Z</time>
      </trkpt>
      <trkpt lat="44.09707" lon="4.73102">
        <ele>40.042907</ele>
        <time>2021-09-16T08:14:12.000Z</time>
      </trkpt>
      <trkpt lat="44.09686" lon="4.73112">
        <ele>40.017712</ele>
        <time>2021-09-16T08:14:18.000Z</time>
      </trkpt>
      <trkpt lat="44.09681" lon="4.73113">
        <ele>40.014728</ele>
        <time>2021-09-16T08:14:19.000Z</time>
      </trkpt>
      <trkpt lat="44.09668" lon="4.73113">
        <ele>40.036837</ele>
        <time>2021-09-16T08:14:22.000Z</time>
      </trkpt>
      <trkpt lat="44.09642" lon="4.73114">
        <ele>40.079095</ele>
        <time>2021-09-16T08:14:28.000Z</time>
      </trkpt>
      <trkpt lat="44.09619" lon="4.73111">
        <ele>40.116564</ele>
        <time>2021-09-16T08:14:34.000Z</time>
      </trkpt>
      <trkpt lat="44.09614" lon="4.73111">
        <ele>40.123762</ele>
        <time>2021-09-16T08:14:35.000Z</time>
      </trkpt>
      <trkpt lat="44.09605" lon="4.73109">
        <ele>40.13945</ele>
        <time>2021-09-16T08:14:37.000Z</time>
      </trkpt>
      <trkpt lat="44.0959" lon="4.73107">
        <ele>40.162845</ele>
        <time>2021-09-16T08:14:40.000Z</time>
      </trkpt>
      <trkpt lat="44.09556" lon="4.73099">
        <ele>40.21851</ele>
        <time>2021-09-16T08:14:47.000Z</time>
      </trkpt>
      <trkpt lat="44.09533" lon="4.73087">
        <ele>40.259456</ele>
        <time>2021-09-16T08:14:52.000Z</time>
      </trkpt>
      <trkpt lat="44.09519" lon="4.73078">
        <ele>40.283733</ele>
        <time>2021-09-16T08:14:55.000Z</time>
      </trkpt>
      <trkpt lat="44.09492" lon="4.73064">
        <ele>40.342585</ele>
        <time>2021-09-16T08:15:01.000Z</time>
      </trkpt>
      <trkpt lat="44.09462" lon="4.73056">
        <ele>40.410586</ele>
        <time>2021-09-16T08:15:07.000Z</time>
      </trkpt>
      <trkpt lat="44.09452" lon="4.73055">
        <ele>40.434351</ele>
        <time>2021-09-16T08:15:09.000Z</time>
      </trkpt>
      <trkpt lat="44.09432" lon="4.73054">
        <ele>40.480717</ele>
        <time>2021-09-16T08:15:13.000Z</time>
      </trkpt>
      <trkpt lat="44.0941" lon="4.73058">
        <ele>40.531451</ele>
        <time>2021-09-16T08:15:17.000Z</time>
      </trkpt>
      <trkpt lat="44.09405" lon="4.73062">
        <ele>40.544248</ele>
        <time>2021-09-16T08:15:18.000Z</time>
      </trkpt>
      <trkpt lat="44.0939" lon="4.73073">
        <ele>40.581591</ele>
        <time>2021-09-16T08:15:21.000Z</time>
      </trkpt>
      <trkpt lat="44.09381" lon="4.73078">
        <ele>40.604337</ele>
        <time>2021-09-16T08:15:23.000Z</time>
      </trkpt>
      <trkpt lat="44.09371" lon="4.73084">
        <ele>40.628561</ele>
        <time>2021-09-16T08:15:25.000Z</time>
      </trkpt>
      <trkpt lat="44.09362" lon="4.73094">
        <ele>40.654428</ele>
        <time>2021-09-16T08:15:27.000Z</time>
      </trkpt>
      <trkpt lat="44.09358" lon="4.731">
        <ele>40.668988</ele>
        <time>2021-09-16T08:15:28.000Z</time>
      </trkpt>
      <trkpt lat="44.09349" lon="4.73112">
        <ele>40.69633</ele>
        <time>2021-09-16T08:15:30.000Z</time>
      </trkpt>
      <trkpt lat="44.09346" lon="4.73117">
        <ele>40.707654</ele>
        <time>2021-09-16T08:15:31.000Z</time>
      </trkpt>
      <trkpt lat="44.09332" lon="4.73145">
        <ele>40.380985</ele>
        <time>2021-09-16T08:15:35.000Z</time>
      </trkpt>
      <trkpt lat="44.09318" lon="4.73173">
        <ele>39.997045</ele>
        <time>2021-09-16T08:15:39.000Z</time>
      </trkpt>
      <trkpt lat="44.09315" lon="4.73179">
        <ele>39.909859</ele>
        <time>2021-09-16T08:15:40.000Z</time>
      </trkpt>
      <trkpt lat="44.09294" lon="4.73218">
        <ele>39.358112</ele>
        <time>2021-09-16T08:15:46.000Z</time>
      </trkpt>
      <trkpt lat="44.09274" lon="4.73256">
        <ele>38.815559</ele>
        <time>2021-09-16T08:15:52.000Z</time>
      </trkpt>
      <trkpt lat="44.09271" lon="4.73262">
        <ele>38.72559</ele>
        <time>2021-09-16T08:15:53.000Z</time>
      </trkpt>
      <trkpt lat="44.09261" lon="4.73281">
        <ele>38.459417</ele>
        <time>2021-09-16T08:15:56.000Z</time>
      </trkpt>
      <trkpt lat="44.09251" lon="4.733">
        <ele>38.199694</ele>
        <time>2021-09-16T08:15:59.000Z</time>
      </trkpt>
      <trkpt lat="44.09248" lon="4.73307">
        <ele>38.10966</ele>
        <time>2021-09-16T08:16:00.000Z</time>
      </trkpt>
      <trkpt lat="44.09242" lon="4.7332">
        <ele>37.924984</ele>
        <time>2021-09-16T08:16:02.000Z</time>
      </trkpt>
      <trkpt lat="44.09237" lon="4.73333">
        <ele>37.838333</ele>
        <time>2021-09-16T08:16:04.000Z</time>
      </trkpt>
      <trkpt lat="44.09232" lon="4.73357">
        <ele>37.785327</ele>
        <time>2021-09-16T08:16:07.000Z</time>
      </trkpt>
      <trkpt lat="44.09229" lon="4.73373">
        <ele>37.751614</ele>
        <time>2021-09-16T08:16:09.000Z</time>
      </trkpt>
      <trkpt lat="44.09227" lon="4.73429">
        <ele>37.63192</ele>
        <time>2021-09-16T08:16:16.000Z</time>
      </trkpt>
      <trkpt lat="44.09225" lon="4.73495">
        <ele>37.494141</ele>
        <time>2021-09-16T08:16:24.000Z</time>
      </trkpt>
      <trkpt lat="44.09225" lon="4.73503">
        <ele>37.476808</ele>
        <time>2021-09-16T08:16:25.000Z</time>
      </trkpt>
      <trkpt lat="44.09224" lon="4.73533">
        <ele>37.411932</ele>
        <time>2021-09-16T08:16:29.000Z</time>
      </trkpt>
      <trkpt lat="44.09224" lon="4.73554">
        <ele>37.368381</ele>
        <time>2021-09-16T08:16:32.000Z</time>
      </trkpt>
      <trkpt lat="44.09227" lon="4.73579">
        <ele>37.334379</ele>
        <time>2021-09-16T08:16:35.000Z</time>
      </trkpt>
      <trkpt lat="44.09234" lon="4.73645">
        <ele>37.398402</ele>
        <time>2021-09-16T08:16:43.000Z</time>
      </trkpt>
      <trkpt lat="44.09239" lon="4.73701">
        <ele>37.45233</ele>
        <time>2021-09-16T08:16:50.000Z</time>
      </trkpt>
      <trkpt lat="44.09244" lon="4.73749">
        <ele>37.498885</ele>
        <time>2021-09-16T08:16:56.000Z</time>
      </trkpt>
      <trkpt lat="44.0925" lon="4.73804">
        <ele>37.552604</ele>
        <time>2021-09-16T08:17:03.000Z</time>
      </trkpt>
      <trkpt lat="44.09255" lon="4.73858">
        <ele>37.659773</ele>
        <time>2021-09-16T08:17:10.000Z</time>
      </trkpt>
      <trkpt lat="44.09261" lon="4.73912">
        <ele>37.789852</ele>
        <time>2021-09-16T08:17:17.000Z</time>
      </trkpt>
      <trkpt lat="44.09266" lon="4.73968">
        <ele>37.924236</ele>
        <time>2021-09-16T08:17:24.000Z</time>
      </trkpt>
      <trkpt lat="44.09272" lon="4.74024">
        <ele>38.060323</ele>
        <time>2021-09-16T08:17:31.000Z</time>
      </trkpt>
      <trkpt lat="44.09289" lon="4.74076">
        <ele>38.144105</ele>
        <time>2021-09-16T08:17:38.000Z</time>
      </trkpt>
      <trkpt lat="44.09309" lon="4.7412">
        <ele>38.037329</ele>
        <time>2021-09-16T08:17:45.000Z</time>
      </trkpt>
      <trkpt lat="44.09312" lon="4.74126">
        <ele>38.023521</ele>
        <time>2021-09-16T08:17:46.000Z</time>
      </trkpt>
      <trkpt lat="44.09318" lon="4.74138">
        <ele>37.993663</ele>
        <time>2021-09-16T08:17:48.000Z</time>
      </trkpt>
      <trkpt lat="44.09321" lon="4.74143">
        <ele>37.980348</ele>
        <time>2021-09-16T08:17:49.000Z</time>
      </trkpt>
      <trkpt lat="44.09324" lon="4.74148">
        <ele>37.96817</ele>
        <time>2021-09-16T08:17:50.000Z</time>
      </trkpt>
      <trkpt lat="44.09333" lon="4.74163">
        <ele>37.927402</ele>
        <time>2021-09-16T08:17:53.000Z</time>
      </trkpt>
      <trkpt lat="44.0936" lon="4.74209">
        <ele>37.807061</ele>
        <time>2021-09-16T08:18:00.000Z</time>
      </trkpt>
      <trkpt lat="44.09365" lon="4.74217">
        <ele>37.787992</ele>
        <time>2021-09-16T08:18:01.000Z</time>
      </trkpt>
      <trkpt lat="44.0938" lon="4.74242">
        <ele>37.721733</ele>
        <time>2021-09-16T08:18:05.000Z</time>
      </trkpt>
      <trkpt lat="44.09401" lon="4.74279">
        <ele>37.586298</ele>
        <time>2021-09-16T08:18:11.000Z</time>
      </trkpt>
      <trkpt lat="44.09431" lon="4.74325">
        <ele>37.327052</ele>
        <time>2021-09-16T08:18:19.000Z</time>
      </trkpt>
      <trkpt lat="44.09463" lon="4.74366">
        <ele>37.072259</ele>
        <time>2021-09-16T08:18:27.000Z</time>
      </trkpt>
      <trkpt lat="44.09497" lon="4.74402">
        <ele>36.821632</ele>
        <time>2021-09-16T08:18:35.000Z</time>
      </trkpt>
      <trkpt lat="44.09526" lon="4.74434">
        <ele>36.603432</ele>
        <time>2021-09-16T08:18:42.000Z</time>
      </trkpt>
      <trkpt lat="44.09562" lon="4.74472">
        <ele>36.480831</ele>
        <time>2021-09-16T08:18:50.000Z</time>
      </trkpt>
      <trkpt lat="44.09603" lon="4.74517">
        <ele>36.33772</ele>
        <time>2021-09-16T08:19:00.000Z</time>
      </trkpt>
      <trkpt lat="44.09632" lon="4.74548">
        <ele>36.236352</ele>
        <time>2021-09-16T08:19:07.000Z</time>
      </trkpt>
      <trkpt lat="44.09672" lon="4.74593">
        <ele>36.088586</ele>
        <time>2021-09-16T08:19:17.000Z</time>
      </trkpt>
      <trkpt lat="44.09704" lon="4.74627">
        <ele>35.937595</ele>
        <time>2021-09-16T08:19:25.000Z</time>
      </trkpt>
      <trkpt lat="44.09746" lon="4.74673">
        <ele>35.738048</ele>
        <time>2021-09-16T08:19:35.000Z</time>
      </trkpt>
      <trkpt lat="44.09754" lon="4.74684">
        <ele>35.698617</ele>
        <time>2021-09-16T08:19:37.000Z</time>
      </trkpt>
      <trkpt lat="44.09766" lon="4.74708">
        <ele>35.619613</ele>
        <time>2021-09-16T08:19:41.000Z</time>
      </trkpt>
      <trkpt lat="44.09797" lon="4.74768">
        <ele>35.432925</ele>
        <time>2021-09-16T08:19:51.000Z</time>
      </trkpt>
      <trkpt lat="44.09822" lon="4.74816">
        <ele>35.361224</ele>
        <time>2021-09-16T08:19:59.000Z</time>
      </trkpt>
      <trkpt lat="44.09825" lon="4.74819">
        <ele>35.353397</ele>
        <time>2021-09-16T08:20:00.000Z</time>
      </trkpt>
      <trkpt lat="44.0983" lon="4.74823">
        <ele>35.344518</ele>
        <time>2021-09-16T08:20:01.000Z</time>
      </trkpt>
      <trkpt lat="44.09849" lon="4.74841">
        <ele>35.304945</ele>
        <time>2021-09-16T08:20:05.000Z</time>
      </trkpt>
      <trkpt lat="44.09896" lon="4.74885">
        <ele>35.209584</ele>
        <time>2021-09-16T08:20:15.000Z</time>
      </trkpt>
      <trkpt lat="44.099" lon="4.74889">
        <ele>35.200386</ele>
        <time>2021-09-16T08:20:16.000Z</time>
      </trkpt>
      <trkpt lat="44.09935" lon="4.74928">
        <ele>35.116061</ele>
        <time>2021-09-16T08:20:24.000Z</time>
      </trkpt>
      <trkpt lat="44.09974" lon="4.74972">
        <ele>34.976445</ele>
        <time>2021-09-16T08:20:33.000Z</time>
      </trkpt>
      <trkpt lat="44.09992" lon="4.74992">
        <ele>34.913366</ele>
        <time>2021-09-16T08:20:37.000Z</time>
      </trkpt>
      <trkpt lat="44.09998" lon="4.75004">
        <ele>34.883174</ele>
        <time>2021-09-16T08:20:39.000Z</time>
      </trkpt>
      <trkpt lat="44.10028" lon="4.75051">
        <ele>34.758504</ele>
        <time>2021-09-16T08:20:47.000Z</time>
      </trkpt>
      <trkpt lat="44.10042" lon="4.75074">
        <ele>34.698508</ele>
        <time>2021-09-16T08:20:51.000Z</time>
      </trkpt>
      <trkpt lat="44.10046" lon="4.75088">
        <ele>34.669132</ele>
        <time>2021-09-16T08:20:53.000Z</time>
      </trkpt>
      <trkpt lat="44.10048" lon="4.75122">
        <ele>34.687023</ele>
        <time>2021-09-16T08:20:58.000Z</time>
      </trkpt>
      <trkpt lat="44.10048" lon="4.75129">
        <ele>34.707166</ele>
        <time>2021-09-16T08:20:59.000Z</time>
      </trkpt>
      <trkpt lat="44.10048" lon="4.75136">
        <ele>34.728633</ele>
        <time>2021-09-16T08:21:00.000Z</time>
      </trkpt>
      <trkpt lat="44.10044" lon="4.7515">
        <ele>34.768998</ele>
        <time>2021-09-16T08:21:02.000Z</time>
      </trkpt>
      <trkpt lat="44.10042" lon="4.75156">
        <ele>34.789646</ele>
        <time>2021-09-16T08:21:03.000Z</time>
      </trkpt>
      <trkpt lat="44.1003" lon="4.75191">
        <ele>34.90073</ele>
        <time>2021-09-16T08:21:08.000Z</time>
      </trkpt>
      <trkpt lat="44.10028" lon="4.75198">
        <ele>34.922511</ele>
        <time>2021-09-16T08:21:09.000Z</time>
      </trkpt>
      <trkpt lat="44.10019" lon="4.75264">
        <ele>35.11509</ele>
        <time>2021-09-16T08:21:18.000Z</time>
      </trkpt>
      <trkpt lat="44.10013" lon="4.75318">
        <ele>35.270807</ele>
        <time>2021-09-16T08:21:25.000Z</time>
      </trkpt>
      <trkpt lat="44.10005" lon="4.75379">
        <ele>35.379842</ele>
        <time>2021-09-16T08:21:33.000Z</time>
      </trkpt>
      <trkpt lat="44.10004" lon="4.75386">
        <ele>35.385475</ele>
        <time>2021-09-16T08:21:34.000Z</time>
      </trkpt>
      <trkpt lat="44.10002" lon="4.754">
        <ele>35.397049</ele>
        <time>2021-09-16T08:21:36.000Z</time>
      </trkpt>
      <trkpt lat="44.10001" lon="4.75408">
        <ele>35.403009</ele>
        <time>2021-09-16T08:21:37.000Z</time>
      </trkpt>
      <trkpt lat="44.09998" lon="4.75436">
        <ele>35.425367</ele>
        <time>2021-09-16T08:21:41.000Z</time>
      </trkpt>
      <trkpt lat="44.09997" lon="4.75442">
        <ele>35.429885</ele>
        <time>2021-09-16T08:21:42.000Z</time>
      </trkpt>
      <trkpt lat="44.09996" lon="4.75452">
        <ele>35.437575</ele>
        <time>2021-09-16T08:21:44.000Z</time>
      </trkpt>
      <trkpt lat="44.09996" lon="4.75453">
        <ele>35.438519</ele>
        <time>2021-09-16T08:21:45.000Z</time>
      </trkpt>
      <trkpt lat="44.09988" lon="4.75467">
        <ele>35.452872</ele>
        <time>2021-09-16T08:21:49.000Z</time>
      </trkpt>
      <trkpt lat="44.09977" lon="4.75475">
        <ele>35.466159</ele>
        <time>2021-09-16T08:21:51.000Z</time>
      </trkpt>
      <trkpt lat="44.0997" lon="4.75493">
        <ele>35.48235</ele>
        <time>2021-09-16T08:21:53.000Z</time>
      </trkpt>
      <trkpt lat="44.09953" lon="4.75532">
        <ele>35.517703</ele>
        <time>2021-09-16T08:21:59.000Z</time>
      </trkpt>
      <trkpt lat="44.09941" lon="4.75561">
        <ele>35.543381</ele>
        <time>2021-09-16T08:22:05.000Z</time>
      </trkpt>
      <trkpt lat="44.09936" lon="4.75571">
        <ele>35.560793</ele>
        <time>2021-09-16T08:22:06.000Z</time>
      </trkpt>
      <trkpt lat="44.09934" lon="4.75576">
        <ele>35.57573</ele>
        <time>2021-09-16T08:22:07.000Z</time>
      </trkpt>
      <trkpt lat="44.09945" lon="4.75596">
        <ele>35.640048</ele>
        <time>2021-09-16T08:22:10.000Z</time>
      </trkpt>
      <trkpt lat="44.09925" lon="4.75598">
        <ele>35.711661</ele>
        <time>2021-09-16T08:22:15.000Z</time>
      </trkpt>
      <trkpt lat="44.09917" lon="4.75618">
        <ele>35.772081</ele>
        <time>2021-09-16T08:22:20.000Z</time>
      </trkpt>
      <trkpt lat="44.09906" lon="4.75644">
        <ele>35.847887</ele>
        <time>2021-09-16T08:22:25.000Z</time>
      </trkpt>
      <trkpt lat="44.0989" lon="4.75685">
        <ele>35.969044</ele>
        <time>2021-09-16T08:22:32.000Z</time>
      </trkpt>
      <trkpt lat="44.09886" lon="4.75697">
        <ele>36.002462</ele>
        <time>2021-09-16T08:22:34.000Z</time>
      </trkpt>
      <trkpt lat="44.09881" lon="4.75714">
        <ele>36.049917</ele>
        <time>2021-09-16T08:22:37.000Z</time>
      </trkpt>
      <trkpt lat="44.0988" lon="4.75719">
        <ele>36.064495</ele>
        <time>2021-09-16T08:22:39.000Z</time>
      </trkpt>
      <trkpt lat="44.09877" lon="4.75735">
        <ele>36.106538</ele>
        <time>2021-09-16T08:22:41.000Z</time>
      </trkpt>
      <trkpt lat="44.09876" lon="4.7574">
        <ele>36.119777</ele>
        <time>2021-09-16T08:22:42.000Z</time>
      </trkpt>
      <trkpt lat="44.09873" lon="4.75754">
        <ele>36.15707</ele>
        <time>2021-09-16T08:22:45.000Z</time>
      </trkpt>
      <trkpt lat="44.09871" lon="4.75765">
        <ele>36.186583</ele>
        <time>2021-09-16T08:22:47.000Z</time>
      </trkpt>
      <trkpt lat="44.09865" lon="4.75796">
        <ele>36.222697</ele>
        <time>2021-09-16T08:22:52.000Z</time>
      </trkpt>
      <trkpt lat="44.09845" lon="4.75844">
        <ele>36.274001</ele>
        <time>2021-09-16T08:23:00.000Z</time>
      </trkpt>
      <trkpt lat="44.09823" lon="4.7589">
        <ele>36.326278</ele>
        <time>2021-09-16T08:23:08.000Z</time>
      </trkpt>
      <trkpt lat="44.09804" lon="4.75925">
        <ele>36.367055</ele>
        <time>2021-09-16T08:23:14.000Z</time>
      </trkpt>
      <trkpt lat="44.09789" lon="4.75953">
        <ele>36.399487</ele>
        <time>2021-09-16T08:23:19.000Z</time>
      </trkpt>
      <trkpt lat="44.09763" lon="4.75996">
        <ele>36.36917</ele>
        <time>2021-09-16T08:23:26.000Z</time>
      </trkpt>
      <trkpt lat="44.09734" lon="4.76039">
        <ele>36.218486</ele>
        <time>2021-09-16T08:23:34.000Z</time>
      </trkpt>
      <trkpt lat="44.09722" lon="4.76056">
        <ele>36.156167</ele>
        <time>2021-09-16T08:23:38.000Z</time>
      </trkpt>
      <trkpt lat="44.09719" lon="4.76059">
        <ele>36.144664</ele>
        <time>2021-09-16T08:23:39.000Z</time>
      </trkpt>
      <trkpt lat="44.09713" lon="4.76067">
        <ele>36.114766</ele>
        <time>2021-09-16T08:23:42.000Z</time>
      </trkpt>
      <trkpt lat="44.0971" lon="4.76071">
        <ele>36.100035</ele>
        <time>2021-09-16T08:23:43.000Z</time>
      </trkpt>
      <trkpt lat="44.09705" lon="4.76077">
        <ele>36.075721</ele>
        <time>2021-09-16T08:23:45.000Z</time>
      </trkpt>
      <trkpt lat="44.09708" lon="4.76074">
        <ele>36.062681</ele>
        <time>2021-09-16T08:23:47.000Z</time>
      </trkpt>
      <trkpt lat="44.09712" lon="4.76075">
        <ele>36.049636</ele>
        <time>2021-09-16T08:23:49.000Z</time>
      </trkpt>
      <trkpt lat="44.09707" lon="4.76074">
        <ele>36.034087</ele>
        <time>2021-09-16T08:23:50.000Z</time>
      </trkpt>
      <trkpt lat="44.09707" lon="4.76074">
        <ele>36.034087</ele>
        <time>2021-09-16T08:23:51.000Z</time>
      </trkpt>
      <trkpt lat="44.09693" lon="4.76088">
        <ele>35.971295</ele>
        <time>2021-09-16T08:23:52.000Z</time>
      </trkpt>
      <trkpt lat="44.09686" lon="4.76094">
        <ele>35.94348</ele>
        <time>2021-09-16T08:23:54.000Z</time>
      </trkpt>
      <trkpt lat="44.0967" lon="4.76108">
        <ele>35.874525</ele>
        <time>2021-09-16T08:23:58.000Z</time>
      </trkpt>
      <trkpt lat="44.09651" lon="4.76122">
        <ele>35.798606</ele>
        <time>2021-09-16T08:24:02.000Z</time>
      </trkpt>
      <trkpt lat="44.09646" lon="4.76125">
        <ele>35.779843</ele>
        <time>2021-09-16T08:24:03.000Z</time>
      </trkpt>
      <trkpt lat="44.09616" lon="4.76144">
        <ele>35.674259</ele>
        <time>2021-09-16T08:24:09.000Z</time>
      </trkpt>
      <trkpt lat="44.09586" lon="4.76163">
        <ele>35.569634</ele>
        <time>2021-09-16T08:24:15.000Z</time>
      </trkpt>
      <trkpt lat="44.09581" lon="4.76167">
        <ele>35.552213</ele>
        <time>2021-09-16T08:24:16.000Z</time>
      </trkpt>
      <trkpt lat="44.09565" lon="4.76175">
        <ele>35.499474</ele>
        <time>2021-09-16T08:24:19.000Z</time>
      </trkpt>
      <trkpt lat="44.09555" lon="4.7618">
        <ele>35.4656</ele>
        <time>2021-09-16T08:24:21.000Z</time>
      </trkpt>
      <trkpt lat="44.0955" lon="4.76183">
        <ele>35.449</ele>
        <time>2021-09-16T08:24:22.000Z</time>
      </trkpt>
      <trkpt lat="44.09523" lon="4.76194">
        <ele>35.360957</ele>
        <time>2021-09-16T08:24:27.000Z</time>
      </trkpt>
      <trkpt lat="44.09518" lon="4.76196">
        <ele>35.342777</ele>
        <time>2021-09-16T08:24:28.000Z</time>
      </trkpt>
      <trkpt lat="44.09503" lon="4.76201">
        <ele>35.29364</ele>
        <time>2021-09-16T08:24:31.000Z</time>
      </trkpt>
      <trkpt lat="44.09481" lon="4.76207">
        <ele>35.223813</ele>
        <time>2021-09-16T08:24:35.000Z</time>
      </trkpt>
      <trkpt lat="44.09454" lon="4.76212">
        <ele>35.163125</ele>
        <time>2021-09-16T08:24:40.000Z</time>
      </trkpt>
      <trkpt lat="44.09427" lon="4.76217">
        <ele>35.103491</ele>
        <time>2021-09-16T08:24:45.000Z</time>
      </trkpt>
      <trkpt lat="44.09388" lon="4.76224">
        <ele>35.017565</ele>
        <time>2021-09-16T08:24:52.000Z</time>
      </trkpt>
      <trkpt lat="44.09335" lon="4.76233">
        <ele>34.89962</ele>
        <time>2021-09-16T08:25:02.000Z</time>
      </trkpt>
      <trkpt lat="44.0933" lon="4.76234">
        <ele>34.887907</ele>
        <time>2021-09-16T08:25:03.000Z</time>
      </trkpt>
      <trkpt lat="44.09314" lon="4.76237">
        <ele>34.852786</ele>
        <time>2021-09-16T08:25:06.000Z</time>
      </trkpt>
      <trkpt lat="44.09271" lon="4.76245">
        <ele>34.743461</ele>
        <time>2021-09-16T08:25:14.000Z</time>
      </trkpt>
      <trkpt lat="44.09238" lon="4.76251">
        <ele>34.653026</ele>
        <time>2021-09-16T08:25:20.000Z</time>
      </trkpt>
      <trkpt lat="44.09226" lon="4.76253">
        <ele>34.622429</ele>
        <time>2021-09-16T08:25:22.000Z</time>
      </trkpt>
      <trkpt lat="44.09204" lon="4.76257">
        <ele>34.562516</ele>
        <time>2021-09-16T08:25:26.000Z</time>
      </trkpt>
      <trkpt lat="44.09193" lon="4.7626">
        <ele>34.531455</ele>
        <time>2021-09-16T08:25:28.000Z</time>
      </trkpt>
      <trkpt lat="44.09183" lon="4.76262">
        <ele>34.504495</ele>
        <time>2021-09-16T08:25:30.000Z</time>
      </trkpt>
      <trkpt lat="44.09178" lon="4.76264">
        <ele>34.489361</ele>
        <time>2021-09-16T08:25:31.000Z</time>
      </trkpt>
      <trkpt lat="44.09156" lon="4.7627">
        <ele>34.429395</ele>
        <time>2021-09-16T08:25:35.000Z</time>
      </trkpt>
      <trkpt lat="44.09123" lon="4.76278">
        <ele>34.340819</ele>
        <time>2021-09-16T08:25:41.000Z</time>
      </trkpt>
      <trkpt lat="44.09093" lon="4.76282">
        <ele>34.298553</ele>
        <time>2021-09-16T08:25:46.000Z</time>
      </trkpt>
      <trkpt lat="44.09054" lon="4.76284">
        <ele>34.242453</ele>
        <time>2021-09-16T08:25:53.000Z</time>
      </trkpt>
      <trkpt lat="44.09021" lon="4.76283">
        <ele>34.195524</ele>
        <time>2021-09-16T08:25:59.000Z</time>
      </trkpt>
      <trkpt lat="44.0899" lon="4.76283">
        <ele>34.150448</ele>
        <time>2021-09-16T08:26:05.000Z</time>
      </trkpt>
      <trkpt lat="44.08985" lon="4.76283">
        <ele>34.144172</ele>
        <time>2021-09-16T08:26:06.000Z</time>
      </trkpt>
      <trkpt lat="44.08981" lon="4.76283">
        <ele>34.138323</ele>
        <time>2021-09-16T08:26:07.000Z</time>
      </trkpt>
      <trkpt lat="44.08966" lon="4.76282">
        <ele>34.117496</ele>
        <time>2021-09-16T08:26:10.000Z</time>
      </trkpt>
      <trkpt lat="44.08962" lon="4.76282">
        <ele>34.111648</ele>
        <time>2021-09-16T08:26:11.000Z</time>
      </trkpt>
      <trkpt lat="44.08949" lon="4.76282">
        <ele>34.091963</ele>
        <time>2021-09-16T08:26:14.000Z</time>
      </trkpt>
      <trkpt lat="44.0893" lon="4.76282">
        <ele>34.124474</ele>
        <time>2021-09-16T08:26:18.000Z</time>
      </trkpt>
      <trkpt lat="44.08918" lon="4.76282">
        <ele>34.156455</ele>
        <time>2021-09-16T08:26:20.000Z</time>
      </trkpt>
      <trkpt lat="44.08901" lon="4.76281">
        <ele>34.203875</ele>
        <time>2021-09-16T08:26:23.000Z</time>
      </trkpt>
      <trkpt lat="44.08885" lon="4.76281">
        <ele>34.248812</ele>
        <time>2021-09-16T08:26:26.000Z</time>
      </trkpt>
      <trkpt lat="44.08873" lon="4.76281">
        <ele>34.282172</ele>
        <time>2021-09-16T08:26:28.000Z</time>
      </trkpt>
      <trkpt lat="44.08833" lon="4.7628">
        <ele>34.390522</ele>
        <time>2021-09-16T08:26:35.000Z</time>
      </trkpt>
      <trkpt lat="44.08828" lon="4.7628">
        <ele>34.403756</ele>
        <time>2021-09-16T08:26:36.000Z</time>
      </trkpt>
      <trkpt lat="44.08819" lon="4.7628">
        <ele>34.430498</ele>
        <time>2021-09-16T08:26:38.000Z</time>
      </trkpt>
      <trkpt lat="44.08814" lon="4.7628">
        <ele>34.444833</ele>
        <time>2021-09-16T08:26:39.000Z</time>
      </trkpt>
      <trkpt lat="44.08808" lon="4.7628">
        <ele>34.459168</ele>
        <time>2021-09-16T08:26:40.000Z</time>
      </trkpt>
      <trkpt lat="44.08798" lon="4.7628">
        <ele>34.487288</ele>
        <time>2021-09-16T08:26:42.000Z</time>
      </trkpt>
      <trkpt lat="44.08793" lon="4.7628">
        <ele>34.500796</ele>
        <time>2021-09-16T08:26:43.000Z</time>
      </trkpt>
      <trkpt lat="44.08774" lon="4.76279">
        <ele>34.55375</ele>
        <time>2021-09-16T08:26:47.000Z</time>
      </trkpt>
      <trkpt lat="44.08769" lon="4.76279">
        <ele>34.568366</ele>
        <time>2021-09-16T08:26:48.000Z</time>
      </trkpt>
      <trkpt lat="44.08752" lon="4.76278">
        <ele>34.608032</ele>
        <time>2021-09-16T08:26:51.000Z</time>
      </trkpt>
      <trkpt lat="44.0874" lon="4.76277">
        <ele>34.634751</ele>
        <time>2021-09-16T08:26:53.000Z</time>
      </trkpt>
      <trkpt lat="44.08717" lon="4.76275">
        <ele>34.687193</ele>
        <time>2021-09-16T08:26:57.000Z</time>
      </trkpt>
      <trkpt lat="44.08706" lon="4.76272">
        <ele>34.710266</ele>
        <time>2021-09-16T08:26:59.000Z</time>
      </trkpt>
      <trkpt lat="44.08696" lon="4.7627">
        <ele>34.734681</ele>
        <time>2021-09-16T08:27:01.000Z</time>
      </trkpt>
      <trkpt lat="44.08679" lon="4.76266">
        <ele>34.7711</ele>
        <time>2021-09-16T08:27:04.000Z</time>
      </trkpt>
      <trkpt lat="44.08652" lon="4.76258">
        <ele>34.833173</ele>
        <time>2021-09-16T08:27:09.000Z</time>
      </trkpt>
      <trkpt lat="44.08625" lon="4.7625">
        <ele>34.894152</ele>
        <time>2021-09-16T08:27:14.000Z</time>
      </trkpt>
      <trkpt lat="44.08582" lon="4.76233">
        <ele>34.987746</ele>
        <time>2021-09-16T08:27:22.000Z</time>
      </trkpt>
      <trkpt lat="44.08545" lon="4.76218">
        <ele>35.034297</ele>
        <time>2021-09-16T08:27:29.000Z</time>
      </trkpt>
      <trkpt lat="44.08519" lon="4.76207">
        <ele>35.066932</ele>
        <time>2021-09-16T08:27:34.000Z</time>
      </trkpt>
      <trkpt lat="44.08478" lon="4.7619">
        <ele>35.119078</ele>
        <time>2021-09-16T08:27:42.000Z</time>
      </trkpt>
      <trkpt lat="44.0845" lon="4.76178">
        <ele>35.154523</ele>
        <time>2021-09-16T08:27:48.000Z</time>
      </trkpt>
      <trkpt lat="44.0844" lon="4.76174">
        <ele>35.166981</ele>
        <time>2021-09-16T08:27:50.000Z</time>
      </trkpt>
      <trkpt lat="44.08425" lon="4.76168">
        <ele>35.1857</ele>
        <time>2021-09-16T08:27:53.000Z</time>
      </trkpt>
      <trkpt lat="44.08388" lon="4.76154">
        <ele>35.133401</ele>
        <time>2021-09-16T08:28:00.000Z</time>
      </trkpt>
      <trkpt lat="44.08346" lon="4.76138">
        <ele>35.030367</ele>
        <time>2021-09-16T08:28:08.000Z</time>
      </trkpt>
      <trkpt lat="44.08303" lon="4.76125">
        <ele>34.928087</ele>
        <time>2021-09-16T08:28:16.000Z</time>
      </trkpt>
      <trkpt lat="44.0827" lon="4.76118">
        <ele>34.850639</ele>
        <time>2021-09-16T08:28:22.000Z</time>
      </trkpt>
      <trkpt lat="44.08231" lon="4.76112">
        <ele>34.681552</ele>
        <time>2021-09-16T08:28:29.000Z</time>
      </trkpt>
      <trkpt lat="44.08198" lon="4.76111">
        <ele>34.280191</ele>
        <time>2021-09-16T08:28:35.000Z</time>
      </trkpt>
      <trkpt lat="44.08192" lon="4.76111">
        <ele>34.20382</ele>
        <time>2021-09-16T08:28:36.000Z</time>
      </trkpt>
      <trkpt lat="44.08182" lon="4.76111">
        <ele>34.077731</ele>
        <time>2021-09-16T08:28:38.000Z</time>
      </trkpt>
      <trkpt lat="44.08171" lon="4.76111">
        <ele>33.94924</ele>
        <time>2021-09-16T08:28:40.000Z</time>
      </trkpt>
      <trkpt lat="44.08161" lon="4.76112">
        <ele>33.824166</ele>
        <time>2021-09-16T08:28:42.000Z</time>
      </trkpt>
      <trkpt lat="44.0815" lon="4.76113">
        <ele>33.692927</ele>
        <time>2021-09-16T08:28:44.000Z</time>
      </trkpt>
      <trkpt lat="44.08144" lon="4.76115">
        <ele>33.623062</ele>
        <time>2021-09-16T08:28:46.000Z</time>
      </trkpt>
      <trkpt lat="44.08128" lon="4.76119">
        <ele>33.41874</ele>
        <time>2021-09-16T08:28:48.000Z</time>
      </trkpt>
      <trkpt lat="44.08122" lon="4.7612">
        <ele>33.350979</ele>
        <time>2021-09-16T08:28:49.000Z</time>
      </trkpt>
      <trkpt lat="44.08102" lon="4.76125">
        <ele>33.10248</ele>
        <time>2021-09-16T08:28:53.000Z</time>
      </trkpt>
      <trkpt lat="44.08093" lon="4.76127">
        <ele>32.988006</ele>
        <time>2021-09-16T08:28:55.000Z</time>
      </trkpt>
      <trkpt lat="44.08081" lon="4.7613">
        <ele>32.842633</ele>
        <time>2021-09-16T08:28:57.000Z</time>
      </trkpt>
      <trkpt lat="44.08063" lon="4.76135">
        <ele>32.627267</ele>
        <time>2021-09-16T08:29:00.000Z</time>
      </trkpt>
      <trkpt lat="44.08041" lon="4.76142">
        <ele>32.590737</ele>
        <time>2021-09-16T08:29:04.000Z</time>
      </trkpt>
      <trkpt lat="44.08003" lon="4.76159">
        <ele>32.576006</ele>
        <time>2021-09-16T08:29:11.000Z</time>
      </trkpt>
      <trkpt lat="44.07981" lon="4.76173">
        <ele>32.566941</ele>
        <time>2021-09-16T08:29:16.000Z</time>
      </trkpt>
      <trkpt lat="44.07978" lon="4.76176">
        <ele>32.565551</ele>
        <time>2021-09-16T08:29:17.000Z</time>
      </trkpt>
      <trkpt lat="44.07967" lon="4.76186">
        <ele>32.560718</ele>
        <time>2021-09-16T08:29:21.000Z</time>
      </trkpt>
      <trkpt lat="44.07966" lon="4.76187">
        <ele>32.560048</ele>
        <time>2021-09-16T08:29:22.000Z</time>
      </trkpt>
      <trkpt lat="44.07961" lon="4.76191">
        <ele>32.558035</ele>
        <time>2021-09-16T08:29:25.000Z</time>
      </trkpt>
      <trkpt lat="44.07943" lon="4.76189">
        <ele>32.55116</ele>
        <time>2021-09-16T08:29:31.000Z</time>
      </trkpt>
      <trkpt lat="44.07926" lon="4.76204">
        <ele>32.543766</ele>
        <time>2021-09-16T08:29:37.000Z</time>
      </trkpt>
      <trkpt lat="44.07909" lon="4.7622">
        <ele>32.536098</ele>
        <time>2021-09-16T08:29:42.000Z</time>
      </trkpt>
      <trkpt lat="44.07881" lon="4.76247">
        <ele>32.617077</ele>
        <time>2021-09-16T08:29:50.000Z</time>
      </trkpt>
      <trkpt lat="44.07851" lon="4.76275">
        <ele>32.760621</ele>
        <time>2021-09-16T08:29:56.000Z</time>
      </trkpt>
      <trkpt lat="44.07847" lon="4.76279">
        <ele>32.778705</ele>
        <time>2021-09-16T08:29:57.000Z</time>
      </trkpt>
      <trkpt lat="44.07834" lon="4.76291">
        <ele>32.840547</ele>
        <time>2021-09-16T08:30:00.000Z</time>
      </trkpt>
      <trkpt lat="44.07797" lon="4.76326">
        <ele>33.016386</ele>
        <time>2021-09-16T08:30:08.000Z</time>
      </trkpt>
      <trkpt lat="44.0776" lon="4.76361">
        <ele>33.192709</ele>
        <time>2021-09-16T08:30:16.000Z</time>
      </trkpt>
      <trkpt lat="44.07756" lon="4.76365">
        <ele>33.21273</ele>
        <time>2021-09-16T08:30:17.000Z</time>
      </trkpt>
      <trkpt lat="44.07737" lon="4.76383">
        <ele>33.272546</ele>
        <time>2021-09-16T08:30:21.000Z</time>
      </trkpt>
      <trkpt lat="44.07696" lon="4.76428">
        <ele>33.380844</ele>
        <time>2021-09-16T08:30:30.000Z</time>
      </trkpt>
      <trkpt lat="44.07658" lon="4.76475">
        <ele>33.485466</ele>
        <time>2021-09-16T08:30:39.000Z</time>
      </trkpt>
      <trkpt lat="44.07617" lon="4.76528">
        <ele>33.601531</ele>
        <time>2021-09-16T08:30:49.000Z</time>
      </trkpt>
      <trkpt lat="44.07613" lon="4.76534">
        <ele>33.613403</ele>
        <time>2021-09-16T08:30:50.000Z</time>
      </trkpt>
      <trkpt lat="44.07583" lon="4.76578">
        <ele>33.719321</ele>
        <time>2021-09-16T08:30:58.000Z</time>
      </trkpt>
      <trkpt lat="44.07556" lon="4.76624">
        <ele>33.821924</ele>
        <time>2021-09-16T08:31:06.000Z</time>
      </trkpt>
      <trkpt lat="44.0753" lon="4.7667">
        <ele>33.924536</ele>
        <time>2021-09-16T08:31:14.000Z</time>
      </trkpt>
      <trkpt lat="44.07505" lon="4.7672">
        <ele>34.029914</ele>
        <time>2021-09-16T08:31:22.000Z</time>
      </trkpt>
      <trkpt lat="44.075" lon="4.76732">
        <ele>34.020544</ele>
        <time>2021-09-16T08:31:24.000Z</time>
      </trkpt>
      <trkpt lat="44.07492" lon="4.7675">
        <ele>33.896523</ele>
        <time>2021-09-16T08:31:27.000Z</time>
      </trkpt>
      <trkpt lat="44.0749" lon="4.76756">
        <ele>33.854043</ele>
        <time>2021-09-16T08:31:28.000Z</time>
      </trkpt>
      <trkpt lat="44.0748" lon="4.76781">
        <ele>33.686776</ele>
        <time>2021-09-16T08:31:32.000Z</time>
      </trkpt>
      <trkpt lat="44.07474" lon="4.76798">
        <ele>33.571846</ele>
        <time>2021-09-16T08:31:35.000Z</time>
      </trkpt>
      <trkpt lat="44.0747" lon="4.76807">
        <ele>33.504909</ele>
        <time>2021-09-16T08:31:37.000Z</time>
      </trkpt>
      <trkpt lat="44.075" lon="4.76826">
        <ele>33.228738</ele>
        <time>2021-09-16T08:31:40.000Z</time>
      </trkpt>
      <trkpt lat="44.07502" lon="4.76833">
        <ele>33.183752</ele>
        <time>2021-09-16T08:31:42.000Z</time>
      </trkpt>
      <trkpt lat="44.07507" lon="4.76853">
        <ele>33.058279</ele>
        <time>2021-09-16T08:31:44.000Z</time>
      </trkpt>
      <trkpt lat="44.07511" lon="4.76864">
        <ele>32.986601</ele>
        <time>2021-09-16T08:31:46.000Z</time>
      </trkpt>
      <trkpt lat="44.07514" lon="4.76869">
        <ele>32.945466</ele>
        <time>2021-09-16T08:31:47.000Z</time>
      </trkpt>
      <trkpt lat="44.0754" lon="4.76898">
        <ele>32.668651</ele>
        <time>2021-09-16T08:31:53.000Z</time>
      </trkpt>
      <trkpt lat="44.07571" lon="4.7691">
        <ele>32.446046</ele>
        <time>2021-09-16T08:31:59.000Z</time>
      </trkpt>
      <trkpt lat="44.0759" lon="4.76915">
        <ele>32.33515</ele>
        <time>2021-09-16T08:32:03.000Z</time>
      </trkpt>
      <trkpt lat="44.07605" lon="4.76918">
        <ele>32.246804</ele>
        <time>2021-09-16T08:32:06.000Z</time>
      </trkpt>
      <trkpt lat="44.07628" lon="4.76924">
        <ele>32.107858</ele>
        <time>2021-09-16T08:32:11.000Z</time>
      </trkpt>
      <trkpt lat="44.0765" lon="4.7693">
        <ele>31.977648</ele>
        <time>2021-09-16T08:32:15.000Z</time>
      </trkpt>
      <trkpt lat="44.07655" lon="4.76931">
        <ele>31.945981</ele>
        <time>2021-09-16T08:32:16.000Z</time>
      </trkpt>
      <trkpt lat="44.07681" lon="4.76946">
        <ele>31.779136</ele>
        <time>2021-09-16T08:32:21.000Z</time>
      </trkpt>
      <trkpt lat="44.07691" lon="4.76957">
        <ele>31.705423</ele>
        <time>2021-09-16T08:32:24.000Z</time>
      </trkpt>
      <trkpt lat="44.07695" lon="4.76962">
        <ele>31.675015</ele>
        <time>2021-09-16T08:32:25.000Z</time>
      </trkpt>
      <trkpt lat="44.07701" lon="4.76978">
        <ele>31.598154</ele>
        <time>2021-09-16T08:32:27.000Z</time>
      </trkpt>
      <trkpt lat="44.07705" lon="4.76989">
        <ele>31.547265</ele>
        <time>2021-09-16T08:32:29.000Z</time>
      </trkpt>
      <trkpt lat="44.07707" lon="4.77004">
        <ele>31.50479</ele>
        <time>2021-09-16T08:32:31.000Z</time>
      </trkpt>
      <trkpt lat="44.07705" lon="4.77036">
        <ele>31.622695</ele>
        <time>2021-09-16T08:32:34.000Z</time>
      </trkpt>
      <trkpt lat="44.07703" lon="4.77042">
        <ele>31.650008</ele>
        <time>2021-09-16T08:32:35.000Z</time>
      </trkpt>
      <trkpt lat="44.07692" lon="4.77076">
        <ele>31.786704</ele>
        <time>2021-09-16T08:32:40.000Z</time>
      </trkpt>
      <trkpt lat="44.07684" lon="4.77095">
        <ele>31.866629</ele>
        <time>2021-09-16T08:32:43.000Z</time>
      </trkpt>
      <trkpt lat="44.07666" lon="4.77131">
        <ele>32.028153</ele>
        <time>2021-09-16T08:32:49.000Z</time>
      </trkpt>
      <trkpt lat="44.07661" lon="4.77142">
        <ele>32.078591</ele>
        <time>2021-09-16T08:32:51.000Z</time>
      </trkpt>
      <trkpt lat="44.07645" lon="4.77164">
        <ele>32.192568</ele>
        <time>2021-09-16T08:32:56.000Z</time>
      </trkpt>
      <trkpt lat="44.07628" lon="4.7718">
        <ele>32.300293</ele>
        <time>2021-09-16T08:33:01.000Z</time>
      </trkpt>
      <trkpt lat="44.07617" lon="4.77186">
        <ele>32.359121</ele>
        <time>2021-09-16T08:33:06.000Z</time>
      </trkpt>
      <trkpt lat="44.07607" lon="4.77169">
        <ele>32.447267</ele>
        <time>2021-09-16T08:33:09.000Z</time>
      </trkpt>
      <trkpt lat="44.07594" lon="4.77154">
        <ele>32.555774</ele>
        <time>2021-09-16T08:33:14.000Z</time>
      </trkpt>
      <trkpt lat="44.07583" lon="4.77141">
        <ele>32.654011</ele>
        <time>2021-09-16T08:33:20.000Z</time>
      </trkpt>
      <trkpt lat="44.07573" lon="4.7713">
        <ele>32.73356</ele>
        <time>2021-09-16T08:33:25.000Z</time>
      </trkpt>
      <trkpt lat="44.07561" lon="4.77118">
        <ele>32.829988</ele>
        <time>2021-09-16T08:33:30.000Z</time>
      </trkpt>
      <trkpt lat="44.07541" lon="4.77101">
        <ele>32.986894</ele>
        <time>2021-09-16T08:33:37.000Z</time>
      </trkpt>
      <trkpt lat="44.0752" lon="4.77086">
        <ele>33.139363</ele>
        <time>2021-09-16T08:33:41.000Z</time>
      </trkpt>
      <trkpt lat="44.07512" lon="4.7708">
        <ele>33.198206</ele>
        <time>2021-09-16T08:33:43.000Z</time>
      </trkpt>
      <trkpt lat="44.07493" lon="4.77069">
        <ele>33.328685</ele>
        <time>2021-09-16T08:33:48.000Z</time>
      </trkpt>
      <trkpt lat="44.0748" lon="4.7706">
        <ele>33.423938</ele>
        <time>2021-09-16T08:33:50.000Z</time>
      </trkpt>
      <trkpt lat="44.07467" lon="4.77052">
        <ele>33.518425</ele>
        <time>2021-09-16T08:33:53.000Z</time>
      </trkpt>
      <trkpt lat="44.07444" lon="4.77039">
        <ele>33.628026</ele>
        <time>2021-09-16T08:33:58.000Z</time>
      </trkpt>
      <trkpt lat="44.07414" lon="4.77021">
        <ele>33.71699</ele>
        <time>2021-09-16T08:34:05.000Z</time>
      </trkpt>
      <trkpt lat="44.07394" lon="4.7701">
        <ele>33.773725</ele>
        <time>2021-09-16T08:34:10.000Z</time>
      </trkpt>
      <trkpt lat="44.07387" lon="4.77006">
        <ele>33.796279</ele>
        <time>2021-09-16T08:34:12.000Z</time>
      </trkpt>
      <trkpt lat="44.07374" lon="4.76999">
        <ele>33.83236</ele>
        <time>2021-09-16T08:34:15.000Z</time>
      </trkpt>
      <trkpt lat="44.07362" lon="4.76992">
        <ele>33.868116</ele>
        <time>2021-09-16T08:34:18.000Z</time>
      </trkpt>
      <trkpt lat="44.0733" lon="4.7698">
        <ele>33.958575</ele>
        <time>2021-09-16T08:34:23.000Z</time>
      </trkpt>
      <trkpt lat="44.07328" lon="4.76985">
        <ele>33.969231</ele>
        <time>2021-09-16T08:34:25.000Z</time>
      </trkpt>
      <trkpt lat="44.07324" lon="4.77002">
        <ele>34.004044</ele>
        <time>2021-09-16T08:34:26.000Z</time>
      </trkpt>
      <trkpt lat="44.07315" lon="4.7705">
        <ele>34.06345</ele>
        <time>2021-09-16T08:34:34.000Z</time>
      </trkpt>
      <trkpt lat="44.073" lon="4.7711">
        <ele>33.973876</ele>
        <time>2021-09-16T08:34:43.000Z</time>
      </trkpt>
      <trkpt lat="44.07292" lon="4.77135">
        <ele>33.934823</ele>
        <time>2021-09-16T08:34:47.000Z</time>
      </trkpt>
      <trkpt lat="44.07286" lon="4.77146">
        <ele>33.915209</ele>
        <time>2021-09-16T08:34:49.000Z</time>
      </trkpt>
      <trkpt lat="44.07274" lon="4.77168">
        <ele>33.876388</ele>
        <time>2021-09-16T08:34:53.000Z</time>
      </trkpt>
      <trkpt lat="44.07271" lon="4.77175">
        <ele>33.865215</ele>
        <time>2021-09-16T08:34:54.000Z</time>
      </trkpt>
      <trkpt lat="44.07268" lon="4.77183">
        <ele>33.853112</ele>
        <time>2021-09-16T08:34:55.000Z</time>
      </trkpt>
      <trkpt lat="44.07264" lon="4.77199">
        <ele>33.828683</ele>
        <time>2021-09-16T08:34:58.000Z</time>
      </trkpt>
      <trkpt lat="44.07248" lon="4.77276">
        <ele>33.724014</ele>
        <time>2021-09-16T08:35:06.000Z</time>
      </trkpt>
      <trkpt lat="44.07237" lon="4.77341">
        <ele>33.706486</ele>
        <time>2021-09-16T08:35:14.000Z</time>
      </trkpt>
      <trkpt lat="44.07237" lon="4.77373">
        <ele>33.697987</ele>
        <time>2021-09-16T08:35:19.000Z</time>
      </trkpt>
      <trkpt lat="44.07236" lon="4.77407">
        <ele>33.689018</ele>
        <time>2021-09-16T08:35:25.000Z</time>
      </trkpt>
      <trkpt lat="44.0723" lon="4.77446">
        <ele>33.678286</ele>
        <time>2021-09-16T08:35:31.000Z</time>
      </trkpt>
      <trkpt lat="44.07216" lon="4.7752">
        <ele>33.665089</ele>
        <time>2021-09-16T08:35:41.000Z</time>
      </trkpt>
      <trkpt lat="44.07215" lon="4.77527">
        <ele>33.67217</ele>
        <time>2021-09-16T08:35:42.000Z</time>
      </trkpt>
      <trkpt lat="44.07203" lon="4.77593">
        <ele>33.737668</ele>
        <time>2021-09-16T08:35:51.000Z</time>
      </trkpt>
      <trkpt lat="44.07189" lon="4.77669">
        <ele>33.812411</ele>
        <time>2021-09-16T08:36:01.000Z</time>
      </trkpt>
      <trkpt lat="44.07187" lon="4.77677">
        <ele>33.82002</ele>
        <time>2021-09-16T08:36:02.000Z</time>
      </trkpt>
      <trkpt lat="44.07174" lon="4.77745">
        <ele>33.887483</ele>
        <time>2021-09-16T08:36:11.000Z</time>
      </trkpt>
      <trkpt lat="44.07159" lon="4.77822">
        <ele>33.88109</ele>
        <time>2021-09-16T08:36:21.000Z</time>
      </trkpt>
      <trkpt lat="44.07156" lon="4.77838">
        <ele>33.876982</ele>
        <time>2021-09-16T08:36:23.000Z</time>
      </trkpt>
      <trkpt lat="44.07141" lon="4.77915">
        <ele>33.856708</ele>
        <time>2021-09-16T08:36:33.000Z</time>
      </trkpt>
      <trkpt lat="44.0714" lon="4.77923">
        <ele>33.854713</ele>
        <time>2021-09-16T08:36:34.000Z</time>
      </trkpt>
      <trkpt lat="44.07126" lon="4.77999">
        <ele>33.835171</ele>
        <time>2021-09-16T08:36:44.000Z</time>
      </trkpt>
      <trkpt lat="44.07112" lon="4.78075">
        <ele>33.869077</ele>
        <time>2021-09-16T08:36:54.000Z</time>
      </trkpt>
      <trkpt lat="44.07099" lon="4.78143">
        <ele>33.899501</ele>
        <time>2021-09-16T08:37:04.000Z</time>
      </trkpt>
      <trkpt lat="44.07084" lon="4.7821">
        <ele>33.930199</ele>
        <time>2021-09-16T08:37:12.000Z</time>
      </trkpt>
      <trkpt lat="44.07073" lon="4.78254">
        <ele>33.968604</ele>
        <time>2021-09-16T08:37:18.000Z</time>
      </trkpt>
      <trkpt lat="44.07069" lon="4.78269">
        <ele>33.994085</ele>
        <time>2021-09-16T08:37:20.000Z</time>
      </trkpt>
      <trkpt lat="44.07061" lon="4.783">
        <ele>34.046177</ele>
        <time>2021-09-16T08:37:25.000Z</time>
      </trkpt>
      <trkpt lat="44.07051" lon="4.78336">
        <ele>34.108868</ele>
        <time>2021-09-16T08:37:31.000Z</time>
      </trkpt>
      <trkpt lat="44.07037" lon="4.78376">
        <ele>34.179235</ele>
        <time>2021-09-16T08:37:36.000Z</time>
      </trkpt>
      <trkpt lat="44.07015" lon="4.78435">
        <ele>34.286624</ele>
        <time>2021-09-16T08:37:44.000Z</time>
      </trkpt>
      <trkpt lat="44.0699" lon="4.78494">
        <ele>34.375597</ele>
        <time>2021-09-16T08:37:53.000Z</time>
      </trkpt>
      <trkpt lat="44.06963" lon="4.78552">
        <ele>34.441655</ele>
        <time>2021-09-16T08:38:00.000Z</time>
      </trkpt>
      <trkpt lat="44.06931" lon="4.78614">
        <ele>34.516061</ele>
        <time>2021-09-16T08:38:09.000Z</time>
      </trkpt>
      <trkpt lat="44.06897" lon="4.78671">
        <ele>34.584897</ele>
        <time>2021-09-16T08:38:18.000Z</time>
      </trkpt>
      <trkpt lat="44.06858" lon="4.78732">
        <ele>34.56214</ele>
        <time>2021-09-16T08:38:28.000Z</time>
      </trkpt>
      <trkpt lat="44.06815" lon="4.78789">
        <ele>34.539037</ele>
        <time>2021-09-16T08:38:38.000Z</time>
      </trkpt>
      <trkpt lat="44.06807" lon="4.78801">
        <ele>34.534338</ele>
        <time>2021-09-16T08:38:40.000Z</time>
      </trkpt>
      <trkpt lat="44.06766" lon="4.78847">
        <ele>34.500285</ele>
        <time>2021-09-16T08:38:49.000Z</time>
      </trkpt>
      <trkpt lat="44.0675" lon="4.78865">
        <ele>34.41661</ele>
        <time>2021-09-16T08:38:53.000Z</time>
      </trkpt>
      <trkpt lat="44.06743" lon="4.78872">
        <ele>34.379091</ele>
        <time>2021-09-16T08:38:55.000Z</time>
      </trkpt>
      <trkpt lat="44.0674" lon="4.78876">
        <ele>34.361257</ele>
        <time>2021-09-16T08:38:56.000Z</time>
      </trkpt>
      <trkpt lat="44.06729" lon="4.78888">
        <ele>34.305863</ele>
        <time>2021-09-16T08:38:59.000Z</time>
      </trkpt>
      <trkpt lat="44.06727" lon="4.78893">
        <ele>34.287777</ele>
        <time>2021-09-16T08:39:00.000Z</time>
      </trkpt>
      <trkpt lat="44.06724" lon="4.78899">
        <ele>34.267009</ele>
        <time>2021-09-16T08:39:01.000Z</time>
      </trkpt>
      <trkpt lat="44.06721" lon="4.78911">
        <ele>34.228007</ele>
        <time>2021-09-16T08:39:03.000Z</time>
      </trkpt>
      <trkpt lat="44.06726" lon="4.78924">
        <ele>34.183573</ele>
        <time>2021-09-16T08:39:05.000Z</time>
      </trkpt>
      <trkpt lat="44.06729" lon="4.7893">
        <ele>34.161381</ele>
        <time>2021-09-16T08:39:06.000Z</time>
      </trkpt>
      <trkpt lat="44.06743" lon="4.78959">
        <ele>34.056711</ele>
        <time>2021-09-16T08:39:11.000Z</time>
      </trkpt>
      <trkpt lat="44.06745" lon="4.78964">
        <ele>34.040551</ele>
        <time>2021-09-16T08:39:12.000Z</time>
      </trkpt>
      <trkpt lat="44.06733" lon="4.78982">
        <ele>33.965801</ele>
        <time>2021-09-16T08:39:15.000Z</time>
      </trkpt>
      <trkpt lat="44.06707" lon="4.79002">
        <ele>33.844202</ele>
        <time>2021-09-16T08:39:19.000Z</time>
      </trkpt>
      <trkpt lat="44.0666" lon="4.79038">
        <ele>33.443327</ele>
        <time>2021-09-16T08:39:26.000Z</time>
      </trkpt>
      <trkpt lat="44.06622" lon="4.79061">
        <ele>33.060203</ele>
        <time>2021-09-16T08:39:32.000Z</time>
      </trkpt>
      <trkpt lat="44.06604" lon="4.79073">
        <ele>32.877517</ele>
        <time>2021-09-16T08:39:35.000Z</time>
      </trkpt>
      <trkpt lat="44.06598" lon="4.79077">
        <ele>32.814311</ele>
        <time>2021-09-16T08:39:36.000Z</time>
      </trkpt>
      <trkpt lat="44.06563" lon="4.79098">
        <ele>32.463074</ele>
        <time>2021-09-16T08:39:42.000Z</time>
      </trkpt>
      <trkpt lat="44.06552" lon="4.79105">
        <ele>32.351901</ele>
        <time>2021-09-16T08:39:44.000Z</time>
      </trkpt>
      <trkpt lat="44.06534" lon="4.79115">
        <ele>32.181026</ele>
        <time>2021-09-16T08:39:47.000Z</time>
      </trkpt>
      <trkpt lat="44.06511" lon="4.79127">
        <ele>32.041363</ele>
        <time>2021-09-16T08:39:51.000Z</time>
      </trkpt>
      <trkpt lat="44.06506" lon="4.79129">
        <ele>32.015721</ele>
        <time>2021-09-16T08:39:52.000Z</time>
      </trkpt>
      <trkpt lat="44.06483" lon="4.79141">
        <ele>31.907959</ele>
        <time>2021-09-16T08:39:56.000Z</time>
      </trkpt>
      <trkpt lat="44.06478" lon="4.79143">
        <ele>31.88221</ele>
        <time>2021-09-16T08:39:57.000Z</time>
      </trkpt>
      <trkpt lat="44.06468" lon="4.79148">
        <ele>31.833258</ele>
        <time>2021-09-16T08:39:59.000Z</time>
      </trkpt>
      <trkpt lat="44.06462" lon="4.79151">
        <ele>31.808774</ele>
        <time>2021-09-16T08:40:00.000Z</time>
      </trkpt>
      <trkpt lat="44.06457" lon="4.79153">
        <ele>31.785242</ele>
        <time>2021-09-16T08:40:01.000Z</time>
      </trkpt>
      <trkpt lat="44.06441" lon="4.7916">
        <ele>31.706496</ele>
        <time>2021-09-16T08:40:04.000Z</time>
      </trkpt>
      <trkpt lat="44.06414" lon="4.79172">
        <ele>31.581115</ele>
        <time>2021-09-16T08:40:09.000Z</time>
      </trkpt>
      <trkpt lat="44.06409" lon="4.79175">
        <ele>31.55663</ele>
        <time>2021-09-16T08:40:10.000Z</time>
      </trkpt>
      <trkpt lat="44.06404" lon="4.79177">
        <ele>31.53267</ele>
        <time>2021-09-16T08:40:11.000Z</time>
      </trkpt>
      <trkpt lat="44.06396" lon="4.79182">
        <ele>31.492624</ele>
        <time>2021-09-16T08:40:13.000Z</time>
      </trkpt>
      <trkpt lat="44.06392" lon="4.79184">
        <ele>31.476341</ele>
        <time>2021-09-16T08:40:14.000Z</time>
      </trkpt>
      <trkpt lat="44.06387" lon="4.79187">
        <ele>31.448117</ele>
        <time>2021-09-16T08:40:16.000Z</time>
      </trkpt>
      <trkpt lat="44.06384" lon="4.79188">
        <ele>31.438197</ele>
        <time>2021-09-16T08:40:17.000Z</time>
      </trkpt>
      <trkpt lat="44.06376" lon="4.79189">
        <ele>31.402054</ele>
        <time>2021-09-16T08:40:19.000Z</time>
      </trkpt>
      <trkpt lat="44.06367" lon="4.79191">
        <ele>31.359112</ele>
        <time>2021-09-16T08:40:21.000Z</time>
      </trkpt>
      <trkpt lat="44.0635" lon="4.79193">
        <ele>31.348824</ele>
        <time>2021-09-16T08:40:24.000Z</time>
      </trkpt>
      <trkpt lat="44.06338" lon="4.79195">
        <ele>31.398218</ele>
        <time>2021-09-16T08:40:26.000Z</time>
      </trkpt>
      <trkpt lat="44.06302" lon="4.79205">
        <ele>31.550345</ele>
        <time>2021-09-16T08:40:32.000Z</time>
      </trkpt>
      <trkpt lat="44.06261" lon="4.79214">
        <ele>31.723215</ele>
        <time>2021-09-16T08:40:39.000Z</time>
      </trkpt>
      <trkpt lat="44.06217" lon="4.79219">
        <ele>31.907132</ele>
        <time>2021-09-16T08:40:47.000Z</time>
      </trkpt>
      <trkpt lat="44.06192" lon="4.79221">
        <ele>32.011378</ele>
        <time>2021-09-16T08:40:52.000Z</time>
      </trkpt>
      <trkpt lat="44.06187" lon="4.79222">
        <ele>32.031832</ele>
        <time>2021-09-16T08:40:53.000Z</time>
      </trkpt>
      <trkpt lat="44.06152" lon="4.79223">
        <ele>32.084135</ele>
        <time>2021-09-16T08:41:00.000Z</time>
      </trkpt>
      <trkpt lat="44.06136" lon="4.79223">
        <ele>32.095631</ele>
        <time>2021-09-16T08:41:03.000Z</time>
      </trkpt>
      <trkpt lat="44.0612" lon="4.79224">
        <ele>32.107493</ele>
        <time>2021-09-16T08:41:06.000Z</time>
      </trkpt>
      <trkpt lat="44.06093" lon="4.79221">
        <ele>32.127115</ele>
        <time>2021-09-16T08:41:11.000Z</time>
      </trkpt>
      <trkpt lat="44.06046" lon="4.79212">
        <ele>32.16224</ele>
        <time>2021-09-16T08:41:20.000Z</time>
      </trkpt>
      <trkpt lat="44.0604" lon="4.79211">
        <ele>32.166301</ele>
        <time>2021-09-16T08:41:21.000Z</time>
      </trkpt>
      <trkpt lat="44.06023" lon="4.79208">
        <ele>32.178921</ele>
        <time>2021-09-16T08:41:24.000Z</time>
      </trkpt>
      <trkpt lat="44.05971" lon="4.79198">
        <ele>32.001059</ele>
        <time>2021-09-16T08:41:33.000Z</time>
      </trkpt>
      <trkpt lat="44.05932" lon="4.79188">
        <ele>31.73209</ele>
        <time>2021-09-16T08:41:40.000Z</time>
      </trkpt>
      <trkpt lat="44.05881" lon="4.79176">
        <ele>31.387845</ele>
        <time>2021-09-16T08:41:49.000Z</time>
      </trkpt>
      <trkpt lat="44.05836" lon="4.79165">
        <ele>31.087648</ele>
        <time>2021-09-16T08:41:57.000Z</time>
      </trkpt>
      <trkpt lat="44.05805" lon="4.79157">
        <ele>30.895947</ele>
        <time>2021-09-16T08:42:03.000Z</time>
      </trkpt>
      <trkpt lat="44.05773" lon="4.79149">
        <ele>30.721782</ele>
        <time>2021-09-16T08:42:09.000Z</time>
      </trkpt>
      <trkpt lat="44.05724" lon="4.79138">
        <ele>30.457133</ele>
        <time>2021-09-16T08:42:18.000Z</time>
      </trkpt>
      <trkpt lat="44.05691" lon="4.79132">
        <ele>30.28096</ele>
        <time>2021-09-16T08:42:24.000Z</time>
      </trkpt>
      <trkpt lat="44.05655" lon="4.79125">
        <ele>30.084244</ele>
        <time>2021-09-16T08:42:31.000Z</time>
      </trkpt>
      <trkpt lat="44.0564" lon="4.79123">
        <ele>30.016073</ele>
        <time>2021-09-16T08:42:34.000Z</time>
      </trkpt>
      <trkpt lat="44.05627" lon="4.79125">
        <ele>29.973888</ele>
        <time>2021-09-16T08:42:37.000Z</time>
      </trkpt>
      <trkpt lat="44.05616" lon="4.79127">
        <ele>29.939313</ele>
        <time>2021-09-16T08:42:41.000Z</time>
      </trkpt>
      <trkpt lat="44.05611" lon="4.79127">
        <ele>29.924406</ele>
        <time>2021-09-16T08:42:43.000Z</time>
      </trkpt>
      <trkpt lat="44.05607" lon="4.79128">
        <ele>29.912036</ele>
        <time>2021-09-16T08:42:45.000Z</time>
      </trkpt>
      <trkpt lat="44.05604" lon="4.79128">
        <ele>29.901573</ele>
        <time>2021-09-16T08:42:47.000Z</time>
      </trkpt>
      <trkpt lat="44.056" lon="4.79124">
        <ele>29.887313</ele>
        <time>2021-09-16T08:42:49.000Z</time>
      </trkpt>
      <trkpt lat="44.05592" lon="4.79099">
        <ele>29.824779</ele>
        <time>2021-09-16T08:42:54.000Z</time>
      </trkpt>
      <trkpt lat="44.05587" lon="4.79089">
        <ele>29.795808</ele>
        <time>2021-09-16T08:42:56.000Z</time>
      </trkpt>
      <trkpt lat="44.05583" lon="4.7908">
        <ele>29.772745</ele>
        <time>2021-09-16T08:42:58.000Z</time>
      </trkpt>
      <trkpt lat="44.05577" lon="4.79069">
        <ele>29.740701</ele>
        <time>2021-09-16T08:43:01.000Z</time>
      </trkpt>
      <trkpt lat="44.05573" lon="4.79083">
        <ele>29.708444</ele>
        <time>2021-09-16T08:43:02.000Z</time>
      </trkpt>
      <trkpt lat="44.05571" lon="4.79086">
        <ele>29.698197</ele>
        <time>2021-09-16T08:43:06.000Z</time>
      </trkpt>
      <trkpt lat="44.04885" lon="4.79986">
        <ele>29.866581</ele>
        <time>2021-09-16T08:48:16.000Z</time>
      </trkpt>
      <trkpt lat="44.04879" lon="4.80001">
        <ele>29.863395</ele>
        <time>2021-09-16T08:48:17.000Z</time>
      </trkpt>
      <trkpt lat="44.0487" lon="4.80021">
        <ele>29.858901</ele>
        <time>2021-09-16T08:48:20.000Z</time>
      </trkpt>
      <trkpt lat="44.04866" lon="4.80033">
        <ele>29.850175</ele>
        <time>2021-09-16T08:48:22.000Z</time>
      </trkpt>
      <trkpt lat="44.04859" lon="4.80052">
        <ele>29.83468</ele>
        <time>2021-09-16T08:48:25.000Z</time>
      </trkpt>
      <trkpt lat="44.04857" lon="4.80057">
        <ele>29.830248</ele>
        <time>2021-09-16T08:48:26.000Z</time>
      </trkpt>
      <trkpt lat="44.04854" lon="4.80063">
        <ele>29.82516</ele>
        <time>2021-09-16T08:48:27.000Z</time>
      </trkpt>
      <trkpt lat="44.04844" lon="4.80084">
        <ele>29.80626</ele>
        <time>2021-09-16T08:48:31.000Z</time>
      </trkpt>
      <trkpt lat="44.04839" lon="4.80094">
        <ele>29.79753</ele>
        <time>2021-09-16T08:48:33.000Z</time>
      </trkpt>
      <trkpt lat="44.04834" lon="4.80102">
        <ele>29.789576</ele>
        <time>2021-09-16T08:48:35.000Z</time>
      </trkpt>
      <trkpt lat="44.04814" lon="4.80133">
        <ele>29.758962</ele>
        <time>2021-09-16T08:48:42.000Z</time>
      </trkpt>
      <trkpt lat="44.0479" lon="4.80169">
        <ele>29.72309</ele>
        <time>2021-09-16T08:48:49.000Z</time>
      </trkpt>
      <trkpt lat="44.04768" lon="4.80203">
        <ele>29.689859</ele>
        <time>2021-09-16T08:48:55.000Z</time>
      </trkpt>
      <trkpt lat="44.04765" lon="4.80208">
        <ele>29.684506</ele>
        <time>2021-09-16T08:48:56.000Z</time>
      </trkpt>
      <trkpt lat="44.04758" lon="4.80218">
        <ele>29.674885</ele>
        <time>2021-09-16T08:48:59.000Z</time>
      </trkpt>
      <trkpt lat="44.04748" lon="4.80234">
        <ele>29.716081</ele>
        <time>2021-09-16T08:49:01.000Z</time>
      </trkpt>
      <trkpt lat="44.04744" lon="4.80239">
        <ele>29.730664</ele>
        <time>2021-09-16T08:49:02.000Z</time>
      </trkpt>
      <trkpt lat="44.04718" lon="4.80279">
        <ele>29.836937</ele>
        <time>2021-09-16T08:49:09.000Z</time>
      </trkpt>
      <trkpt lat="44.04682" lon="4.80335">
        <ele>29.983933</ele>
        <time>2021-09-16T08:49:18.000Z</time>
      </trkpt>
      <trkpt lat="44.04661" lon="4.80366">
        <ele>30.067129</ele>
        <time>2021-09-16T08:49:23.000Z</time>
      </trkpt>
      <trkpt lat="44.04653" lon="4.80378">
        <ele>30.099977</ele>
        <time>2021-09-16T08:49:25.000Z</time>
      </trkpt>
      <trkpt lat="44.04625" lon="4.80421">
        <ele>30.173783</ele>
        <time>2021-09-16T08:49:32.000Z</time>
      </trkpt>
      <trkpt lat="44.04593" lon="4.80468">
        <ele>30.197182</ele>
        <time>2021-09-16T08:49:40.000Z</time>
      </trkpt>
      <trkpt lat="44.04589" lon="4.80474">
        <ele>30.200029</ele>
        <time>2021-09-16T08:49:41.000Z</time>
      </trkpt>
      <trkpt lat="44.04574" lon="4.80497">
        <ele>30.211405</ele>
        <time>2021-09-16T08:49:45.000Z</time>
      </trkpt>
      <trkpt lat="44.04555" lon="4.80525">
        <ele>30.225505</ele>
        <time>2021-09-16T08:49:50.000Z</time>
      </trkpt>
      <trkpt lat="44.04547" lon="4.80537">
        <ele>30.231652</ele>
        <time>2021-09-16T08:49:52.000Z</time>
      </trkpt>
      <trkpt lat="44.04514" lon="4.80586">
        <ele>30.256034</ele>
        <time>2021-09-16T08:50:00.000Z</time>
      </trkpt>
      <trkpt lat="44.04491" lon="4.80621">
        <ele>30.311261</ele>
        <time>2021-09-16T08:50:06.000Z</time>
      </trkpt>
      <trkpt lat="44.04465" lon="4.80665">
        <ele>30.378275</ele>
        <time>2021-09-16T08:50:13.000Z</time>
      </trkpt>
      <trkpt lat="44.04451" lon="4.80686">
        <ele>30.411453</ele>
        <time>2021-09-16T08:50:17.000Z</time>
      </trkpt>
      <trkpt lat="44.04444" lon="4.80698">
        <ele>30.429097</ele>
        <time>2021-09-16T08:50:19.000Z</time>
      </trkpt>
      <trkpt lat="44.04426" lon="4.80727">
        <ele>30.47457</ele>
        <time>2021-09-16T08:50:24.000Z</time>
      </trkpt>
      <trkpt lat="44.04402" lon="4.80766">
        <ele>30.533966</ele>
        <time>2021-09-16T08:50:30.000Z</time>
      </trkpt>
      <trkpt lat="44.0437" lon="4.80818">
        <ele>30.680709</ele>
        <time>2021-09-16T08:50:39.000Z</time>
      </trkpt>
      <trkpt lat="44.04341" lon="4.80864">
        <ele>30.821178</ele>
        <time>2021-09-16T08:50:47.000Z</time>
      </trkpt>
      <trkpt lat="44.04309" lon="4.80916">
        <ele>30.981549</ele>
        <time>2021-09-16T08:50:56.000Z</time>
      </trkpt>
      <trkpt lat="44.04302" lon="4.80928">
        <ele>31.018709</ele>
        <time>2021-09-16T08:50:58.000Z</time>
      </trkpt>
      <trkpt lat="44.04295" lon="4.8094">
        <ele>31.053017</ele>
        <time>2021-09-16T08:51:00.000Z</time>
      </trkpt>
      <trkpt lat="44.04287" lon="4.8095">
        <ele>31.088169</ele>
        <time>2021-09-16T08:51:02.000Z</time>
      </trkpt>
      <trkpt lat="44.04272" lon="4.80972">
        <ele>31.135178</ele>
        <time>2021-09-16T08:51:06.000Z</time>
      </trkpt>
      <trkpt lat="44.04241" lon="4.81015">
        <ele>31.16061</ele>
        <time>2021-09-16T08:51:14.000Z</time>
      </trkpt>
      <trkpt lat="44.04213" lon="4.81054">
        <ele>31.183161</ele>
        <time>2021-09-16T08:51:21.000Z</time>
      </trkpt>
      <trkpt lat="44.04184" lon="4.8109">
        <ele>31.205305</ele>
        <time>2021-09-16T08:51:28.000Z</time>
      </trkpt>
      <trkpt lat="44.04152" lon="4.81132">
        <ele>31.230732</ele>
        <time>2021-09-16T08:51:36.000Z</time>
      </trkpt>
      <trkpt lat="44.04122" lon="4.81167">
        <ele>31.234796</ele>
        <time>2021-09-16T08:51:43.000Z</time>
      </trkpt>
      <trkpt lat="44.04091" lon="4.812">
        <ele>31.236195</ele>
        <time>2021-09-16T08:51:50.000Z</time>
      </trkpt>
      <trkpt lat="44.04061" lon="4.81233">
        <ele>31.237571</ele>
        <time>2021-09-16T08:51:57.000Z</time>
      </trkpt>
      <trkpt lat="44.04026" lon="4.8127">
        <ele>31.239183</ele>
        <time>2021-09-16T08:52:05.000Z</time>
      </trkpt>
      <trkpt lat="44.03992" lon="4.81298">
        <ele>31.27081</ele>
        <time>2021-09-16T08:52:12.000Z</time>
      </trkpt>
      <trkpt lat="44.03973" lon="4.81308">
        <ele>31.311657</ele>
        <time>2021-09-16T08:52:16.000Z</time>
      </trkpt>
      <trkpt lat="44.03968" lon="4.81311">
        <ele>31.321517</ele>
        <time>2021-09-16T08:52:17.000Z</time>
      </trkpt>
      <trkpt lat="44.03964" lon="4.81313">
        <ele>31.330902</ele>
        <time>2021-09-16T08:52:18.000Z</time>
      </trkpt>
      <trkpt lat="44.03941" lon="4.81326">
        <ele>31.380152</ele>
        <time>2021-09-16T08:52:23.000Z</time>
      </trkpt>
      <trkpt lat="44.03907" lon="4.8135">
        <ele>31.456516</ele>
        <time>2021-09-16T08:52:31.000Z</time>
      </trkpt>
      <trkpt lat="44.03879" lon="4.8137">
        <ele>31.518385</ele>
        <time>2021-09-16T08:52:37.000Z</time>
      </trkpt>
      <trkpt lat="44.03845" lon="4.81402">
        <ele>31.599339</ele>
        <time>2021-09-16T08:52:45.000Z</time>
      </trkpt>
      <trkpt lat="44.03812" lon="4.81433">
        <ele>31.609362</ele>
        <time>2021-09-16T08:52:53.000Z</time>
      </trkpt>
      <trkpt lat="44.03781" lon="4.81463">
        <ele>31.619043</ele>
        <time>2021-09-16T08:53:01.000Z</time>
      </trkpt>
      <trkpt lat="44.03752" lon="4.8149">
        <ele>31.627687</ele>
        <time>2021-09-16T08:53:08.000Z</time>
      </trkpt>
      <trkpt lat="44.03724" lon="4.81517">
        <ele>31.636258</ele>
        <time>2021-09-16T08:53:15.000Z</time>
      </trkpt>
      <trkpt lat="44.03686" lon="4.81554">
        <ele>31.613749</ele>
        <time>2021-09-16T08:53:24.000Z</time>
      </trkpt>
      <trkpt lat="44.0365" lon="4.81588">
        <ele>31.516718</ele>
        <time>2021-09-16T08:53:32.000Z</time>
      </trkpt>
      <trkpt lat="44.03619" lon="4.81617">
        <ele>31.434461</ele>
        <time>2021-09-16T08:53:39.000Z</time>
      </trkpt>
      <trkpt lat="44.0361" lon="4.81626">
        <ele>31.410477</ele>
        <time>2021-09-16T08:53:41.000Z</time>
      </trkpt>
      <trkpt lat="44.03592" lon="4.81643">
        <ele>31.36114</ele>
        <time>2021-09-16T08:53:45.000Z</time>
      </trkpt>
      <trkpt lat="44.03565" lon="4.8167">
        <ele>31.286909</ele>
        <time>2021-09-16T08:53:51.000Z</time>
      </trkpt>
      <trkpt lat="44.03524" lon="4.81711">
        <ele>30.827701</ele>
        <time>2021-09-16T08:54:00.000Z</time>
      </trkpt>
      <trkpt lat="44.03501" lon="4.81746">
        <ele>30.370188</ele>
        <time>2021-09-16T08:54:06.000Z</time>
      </trkpt>
      <trkpt lat="44.03487" lon="4.81769">
        <ele>30.083062</ele>
        <time>2021-09-16T08:54:10.000Z</time>
      </trkpt>
      <trkpt lat="44.03483" lon="4.81774">
        <ele>30.0144</ele>
        <time>2021-09-16T08:54:11.000Z</time>
      </trkpt>
      <trkpt lat="44.03475" lon="4.81789">
        <ele>29.833983</ele>
        <time>2021-09-16T08:54:14.000Z</time>
      </trkpt>
      <trkpt lat="44.03472" lon="4.81793">
        <ele>29.778537</ele>
        <time>2021-09-16T08:54:15.000Z</time>
      </trkpt>
      <trkpt lat="44.03469" lon="4.81797">
        <ele>29.725532</ele>
        <time>2021-09-16T08:54:16.000Z</time>
      </trkpt>
      <trkpt lat="44.03462" lon="4.81809">
        <ele>29.578645</ele>
        <time>2021-09-16T08:54:19.000Z</time>
      </trkpt>
      <trkpt lat="44.0346" lon="4.81813">
        <ele>29.522467</ele>
        <time>2021-09-16T08:54:20.000Z</time>
      </trkpt>
      <trkpt lat="44.03458" lon="4.81849">
        <ele>29.184767</ele>
        <time>2021-09-16T08:54:24.000Z</time>
      </trkpt>
      <trkpt lat="44.03435" lon="4.81864">
        <ele>28.843431</ele>
        <time>2021-09-16T08:54:29.000Z</time>
      </trkpt>
      <trkpt lat="44.03398" lon="4.81888">
        <ele>28.4485</ele>
        <time>2021-09-16T08:54:36.000Z</time>
      </trkpt>
      <trkpt lat="44.03348" lon="4.8192">
        <ele>27.914042</ele>
        <time>2021-09-16T08:54:45.000Z</time>
      </trkpt>
      <trkpt lat="44.03297" lon="4.81953">
        <ele>27.375497</ele>
        <time>2021-09-16T08:54:54.000Z</time>
      </trkpt>
      <trkpt lat="44.03292" lon="4.81956">
        <ele>27.317403</ele>
        <time>2021-09-16T08:54:55.000Z</time>
      </trkpt>
      <trkpt lat="44.03247" lon="4.81984">
        <ele>26.833812</ele>
        <time>2021-09-16T08:55:03.000Z</time>
      </trkpt>
      <trkpt lat="44.03198" lon="4.82014">
        <ele>26.306716</ele>
        <time>2021-09-16T08:55:12.000Z</time>
      </trkpt>
      <trkpt lat="44.03157" lon="4.82046">
        <ele>25.842994</ele>
        <time>2021-09-16T08:55:20.000Z</time>
      </trkpt>
      <trkpt lat="44.03135" lon="4.82067">
        <ele>25.577923</ele>
        <time>2021-09-16T08:55:25.000Z</time>
      </trkpt>
      <trkpt lat="44.03121" lon="4.82077">
        <ele>25.418333</ele>
        <time>2021-09-16T08:55:28.000Z</time>
      </trkpt>
      <trkpt lat="44.03109" lon="4.82082">
        <ele>25.256299</ele>
        <time>2021-09-16T08:55:30.000Z</time>
      </trkpt>
      <trkpt lat="44.03098" lon="4.82088">
        <ele>24.947169</ele>
        <time>2021-09-16T08:55:32.000Z</time>
      </trkpt>
      <trkpt lat="44.03087" lon="4.82093">
        <ele>24.661448</ele>
        <time>2021-09-16T08:55:34.000Z</time>
      </trkpt>
      <trkpt lat="44.03083" lon="4.82095">
        <ele>24.543198</ele>
        <time>2021-09-16T08:55:35.000Z</time>
      </trkpt>
      <trkpt lat="44.03058" lon="4.82107">
        <ele>23.864917</ele>
        <time>2021-09-16T08:55:40.000Z</time>
      </trkpt>
      <trkpt lat="44.03044" lon="4.8211">
        <ele>23.509574</ele>
        <time>2021-09-16T08:55:43.000Z</time>
      </trkpt>
      <trkpt lat="44.03028" lon="4.8211">
        <ele>23.100274</ele>
        <time>2021-09-16T08:55:46.000Z</time>
      </trkpt>
      <trkpt lat="44.03016" lon="4.82109">
        <ele>22.804446</ele>
        <time>2021-09-16T08:55:48.000Z</time>
      </trkpt>
      <trkpt lat="44.03004" lon="4.82109">
        <ele>22.504467</ele>
        <time>2021-09-16T08:55:50.000Z</time>
      </trkpt>
      <trkpt lat="44.02995" lon="4.82113">
        <ele>22.23971</ele>
        <time>2021-09-16T08:55:52.000Z</time>
      </trkpt>
      <trkpt lat="44.02984" lon="4.82119">
        <ele>21.9434</ele>
        <time>2021-09-16T08:55:54.000Z</time>
      </trkpt>
      <trkpt lat="44.02973" lon="4.82127">
        <ele>21.637441</ele>
        <time>2021-09-16T08:55:56.000Z</time>
      </trkpt>
      <trkpt lat="44.02966" lon="4.82138">
        <ele>21.363446</ele>
        <time>2021-09-16T08:55:58.000Z</time>
      </trkpt>
      <trkpt lat="44.0296" lon="4.82151">
        <ele>21.079728</ele>
        <time>2021-09-16T08:56:00.000Z</time>
      </trkpt>
      <trkpt lat="44.02956" lon="4.82158">
        <ele>20.923817</ele>
        <time>2021-09-16T08:56:01.000Z</time>
      </trkpt>
      <trkpt lat="44.02943" lon="4.82187">
        <ele>20.500108</ele>
        <time>2021-09-16T08:56:05.000Z</time>
      </trkpt>
      <trkpt lat="44.0293" lon="4.82206">
        <ele>20.248362</ele>
        <time>2021-09-16T08:56:08.000Z</time>
      </trkpt>
      <trkpt lat="44.02927" lon="4.82211">
        <ele>20.18483</ele>
        <time>2021-09-16T08:56:09.000Z</time>
      </trkpt>
      <trkpt lat="44.02911" lon="4.82236">
        <ele>19.863143</ele>
        <time>2021-09-16T08:56:13.000Z</time>
      </trkpt>
      <trkpt lat="44.02897" lon="4.8225">
        <ele>19.614659</ele>
        <time>2021-09-16T08:56:16.000Z</time>
      </trkpt>
      <trkpt lat="44.02882" lon="4.82262">
        <ele>19.382003</ele>
        <time>2021-09-16T08:56:19.000Z</time>
      </trkpt>
      <trkpt lat="44.02866" lon="4.82269">
        <ele>19.160798</ele>
        <time>2021-09-16T08:56:22.000Z</time>
      </trkpt>
      <trkpt lat="44.02862" lon="4.82271">
        <ele>19.094494</ele>
        <time>2021-09-16T08:56:23.000Z</time>
      </trkpt>
      <trkpt lat="44.02857" lon="4.82273">
        <ele>19.028189</ele>
        <time>2021-09-16T08:56:24.000Z</time>
      </trkpt>
      <trkpt lat="44.02844" lon="4.82279">
        <ele>18.829949</ele>
        <time>2021-09-16T08:56:27.000Z</time>
      </trkpt>
      <trkpt lat="44.02834" lon="4.82284">
        <ele>18.685702</ele>
        <time>2021-09-16T08:56:29.000Z</time>
      </trkpt>
      <trkpt lat="44.02823" lon="4.82289">
        <ele>18.536934</ele>
        <time>2021-09-16T08:56:31.000Z</time>
      </trkpt>
      <trkpt lat="44.02814" lon="4.82293">
        <ele>18.402082</ele>
        <time>2021-09-16T08:56:33.000Z</time>
      </trkpt>
      <trkpt lat="44.02805" lon="4.82298">
        <ele>18.27164</ele>
        <time>2021-09-16T08:56:35.000Z</time>
      </trkpt>
      <trkpt lat="44.02779" lon="4.8231">
        <ele>17.859428</ele>
        <time>2021-09-16T08:56:41.000Z</time>
      </trkpt>
      <trkpt lat="44.0276" lon="4.8232">
        <ele>17.56872</ele>
        <time>2021-09-16T08:56:45.000Z</time>
      </trkpt>
      <trkpt lat="44.02755" lon="4.82322">
        <ele>17.490734</ele>
        <time>2021-09-16T08:56:46.000Z</time>
      </trkpt>
      <trkpt lat="44.02737" lon="4.82331">
        <ele>17.209775</ele>
        <time>2021-09-16T08:56:50.000Z</time>
      </trkpt>
      <trkpt lat="44.02721" lon="4.82338">
        <ele>16.959802</ele>
        <time>2021-09-16T08:56:53.000Z</time>
      </trkpt>
      <trkpt lat="44.0271" lon="4.82344">
        <ele>16.789555</ele>
        <time>2021-09-16T08:56:55.000Z</time>
      </trkpt>
      <trkpt lat="44.02698" lon="4.82351">
        <ele>16.591844</ele>
        <time>2021-09-16T08:56:57.000Z</time>
      </trkpt>
      <trkpt lat="44.02691" lon="4.82355">
        <ele>16.486171</ele>
        <time>2021-09-16T08:56:58.000Z</time>
      </trkpt>
      <trkpt lat="44.02686" lon="4.82361">
        <ele>16.389039</ele>
        <time>2021-09-16T08:56:59.000Z</time>
      </trkpt>
      <trkpt lat="44.0268" lon="4.82371">
        <ele>16.248255</ele>
        <time>2021-09-16T08:57:01.000Z</time>
      </trkpt>
      <trkpt lat="44.02678" lon="4.82406">
        <ele>15.879097</ele>
        <time>2021-09-16T08:57:03.000Z</time>
      </trkpt>
      <trkpt lat="44.0268" lon="4.82421">
        <ele>15.708941</ele>
        <time>2021-09-16T08:57:05.000Z</time>
      </trkpt>
      <trkpt lat="44.02681" lon="4.82429">
        <ele>15.629885</ele>
        <time>2021-09-16T08:57:06.000Z</time>
      </trkpt>
      <trkpt lat="44.02685" lon="4.82454">
        <ele>15.385583</ele>
        <time>2021-09-16T08:57:09.000Z</time>
      </trkpt>
      <trkpt lat="44.02691" lon="4.82483">
        <ele>15.099415</ele>
        <time>2021-09-16T08:57:13.000Z</time>
      </trkpt>
      <trkpt lat="44.02694" lon="4.825">
        <ele>14.927649</ele>
        <time>2021-09-16T08:57:15.000Z</time>
      </trkpt>
      <trkpt lat="44.02698" lon="4.82521">
        <ele>14.722403</ele>
        <time>2021-09-16T08:57:18.000Z</time>
      </trkpt>
      <trkpt lat="44.027" lon="4.82535">
        <ele>14.582263</ele>
        <time>2021-09-16T08:57:20.000Z</time>
      </trkpt>
      <trkpt lat="44.02704" lon="4.82553">
        <ele>14.400573</ele>
        <time>2021-09-16T08:57:22.000Z</time>
      </trkpt>
      <trkpt lat="44.02706" lon="4.82566">
        <ele>14.274392</ele>
        <time>2021-09-16T08:57:24.000Z</time>
      </trkpt>
      <trkpt lat="44.02698" lon="4.82579">
        <ele>14.11183</ele>
        <time>2021-09-16T08:57:26.000Z</time>
      </trkpt>
      <trkpt lat="44.02681" lon="4.82587">
        <ele>13.865524</ele>
        <time>2021-09-16T08:57:30.000Z</time>
      </trkpt>
      <trkpt lat="44.02671" lon="4.8259">
        <ele>13.727637</ele>
        <time>2021-09-16T08:57:32.000Z</time>
      </trkpt>
      <trkpt lat="44.0265" lon="4.82598">
        <ele>13.444432</ele>
        <time>2021-09-16T08:57:36.000Z</time>
      </trkpt>
      <trkpt lat="44.02645" lon="4.826">
        <ele>13.371386</ele>
        <time>2021-09-16T08:57:37.000Z</time>
      </trkpt>
      <trkpt lat="44.0264" lon="4.82602">
        <ele>13.299624</ele>
        <time>2021-09-16T08:57:39.000Z</time>
      </trkpt>
      <trkpt lat="44.02623" lon="4.82609">
        <ele>13.382952</ele>
        <time>2021-09-16T08:57:41.000Z</time>
      </trkpt>
      <trkpt lat="44.02612" lon="4.82613">
        <ele>13.49501</ele>
        <time>2021-09-16T08:57:43.000Z</time>
      </trkpt>
      <trkpt lat="44.02596" lon="4.82619">
        <ele>13.658421</ele>
        <time>2021-09-16T08:57:46.000Z</time>
      </trkpt>
      <trkpt lat="44.02561" lon="4.82635">
        <ele>14.022047</ele>
        <time>2021-09-16T08:57:52.000Z</time>
      </trkpt>
      <trkpt lat="44.02549" lon="4.82641">
        <ele>14.142068</ele>
        <time>2021-09-16T08:57:54.000Z</time>
      </trkpt>
      <trkpt lat="44.02531" lon="4.8265">
        <ele>14.331818</ele>
        <time>2021-09-16T08:57:57.000Z</time>
      </trkpt>
      <trkpt lat="44.02526" lon="4.82654">
        <ele>14.396604</ele>
        <time>2021-09-16T08:57:58.000Z</time>
      </trkpt>
      <trkpt lat="44.02503" lon="4.8267">
        <ele>14.646742</ele>
        <time>2021-09-16T08:58:02.000Z</time>
      </trkpt>
      <trkpt lat="44.0247" lon="4.82694">
        <ele>15.018</ele>
        <time>2021-09-16T08:58:08.000Z</time>
      </trkpt>
      <trkpt lat="44.02443" lon="4.82723">
        <ele>15.390472</ele>
        <time>2021-09-16T08:58:14.000Z</time>
      </trkpt>
      <trkpt lat="44.02424" lon="4.82761">
        <ele>15.762103</ele>
        <time>2021-09-16T08:58:20.000Z</time>
      </trkpt>
      <trkpt lat="44.02418" lon="4.82775">
        <ele>15.890827</ele>
        <time>2021-09-16T08:58:22.000Z</time>
      </trkpt>
      <trkpt lat="44.02407" lon="4.82803">
        <ele>16.148276</ele>
        <time>2021-09-16T08:58:26.000Z</time>
      </trkpt>
      <trkpt lat="44.02401" lon="4.82818">
        <ele>16.281553</ele>
        <time>2021-09-16T08:58:28.000Z</time>
      </trkpt>
      <trkpt lat="44.02393" lon="4.82831">
        <ele>16.417245</ele>
        <time>2021-09-16T08:58:30.000Z</time>
      </trkpt>
      <trkpt lat="44.02371" lon="4.82862">
        <ele>16.761173</ele>
        <time>2021-09-16T08:58:35.000Z</time>
      </trkpt>
      <trkpt lat="44.0234" lon="4.82904">
        <ele>17.062625</ele>
        <time>2021-09-16T08:58:42.000Z</time>
      </trkpt>
      <trkpt lat="44.02334" lon="4.82907">
        <ele>17.074799</ele>
        <time>2021-09-16T08:58:43.000Z</time>
      </trkpt>
      <trkpt lat="44.02328" lon="4.82911">
        <ele>17.088306</ele>
        <time>2021-09-16T08:58:45.000Z</time>
      </trkpt>
      <trkpt lat="44.0228" lon="4.82915">
        <ele>17.189998</ele>
        <time>2021-09-16T08:58:52.000Z</time>
      </trkpt>
      <trkpt lat="44.02241" lon="4.8292">
        <ele>17.273161</ele>
        <time>2021-09-16T08:58:59.000Z</time>
      </trkpt>
      <trkpt lat="44.02229" lon="4.82922">
        <ele>17.297823</ele>
        <time>2021-09-16T08:59:01.000Z</time>
      </trkpt>
      <trkpt lat="44.02218" lon="4.82926">
        <ele>17.321818</ele>
        <time>2021-09-16T08:59:03.000Z</time>
      </trkpt>
      <trkpt lat="44.02209" lon="4.82937">
        <ele>17.34632</ele>
        <time>2021-09-16T08:59:05.000Z</time>
      </trkpt>
      <trkpt lat="44.02203" lon="4.82952">
        <ele>17.371962</ele>
        <time>2021-09-16T08:59:07.000Z</time>
      </trkpt>
      <trkpt lat="44.022" lon="4.82969">
        <ele>17.398804</ele>
        <time>2021-09-16T08:59:09.000Z</time>
      </trkpt>
      <trkpt lat="44.02196" lon="4.82994">
        <ele>17.451844</ele>
        <time>2021-09-16T08:59:12.000Z</time>
      </trkpt>
      <trkpt lat="44.02192" lon="4.8301">
        <ele>17.486458</ele>
        <time>2021-09-16T08:59:14.000Z</time>
      </trkpt>
      <trkpt lat="44.0219" lon="4.83017">
        <ele>17.502345</ele>
        <time>2021-09-16T08:59:15.000Z</time>
      </trkpt>
      <trkpt lat="44.02183" lon="4.83038">
        <ele>17.548247</ele>
        <time>2021-09-16T08:59:18.000Z</time>
      </trkpt>
      <trkpt lat="44.02173" lon="4.83066">
        <ele>17.610823</ele>
        <time>2021-09-16T08:59:22.000Z</time>
      </trkpt>
      <trkpt lat="44.02171" lon="4.83073">
        <ele>17.626108</ele>
        <time>2021-09-16T08:59:23.000Z</time>
      </trkpt>
      <trkpt lat="44.02159" lon="4.83101">
        <ele>17.692989</ele>
        <time>2021-09-16T08:59:27.000Z</time>
      </trkpt>
      <trkpt lat="44.02157" lon="4.83107">
        <ele>17.707031</ele>
        <time>2021-09-16T08:59:28.000Z</time>
      </trkpt>
      <trkpt lat="44.02145" lon="4.83136">
        <ele>17.773138</ele>
        <time>2021-09-16T08:59:32.000Z</time>
      </trkpt>
      <trkpt lat="44.02143" lon="4.83142">
        <ele>17.786859</ele>
        <time>2021-09-16T08:59:33.000Z</time>
      </trkpt>
      <trkpt lat="44.02142" lon="4.83149">
        <ele>17.801914</ele>
        <time>2021-09-16T08:59:34.000Z</time>
      </trkpt>
      <trkpt lat="44.02138" lon="4.83165">
        <ele>17.835072</ele>
        <time>2021-09-16T08:59:36.000Z</time>
      </trkpt>
      <trkpt lat="44.02136" lon="4.83174">
        <ele>17.854373</ele>
        <time>2021-09-16T08:59:37.000Z</time>
      </trkpt>
      <trkpt lat="44.02137" lon="4.83191">
        <ele>17.889664</ele>
        <time>2021-09-16T08:59:39.000Z</time>
      </trkpt>
      <trkpt lat="44.02138" lon="4.83217">
        <ele>18.051</ele>
        <time>2021-09-16T08:59:42.000Z</time>
      </trkpt>
      <trkpt lat="44.0214" lon="4.8326">
        <ele>18.381659</ele>
        <time>2021-09-16T08:59:47.000Z</time>
      </trkpt>
      <trkpt lat="44.0214" lon="4.83269">
        <ele>18.449886</ele>
        <time>2021-09-16T08:59:48.000Z</time>
      </trkpt>
      <trkpt lat="44.02143" lon="4.83333">
        <ele>18.939346</ele>
        <time>2021-09-16T08:59:55.000Z</time>
      </trkpt>
      <trkpt lat="44.02144" lon="4.83393">
        <ele>19.39671</ele>
        <time>2021-09-16T09:00:02.000Z</time>
      </trkpt>
      <trkpt lat="44.02143" lon="4.83439">
        <ele>19.749825</ele>
        <time>2021-09-16T09:00:08.000Z</time>
      </trkpt>
      <trkpt lat="44.02143" lon="4.83468">
        <ele>19.9768</ele>
        <time>2021-09-16T09:00:12.000Z</time>
      </trkpt>
      <trkpt lat="44.02143" lon="4.83475">
        <ele>20.032898</ele>
        <time>2021-09-16T09:00:13.000Z</time>
      </trkpt>
      <trkpt lat="44.02142" lon="4.83498">
        <ele>20.2178</ele>
        <time>2021-09-16T09:00:16.000Z</time>
      </trkpt>
      <trkpt lat="44.02144" lon="4.83506">
        <ele>20.279599</ele>
        <time>2021-09-16T09:00:17.000Z</time>
      </trkpt>
      <trkpt lat="44.02146" lon="4.83514">
        <ele>20.348737</ele>
        <time>2021-09-16T09:00:18.000Z</time>
      </trkpt>
      <trkpt lat="44.02155" lon="4.83547">
        <ele>20.628728</ele>
        <time>2021-09-16T09:00:22.000Z</time>
      </trkpt>
      <trkpt lat="44.02178" lon="4.83613">
        <ele>21.204319</ele>
        <time>2021-09-16T09:00:31.000Z</time>
      </trkpt>
      <trkpt lat="44.02184" lon="4.83633">
        <ele>21.374106</ele>
        <time>2021-09-16T09:00:34.000Z</time>
      </trkpt>
      <trkpt lat="44.02188" lon="4.83645">
        <ele>21.480486</ele>
        <time>2021-09-16T09:00:36.000Z</time>
      </trkpt>
      <trkpt lat="44.02197" lon="4.8367">
        <ele>21.698937</ele>
        <time>2021-09-16T09:00:40.000Z</time>
      </trkpt>
      <trkpt lat="44.02203" lon="4.83687">
        <ele>21.986891</ele>
        <time>2021-09-16T09:00:43.000Z</time>
      </trkpt>
      <trkpt lat="44.02212" lon="4.83714">
        <ele>22.80255</ele>
        <time>2021-09-16T09:00:47.000Z</time>
      </trkpt>
      <trkpt lat="44.02221" lon="4.83741">
        <ele>23.619829</ele>
        <time>2021-09-16T09:00:51.000Z</time>
      </trkpt>
      <trkpt lat="44.0223" lon="4.83769">
        <ele>24.457669</ele>
        <time>2021-09-16T09:00:55.000Z</time>
      </trkpt>
      <trkpt lat="44.02243" lon="4.83805">
        <ele>25.556959</ele>
        <time>2021-09-16T09:01:00.000Z</time>
      </trkpt>
      <trkpt lat="44.02247" lon="4.83818">
        <ele>25.947508</ele>
        <time>2021-09-16T09:01:02.000Z</time>
      </trkpt>
      <trkpt lat="44.02252" lon="4.83831">
        <ele>26.34053</ele>
        <time>2021-09-16T09:01:04.000Z</time>
      </trkpt>
      <trkpt lat="44.02256" lon="4.83844">
        <ele>26.733551</ele>
        <time>2021-09-16T09:01:06.000Z</time>
      </trkpt>
      <trkpt lat="44.0226" lon="4.83856">
        <ele>27.103541</ele>
        <time>2021-09-16T09:01:08.000Z</time>
      </trkpt>
      <trkpt lat="44.02265" lon="4.8387">
        <ele>27.512178</ele>
        <time>2021-09-16T09:01:10.000Z</time>
      </trkpt>
      <trkpt lat="44.02269" lon="4.83883">
        <ele>27.9192</ele>
        <time>2021-09-16T09:01:12.000Z</time>
      </trkpt>
      <trkpt lat="44.02273" lon="4.83895">
        <ele>28.280145</ele>
        <time>2021-09-16T09:01:14.000Z</time>
      </trkpt>
      <trkpt lat="44.02278" lon="4.83908">
        <ele>28.677536</ele>
        <time>2021-09-16T09:01:16.000Z</time>
      </trkpt>
      <trkpt lat="44.02285" lon="4.8393">
        <ele>29.382924</ele>
        <time>2021-09-16T09:01:19.000Z</time>
      </trkpt>
      <trkpt lat="44.02288" lon="4.83937">
        <ele>29.589025</ele>
        <time>2021-09-16T09:01:20.000Z</time>
      </trkpt>
      <trkpt lat="44.02294" lon="4.83956">
        <ele>30.211629</ele>
        <time>2021-09-16T09:01:23.000Z</time>
      </trkpt>
      <trkpt lat="44.023" lon="4.83973">
        <ele>30.72818</ele>
        <time>2021-09-16T09:01:25.000Z</time>
      </trkpt>
      <trkpt lat="44.02307" lon="4.83993">
        <ele>31.374942</ele>
        <time>2021-09-16T09:01:28.000Z</time>
      </trkpt>
      <trkpt lat="44.02315" lon="4.84016">
        <ele>32.111376</ele>
        <time>2021-09-16T09:01:32.000Z</time>
      </trkpt>
      <trkpt lat="44.02319" lon="4.84028">
        <ele>32.495119</ele>
        <time>2021-09-16T09:01:34.000Z</time>
      </trkpt>
      <trkpt lat="44.02324" lon="4.84043">
        <ele>32.968537</ele>
        <time>2021-09-16T09:01:36.000Z</time>
      </trkpt>
      <trkpt lat="44.02329" lon="4.84058">
        <ele>33.422983</ele>
        <time>2021-09-16T09:01:38.000Z</time>
      </trkpt>
      <trkpt lat="44.02335" lon="4.84077">
        <ele>34.029203</ele>
        <time>2021-09-16T09:01:41.000Z</time>
      </trkpt>
      <trkpt lat="44.02341" lon="4.84103">
        <ele>34.81926</ele>
        <time>2021-09-16T09:01:44.000Z</time>
      </trkpt>
      <trkpt lat="44.02342" lon="4.84112">
        <ele>35.093663</ele>
        <time>2021-09-16T09:01:45.000Z</time>
      </trkpt>
      <trkpt lat="44.02343" lon="4.84144">
        <ele>35.812482</ele>
        <time>2021-09-16T09:01:49.000Z</time>
      </trkpt>
      <trkpt lat="44.02343" lon="4.84151">
        <ele>35.811949</ele>
        <time>2021-09-16T09:01:50.000Z</time>
      </trkpt>
      <trkpt lat="44.02343" lon="4.84158">
        <ele>35.811424</ele>
        <time>2021-09-16T09:01:51.000Z</time>
      </trkpt>
      <trkpt lat="44.02344" lon="4.84181">
        <ele>35.80973</ele>
        <time>2021-09-16T09:01:54.000Z</time>
      </trkpt>
      <trkpt lat="44.02344" lon="4.84188">
        <ele>35.809219</ele>
        <time>2021-09-16T09:01:55.000Z</time>
      </trkpt>
      <trkpt lat="44.02345" lon="4.84214">
        <ele>35.80728</ele>
        <time>2021-09-16T09:01:58.000Z</time>
      </trkpt>
      <trkpt lat="44.02345" lon="4.84223">
        <ele>35.806636</ele>
        <time>2021-09-16T09:01:59.000Z</time>
      </trkpt>
      <trkpt lat="44.02342" lon="4.84248">
        <ele>35.804751</ele>
        <time>2021-09-16T09:02:02.000Z</time>
      </trkpt>
      <trkpt lat="44.0234" lon="4.84264">
        <ele>35.803517</ele>
        <time>2021-09-16T09:02:04.000Z</time>
      </trkpt>
      <trkpt lat="44.02338" lon="4.84286">
        <ele>35.801893</ele>
        <time>2021-09-16T09:02:07.000Z</time>
      </trkpt>
      <trkpt lat="44.02336" lon="4.84292">
        <ele>35.801382</ele>
        <time>2021-09-16T09:02:08.000Z</time>
      </trkpt>
      <trkpt lat="44.02326" lon="4.84307">
        <ele>35.799951</ele>
        <time>2021-09-16T09:02:11.000Z</time>
      </trkpt>
      <trkpt lat="44.02321" lon="4.84309">
        <ele>35.799323</ele>
        <time>2021-09-16T09:02:12.000Z</time>
      </trkpt>
      <trkpt lat="44.02297" lon="4.84318">
        <ele>35.796764</ele>
        <time>2021-09-16T09:02:16.000Z</time>
      </trkpt>
      <trkpt lat="44.02268" lon="4.84329">
        <ele>35.579648</ele>
        <time>2021-09-16T09:02:21.000Z</time>
      </trkpt>
      <trkpt lat="44.02252" lon="4.84335">
        <ele>35.039716</ele>
        <time>2021-09-16T09:02:24.000Z</time>
      </trkpt>
      <trkpt lat="44.02242" lon="4.84344">
        <ele>34.655344</ele>
        <time>2021-09-16T09:02:26.000Z</time>
      </trkpt>
      <trkpt lat="44.02238" lon="4.84366">
        <ele>34.152587</ele>
        <time>2021-09-16T09:02:28.000Z</time>
      </trkpt>
      <trkpt lat="44.0224" lon="4.84373">
        <ele>33.967528</ele>
        <time>2021-09-16T09:02:29.000Z</time>
      </trkpt>
      <trkpt lat="44.02256" lon="4.84447">
        <ele>32.185004</ele>
        <time>2021-09-16T09:02:39.000Z</time>
      </trkpt>
      <trkpt lat="44.02263" lon="4.8448">
        <ele>31.397093</ele>
        <time>2021-09-16T09:02:44.000Z</time>
      </trkpt>
      <trkpt lat="44.02266" lon="4.84493">
        <ele>31.099429</ele>
        <time>2021-09-16T09:02:48.000Z</time>
      </trkpt>
      <trkpt lat="44.02267" lon="4.84497">
        <ele>30.984842</ele>
        <time>2021-09-16T09:02:53.000Z</time>
      </trkpt>
      <trkpt lat="44.0227" lon="4.84504">
        <ele>30.820461</ele>
        <time>2021-09-16T09:03:01.000Z</time>
      </trkpt>
      <trkpt lat="44.02271" lon="4.84508">
        <ele>30.703674</ele>
        <time>2021-09-16T09:03:03.000Z</time>
      </trkpt>
      <trkpt lat="44.02278" lon="4.84525">
        <ele>30.268731</ele>
        <time>2021-09-16T09:03:08.000Z</time>
      </trkpt>
      <trkpt lat="44.02283" lon="4.84555">
        <ele>29.858233</ele>
        <time>2021-09-16T09:03:14.000Z</time>
      </trkpt>
      <trkpt lat="44.02283" lon="4.84561">
        <ele>29.804508</ele>
        <time>2021-09-16T09:03:15.000Z</time>
      </trkpt>
      <trkpt lat="44.02283" lon="4.84573">
        <ele>29.70146</ele>
        <time>2021-09-16T09:03:17.000Z</time>
      </trkpt>
      <trkpt lat="44.02282" lon="4.84578">
        <ele>29.652972</ele>
        <time>2021-09-16T09:03:18.000Z</time>
      </trkpt>
      <trkpt lat="44.02279" lon="4.84583">
        <ele>29.600772</ele>
        <time>2021-09-16T09:03:19.000Z</time>
      </trkpt>
      <trkpt lat="44.02274" lon="4.84592">
        <ele>29.492664</ele>
        <time>2021-09-16T09:03:21.000Z</time>
      </trkpt>
      <trkpt lat="44.0227" lon="4.84596">
        <ele>29.438681</ele>
        <time>2021-09-16T09:03:22.000Z</time>
      </trkpt>
      <trkpt lat="44.02241" lon="4.84618">
        <ele>29.029916</ele>
        <time>2021-09-16T09:03:29.000Z</time>
      </trkpt>
      <trkpt lat="44.02201" lon="4.84646">
        <ele>28.487369</ele>
        <time>2021-09-16T09:03:37.000Z</time>
      </trkpt>
      <trkpt lat="44.02155" lon="4.84678">
        <ele>27.854002</ele>
        <time>2021-09-16T09:03:46.000Z</time>
      </trkpt>
      <trkpt lat="44.02114" lon="4.84705">
        <ele>27.672758</ele>
        <time>2021-09-16T09:03:54.000Z</time>
      </trkpt>
      <trkpt lat="44.02062" lon="4.84739">
        <ele>27.447606</ele>
        <time>2021-09-16T09:04:04.000Z</time>
      </trkpt>
      <trkpt lat="44.02057" lon="4.84742">
        <ele>27.425185</ele>
        <time>2021-09-16T09:04:05.000Z</time>
      </trkpt>
      <trkpt lat="44.02022" lon="4.84771">
        <ele>27.268505</ele>
        <time>2021-09-16T09:04:12.000Z</time>
      </trkpt>
      <trkpt lat="44.02017" lon="4.84775">
        <ele>27.245856</ele>
        <time>2021-09-16T09:04:13.000Z</time>
      </trkpt>
      <trkpt lat="44.01969" lon="4.84815">
        <ele>27.027083</ele>
        <time>2021-09-16T09:04:23.000Z</time>
      </trkpt>
      <trkpt lat="44.0193" lon="4.84847">
        <ele>26.853205</ele>
        <time>2021-09-16T09:04:31.000Z</time>
      </trkpt>
      <trkpt lat="44.01887" lon="4.84886">
        <ele>26.653802</ele>
        <time>2021-09-16T09:04:40.000Z</time>
      </trkpt>
      <trkpt lat="44.01854" lon="4.84918">
        <ele>26.499371</ele>
        <time>2021-09-16T09:04:47.000Z</time>
      </trkpt>
      <trkpt lat="44.01817" lon="4.84955">
        <ele>26.278269</ele>
        <time>2021-09-16T09:04:55.000Z</time>
      </trkpt>
      <trkpt lat="44.01793" lon="4.84979">
        <ele>26.120888</ele>
        <time>2021-09-16T09:05:00.000Z</time>
      </trkpt>
      <trkpt lat="44.01783" lon="4.84989">
        <ele>26.056126</ele>
        <time>2021-09-16T09:05:02.000Z</time>
      </trkpt>
      <trkpt lat="44.01748" lon="4.85023">
        <ele>25.831174</ele>
        <time>2021-09-16T09:05:09.000Z</time>
      </trkpt>
      <trkpt lat="44.01708" lon="4.85065">
        <ele>25.568794</ele>
        <time>2021-09-16T09:05:17.000Z</time>
      </trkpt>
      <trkpt lat="44.01679" lon="4.85094">
        <ele>25.427869</ele>
        <time>2021-09-16T09:05:23.000Z</time>
      </trkpt>
      <trkpt lat="44.01645" lon="4.85129">
        <ele>25.291386</ele>
        <time>2021-09-16T09:05:30.000Z</time>
      </trkpt>
      <trkpt lat="44.01618" lon="4.85154">
        <ele>25.188871</ele>
        <time>2021-09-16T09:05:36.000Z</time>
      </trkpt>
      <trkpt lat="44.01587" lon="4.85183">
        <ele>25.066407</ele>
        <time>2021-09-16T09:05:43.000Z</time>
      </trkpt>
      <trkpt lat="44.01554" lon="4.85217">
        <ele>24.936637</ele>
        <time>2021-09-16T09:05:50.000Z</time>
      </trkpt>
      <trkpt lat="44.01525" lon="4.8525">
        <ele>25.034306</ele>
        <time>2021-09-16T09:05:57.000Z</time>
      </trkpt>
      <trkpt lat="44.01495" lon="4.85299">
        <ele>25.18818</ele>
        <time>2021-09-16T09:06:06.000Z</time>
      </trkpt>
      <trkpt lat="44.01479" lon="4.85346">
        <ele>25.310345</ele>
        <time>2021-09-16T09:06:13.000Z</time>
      </trkpt>
      <trkpt lat="44.01469" lon="4.85402">
        <ele>25.447551</ele>
        <time>2021-09-16T09:06:21.000Z</time>
      </trkpt>
      <trkpt lat="44.01467" lon="4.85441">
        <ele>25.50671</ele>
        <time>2021-09-16T09:06:26.000Z</time>
      </trkpt>
      <trkpt lat="44.0147" lon="4.85498">
        <ele>25.456815</ele>
        <time>2021-09-16T09:06:33.000Z</time>
      </trkpt>
      <trkpt lat="44.01476" lon="4.85568">
        <ele>25.394106</ele>
        <time>2021-09-16T09:06:42.000Z</time>
      </trkpt>
      <trkpt lat="44.01483" lon="4.85641">
        <ele>25.32939</ele>
        <time>2021-09-16T09:06:51.000Z</time>
      </trkpt>
      <trkpt lat="44.01488" lon="4.85704">
        <ele>25.277589</ele>
        <time>2021-09-16T09:06:59.000Z</time>
      </trkpt>
      <trkpt lat="44.01492" lon="4.85755">
        <ele>25.240153</ele>
        <time>2021-09-16T09:07:06.000Z</time>
      </trkpt>
      <trkpt lat="44.01498" lon="4.85804">
        <ele>25.204584</ele>
        <time>2021-09-16T09:07:13.000Z</time>
      </trkpt>
      <trkpt lat="44.01503" lon="4.85848">
        <ele>25.172428</ele>
        <time>2021-09-16T09:07:19.000Z</time>
      </trkpt>
      <trkpt lat="44.0151" lon="4.859">
        <ele>25.134222</ele>
        <time>2021-09-16T09:07:26.000Z</time>
      </trkpt>
      <trkpt lat="44.01517" lon="4.8596">
        <ele>25.274892</ele>
        <time>2021-09-16T09:07:34.000Z</time>
      </trkpt>
      <trkpt lat="44.0152" lon="4.85985">
        <ele>25.392923</ele>
        <time>2021-09-16T09:07:38.000Z</time>
      </trkpt>
      <trkpt lat="44.01519" lon="4.85996">
        <ele>25.442966</ele>
        <time>2021-09-16T09:07:40.000Z</time>
      </trkpt>
      <trkpt lat="44.01514" lon="4.86017">
        <ele>25.545209</ele>
        <time>2021-09-16T09:07:43.000Z</time>
      </trkpt>
      <trkpt lat="44.01508" lon="4.86028">
        <ele>25.608561</ele>
        <time>2021-09-16T09:07:45.000Z</time>
      </trkpt>
      <trkpt lat="44.01505" lon="4.86033">
        <ele>25.641186</ele>
        <time>2021-09-16T09:07:46.000Z</time>
      </trkpt>
      <trkpt lat="44.01491" lon="4.86068">
        <ele>25.830007</ele>
        <time>2021-09-16T09:07:52.000Z</time>
      </trkpt>
      <trkpt lat="44.01489" lon="4.86074">
        <ele>25.861477</ele>
        <time>2021-09-16T09:07:53.000Z</time>
      </trkpt>
      <trkpt lat="44.01487" lon="4.8608">
        <ele>25.891955</ele>
        <time>2021-09-16T09:07:54.000Z</time>
      </trkpt>
      <trkpt lat="44.0148" lon="4.86114">
        <ele>26.057031</ele>
        <time>2021-09-16T09:07:59.000Z</time>
      </trkpt>
      <trkpt lat="44.01475" lon="4.86171">
        <ele>26.309762</ele>
        <time>2021-09-16T09:08:07.000Z</time>
      </trkpt>
      <trkpt lat="44.01473" lon="4.86236">
        <ele>26.516423</ele>
        <time>2021-09-16T09:08:16.000Z</time>
      </trkpt>
      <trkpt lat="44.01472" lon="4.86292">
        <ele>26.695919</ele>
        <time>2021-09-16T09:08:24.000Z</time>
      </trkpt>
      <trkpt lat="44.01469" lon="4.86359">
        <ele>26.906986</ele>
        <time>2021-09-16T09:08:33.000Z</time>
      </trkpt>
      <trkpt lat="44.01464" lon="4.86414">
        <ele>27.077468</ele>
        <time>2021-09-16T09:08:40.000Z</time>
      </trkpt>
      <trkpt lat="44.0146" lon="4.86469">
        <ele>27.113131</ele>
        <time>2021-09-16T09:08:47.000Z</time>
      </trkpt>
      <trkpt lat="44.0146" lon="4.86515">
        <ele>27.143208</ele>
        <time>2021-09-16T09:08:53.000Z</time>
      </trkpt>
      <trkpt lat="44.01463" lon="4.86536">
        <ele>27.157217</ele>
        <time>2021-09-16T09:08:56.000Z</time>
      </trkpt>
      <trkpt lat="44.01465" lon="4.8656">
        <ele>27.172373</ele>
        <time>2021-09-16T09:08:59.000Z</time>
      </trkpt>
      <trkpt lat="44.01466" lon="4.86575">
        <ele>27.18241</ele>
        <time>2021-09-16T09:09:01.000Z</time>
      </trkpt>
      <trkpt lat="44.01467" lon="4.86599">
        <ele>27.197803</ele>
        <time>2021-09-16T09:09:04.000Z</time>
      </trkpt>
      <trkpt lat="44.01463" lon="4.86657">
        <ele>27.235256</ele>
        <time>2021-09-16T09:09:11.000Z</time>
      </trkpt>
      <trkpt lat="44.01459" lon="4.86693">
        <ele>27.235055</ele>
        <time>2021-09-16T09:09:16.000Z</time>
      </trkpt>
      <trkpt lat="44.01455" lon="4.86711">
        <ele>27.233489</ele>
        <time>2021-09-16T09:09:17.000Z</time>
      </trkpt>
      <trkpt lat="44.01447" lon="4.86751">
        <ele>27.229933</ele>
        <time>2021-09-16T09:09:22.000Z</time>
      </trkpt>
      <trkpt lat="44.01436" lon="4.86804">
        <ele>27.225282</ele>
        <time>2021-09-16T09:09:28.000Z</time>
      </trkpt>
      <trkpt lat="44.01422" lon="4.86852">
        <ele>27.220908</ele>
        <time>2021-09-16T09:09:34.000Z</time>
      </trkpt>
      <trkpt lat="44.0142" lon="4.8686">
        <ele>27.220201</ele>
        <time>2021-09-16T09:09:35.000Z</time>
      </trkpt>
      <trkpt lat="44.01414" lon="4.86883">
        <ele>27.218142</ele>
        <time>2021-09-16T09:09:38.000Z</time>
      </trkpt>
      <trkpt lat="44.01401" lon="4.86926">
        <ele>27.209532</ele>
        <time>2021-09-16T09:09:44.000Z</time>
      </trkpt>
      <trkpt lat="44.01385" lon="4.86976">
        <ele>27.195951</ele>
        <time>2021-09-16T09:09:51.000Z</time>
      </trkpt>
      <trkpt lat="44.01378" lon="4.86995">
        <ele>27.190653</ele>
        <time>2021-09-16T09:09:54.000Z</time>
      </trkpt>
      <trkpt lat="44.01372" lon="4.87013">
        <ele>27.185617</ele>
        <time>2021-09-16T09:09:57.000Z</time>
      </trkpt>
      <trkpt lat="44.01371" lon="4.8702">
        <ele>27.183962</ele>
        <time>2021-09-16T09:09:59.000Z</time>
      </trkpt>
      <trkpt lat="44.01368" lon="4.87048">
        <ele>27.176922</ele>
        <time>2021-09-16T09:10:03.000Z</time>
      </trkpt>
      <trkpt lat="44.0137" lon="4.87075">
        <ele>27.170216</ele>
        <time>2021-09-16T09:10:08.000Z</time>
      </trkpt>
      <trkpt lat="44.01371" lon="4.87082">
        <ele>27.168419</ele>
        <time>2021-09-16T09:10:13.000Z</time>
      </trkpt>
      <trkpt lat="44.01371" lon="4.87083">
        <ele>27.168114</ele>
        <time>2021-09-16T09:10:25.000Z</time>
      </trkpt>
      <trkpt lat="44.01372" lon="4.87088">
        <ele>27.166878</ele>
        <time>2021-09-16T09:10:27.000Z</time>
      </trkpt>
      <trkpt lat="44.01374" lon="4.87093">
        <ele>27.165374</ele>
        <time>2021-09-16T09:10:30.000Z</time>
      </trkpt>
      <trkpt lat="44.01379" lon="4.87104">
        <ele>27.162098</ele>
        <time>2021-09-16T09:10:34.000Z</time>
      </trkpt>
      <trkpt lat="44.01385" lon="4.87125">
        <ele>27.156765</ele>
        <time>2021-09-16T09:10:38.000Z</time>
      </trkpt>
      <trkpt lat="44.01386" lon="4.87143">
        <ele>27.115881</ele>
        <time>2021-09-16T09:10:41.000Z</time>
      </trkpt>
      <trkpt lat="44.01363" lon="4.87169">
        <ele>26.965466</ele>
        <time>2021-09-16T09:10:48.000Z</time>
      </trkpt>
      <trkpt lat="44.01343" lon="4.87184">
        <ele>26.848994</ele>
        <time>2021-09-16T09:10:54.000Z</time>
      </trkpt>
      <trkpt lat="44.01328" lon="4.8719">
        <ele>26.771358</ele>
        <time>2021-09-16T09:10:59.000Z</time>
      </trkpt>
      <trkpt lat="44.0131" lon="4.87186">
        <ele>26.679452</ele>
        <time>2021-09-16T09:11:03.000Z</time>
      </trkpt>
      <trkpt lat="44.01284" lon="4.87178">
        <ele>26.542984</ele>
        <time>2021-09-16T09:11:08.000Z</time>
      </trkpt>
      <trkpt lat="44.01236" lon="4.87163">
        <ele>26.295032</ele>
        <time>2021-09-16T09:11:16.000Z</time>
      </trkpt>
      <trkpt lat="44.01196" lon="4.87151">
        <ele>26.195738</ele>
        <time>2021-09-16T09:11:23.000Z</time>
      </trkpt>
      <trkpt lat="44.01185" lon="4.87147">
        <ele>26.178469</ele>
        <time>2021-09-16T09:11:25.000Z</time>
      </trkpt>
      <trkpt lat="44.01174" lon="4.87144">
        <ele>26.161665</ele>
        <time>2021-09-16T09:11:27.000Z</time>
      </trkpt>
      <trkpt lat="44.01132" lon="4.87132">
        <ele>26.097201</ele>
        <time>2021-09-16T09:11:34.000Z</time>
      </trkpt>
      <trkpt lat="44.01108" lon="4.87125">
        <ele>26.059627</ele>
        <time>2021-09-16T09:11:38.000Z</time>
      </trkpt>
      <trkpt lat="44.01096" lon="4.87121">
        <ele>26.040863</ele>
        <time>2021-09-16T09:11:40.000Z</time>
      </trkpt>
      <trkpt lat="44.01052" lon="4.8711">
        <ele>25.973086</ele>
        <time>2021-09-16T09:11:47.000Z</time>
      </trkpt>
      <trkpt lat="44.01015" lon="4.87113">
        <ele>26.096225</ele>
        <time>2021-09-16T09:11:53.000Z</time>
      </trkpt>
      <trkpt lat="44.01008" lon="4.87122">
        <ele>26.128627</ele>
        <time>2021-09-16T09:11:55.000Z</time>
      </trkpt>
      <trkpt lat="44.01005" lon="4.87137">
        <ele>26.170218</ele>
        <time>2021-09-16T09:11:58.000Z</time>
      </trkpt>
      <trkpt lat="44.01003" lon="4.87144">
        <ele>26.189139</ele>
        <time>2021-09-16T09:11:59.000Z</time>
      </trkpt>
      <trkpt lat="44.01001" lon="4.87158">
        <ele>26.227378</ele>
        <time>2021-09-16T09:12:02.000Z</time>
      </trkpt>
      <trkpt lat="44.00997" lon="4.87182">
        <ele>26.288965</ele>
        <time>2021-09-16T09:12:04.000Z</time>
      </trkpt>
      <trkpt lat="44.00994" lon="4.87221">
        <ele>26.391234</ele>
        <time>2021-09-16T09:12:09.000Z</time>
      </trkpt>
      <trkpt lat="44.00994" lon="4.87228">
        <ele>26.409753</ele>
        <time>2021-09-16T09:12:10.000Z</time>
      </trkpt>
      <trkpt lat="44.00989" lon="4.87248">
        <ele>26.463901</ele>
        <time>2021-09-16T09:12:13.000Z</time>
      </trkpt>
      <trkpt lat="44.00984" lon="4.8726">
        <ele>26.501267</ele>
        <time>2021-09-16T09:12:15.000Z</time>
      </trkpt>
      <trkpt lat="44.0098" lon="4.87264">
        <ele>26.517546</ele>
        <time>2021-09-16T09:12:16.000Z</time>
      </trkpt>
      <trkpt lat="44.00973" lon="4.87271">
        <ele>26.549516</ele>
        <time>2021-09-16T09:12:18.000Z</time>
      </trkpt>
      <trkpt lat="44.00967" lon="4.87276">
        <ele>26.575423</ele>
        <time>2021-09-16T09:12:20.000Z</time>
      </trkpt>
      <trkpt lat="44.00957" lon="4.87285">
        <ele>26.617468</ele>
        <time>2021-09-16T09:12:26.000Z</time>
      </trkpt>
      <trkpt lat="44.00941" lon="4.87299">
        <ele>26.769387</ele>
        <time>2021-09-16T09:12:31.000Z</time>
      </trkpt>
      <trkpt lat="44.00932" lon="4.87306">
        <ele>26.857729</ele>
        <time>2021-09-16T09:12:34.000Z</time>
      </trkpt>
      <trkpt lat="44.00927" lon="4.87308">
        <ele>26.90012</ele>
        <time>2021-09-16T09:12:35.000Z</time>
      </trkpt>
      <trkpt lat="44.00922" lon="4.87307">
        <ele>26.940301</ele>
        <time>2021-09-16T09:12:36.000Z</time>
      </trkpt>
      <trkpt lat="44.00913" lon="4.87301">
        <ele>27.020353</ele>
        <time>2021-09-16T09:12:38.000Z</time>
      </trkpt>
      <trkpt lat="44.00887" lon="4.87272">
        <ele>27.294694</ele>
        <time>2021-09-16T09:12:46.000Z</time>
      </trkpt>
      <trkpt lat="44.00875" lon="4.8726">
        <ele>27.412902</ele>
        <time>2021-09-16T09:12:48.000Z</time>
      </trkpt>
      <trkpt lat="44.00869" lon="4.87263">
        <ele>27.468524</ele>
        <time>2021-09-16T09:12:49.000Z</time>
      </trkpt>
      <trkpt lat="44.00866" lon="4.87267">
        <ele>27.505916</ele>
        <time>2021-09-16T09:12:50.000Z</time>
      </trkpt>
      <trkpt lat="44.00866" lon="4.87267">
        <ele>27.505916</ele>
        <time>2021-09-16T09:12:52.000Z</time>
      </trkpt>
      <trkpt lat="44.00849" lon="4.87275">
        <ele>27.651918</ele>
        <time>2021-09-16T09:12:54.000Z</time>
      </trkpt>
      <trkpt lat="44.00831" lon="4.87273">
        <ele>27.798172</ele>
        <time>2021-09-16T09:12:59.000Z</time>
      </trkpt>
      <trkpt lat="44.00804" lon="4.87267">
        <ele>28.01927</ele>
        <time>2021-09-16T09:13:06.000Z</time>
      </trkpt>
      <trkpt lat="44.00788" lon="4.87263">
        <ele>28.13529</ele>
        <time>2021-09-16T09:13:10.000Z</time>
      </trkpt>
      <trkpt lat="44.0078" lon="4.87262">
        <ele>28.18049</ele>
        <time>2021-09-16T09:13:12.000Z</time>
      </trkpt>
      <trkpt lat="44.00764" lon="4.87258">
        <ele>28.268531</ele>
        <time>2021-09-16T09:13:17.000Z</time>
      </trkpt>
      <trkpt lat="44.00757" lon="4.87256">
        <ele>28.313667</ele>
        <time>2021-09-16T09:13:18.000Z</time>
      </trkpt>
      <trkpt lat="44.0075" lon="4.87264">
        <ele>28.362174</ele>
        <time>2021-09-16T09:13:20.000Z</time>
      </trkpt>
      <trkpt lat="44.00748" lon="4.87269">
        <ele>28.386952</ele>
        <time>2021-09-16T09:13:21.000Z</time>
      </trkpt>
      <trkpt lat="44.00731" lon="4.87309">
        <ele>28.574526</ele>
        <time>2021-09-16T09:13:28.000Z</time>
      </trkpt>
      <trkpt lat="44.00726" lon="4.87321">
        <ele>28.630781</ele>
        <time>2021-09-16T09:13:30.000Z</time>
      </trkpt>
      <trkpt lat="44.00724" lon="4.87334">
        <ele>28.684966</ele>
        <time>2021-09-16T09:13:32.000Z</time>
      </trkpt>
      <trkpt lat="44.00734" lon="4.87352">
        <ele>28.777975</ele>
        <time>2021-09-16T09:13:36.000Z</time>
      </trkpt>
      <trkpt lat="44.00741" lon="4.87365">
        <ele>28.842953</ele>
        <time>2021-09-16T09:13:37.000Z</time>
      </trkpt>
      <trkpt lat="44.00755" lon="4.8739">
        <ele>28.9696</ele>
        <time>2021-09-16T09:13:41.000Z</time>
      </trkpt>
      <trkpt lat="44.00776" lon="4.87427">
        <ele>29.170288</ele>
        <time>2021-09-16T09:13:47.000Z</time>
      </trkpt>
      <trkpt lat="44.00783" lon="4.8744">
        <ele>29.245469</ele>
        <time>2021-09-16T09:13:49.000Z</time>
      </trkpt>
      <trkpt lat="44.00778" lon="4.87454">
        <ele>29.314112</ele>
        <time>2021-09-16T09:13:51.000Z</time>
      </trkpt>
      <trkpt lat="44.00774" lon="4.87458">
        <ele>29.350141</ele>
        <time>2021-09-16T09:13:52.000Z</time>
      </trkpt>
      <trkpt lat="44.00741" lon="4.87492">
        <ele>29.607591</ele>
        <time>2021-09-16T09:13:59.000Z</time>
      </trkpt>
      <trkpt lat="44.00733" lon="4.87501">
        <ele>29.678074</ele>
        <time>2021-09-16T09:14:01.000Z</time>
      </trkpt>
      <trkpt lat="44.00724" lon="4.8751">
        <ele>29.748254</ele>
        <time>2021-09-16T09:14:04.000Z</time>
      </trkpt>
      <trkpt lat="44.00691" lon="4.87542">
        <ele>30.004498</ele>
        <time>2021-09-16T09:14:10.000Z</time>
      </trkpt>
      <trkpt lat="44.00651" lon="4.87583">
        <ele>30.254749</ele>
        <time>2021-09-16T09:14:18.000Z</time>
      </trkpt>
      <trkpt lat="44.00621" lon="4.87612">
        <ele>30.249792</ele>
        <time>2021-09-16T09:14:23.000Z</time>
      </trkpt>
      <trkpt lat="44.00608" lon="4.87626">
        <ele>30.247601</ele>
        <time>2021-09-16T09:14:25.000Z</time>
      </trkpt>
      <trkpt lat="44.00582" lon="4.8764">
        <ele>30.243802</ele>
        <time>2021-09-16T09:14:29.000Z</time>
      </trkpt>
      <trkpt lat="44.00576" lon="4.87642">
        <ele>30.24301</ele>
        <time>2021-09-16T09:14:31.000Z</time>
      </trkpt>
      <trkpt lat="44.00571" lon="4.87645">
        <ele>30.242196</ele>
        <time>2021-09-16T09:14:33.000Z</time>
      </trkpt>
      <trkpt lat="44.00561" lon="4.87651">
        <ele>30.240774</ele>
        <time>2021-09-16T09:14:38.000Z</time>
      </trkpt>
      <trkpt lat="44.00533" lon="4.87663">
        <ele>30.236762</ele>
        <time>2021-09-16T09:14:40.000Z</time>
      </trkpt>
      <trkpt lat="44.00502" lon="4.87676">
        <ele>30.232436</ele>
        <time>2021-09-16T09:14:45.000Z</time>
      </trkpt>
      <trkpt lat="44.00491" lon="4.87681">
        <ele>30.160766</ele>
        <time>2021-09-16T09:14:48.000Z</time>
      </trkpt>
      <trkpt lat="44.0048" lon="4.87682">
        <ele>30.056494</ele>
        <time>2021-09-16T09:14:49.000Z</time>
      </trkpt>
      <trkpt lat="44.00463" lon="4.87693">
        <ele>29.868342</ele>
        <time>2021-09-16T09:14:52.000Z</time>
      </trkpt>
      <trkpt lat="44.00457" lon="4.87695">
        <ele>29.808184</ele>
        <time>2021-09-16T09:14:54.000Z</time>
      </trkpt>
      <trkpt lat="44.00417" lon="4.87712">
        <ele>29.394754</ele>
        <time>2021-09-16T09:15:00.000Z</time>
      </trkpt>
      <trkpt lat="44.00386" lon="4.87723">
        <ele>29.082212</ele>
        <time>2021-09-16T09:15:05.000Z</time>
      </trkpt>
      <trkpt lat="44.00369" lon="4.87729">
        <ele>28.901574</ele>
        <time>2021-09-16T09:15:09.000Z</time>
      </trkpt>
      <trkpt lat="44.00325" lon="4.87741">
        <ele>28.466275</ele>
        <time>2021-09-16T09:15:15.000Z</time>
      </trkpt>
      <trkpt lat="44.0028" lon="4.87753">
        <ele>28.432341</ele>
        <time>2021-09-16T09:15:22.000Z</time>
      </trkpt>
      <trkpt lat="44.0028" lon="4.87753">
        <ele>28.432341</ele>
        <time>2021-09-16T09:15:24.000Z</time>
      </trkpt>
      <trkpt lat="44.00255" lon="4.87747">
        <ele>28.418524</ele>
        <time>2021-09-16T09:15:26.000Z</time>
      </trkpt>
      <trkpt lat="44.00255" lon="4.87747">
        <ele>28.418524</ele>
        <time>2021-09-16T09:15:28.000Z</time>
      </trkpt>
      <trkpt lat="44.00225" lon="4.87729">
        <ele>28.401278</ele>
        <time>2021-09-16T09:15:31.000Z</time>
      </trkpt>
      <trkpt lat="44.00215" lon="4.8772">
        <ele>28.394791</ele>
        <time>2021-09-16T09:15:33.000Z</time>
      </trkpt>
      <trkpt lat="44.00211" lon="4.87713">
        <ele>28.391365</ele>
        <time>2021-09-16T09:15:34.000Z</time>
      </trkpt>
      <trkpt lat="44.00183" lon="4.87663">
        <ele>28.367281</ele>
        <time>2021-09-16T09:15:41.000Z</time>
      </trkpt>
      <trkpt lat="44.00151" lon="4.87604">
        <ele>28.475167</ele>
        <time>2021-09-16T09:15:49.000Z</time>
      </trkpt>
      <trkpt lat="44.00123" lon="4.87553">
        <ele>28.60732</ele>
        <time>2021-09-16T09:15:56.000Z</time>
      </trkpt>
      <trkpt lat="44.00089" lon="4.87492">
        <ele>28.765698</ele>
        <time>2021-09-16T09:16:04.000Z</time>
      </trkpt>
      <trkpt lat="44.0008" lon="4.87477">
        <ele>28.805002</ele>
        <time>2021-09-16T09:16:06.000Z</time>
      </trkpt>
      <trkpt lat="44.00052" lon="4.87435">
        <ele>28.87508</ele>
        <time>2021-09-16T09:16:12.000Z</time>
      </trkpt>
      <trkpt lat="44.00035" lon="4.87421">
        <ele>28.877461</ele>
        <time>2021-09-16T09:16:16.000Z</time>
      </trkpt>
      <trkpt lat="44.00021" lon="4.87417">
        <ele>28.879222</ele>
        <time>2021-09-16T09:16:17.000Z</time>
      </trkpt>
      <trkpt lat="44.00014" lon="4.87418">
        <ele>28.880072</ele>
        <time>2021-09-16T09:16:18.000Z</time>
      </trkpt>
      <trkpt lat="44" lon="4.87422">
        <ele>28.881751</ele>
        <time>2021-09-16T09:16:20.000Z</time>
      </trkpt>
      <trkpt lat="43.99953" lon="4.87439">
        <ele>28.887511</ele>
        <time>2021-09-16T09:16:27.000Z</time>
      </trkpt>
      <trkpt lat="43.99947" lon="4.8744">
        <ele>28.888305</ele>
        <time>2021-09-16T09:16:28.000Z</time>
      </trkpt>
      <trkpt lat="43.9992" lon="4.87441">
        <ele>28.891513</ele>
        <time>2021-09-16T09:16:32.000Z</time>
      </trkpt>
      <trkpt lat="43.99887" lon="4.87438">
        <ele>28.906281</ele>
        <time>2021-09-16T09:16:37.000Z</time>
      </trkpt>
      <trkpt lat="43.99873" lon="4.87434">
        <ele>28.925846</ele>
        <time>2021-09-16T09:16:39.000Z</time>
      </trkpt>
      <trkpt lat="43.99833" lon="4.87421">
        <ele>28.983626</ele>
        <time>2021-09-16T09:16:45.000Z</time>
      </trkpt>
      <trkpt lat="43.99779" lon="4.87406">
        <ele>29.061429</ele>
        <time>2021-09-16T09:16:53.000Z</time>
      </trkpt>
      <trkpt lat="43.99772" lon="4.87404">
        <ele>29.071219</ele>
        <time>2021-09-16T09:16:54.000Z</time>
      </trkpt>
      <trkpt lat="43.99719" lon="4.8739">
        <ele>29.148213</ele>
        <time>2021-09-16T09:17:02.000Z</time>
      </trkpt>
      <trkpt lat="43.99712" lon="4.87389">
        <ele>29.138638</ele>
        <time>2021-09-16T09:17:03.000Z</time>
      </trkpt>
      <trkpt lat="43.99706" lon="4.87386">
        <ele>29.127468</ele>
        <time>2021-09-16T09:17:04.000Z</time>
      </trkpt>
      <trkpt lat="43.99693" lon="4.87378">
        <ele>29.104554</ele>
        <time>2021-09-16T09:17:06.000Z</time>
      </trkpt>
      <trkpt lat="43.99689" lon="4.8737">
        <ele>29.093469</ele>
        <time>2021-09-16T09:17:07.000Z</time>
      </trkpt>
      <trkpt lat="43.99686" lon="4.87363">
        <ele>29.082381</ele>
        <time>2021-09-16T09:17:08.000Z</time>
      </trkpt>
      <trkpt lat="43.99674" lon="4.87339">
        <ele>29.049018</ele>
        <time>2021-09-16T09:17:11.000Z</time>
      </trkpt>
      <trkpt lat="43.99644" lon="4.87278">
        <ele>28.961143</ele>
        <time>2021-09-16T09:17:19.000Z</time>
      </trkpt>
      <trkpt lat="43.99639" lon="4.87272">
        <ele>28.950218</ele>
        <time>2021-09-16T09:17:20.000Z</time>
      </trkpt>
      <trkpt lat="43.99623" lon="4.87257">
        <ele>28.917639</ele>
        <time>2021-09-16T09:17:23.000Z</time>
      </trkpt>
      <trkpt lat="43.99612" lon="4.87247">
        <ele>28.896427</ele>
        <time>2021-09-16T09:17:25.000Z</time>
      </trkpt>
      <trkpt lat="43.99568" lon="4.87227">
        <ele>28.807043</ele>
        <time>2021-09-16T09:17:32.000Z</time>
      </trkpt>
      <trkpt lat="43.9953" lon="4.87209">
        <ele>28.711332</ele>
        <time>2021-09-16T09:17:38.000Z</time>
      </trkpt>
      <trkpt lat="43.99472" lon="4.87182">
        <ele>28.567874</ele>
        <time>2021-09-16T09:17:47.000Z</time>
      </trkpt>
      <trkpt lat="43.99428" lon="4.87161">
        <ele>28.456874</ele>
        <time>2021-09-16T09:17:54.000Z</time>
      </trkpt>
      <trkpt lat="43.99391" lon="4.87144">
        <ele>28.505656</ele>
        <time>2021-09-16T09:18:00.000Z</time>
      </trkpt>
      <trkpt lat="43.99385" lon="4.87141">
        <ele>28.52365</ele>
        <time>2021-09-16T09:18:01.000Z</time>
      </trkpt>
      <trkpt lat="43.99373" lon="4.87135">
        <ele>28.561757</ele>
        <time>2021-09-16T09:18:03.000Z</time>
      </trkpt>
      <trkpt lat="43.99355" lon="4.87126">
        <ele>28.619907</ele>
        <time>2021-09-16T09:18:06.000Z</time>
      </trkpt>
      <trkpt lat="43.99322" lon="4.8711">
        <ele>28.723713</ele>
        <time>2021-09-16T09:18:12.000Z</time>
      </trkpt>
      <trkpt lat="43.99319" lon="4.87107">
        <ele>28.735936</ele>
        <time>2021-09-16T09:18:13.000Z</time>
      </trkpt>
      <trkpt lat="43.99305" lon="4.87096">
        <ele>28.78233</ele>
        <time>2021-09-16T09:18:17.000Z</time>
      </trkpt>
      <trkpt lat="43.99288" lon="4.87096">
        <ele>28.83554</ele>
        <time>2021-09-16T09:18:22.000Z</time>
      </trkpt>
      <trkpt lat="43.99276" lon="4.87109">
        <ele>28.879785</ele>
        <time>2021-09-16T09:18:26.000Z</time>
      </trkpt>
      <trkpt lat="43.99269" lon="4.87109">
        <ele>28.901317</ele>
        <time>2021-09-16T09:18:27.000Z</time>
      </trkpt>
      <trkpt lat="43.99264" lon="4.87108">
        <ele>28.917438</ele>
        <time>2021-09-16T09:18:28.000Z</time>
      </trkpt>
      <trkpt lat="43.99253" lon="4.87099">
        <ele>28.955946</ele>
        <time>2021-09-16T09:18:30.000Z</time>
      </trkpt>
      <trkpt lat="43.99223" lon="4.87073">
        <ele>28.890634</ele>
        <time>2021-09-16T09:18:35.000Z</time>
      </trkpt>
      <trkpt lat="43.99185" lon="4.87056">
        <ele>28.795977</ele>
        <time>2021-09-16T09:18:41.000Z</time>
      </trkpt>
      <trkpt lat="43.99134" lon="4.87036">
        <ele>28.67217</ele>
        <time>2021-09-16T09:18:49.000Z</time>
      </trkpt>
      <trkpt lat="43.99103" lon="4.87024">
        <ele>28.596043</ele>
        <time>2021-09-16T09:18:54.000Z</time>
      </trkpt>
      <trkpt lat="43.99097" lon="4.87022">
        <ele>28.581233</ele>
        <time>2021-09-16T09:18:55.000Z</time>
      </trkpt>
      <trkpt lat="43.99091" lon="4.8702">
        <ele>28.566649</ele>
        <time>2021-09-16T09:18:56.000Z</time>
      </trkpt>
      <trkpt lat="43.99079" lon="4.87016">
        <ele>28.530514</ele>
        <time>2021-09-16T09:18:58.000Z</time>
      </trkpt>
      <trkpt lat="43.99073" lon="4.87014">
        <ele>28.496093</ele>
        <time>2021-09-16T09:18:59.000Z</time>
      </trkpt>
      <trkpt lat="43.99048" lon="4.87008">
        <ele>28.359194</ele>
        <time>2021-09-16T09:19:03.000Z</time>
      </trkpt>
      <trkpt lat="43.9903" lon="4.87002">
        <ele>28.256094</ele>
        <time>2021-09-16T09:19:06.000Z</time>
      </trkpt>
      <trkpt lat="43.98988" lon="4.8699">
        <ele>28.017255</ele>
        <time>2021-09-16T09:19:13.000Z</time>
      </trkpt>
      <trkpt lat="43.98976" lon="4.86986">
        <ele>27.952055</ele>
        <time>2021-09-16T09:19:15.000Z</time>
      </trkpt>
      <trkpt lat="43.98965" lon="4.8698">
        <ele>27.88397</ele>
        <time>2021-09-16T09:19:17.000Z</time>
      </trkpt>
      <trkpt lat="43.98914" lon="4.86953">
        <ele>27.587143</ele>
        <time>2021-09-16T09:19:26.000Z</time>
      </trkpt>
      <trkpt lat="43.98865" lon="4.86926">
        <ele>27.468468</ele>
        <time>2021-09-16T09:19:35.000Z</time>
      </trkpt>
      <trkpt lat="43.98835" lon="4.8691">
        <ele>27.410654</ele>
        <time>2021-09-16T09:19:41.000Z</time>
      </trkpt>
      <trkpt lat="43.98811" lon="4.86897">
        <ele>27.365295</ele>
        <time>2021-09-16T09:19:46.000Z</time>
      </trkpt>
      <trkpt lat="43.988" lon="4.8689">
        <ele>27.34291</ele>
        <time>2021-09-16T09:19:48.000Z</time>
      </trkpt>
      <trkpt lat="43.98787" lon="4.86882">
        <ele>27.3183</ele>
        <time>2021-09-16T09:19:50.000Z</time>
      </trkpt>
      <trkpt lat="43.98737" lon="4.86848">
        <ele>27.214152</ele>
        <time>2021-09-16T09:19:58.000Z</time>
      </trkpt>
      <trkpt lat="43.98689" lon="4.86814">
        <ele>27.071249</ele>
        <time>2021-09-16T09:20:06.000Z</time>
      </trkpt>
      <trkpt lat="43.98683" lon="4.8681">
        <ele>27.053665</ele>
        <time>2021-09-16T09:20:07.000Z</time>
      </trkpt>
      <trkpt lat="43.9863" lon="4.86772">
        <ele>26.89658</ele>
        <time>2021-09-16T09:20:16.000Z</time>
      </trkpt>
      <trkpt lat="43.98618" lon="4.86763">
        <ele>26.861735</ele>
        <time>2021-09-16T09:20:18.000Z</time>
      </trkpt>
      <trkpt lat="43.98571" lon="4.86732">
        <ele>26.726539</ele>
        <time>2021-09-16T09:20:26.000Z</time>
      </trkpt>
      <trkpt lat="43.98516" lon="4.86699">
        <ele>26.585444</ele>
        <time>2021-09-16T09:20:35.000Z</time>
      </trkpt>
      <trkpt lat="43.98467" lon="4.8667">
        <ele>26.456959</ele>
        <time>2021-09-16T09:20:43.000Z</time>
      </trkpt>
      <trkpt lat="43.98417" lon="4.86643">
        <ele>26.330861</ele>
        <time>2021-09-16T09:20:51.000Z</time>
      </trkpt>
      <trkpt lat="43.98367" lon="4.86618">
        <ele>26.233982</ele>
        <time>2021-09-16T09:20:59.000Z</time>
      </trkpt>
      <trkpt lat="43.98311" lon="4.86592">
        <ele>26.128101</ele>
        <time>2021-09-16T09:21:08.000Z</time>
      </trkpt>
      <trkpt lat="43.98256" lon="4.86566">
        <ele>26.022988</ele>
        <time>2021-09-16T09:21:17.000Z</time>
      </trkpt>
      <trkpt lat="43.98205" lon="4.86543">
        <ele>25.988826</ele>
        <time>2021-09-16T09:21:25.000Z</time>
      </trkpt>
      <trkpt lat="43.98148" lon="4.86518">
        <ele>25.967222</ele>
        <time>2021-09-16T09:21:34.000Z</time>
      </trkpt>
      <trkpt lat="43.98141" lon="4.86515">
        <ele>25.964776</ele>
        <time>2021-09-16T09:21:35.000Z</time>
      </trkpt>
      <trkpt lat="43.98093" lon="4.86494">
        <ele>25.946526</ele>
        <time>2021-09-16T09:21:43.000Z</time>
      </trkpt>
      <trkpt lat="43.98038" lon="4.8647">
        <ele>25.940824</ele>
        <time>2021-09-16T09:21:52.000Z</time>
      </trkpt>
      <trkpt lat="43.98" lon="4.86458">
        <ele>25.941954</ele>
        <time>2021-09-16T09:21:58.000Z</time>
      </trkpt>
      <trkpt lat="43.97947" lon="4.86439">
        <ele>25.943535</ele>
        <time>2021-09-16T09:22:06.000Z</time>
      </trkpt>
      <trkpt lat="43.97941" lon="4.86437">
        <ele>25.943732</ele>
        <time>2021-09-16T09:22:07.000Z</time>
      </trkpt>
      <trkpt lat="43.97882" lon="4.86417">
        <ele>25.950952</ele>
        <time>2021-09-16T09:22:16.000Z</time>
      </trkpt>
      <trkpt lat="43.97844" lon="4.86404">
        <ele>25.962718</ele>
        <time>2021-09-16T09:22:22.000Z</time>
      </trkpt>
      <trkpt lat="43.97795" lon="4.86389">
        <ele>25.978083</ele>
        <time>2021-09-16T09:22:30.000Z</time>
      </trkpt>
      <trkpt lat="43.97741" lon="4.86375">
        <ele>25.995018</ele>
        <time>2021-09-16T09:22:39.000Z</time>
      </trkpt>
      <trkpt lat="43.97692" lon="4.86363">
        <ele>25.947308</ele>
        <time>2021-09-16T09:22:47.000Z</time>
      </trkpt>
      <trkpt lat="43.97636" lon="4.86349">
        <ele>25.856823</ele>
        <time>2021-09-16T09:22:56.000Z</time>
      </trkpt>
      <trkpt lat="43.97586" lon="4.86336">
        <ele>25.776932</ele>
        <time>2021-09-16T09:23:04.000Z</time>
      </trkpt>
      <trkpt lat="43.9753" lon="4.86322">
        <ele>25.616418</ele>
        <time>2021-09-16T09:23:13.000Z</time>
      </trkpt>
      <trkpt lat="43.97517" lon="4.86319">
        <ele>25.546266</ele>
        <time>2021-09-16T09:23:15.000Z</time>
      </trkpt>
      <trkpt lat="43.97461" lon="4.86306">
        <ele>25.232998</ele>
        <time>2021-09-16T09:23:24.000Z</time>
      </trkpt>
      <trkpt lat="43.97422" lon="4.863">
        <ele>25.022611</ele>
        <time>2021-09-16T09:23:30.000Z</time>
      </trkpt>
      <trkpt lat="43.97404" lon="4.863">
        <ele>24.925672</ele>
        <time>2021-09-16T09:23:33.000Z</time>
      </trkpt>
      <trkpt lat="43.97399" lon="4.86303">
        <ele>24.895358</ele>
        <time>2021-09-16T09:23:34.000Z</time>
      </trkpt>
      <trkpt lat="43.97396" lon="4.86308">
        <ele>24.868188</ele>
        <time>2021-09-16T09:23:35.000Z</time>
      </trkpt>
      <trkpt lat="43.97394" lon="4.86315">
        <ele>24.838611</ele>
        <time>2021-09-16T09:23:36.000Z</time>
      </trkpt>
      <trkpt lat="43.97393" lon="4.86323">
        <ele>24.80553</ele>
        <time>2021-09-16T09:23:37.000Z</time>
      </trkpt>
      <trkpt lat="43.97394" lon="4.86348">
        <ele>24.790077</ele>
        <time>2021-09-16T09:23:40.000Z</time>
      </trkpt>
      <trkpt lat="43.97398" lon="4.86407">
        <ele>25.252819</ele>
        <time>2021-09-16T09:23:47.000Z</time>
      </trkpt>
      <trkpt lat="43.97408" lon="4.8646">
        <ele>25.686274</ele>
        <time>2021-09-16T09:23:54.000Z</time>
      </trkpt>
      <trkpt lat="43.97426" lon="4.86515">
        <ele>26.15609</ele>
        <time>2021-09-16T09:24:02.000Z</time>
      </trkpt>
      <trkpt lat="43.9743" lon="4.86528">
        <ele>26.263991</ele>
        <time>2021-09-16T09:24:05.000Z</time>
      </trkpt>
      <trkpt lat="43.97432" lon="4.86549">
        <ele>26.430959</ele>
        <time>2021-09-16T09:24:07.000Z</time>
      </trkpt>
      <trkpt lat="43.97434" lon="4.86576">
        <ele>26.647629</ele>
        <time>2021-09-16T09:24:13.000Z</time>
      </trkpt>
      <trkpt lat="43.97446" lon="4.8661">
        <ele>27.002655</ele>
        <time>2021-09-16T09:24:20.000Z</time>
      </trkpt>
      <trkpt lat="43.97456" lon="4.86643">
        <ele>27.368133</ele>
        <time>2021-09-16T09:24:28.000Z</time>
      </trkpt>
      <trkpt lat="43.97453" lon="4.86655">
        <ele>27.492876</ele>
        <time>2021-09-16T09:24:30.000Z</time>
      </trkpt>
      <trkpt lat="43.97456" lon="4.86652">
        <ele>27.551592</ele>
        <time>2021-09-16T09:24:31.000Z</time>
      </trkpt>
      <trkpt lat="43.97443" lon="4.86658">
        <ele>27.745492</ele>
        <time>2021-09-16T09:24:35.000Z</time>
      </trkpt>
      <trkpt lat="43.97434" lon="4.86663">
        <ele>27.884545</ele>
        <time>2021-09-16T09:24:39.000Z</time>
      </trkpt>
      <trkpt lat="43.9743" lon="4.86665">
        <ele>27.944605</ele>
        <time>2021-09-16T09:24:40.000Z</time>
      </trkpt>
      <trkpt lat="43.97393" lon="4.86681">
        <ele>28.478687</ele>
        <time>2021-09-16T09:24:48.000Z</time>
      </trkpt>
      <trkpt lat="43.97365" lon="4.86687">
        <ele>28.871057</ele>
        <time>2021-09-16T09:24:53.000Z</time>
      </trkpt>
      <trkpt lat="43.97354" lon="4.86684">
        <ele>29.02277</ele>
        <time>2021-09-16T09:24:55.000Z</time>
      </trkpt>
      <trkpt lat="43.97344" lon="4.86679">
        <ele>29.165744</ele>
        <time>2021-09-16T09:24:57.000Z</time>
      </trkpt>
      <trkpt lat="43.9734" lon="4.86675">
        <ele>29.190191</ele>
        <time>2021-09-16T09:24:58.000Z</time>
      </trkpt>
      <trkpt lat="43.97333" lon="4.86661">
        <ele>29.225213</ele>
        <time>2021-09-16T09:25:00.000Z</time>
      </trkpt>
      <trkpt lat="43.97322" lon="4.86655">
        <ele>29.258123</ele>
        <time>2021-09-16T09:25:02.000Z</time>
      </trkpt>
      <trkpt lat="43.9731" lon="4.86658">
        <ele>29.29271</ele>
        <time>2021-09-16T09:25:04.000Z</time>
      </trkpt>
      <trkpt lat="43.97305" lon="4.86665">
        <ele>29.312492</ele>
        <time>2021-09-16T09:25:05.000Z</time>
      </trkpt>
      <trkpt lat="43.97303" lon="4.86673">
        <ele>29.330876</ele>
        <time>2021-09-16T09:25:06.000Z</time>
      </trkpt>
      <trkpt lat="43.97301" lon="4.86688">
        <ele>29.362412</ele>
        <time>2021-09-16T09:25:08.000Z</time>
      </trkpt>
      <trkpt lat="43.97295" lon="4.86706">
        <ele>29.404725</ele>
        <time>2021-09-16T09:25:10.000Z</time>
      </trkpt>
      <trkpt lat="43.97285" lon="4.86721">
        <ele>29.445291</ele>
        <time>2021-09-16T09:25:12.000Z</time>
      </trkpt>
      <trkpt lat="43.97272" lon="4.86732">
        <ele>29.489479</ele>
        <time>2021-09-16T09:25:14.000Z</time>
      </trkpt>
      <trkpt lat="43.97265" lon="4.86737">
        <ele>29.511691</ele>
        <time>2021-09-16T09:25:15.000Z</time>
      </trkpt>
      <trkpt lat="43.97258" lon="4.8674">
        <ele>29.534906</ele>
        <time>2021-09-16T09:25:16.000Z</time>
      </trkpt>
      <trkpt lat="43.97235" lon="4.86749">
        <ele>29.60306</ele>
        <time>2021-09-16T09:25:20.000Z</time>
      </trkpt>
      <trkpt lat="43.97179" lon="4.86768">
        <ele>29.741911</ele>
        <time>2021-09-16T09:25:27.000Z</time>
      </trkpt>
      <trkpt lat="43.97131" lon="4.86785">
        <ele>29.831616</ele>
        <time>2021-09-16T09:25:35.000Z</time>
      </trkpt>
      <trkpt lat="43.97087" lon="4.86805">
        <ele>29.91763</ele>
        <time>2021-09-16T09:25:41.000Z</time>
      </trkpt>
      <trkpt lat="43.97075" lon="4.86806">
        <ele>29.940368</ele>
        <time>2021-09-16T09:25:43.000Z</time>
      </trkpt>
      <trkpt lat="43.97062" lon="4.86803">
        <ele>29.964645</ele>
        <time>2021-09-16T09:25:45.000Z</time>
      </trkpt>
      <trkpt lat="43.97049" lon="4.86798">
        <ele>29.988508</ele>
        <time>2021-09-16T09:25:47.000Z</time>
      </trkpt>
      <trkpt lat="43.97043" lon="4.86795">
        <ele>30.001813</ele>
        <time>2021-09-16T09:25:48.000Z</time>
      </trkpt>
      <trkpt lat="43.97001" lon="4.86747">
        <ele>30.046389</ele>
        <time>2021-09-16T09:25:56.000Z</time>
      </trkpt>
      <trkpt lat="43.96996" lon="4.86741">
        <ele>30.049856</ele>
        <time>2021-09-16T09:25:57.000Z</time>
      </trkpt>
      <trkpt lat="43.96966" lon="4.86707">
        <ele>30.069907</ele>
        <time>2021-09-16T09:26:04.000Z</time>
      </trkpt>
      <trkpt lat="43.96923" lon="4.86656">
        <ele>30.099146</ele>
        <time>2021-09-16T09:26:12.000Z</time>
      </trkpt>
      <trkpt lat="43.96879" lon="4.8661">
        <ele>30.07231</ele>
        <time>2021-09-16T09:26:21.000Z</time>
      </trkpt>
      <trkpt lat="43.96834" lon="4.86563">
        <ele>29.937331</ele>
        <time>2021-09-16T09:26:30.000Z</time>
      </trkpt>
      <trkpt lat="43.96829" lon="4.86558">
        <ele>29.922833</ele>
        <time>2021-09-16T09:26:31.000Z</time>
      </trkpt>
      <trkpt lat="43.96814" lon="4.86532">
        <ele>29.864091</ele>
        <time>2021-09-16T09:26:35.000Z</time>
      </trkpt>
      <trkpt lat="43.96807" lon="4.8652">
        <ele>29.837606</ele>
        <time>2021-09-16T09:26:37.000Z</time>
      </trkpt>
      <trkpt lat="43.96803" lon="4.86514">
        <ele>29.824048</ele>
        <time>2021-09-16T09:26:38.000Z</time>
      </trkpt>
      <trkpt lat="43.9679" lon="4.86498">
        <ele>29.780798</ele>
        <time>2021-09-16T09:26:41.000Z</time>
      </trkpt>
      <trkpt lat="43.96779" lon="4.86491">
        <ele>29.751705</ele>
        <time>2021-09-16T09:26:43.000Z</time>
      </trkpt>
      <trkpt lat="43.96772" lon="4.86482">
        <ele>29.72907</ele>
        <time>2021-09-16T09:26:45.000Z</time>
      </trkpt>
      <trkpt lat="43.96758" lon="4.86448">
        <ele>29.614652</ele>
        <time>2021-09-16T09:26:50.000Z</time>
      </trkpt>
      <trkpt lat="43.96754" lon="4.86441">
        <ele>29.564921</ele>
        <time>2021-09-16T09:26:51.000Z</time>
      </trkpt>
      <trkpt lat="43.96743" lon="4.86441">
        <ele>29.487113</ele>
        <time>2021-09-16T09:26:54.000Z</time>
      </trkpt>
      <trkpt lat="43.96733" lon="4.86446">
        <ele>29.405531</ele>
        <time>2021-09-16T09:26:57.000Z</time>
      </trkpt>
      <trkpt lat="43.96731" lon="4.86449">
        <ele>29.383119</ele>
        <time>2021-09-16T09:26:58.000Z</time>
      </trkpt>
      <trkpt lat="43.96727" lon="4.8645">
        <ele>29.354134</ele>
        <time>2021-09-16T09:26:59.000Z</time>
      </trkpt>
      <trkpt lat="43.96718" lon="4.86456">
        <ele>29.278115</ele>
        <time>2021-09-16T09:27:01.000Z</time>
      </trkpt>
      <trkpt lat="43.96702" lon="4.86446">
        <ele>29.147984</ele>
        <time>2021-09-16T09:27:04.000Z</time>
      </trkpt>
      <trkpt lat="43.96686" lon="4.86437">
        <ele>29.020457</ele>
        <time>2021-09-16T09:27:07.000Z</time>
      </trkpt>
      <trkpt lat="43.96644" lon="4.86401">
        <ele>28.648059</ele>
        <time>2021-09-16T09:27:15.000Z</time>
      </trkpt>
      <trkpt lat="43.96626" lon="4.86391">
        <ele>28.502559</ele>
        <time>2021-09-16T09:27:18.000Z</time>
      </trkpt>
      <trkpt lat="43.96615" lon="4.86381">
        <ele>28.406698</ele>
        <time>2021-09-16T09:27:20.000Z</time>
      </trkpt>
      <trkpt lat="43.96604" lon="4.86371">
        <ele>28.312862</ele>
        <time>2021-09-16T09:27:22.000Z</time>
      </trkpt>
      <trkpt lat="43.9659" lon="4.86352">
        <ele>28.175035</ele>
        <time>2021-09-16T09:27:25.000Z</time>
      </trkpt>
      <trkpt lat="43.96557" lon="4.86321">
        <ele>27.900477</ele>
        <time>2021-09-16T09:27:31.000Z</time>
      </trkpt>
      <trkpt lat="43.96519" lon="4.86288">
        <ele>27.586552</ele>
        <time>2021-09-16T09:27:38.000Z</time>
      </trkpt>
      <trkpt lat="43.96513" lon="4.86284">
        <ele>27.542797</ele>
        <time>2021-09-16T09:27:39.000Z</time>
      </trkpt>
      <trkpt lat="43.96491" lon="4.86266">
        <ele>27.364824</ele>
        <time>2021-09-16T09:27:43.000Z</time>
      </trkpt>
      <trkpt lat="43.96445" lon="4.86212">
        <ele>27.060664</ele>
        <time>2021-09-16T09:27:52.000Z</time>
      </trkpt>
      <trkpt lat="43.9643" lon="4.86194">
        <ele>27.029932</ele>
        <time>2021-09-16T09:27:55.000Z</time>
      </trkpt>
      <trkpt lat="43.96385" lon="4.8614">
        <ele>26.938306</ele>
        <time>2021-09-16T09:28:04.000Z</time>
      </trkpt>
      <trkpt lat="43.96376" lon="4.86127">
        <ele>26.917898</ele>
        <time>2021-09-16T09:28:06.000Z</time>
      </trkpt>
      <trkpt lat="43.96371" lon="4.86121">
        <ele>26.907901</ele>
        <time>2021-09-16T09:28:07.000Z</time>
      </trkpt>
      <trkpt lat="43.96357" lon="4.86103">
        <ele>26.878443</ele>
        <time>2021-09-16T09:28:10.000Z</time>
      </trkpt>
      <trkpt lat="43.9633" lon="4.8607">
        <ele>26.822859</ele>
        <time>2021-09-16T09:28:16.000Z</time>
      </trkpt>
      <trkpt lat="43.96322" lon="4.86059">
        <ele>26.809403</ele>
        <time>2021-09-16T09:28:18.000Z</time>
      </trkpt>
      <trkpt lat="43.96315" lon="4.86056">
        <ele>26.80204</ele>
        <time>2021-09-16T09:28:20.000Z</time>
      </trkpt>
      <trkpt lat="43.96306" lon="4.86062">
        <ele>26.793063</ele>
        <time>2021-09-16T09:28:22.000Z</time>
      </trkpt>
      <trkpt lat="43.96301" lon="4.86065">
        <ele>26.788236</ele>
        <time>2021-09-16T09:28:23.000Z</time>
      </trkpt>
      <trkpt lat="43.96296" lon="4.86068">
        <ele>26.783211</ele>
        <time>2021-09-16T09:28:24.000Z</time>
      </trkpt>
      <trkpt lat="43.96267" lon="4.86085">
        <ele>26.753552</ele>
        <time>2021-09-16T09:28:30.000Z</time>
      </trkpt>
      <trkpt lat="43.96225" lon="4.86107">
        <ele>26.71186</ele>
        <time>2021-09-16T09:28:39.000Z</time>
      </trkpt>
      <trkpt lat="43.96215" lon="4.86112">
        <ele>26.702133</ele>
        <time>2021-09-16T09:28:40.000Z</time>
      </trkpt>
      <trkpt lat="43.96209" lon="4.86113">
        <ele>26.696365</ele>
        <time>2021-09-16T09:28:41.000Z</time>
      </trkpt>
      <trkpt lat="43.96207" lon="4.86107">
        <ele>26.69237</ele>
        <time>2021-09-16T09:28:42.000Z</time>
      </trkpt>
      <trkpt lat="43.96198" lon="4.8608">
        <ele>26.672283</ele>
        <time>2021-09-16T09:28:46.000Z</time>
      </trkpt>
      <trkpt lat="43.96184" lon="4.86038">
        <ele>26.651782</ele>
        <time>2021-09-16T09:28:53.000Z</time>
      </trkpt>
      <trkpt lat="43.96174" lon="4.86009">
        <ele>26.66459</ele>
        <time>2021-09-16T09:28:59.000Z</time>
      </trkpt>
      <trkpt lat="43.96172" lon="4.86004">
        <ele>26.666483</ele>
        <time>2021-09-16T09:29:01.000Z</time>
      </trkpt>
      <trkpt lat="43.96167" lon="4.86003">
        <ele>26.669262</ele>
        <time>2021-09-16T09:29:02.000Z</time>
      </trkpt>
      <trkpt lat="43.96156" lon="4.8601">
        <ele>26.676171</ele>
        <time>2021-09-16T09:29:05.000Z</time>
      </trkpt>
      <trkpt lat="43.96156" lon="4.8601">
        <ele>26.676171</ele>
        <time>2021-09-16T09:29:06.000Z</time>
      </trkpt>
      <trkpt lat="43.96136" lon="4.86021">
        <ele>26.687701</ele>
        <time>2021-09-16T09:29:09.000Z</time>
      </trkpt>
      <trkpt lat="43.96125" lon="4.86021">
        <ele>26.69403</ele>
        <time>2021-09-16T09:29:11.000Z</time>
      </trkpt>
      <trkpt lat="43.96107" lon="4.86022">
        <ele>26.704101</ele>
        <time>2021-09-16T09:29:14.000Z</time>
      </trkpt>
      <trkpt lat="43.96095" lon="4.86027">
        <ele>26.710995</ele>
        <time>2021-09-16T09:29:16.000Z</time>
      </trkpt>
      <trkpt lat="43.96069" lon="4.86048">
        <ele>26.727445</ele>
        <time>2021-09-16T09:29:21.000Z</time>
      </trkpt>
      <trkpt lat="43.96062" lon="4.86061">
        <ele>26.733877</ele>
        <time>2021-09-16T09:29:23.000Z</time>
      </trkpt>
      <trkpt lat="43.96062" lon="4.86061">
        <ele>26.733877</ele>
        <time>2021-09-16T09:29:24.000Z</time>
      </trkpt>
      <trkpt lat="43.96057" lon="4.86077">
        <ele>26.740613</ele>
        <time>2021-09-16T09:29:25.000Z</time>
      </trkpt>
      <trkpt lat="43.96054" lon="4.86093">
        <ele>26.745949</ele>
        <time>2021-09-16T09:29:27.000Z</time>
      </trkpt>
      <trkpt lat="43.96053" lon="4.861">
        <ele>26.738199</ele>
        <time>2021-09-16T09:29:28.000Z</time>
      </trkpt>
      <trkpt lat="43.96045" lon="4.8611">
        <ele>26.721686</ele>
        <time>2021-09-16T09:29:29.000Z</time>
      </trkpt>
      <trkpt lat="43.96036" lon="4.86113">
        <ele>26.707992</ele>
        <time>2021-09-16T09:29:31.000Z</time>
      </trkpt>
      <trkpt lat="43.95994" lon="4.86131">
        <ele>26.639336</ele>
        <time>2021-09-16T09:29:38.000Z</time>
      </trkpt>
      <trkpt lat="43.95945" lon="4.86151">
        <ele>26.562393</ele>
        <time>2021-09-16T09:29:46.000Z</time>
      </trkpt>
      <trkpt lat="43.95928" lon="4.86158">
        <ele>26.534697</ele>
        <time>2021-09-16T09:29:49.000Z</time>
      </trkpt>
      <trkpt lat="43.95921" lon="4.86157">
        <ele>26.523306</ele>
        <time>2021-09-16T09:29:50.000Z</time>
      </trkpt>
      <trkpt lat="43.95915" lon="4.86143">
        <ele>26.505222</ele>
        <time>2021-09-16T09:29:52.000Z</time>
      </trkpt>
      <trkpt lat="43.95913" lon="4.86134">
        <ele>26.496044</ele>
        <time>2021-09-16T09:29:53.000Z</time>
      </trkpt>
      <trkpt lat="43.95904" lon="4.86086">
        <ele>26.466196</ele>
        <time>2021-09-16T09:29:59.000Z</time>
      </trkpt>
      <trkpt lat="43.959" lon="4.86069">
        <ele>26.462869</ele>
        <time>2021-09-16T09:30:01.000Z</time>
      </trkpt>
      <trkpt lat="43.95891" lon="4.86057">
        <ele>26.459597</ele>
        <time>2021-09-16T09:30:03.000Z</time>
      </trkpt>
      <trkpt lat="43.95885" lon="4.86056">
        <ele>26.458086</ele>
        <time>2021-09-16T09:30:05.000Z</time>
      </trkpt>
      <trkpt lat="43.95873" lon="4.86058">
        <ele>26.454905</ele>
        <time>2021-09-16T09:30:06.000Z</time>
      </trkpt>
      <trkpt lat="43.95829" lon="4.86065">
        <ele>26.44302</ele>
        <time>2021-09-16T09:30:13.000Z</time>
      </trkpt>
      <trkpt lat="43.95816" lon="4.86063">
        <ele>26.439634</ele>
        <time>2021-09-16T09:30:15.000Z</time>
      </trkpt>
      <trkpt lat="43.9581" lon="4.8606">
        <ele>26.438031</ele>
        <time>2021-09-16T09:30:17.000Z</time>
      </trkpt>
      <trkpt lat="43.95775" lon="4.86021">
        <ele>26.426082</ele>
        <time>2021-09-16T09:30:23.000Z</time>
      </trkpt>
      <trkpt lat="43.95756" lon="4.85998">
        <ele>26.429539</ele>
        <time>2021-09-16T09:30:27.000Z</time>
      </trkpt>
      <trkpt lat="43.95747" lon="4.85985">
        <ele>26.433583</ele>
        <time>2021-09-16T09:30:29.000Z</time>
      </trkpt>
      <trkpt lat="43.95743" lon="4.8596">
        <ele>26.439422</ele>
        <time>2021-09-16T09:30:32.000Z</time>
      </trkpt>
      <trkpt lat="43.9574" lon="4.85927">
        <ele>26.446929</ele>
        <time>2021-09-16T09:30:36.000Z</time>
      </trkpt>
      <trkpt lat="43.95737" lon="4.85911">
        <ele>26.450596</ele>
        <time>2021-09-16T09:30:38.000Z</time>
      </trkpt>
      <trkpt lat="43.95727" lon="4.85881">
        <ele>26.45814</ele>
        <time>2021-09-16T09:30:43.000Z</time>
      </trkpt>
      <trkpt lat="43.95724" lon="4.85872">
        <ele>26.460295</ele>
        <time>2021-09-16T09:30:47.000Z</time>
      </trkpt>
      <trkpt lat="43.95724" lon="4.85867">
        <ele>26.461431</ele>
        <time>2021-09-16T09:31:56.000Z</time>
      </trkpt>
      <trkpt lat="43.95724" lon="4.85863">
        <ele>26.462316</ele>
        <time>2021-09-16T09:31:57.000Z</time>
      </trkpt>
      <trkpt lat="43.9572" lon="4.85848">
        <ele>26.46589</ele>
        <time>2021-09-16T09:32:00.000Z</time>
      </trkpt>
      <trkpt lat="43.95719" lon="4.85842">
        <ele>26.467282</ele>
        <time>2021-09-16T09:32:01.000Z</time>
      </trkpt>
      <trkpt lat="43.95717" lon="4.85836">
        <ele>26.468768</ele>
        <time>2021-09-16T09:32:02.000Z</time>
      </trkpt>
      <trkpt lat="43.95715" lon="4.85829">
        <ele>26.470342</ele>
        <time>2021-09-16T09:32:04.000Z</time>
      </trkpt>
      <trkpt lat="43.95713" lon="4.85816">
        <ele>26.473328</ele>
        <time>2021-09-16T09:32:05.000Z</time>
      </trkpt>
      <trkpt lat="43.95712" lon="4.85796">
        <ele>26.477898</ele>
        <time>2021-09-16T09:32:08.000Z</time>
      </trkpt>
      <trkpt lat="43.95714" lon="4.85776">
        <ele>26.463607</ele>
        <time>2021-09-16T09:32:11.000Z</time>
      </trkpt>
      <trkpt lat="43.9572" lon="4.85717">
        <ele>26.352983</ele>
        <time>2021-09-16T09:32:20.000Z</time>
      </trkpt>
      <trkpt lat="43.95725" lon="4.8566">
        <ele>26.245941</ele>
        <time>2021-09-16T09:32:28.000Z</time>
      </trkpt>
      <trkpt lat="43.9573" lon="4.85601">
        <ele>26.133684</ele>
        <time>2021-09-16T09:32:36.000Z</time>
      </trkpt>
      <trkpt lat="43.95734" lon="4.85555">
        <ele>26.048471</ele>
        <time>2021-09-16T09:32:42.000Z</time>
      </trkpt>
      <trkpt lat="43.95739" lon="4.85501">
        <ele>26.019386</ele>
        <time>2021-09-16T09:32:49.000Z</time>
      </trkpt>
      <trkpt lat="43.95742" lon="4.85463">
        <ele>26.024794</ele>
        <time>2021-09-16T09:32:54.000Z</time>
      </trkpt>
      <trkpt lat="43.95743" lon="4.85456">
        <ele>26.025797</ele>
        <time>2021-09-16T09:32:56.000Z</time>
      </trkpt>
      <trkpt lat="43.95749" lon="4.85433">
        <ele>26.029298</ele>
        <time>2021-09-16T09:32:58.000Z</time>
      </trkpt>
      <trkpt lat="43.95745" lon="4.85424">
        <ele>26.030729</ele>
        <time>2021-09-16T09:33:00.000Z</time>
      </trkpt>
      <trkpt lat="43.95735" lon="4.85426">
        <ele>26.032668</ele>
        <time>2021-09-16T09:33:02.000Z</time>
      </trkpt>
      <trkpt lat="43.95726" lon="4.85439">
        <ele>26.035141</ele>
        <time>2021-09-16T09:33:03.000Z</time>
      </trkpt>
      <trkpt lat="43.95708" lon="4.85458">
        <ele>26.039652</ele>
        <time>2021-09-16T09:33:07.000Z</time>
      </trkpt>
      <trkpt lat="43.95673" lon="4.85493">
        <ele>26.048056</ele>
        <time>2021-09-16T09:33:14.000Z</time>
      </trkpt>
      <trkpt lat="43.95633" lon="4.85534">
        <ele>26.007206</ele>
        <time>2021-09-16T09:33:22.000Z</time>
      </trkpt>
      <trkpt lat="43.95597" lon="4.85571">
        <ele>25.961551</ele>
        <time>2021-09-16T09:33:29.000Z</time>
      </trkpt>
      <trkpt lat="43.95586" lon="4.85581">
        <ele>25.948599</ele>
        <time>2021-09-16T09:33:31.000Z</time>
      </trkpt>
      <trkpt lat="43.95574" lon="4.85585">
        <ele>25.935822</ele>
        <time>2021-09-16T09:33:33.000Z</time>
      </trkpt>
      <trkpt lat="43.9554" lon="4.85585">
        <ele>25.901267</ele>
        <time>2021-09-16T09:33:38.000Z</time>
      </trkpt>
      <trkpt lat="43.95485" lon="4.85584">
        <ele>25.814394</ele>
        <time>2021-09-16T09:33:46.000Z</time>
      </trkpt>
      <trkpt lat="43.95478" lon="4.85583">
        <ele>25.798588</ele>
        <time>2021-09-16T09:33:47.000Z</time>
      </trkpt>
      <trkpt lat="43.95432" lon="4.85584">
        <ele>25.687275</ele>
        <time>2021-09-16T09:33:54.000Z</time>
      </trkpt>
      <trkpt lat="43.95426" lon="4.85586">
        <ele>25.671958</ele>
        <time>2021-09-16T09:33:55.000Z</time>
      </trkpt>
      <trkpt lat="43.95398" lon="4.85595">
        <ele>25.60199</ele>
        <time>2021-09-16T09:34:00.000Z</time>
      </trkpt>
      <trkpt lat="43.95395" lon="4.85597">
        <ele>25.592756</ele>
        <time>2021-09-16T09:34:01.000Z</time>
      </trkpt>
      <trkpt lat="43.95387" lon="4.85598">
        <ele>25.574185</ele>
        <time>2021-09-16T09:34:03.000Z</time>
      </trkpt>
      <trkpt lat="43.95373" lon="4.85597">
        <ele>25.53991</ele>
        <time>2021-09-16T09:34:06.000Z</time>
      </trkpt>
      <trkpt lat="43.9533" lon="4.85595">
        <ele>25.436305</ele>
        <time>2021-09-16T09:34:13.000Z</time>
      </trkpt>
      <trkpt lat="43.95286" lon="4.85594">
        <ele>25.240709</ele>
        <time>2021-09-16T09:34:20.000Z</time>
      </trkpt>
      <trkpt lat="43.95238" lon="4.85595">
        <ele>25.023081</ele>
        <time>2021-09-16T09:34:28.000Z</time>
      </trkpt>
      <trkpt lat="43.95213" lon="4.85596">
        <ele>24.912034</ele>
        <time>2021-09-16T09:34:32.000Z</time>
      </trkpt>
      <trkpt lat="43.95203" lon="4.85591">
        <ele>24.861377</ele>
        <time>2021-09-16T09:34:34.000Z</time>
      </trkpt>
      <trkpt lat="43.95177" lon="4.85575">
        <ele>24.735897</ele>
        <time>2021-09-16T09:34:39.000Z</time>
      </trkpt>
      <trkpt lat="43.95149" lon="4.85558">
        <ele>24.612919</ele>
        <time>2021-09-16T09:34:45.000Z</time>
      </trkpt>
      <trkpt lat="43.95145" lon="4.85555">
        <ele>24.607196</ele>
        <time>2021-09-16T09:34:46.000Z</time>
      </trkpt>
      <trkpt lat="43.95128" lon="4.8555">
        <ele>24.585236</ele>
        <time>2021-09-16T09:34:50.000Z</time>
      </trkpt>
      <trkpt lat="43.95114" lon="4.85547">
        <ele>24.567885</ele>
        <time>2021-09-16T09:34:55.000Z</time>
      </trkpt>
      <trkpt lat="43.95101" lon="4.85544">
        <ele>24.550704</ele>
        <time>2021-09-16T09:35:02.000Z</time>
      </trkpt>
      <trkpt lat="43.95099" lon="4.85544">
        <ele>24.548802</ele>
        <time>2021-09-16T09:35:03.000Z</time>
      </trkpt>
      <trkpt lat="43.95093" lon="4.85542">
        <ele>24.540652</ele>
        <time>2021-09-16T09:35:07.000Z</time>
      </trkpt>
      <trkpt lat="43.95081" lon="4.85539">
        <ele>24.525899</ele>
        <time>2021-09-16T09:35:13.000Z</time>
      </trkpt>
      <trkpt lat="43.9508" lon="4.85539">
        <ele>24.524227</ele>
        <time>2021-09-16T09:35:16.000Z</time>
      </trkpt>
      <trkpt lat="43.95076" lon="4.85538">
        <ele>24.519911</ele>
        <time>2021-09-16T09:37:31.000Z</time>
      </trkpt>
      <trkpt lat="43.95074" lon="4.85538">
        <ele>24.517112</ele>
        <time>2021-09-16T09:37:33.000Z</time>
      </trkpt>
      <trkpt lat="43.95072" lon="4.85553">
        <ele>24.503253</ele>
        <time>2021-09-16T09:37:38.000Z</time>
      </trkpt>
      <trkpt lat="43.95071" lon="4.85559">
        <ele>24.497509</ele>
        <time>2021-09-16T09:37:39.000Z</time>
      </trkpt>
      <trkpt lat="43.9506" lon="4.85583">
        <ele>24.471914</ele>
        <time>2021-09-16T09:37:43.000Z</time>
      </trkpt>
      <trkpt lat="43.95057" lon="4.85589">
        <ele>24.465311</ele>
        <time>2021-09-16T09:37:44.000Z</time>
      </trkpt>
      <trkpt lat="43.95045" lon="4.85613">
        <ele>24.438815</ele>
        <time>2021-09-16T09:37:48.000Z</time>
      </trkpt>
      <trkpt lat="43.95012" lon="4.85651">
        <ele>24.453448</ele>
        <time>2021-09-16T09:37:56.000Z</time>
      </trkpt>
      <trkpt lat="43.9498" lon="4.85687">
        <ele>24.837111</ele>
        <time>2021-09-16T09:38:04.000Z</time>
      </trkpt>
      <trkpt lat="43.94973" lon="4.85695">
        <ele>24.925578</ele>
        <time>2021-09-16T09:38:06.000Z</time>
      </trkpt>
      <trkpt lat="43.94969" lon="4.85698">
        <ele>24.967813</ele>
        <time>2021-09-16T09:38:08.000Z</time>
      </trkpt>
      <trkpt lat="43.9497" lon="4.85698">
        <ele>24.977161</ele>
        <time>2021-09-16T09:38:11.000Z</time>
      </trkpt>
      <trkpt lat="43.94971" lon="4.85697">
        <ele>24.989761</ele>
        <time>2021-09-16T09:38:12.000Z</time>
      </trkpt>
      <trkpt lat="43.9498" lon="4.85688">
        <ele>25.098518</ele>
        <time>2021-09-16T09:38:16.000Z</time>
      </trkpt>
      <trkpt lat="43.94982" lon="4.85679">
        <ele>25.157273</ele>
        <time>2021-09-16T09:38:17.000Z</time>
      </trkpt>
      <trkpt lat="43.94979" lon="4.85672">
        <ele>25.212656</ele>
        <time>2021-09-16T09:38:19.000Z</time>
      </trkpt>
      <trkpt lat="43.94977" lon="4.85667">
        <ele>25.251053</ele>
        <time>2021-09-16T09:38:20.000Z</time>
      </trkpt>
      <trkpt lat="43.9497" lon="4.85649">
        <ele>25.391496</ele>
        <time>2021-09-16T09:38:23.000Z</time>
      </trkpt>
      <trkpt lat="43.94961" lon="4.85629">
        <ele>25.550108</ele>
        <time>2021-09-16T09:38:26.000Z</time>
      </trkpt>
      <trkpt lat="43.94954" lon="4.85615">
        <ele>25.661434</ele>
        <time>2021-09-16T09:38:28.000Z</time>
      </trkpt>
      <trkpt lat="43.94949" lon="4.85603">
        <ele>25.754507</ele>
        <time>2021-09-16T09:38:30.000Z</time>
      </trkpt>
      <trkpt lat="43.94946" lon="4.85595">
        <ele>25.814191</ele>
        <time>2021-09-16T09:38:32.000Z</time>
      </trkpt>
      <trkpt lat="43.9494" lon="4.85581">
        <ele>25.929137</ele>
        <time>2021-09-16T09:38:36.000Z</time>
      </trkpt>
      <trkpt lat="43.94934" lon="4.85563">
        <ele>26.061076</ele>
        <time>2021-09-16T09:38:39.000Z</time>
      </trkpt>
      <trkpt lat="43.9493" lon="4.85549">
        <ele>26.095009</ele>
        <time>2021-09-16T09:38:41.000Z</time>
      </trkpt>
      <trkpt lat="43.94928" lon="4.85535">
        <ele>26.123097</ele>
        <time>2021-09-16T09:38:43.000Z</time>
      </trkpt>
      <trkpt lat="43.94924" lon="4.85514">
        <ele>26.164368</ele>
        <time>2021-09-16T09:38:46.000Z</time>
      </trkpt>
      <trkpt lat="43.94918" lon="4.85485">
        <ele>26.222331</ele>
        <time>2021-09-16T09:38:50.000Z</time>
      </trkpt>
      <trkpt lat="43.94907" lon="4.8543">
        <ele>26.330505</ele>
        <time>2021-09-16T09:38:57.000Z</time>
      </trkpt>
      <trkpt lat="43.94897" lon="4.85383">
        <ele>26.423224</ele>
        <time>2021-09-16T09:39:03.000Z</time>
      </trkpt>
      <trkpt lat="43.94884" lon="4.85327">
        <ele>26.535295</ele>
        <time>2021-09-16T09:39:10.000Z</time>
      </trkpt>
      <trkpt lat="43.94881" lon="4.85311">
        <ele>26.604625</ele>
        <time>2021-09-16T09:39:12.000Z</time>
      </trkpt>
      <trkpt lat="43.94875" lon="4.85288">
        <ele>26.739217</ele>
        <time>2021-09-16T09:39:15.000Z</time>
      </trkpt>
      <trkpt lat="43.9487" lon="4.85272">
        <ele>26.832668</ele>
        <time>2021-09-16T09:39:17.000Z</time>
      </trkpt>
      <trkpt lat="43.94865" lon="4.85257">
        <ele>26.922742</ele>
        <time>2021-09-16T09:39:19.000Z</time>
      </trkpt>
      <trkpt lat="43.94863" lon="4.85249">
        <ele>26.967838</ele>
        <time>2021-09-16T09:39:20.000Z</time>
      </trkpt>
      <trkpt lat="43.94859" lon="4.85225">
        <ele>27.098355</ele>
        <time>2021-09-16T09:39:23.000Z</time>
      </trkpt>
      <trkpt lat="43.94857" lon="4.85211">
        <ele>27.176778</ele>
        <time>2021-09-16T09:39:26.000Z</time>
      </trkpt>
      <trkpt lat="43.94851" lon="4.85197">
        <ele>27.267594</ele>
        <time>2021-09-16T09:39:30.000Z</time>
      </trkpt>
      <trkpt lat="43.94845" lon="4.85174">
        <ele>27.398868</ele>
        <time>2021-09-16T09:39:35.000Z</time>
      </trkpt>
      <trkpt lat="43.9484" lon="4.85158">
        <ele>27.493415</ele>
        <time>2021-09-16T09:39:39.000Z</time>
      </trkpt>
      <trkpt lat="43.94839" lon="4.85155">
        <ele>27.512068</ele>
        <time>2021-09-16T09:39:40.000Z</time>
      </trkpt>
      <trkpt lat="43.94836" lon="4.85146">
        <ele>27.565758</ele>
        <time>2021-09-16T09:39:42.000Z</time>
      </trkpt>
      <trkpt lat="43.94834" lon="4.8514">
        <ele>27.602099</ele>
        <time>2021-09-16T09:39:43.000Z</time>
      </trkpt>
      <trkpt lat="43.94824" lon="4.85113">
        <ele>27.76057</ele>
        <time>2021-09-16T09:39:47.000Z</time>
      </trkpt>
      <trkpt lat="43.94813" lon="4.85067">
        <ele>27.899679</ele>
        <time>2021-09-16T09:39:53.000Z</time>
      </trkpt>
      <trkpt lat="43.94808" lon="4.85024">
        <ele>27.910679</ele>
        <time>2021-09-16T09:39:58.000Z</time>
      </trkpt>
      <trkpt lat="43.94798" lon="4.84966">
        <ele>27.925655</ele>
        <time>2021-09-16T09:40:05.000Z</time>
      </trkpt>
      <trkpt lat="43.94793" lon="4.84952">
        <ele>27.929669</ele>
        <time>2021-09-16T09:40:07.000Z</time>
      </trkpt>
      <trkpt lat="43.94786" lon="4.8494">
        <ele>27.933697</ele>
        <time>2021-09-16T09:40:09.000Z</time>
      </trkpt>
      <trkpt lat="43.94753" lon="4.84887">
        <ele>27.951157</ele>
        <time>2021-09-16T09:40:18.000Z</time>
      </trkpt>
      <trkpt lat="43.94728" lon="4.84847">
        <ele>27.948543</ele>
        <time>2021-09-16T09:40:25.000Z</time>
      </trkpt>
      <trkpt lat="43.94724" lon="4.84841">
        <ele>27.946674</ele>
        <time>2021-09-16T09:40:26.000Z</time>
      </trkpt>
      <trkpt lat="43.9471" lon="4.84825">
        <ele>27.940316</ele>
        <time>2021-09-16T09:40:30.000Z</time>
      </trkpt>
      <trkpt lat="43.94705" lon="4.84819">
        <ele>27.937906</ele>
        <time>2021-09-16T09:40:31.000Z</time>
      </trkpt>
      <trkpt lat="43.94703" lon="4.84815">
        <ele>27.936629</ele>
        <time>2021-09-16T09:40:32.000Z</time>
      </trkpt>
      <trkpt lat="43.94701" lon="4.84808">
        <ele>27.934814</ele>
        <time>2021-09-16T09:40:34.000Z</time>
      </trkpt>
      <trkpt lat="43.94694" lon="4.84788">
        <ele>27.929214</ele>
        <time>2021-09-16T09:40:39.000Z</time>
      </trkpt>
      <trkpt lat="43.94681" lon="4.84762">
        <ele>27.921235</ele>
        <time>2021-09-16T09:40:44.000Z</time>
      </trkpt>
      <trkpt lat="43.94656" lon="4.84727">
        <ele>27.908694</ele>
        <time>2021-09-16T09:40:51.000Z</time>
      </trkpt>
      <trkpt lat="43.94645" lon="4.8473">
        <ele>27.904837</ele>
        <time>2021-09-16T09:40:53.000Z</time>
      </trkpt>
      <trkpt lat="43.94642" lon="4.84734">
        <ele>27.903313</ele>
        <time>2021-09-16T09:40:54.000Z</time>
      </trkpt>
      <trkpt lat="43.94642" lon="4.84734">
        <ele>27.903313</ele>
        <time>2021-09-16T09:40:55.000Z</time>
      </trkpt>
      <trkpt lat="43.94629" lon="4.84748">
        <ele>27.897787</ele>
        <time>2021-09-16T09:40:57.000Z</time>
      </trkpt>
      <trkpt lat="43.94626" lon="4.84751">
        <ele>27.896279</ele>
        <time>2021-09-16T09:40:58.000Z</time>
      </trkpt>
      <trkpt lat="43.94621" lon="4.84746">
        <ele>27.89414</ele>
        <time>2021-09-16T09:40:59.000Z</time>
      </trkpt>
      <trkpt lat="43.94615" lon="4.84735">
        <ele>27.851731</ele>
        <time>2021-09-16T09:41:01.000Z</time>
      </trkpt>
      <trkpt lat="43.94586" lon="4.84685">
        <ele>27.639867</ele>
        <time>2021-09-16T09:41:09.000Z</time>
      </trkpt>
      <trkpt lat="43.94575" lon="4.84667">
        <ele>27.561148</ele>
        <time>2021-09-16T09:41:12.000Z</time>
      </trkpt>
      <trkpt lat="43.94569" lon="4.84655">
        <ele>27.512363</ele>
        <time>2021-09-16T09:41:14.000Z</time>
      </trkpt>
      <trkpt lat="43.94566" lon="4.8465">
        <ele>27.489998</ele>
        <time>2021-09-16T09:41:15.000Z</time>
      </trkpt>
      <trkpt lat="43.9456" lon="4.84638">
        <ele>27.440438</ele>
        <time>2021-09-16T09:41:17.000Z</time>
      </trkpt>
      <trkpt lat="43.94562" lon="4.84632">
        <ele>27.419492</ele>
        <time>2021-09-16T09:41:18.000Z</time>
      </trkpt>
      <trkpt lat="43.94564" lon="4.84625">
        <ele>27.394964</ele>
        <time>2021-09-16T09:41:19.000Z</time>
      </trkpt>
      <trkpt lat="43.94572" lon="4.84606">
        <ele>27.321543</ele>
        <time>2021-09-16T09:41:22.000Z</time>
      </trkpt>
      <trkpt lat="43.94575" lon="4.84601">
        <ele>27.299461</ele>
        <time>2021-09-16T09:41:23.000Z</time>
      </trkpt>
      <trkpt lat="43.94577" lon="4.84593">
        <ele>27.270041</ele>
        <time>2021-09-16T09:41:25.000Z</time>
      </trkpt>
      <trkpt lat="43.94576" lon="4.84587">
        <ele>27.249597</ele>
        <time>2021-09-16T09:41:26.000Z</time>
      </trkpt>
      <trkpt lat="43.94573" lon="4.84577">
        <ele>27.216193</ele>
        <time>2021-09-16T09:41:28.000Z</time>
      </trkpt>
      <trkpt lat="43.94572" lon="4.84573">
        <ele>27.199491</ele>
        <time>2021-09-16T09:41:29.000Z</time>
      </trkpt>
      <trkpt lat="43.94572" lon="4.84563">
        <ele>27.165626</ele>
        <time>2021-09-16T09:41:31.000Z</time>
      </trkpt>
      <trkpt lat="43.94571" lon="4.8455">
        <ele>27.12445</ele>
        <time>2021-09-16T09:41:33.000Z</time>
      </trkpt>
      <trkpt lat="43.94571" lon="4.84536">
        <ele>27.077013</ele>
        <time>2021-09-16T09:41:35.000Z</time>
      </trkpt>
      <trkpt lat="43.94572" lon="4.84528">
        <ele>27.065811</ele>
        <time>2021-09-16T09:41:36.000Z</time>
      </trkpt>
      <trkpt lat="43.94576" lon="4.84505">
        <ele>27.069987</ele>
        <time>2021-09-16T09:41:39.000Z</time>
      </trkpt>
      <trkpt lat="43.94577" lon="4.84496">
        <ele>27.071471</ele>
        <time>2021-09-16T09:41:40.000Z</time>
      </trkpt>
      <trkpt lat="43.94579" lon="4.8448">
        <ele>27.074361</ele>
        <time>2021-09-16T09:41:42.000Z</time>
      </trkpt>
      <trkpt lat="43.9458" lon="4.84463">
        <ele>27.077199</ele>
        <time>2021-09-16T09:41:44.000Z</time>
      </trkpt>
      <trkpt lat="43.94581" lon="4.84454">
        <ele>27.078734</ele>
        <time>2021-09-16T09:41:45.000Z</time>
      </trkpt>
      <trkpt lat="43.94582" lon="4.84421">
        <ele>27.08446</ele>
        <time>2021-09-16T09:41:49.000Z</time>
      </trkpt>
      <trkpt lat="43.94582" lon="4.84414">
        <ele>27.08579</ele>
        <time>2021-09-16T09:41:50.000Z</time>
      </trkpt>
      <trkpt lat="43.94583" lon="4.8439">
        <ele>27.089954</ele>
        <time>2021-09-16T09:41:53.000Z</time>
      </trkpt>
      <trkpt lat="43.94583" lon="4.84376">
        <ele>27.092337</ele>
        <time>2021-09-16T09:41:55.000Z</time>
      </trkpt>
      <trkpt lat="43.94583" lon="4.84369">
        <ele>27.093563</ele>
        <time>2021-09-16T09:41:56.000Z</time>
      </trkpt>
      <trkpt lat="43.94582" lon="4.84362">
        <ele>27.094712</ele>
        <time>2021-09-16T09:41:57.000Z</time>
      </trkpt>
      <trkpt lat="43.94575" lon="4.84351">
        <ele>27.097216</ele>
        <time>2021-09-16T09:41:59.000Z</time>
      </trkpt>
      <trkpt lat="43.94572" lon="4.84347">
        <ele>27.098297</ele>
        <time>2021-09-16T09:42:00.000Z</time>
      </trkpt>
      <trkpt lat="43.94564" lon="4.84333">
        <ele>27.101407</ele>
        <time>2021-09-16T09:42:03.000Z</time>
      </trkpt>
      <trkpt lat="43.94561" lon="4.84318">
        <ele>27.104046</ele>
        <time>2021-09-16T09:42:07.000Z</time>
      </trkpt>
      <trkpt lat="43.94562" lon="4.84304">
        <ele>27.106501</ele>
        <time>2021-09-16T09:42:10.000Z</time>
      </trkpt>
      <trkpt lat="43.94565" lon="4.84303">
        <ele>27.107211</ele>
        <time>2021-09-16T09:42:11.000Z</time>
      </trkpt>
      <trkpt lat="43.94569" lon="4.84302">
        <ele>27.108118</ele>
        <time>2021-09-16T09:42:12.000Z</time>
      </trkpt>
      <trkpt lat="43.94577" lon="4.843">
        <ele>27.111794</ele>
        <time>2021-09-16T09:42:14.000Z</time>
      </trkpt>
      <trkpt lat="43.94581" lon="4.84298">
        <ele>27.113749</ele>
        <time>2021-09-16T09:42:15.000Z</time>
      </trkpt>
      <trkpt lat="43.94585" lon="4.84296">
        <ele>27.115758</ele>
        <time>2021-09-16T09:42:16.000Z</time>
      </trkpt>
      <trkpt lat="43.94588" lon="4.84285">
        <ele>27.119744</ele>
        <time>2021-09-16T09:42:18.000Z</time>
      </trkpt>
      <trkpt lat="43.94591" lon="4.84272">
        <ele>27.124177</ele>
        <time>2021-09-16T09:42:20.000Z</time>
      </trkpt>
      <trkpt lat="43.94594" lon="4.84261">
        <ele>27.128135</ele>
        <time>2021-09-16T09:42:22.000Z</time>
      </trkpt>
      <trkpt lat="43.94593" lon="4.84204">
        <ele>27.146893</ele>
        <time>2021-09-16T09:42:30.000Z</time>
      </trkpt>
      <trkpt lat="43.94587" lon="4.84192">
        <ele>27.151677</ele>
        <time>2021-09-16T09:42:33.000Z</time>
      </trkpt>
      <trkpt lat="43.94584" lon="4.84186">
        <ele>27.153869</ele>
        <time>2021-09-16T09:42:36.000Z</time>
      </trkpt>
      <trkpt lat="43.94583" lon="4.84184">
        <ele>27.154751</ele>
        <time>2021-09-16T09:42:37.000Z</time>
      </trkpt>
      <trkpt lat="43.94581" lon="4.84174">
        <ele>27.158134</ele>
        <time>2021-09-16T09:42:40.000Z</time>
      </trkpt>
      <trkpt lat="43.94587" lon="4.8416">
        <ele>27.163602</ele>
        <time>2021-09-16T09:42:44.000Z</time>
      </trkpt>
      <trkpt lat="43.94592" lon="4.84153">
        <ele>27.166933</ele>
        <time>2021-09-16T09:42:47.000Z</time>
      </trkpt>
      <trkpt lat="43.94596" lon="4.84141">
        <ele>27.171461</ele>
        <time>2021-09-16T09:42:48.000Z</time>
      </trkpt>
      <trkpt lat="43.94598" lon="4.84134">
        <ele>27.173736</ele>
        <time>2021-09-16T09:42:49.000Z</time>
      </trkpt>
      <trkpt lat="43.946" lon="4.8412">
        <ele>27.178594</ele>
        <time>2021-09-16T09:42:51.000Z</time>
      </trkpt>
      <trkpt lat="43.946" lon="4.84112">
        <ele>27.181064</ele>
        <time>2021-09-16T09:42:52.000Z</time>
      </trkpt>
      <trkpt lat="43.946" lon="4.84096">
        <ele>27.186559</ele>
        <time>2021-09-16T09:42:55.000Z</time>
      </trkpt>
      <trkpt lat="43.946" lon="4.84092">
        <ele>27.187613</ele>
        <time>2021-09-16T09:42:56.000Z</time>
      </trkpt>
      <trkpt lat="43.946" lon="4.84089">
        <ele>27.188634</ele>
        <time>2021-09-16T09:42:57.000Z</time>
      </trkpt>
      <trkpt lat="43.94601" lon="4.84081">
        <ele>27.17317</ele>
        <time>2021-09-16T09:42:59.000Z</time>
      </trkpt>
      <trkpt lat="43.94601" lon="4.84071">
        <ele>27.096868</ele>
        <time>2021-09-16T09:43:01.000Z</time>
      </trkpt>
      <trkpt lat="43.94601" lon="4.84056">
        <ele>26.998195</ele>
        <time>2021-09-16T09:43:03.000Z</time>
      </trkpt>
      <trkpt lat="43.94601" lon="4.84049">
        <ele>26.946395</ele>
        <time>2021-09-16T09:43:04.000Z</time>
      </trkpt>
      <trkpt lat="43.94602" lon="4.84018">
        <ele>26.732311</ele>
        <time>2021-09-16T09:43:08.000Z</time>
      </trkpt>
      <trkpt lat="43.94599" lon="4.83987">
        <ele>26.50757</ele>
        <time>2021-09-16T09:43:12.000Z</time>
      </trkpt>
      <trkpt lat="43.94596" lon="4.83971">
        <ele>26.392593</ele>
        <time>2021-09-16T09:43:14.000Z</time>
      </trkpt>
      <trkpt lat="43.94594" lon="4.83963">
        <ele>26.334246</ele>
        <time>2021-09-16T09:43:16.000Z</time>
      </trkpt>
      <trkpt lat="43.94586" lon="4.8394">
        <ele>26.155952</ele>
        <time>2021-09-16T09:43:19.000Z</time>
      </trkpt>
      <trkpt lat="43.94575" lon="4.83909">
        <ele>25.915391</ele>
        <time>2021-09-16T09:43:22.000Z</time>
      </trkpt>
      <trkpt lat="43.94561" lon="4.83889">
        <ele>25.721426</ele>
        <time>2021-09-16T09:43:25.000Z</time>
      </trkpt>
      <trkpt lat="43.94544" lon="4.83855">
        <ele>25.438672</ele>
        <time>2021-09-16T09:43:30.000Z</time>
      </trkpt>
      <trkpt lat="43.94542" lon="4.8385">
        <ele>25.407589</ele>
        <time>2021-09-16T09:43:31.000Z</time>
      </trkpt>
      <trkpt lat="43.94535" lon="4.83847">
        <ele>25.365668</ele>
        <time>2021-09-16T09:43:32.000Z</time>
      </trkpt>
      <trkpt lat="43.94529" lon="4.83849">
        <ele>25.324517</ele>
        <time>2021-09-16T09:43:34.000Z</time>
      </trkpt>
      <trkpt lat="43.94527" lon="4.83848">
        <ele>25.310313</ele>
        <time>2021-09-16T09:43:35.000Z</time>
      </trkpt>
      <trkpt lat="43.94527" lon="4.83845">
        <ele>25.296817</ele>
        <time>2021-09-16T09:43:37.000Z</time>
      </trkpt>
      <trkpt lat="43.94525" lon="4.83831">
        <ele>25.231159</ele>
        <time>2021-09-16T09:43:39.000Z</time>
      </trkpt>
      <trkpt lat="43.94524" lon="4.83818">
        <ele>25.171062</ele>
        <time>2021-09-16T09:43:41.000Z</time>
      </trkpt>
      <trkpt lat="43.94521" lon="4.83787">
        <ele>25.027254</ele>
        <time>2021-09-16T09:43:46.000Z</time>
      </trkpt>
      <trkpt lat="43.94516" lon="4.83758">
        <ele>24.88884</ele>
        <time>2021-09-16T09:43:50.000Z</time>
      </trkpt>
      <trkpt lat="43.94513" lon="4.83751">
        <ele>24.851185</ele>
        <time>2021-09-16T09:43:51.000Z</time>
      </trkpt>
      <trkpt lat="43.9451" lon="4.83745">
        <ele>24.815254</ele>
        <time>2021-09-16T09:43:52.000Z</time>
      </trkpt>
      <trkpt lat="43.94497" lon="4.83717">
        <ele>24.6669</ele>
        <time>2021-09-16T09:43:56.000Z</time>
      </trkpt>
      <trkpt lat="43.94489" lon="4.83676">
        <ele>24.469645</ele>
        <time>2021-09-16T09:44:01.000Z</time>
      </trkpt>
      <trkpt lat="43.94481" lon="4.83633">
        <ele>24.264712</ele>
        <time>2021-09-16T09:44:06.000Z</time>
      </trkpt>
      <trkpt lat="43.94474" lon="4.83591">
        <ele>24.064845</ele>
        <time>2021-09-16T09:44:12.000Z</time>
      </trkpt>
      <trkpt lat="43.94472" lon="4.83586">
        <ele>24.041053</ele>
        <time>2021-09-16T09:44:13.000Z</time>
      </trkpt>
      <trkpt lat="43.94469" lon="4.83575">
        <ele>23.986059</ele>
        <time>2021-09-16T09:44:15.000Z</time>
      </trkpt>
      <trkpt lat="43.94468" lon="4.83568">
        <ele>23.95522</ele>
        <time>2021-09-16T09:44:16.000Z</time>
      </trkpt>
      <trkpt lat="43.9447" lon="4.83555">
        <ele>23.892649</ele>
        <time>2021-09-16T09:44:18.000Z</time>
      </trkpt>
      <trkpt lat="43.94469" lon="4.83546">
        <ele>23.85347</ele>
        <time>2021-09-16T09:44:19.000Z</time>
      </trkpt>
      <trkpt lat="43.94468" lon="4.83539">
        <ele>23.819918</ele>
        <time>2021-09-16T09:44:20.000Z</time>
      </trkpt>
      <trkpt lat="43.94459" lon="4.83514">
        <ele>23.689297</ele>
        <time>2021-09-16T09:44:24.000Z</time>
      </trkpt>
      <trkpt lat="43.94453" lon="4.83503">
        <ele>23.626655</ele>
        <time>2021-09-16T09:44:26.000Z</time>
      </trkpt>
      <trkpt lat="43.94447" lon="4.83493">
        <ele>23.56832</ele>
        <time>2021-09-16T09:44:28.000Z</time>
      </trkpt>
      <trkpt lat="43.94444" lon="4.83489">
        <ele>23.539106</ele>
        <time>2021-09-16T09:44:29.000Z</time>
      </trkpt>
      <trkpt lat="43.94432" lon="4.83476">
        <ele>23.446561</ele>
        <time>2021-09-16T09:44:32.000Z</time>
      </trkpt>
      <trkpt lat="43.94428" lon="4.83472">
        <ele>23.414287</ele>
        <time>2021-09-16T09:44:33.000Z</time>
      </trkpt>
      <trkpt lat="43.94426" lon="4.83466">
        <ele>23.384406</ele>
        <time>2021-09-16T09:44:34.000Z</time>
      </trkpt>
      <trkpt lat="43.94425" lon="4.83458">
        <ele>23.347058</ele>
        <time>2021-09-16T09:44:35.000Z</time>
      </trkpt>
      <trkpt lat="43.94429" lon="4.8345">
        <ele>23.306286</ele>
        <time>2021-09-16T09:44:36.000Z</time>
      </trkpt>
      <trkpt lat="43.94451" lon="4.83426">
        <ele>23.131879</ele>
        <time>2021-09-16T09:44:41.000Z</time>
      </trkpt>
      <trkpt lat="43.94454" lon="4.83421">
        <ele>23.109804</ele>
        <time>2021-09-16T09:44:42.000Z</time>
      </trkpt>
      <trkpt lat="43.94458" lon="4.8341">
        <ele>23.070403</ele>
        <time>2021-09-16T09:44:44.000Z</time>
      </trkpt>
      <trkpt lat="43.94461" lon="4.83397">
        <ele>23.025596</ele>
        <time>2021-09-16T09:44:47.000Z</time>
      </trkpt>
      <trkpt lat="43.94458" lon="4.83382">
        <ele>22.977576</ele>
        <time>2021-09-16T09:44:50.000Z</time>
      </trkpt>
      <trkpt lat="43.94458" lon="4.83376">
        <ele>22.956557</ele>
        <time>2021-09-16T09:44:51.000Z</time>
      </trkpt>
      <trkpt lat="43.94455" lon="4.83348">
        <ele>22.865129</ele>
        <time>2021-09-16T09:44:55.000Z</time>
      </trkpt>
      <trkpt lat="43.94453" lon="4.83333">
        <ele>22.816385</ele>
        <time>2021-09-16T09:44:57.000Z</time>
      </trkpt>
      <trkpt lat="43.94443" lon="4.83295">
        <ele>22.685617</ele>
        <time>2021-09-16T09:45:03.000Z</time>
      </trkpt>
      <trkpt lat="43.94442" lon="4.83289">
        <ele>22.665263</ele>
        <time>2021-09-16T09:45:04.000Z</time>
      </trkpt>
      <trkpt lat="43.94441" lon="4.8328">
        <ele>22.636495</ele>
        <time>2021-09-16T09:45:06.000Z</time>
      </trkpt>
      <trkpt lat="43.9444" lon="4.83277">
        <ele>22.626401</ele>
        <time>2021-09-16T09:45:07.000Z</time>
      </trkpt>
      <trkpt lat="43.9444" lon="4.8327">
        <ele>22.60551</ele>
        <time>2021-09-16T09:45:09.000Z</time>
      </trkpt>
      <trkpt lat="43.94439" lon="4.83266">
        <ele>22.592158</ele>
        <time>2021-09-16T09:45:10.000Z</time>
      </trkpt>
      <trkpt lat="43.94439" lon="4.83235">
        <ele>22.490822</ele>
        <time>2021-09-16T09:45:15.000Z</time>
      </trkpt>
      <trkpt lat="43.9444" lon="4.83214">
        <ele>22.422394</ele>
        <time>2021-09-16T09:45:18.000Z</time>
      </trkpt>
      <trkpt lat="43.9444" lon="4.83199">
        <ele>22.374947</ele>
        <time>2021-09-16T09:45:20.000Z</time>
      </trkpt>
      <trkpt lat="43.9444" lon="4.83192">
        <ele>22.351384</ele>
        <time>2021-09-16T09:45:21.000Z</time>
      </trkpt>
      <trkpt lat="43.94436" lon="4.83134">
        <ele>22.545061</ele>
        <time>2021-09-16T09:45:28.000Z</time>
      </trkpt>
      <trkpt lat="43.94432" lon="4.83101">
        <ele>22.669423</ele>
        <time>2021-09-16T09:45:32.000Z</time>
      </trkpt>
      <trkpt lat="43.9443" lon="4.83085">
        <ele>22.732057</ele>
        <time>2021-09-16T09:45:34.000Z</time>
      </trkpt>
      <trkpt lat="43.94425" lon="4.83054">
        <ele>22.855038</ele>
        <time>2021-09-16T09:45:38.000Z</time>
      </trkpt>
      <trkpt lat="43.94425" lon="4.83037">
        <ele>22.91798</ele>
        <time>2021-09-16T09:45:40.000Z</time>
      </trkpt>
      <trkpt lat="43.94423" lon="4.82969">
        <ele>23.177345</ele>
        <time>2021-09-16T09:45:48.000Z</time>
      </trkpt>
      <trkpt lat="43.94418" lon="4.82927">
        <ele>23.323783</ele>
        <time>2021-09-16T09:45:53.000Z</time>
      </trkpt>
      <trkpt lat="43.94417" lon="4.82919">
        <ele>23.345198</ele>
        <time>2021-09-16T09:45:54.000Z</time>
      </trkpt>
      <trkpt lat="43.94409" lon="4.82854">
        <ele>23.512886</ele>
        <time>2021-09-16T09:46:02.000Z</time>
      </trkpt>
      <trkpt lat="43.94408" lon="4.82839">
        <ele>23.549922</ele>
        <time>2021-09-16T09:46:04.000Z</time>
      </trkpt>
      <trkpt lat="43.94408" lon="4.82829">
        <ele>23.576641</ele>
        <time>2021-09-16T09:46:06.000Z</time>
      </trkpt>
      <trkpt lat="43.94408" lon="4.82823">
        <ele>23.590383</ele>
        <time>2021-09-16T09:46:08.000Z</time>
      </trkpt>
      <trkpt lat="43.94408" lon="4.82821">
        <ele>23.595727</ele>
        <time>2021-09-16T09:46:09.000Z</time>
      </trkpt>
      <trkpt lat="43.94408" lon="4.82818">
        <ele>23.603361</ele>
        <time>2021-09-16T09:46:10.000Z</time>
      </trkpt>
      <trkpt lat="43.94408" lon="4.8281">
        <ele>23.625257</ele>
        <time>2021-09-16T09:46:12.000Z</time>
      </trkpt>
      <trkpt lat="43.94409" lon="4.82783">
        <ele>23.693312</ele>
        <time>2021-09-16T09:46:17.000Z</time>
      </trkpt>
      <trkpt lat="43.94409" lon="4.82776">
        <ele>23.710885</ele>
        <time>2021-09-16T09:46:19.000Z</time>
      </trkpt>
      <trkpt lat="43.9441" lon="4.82775">
        <ele>23.714465</ele>
        <time>2021-09-16T09:46:20.000Z</time>
      </trkpt>
      <trkpt lat="43.9441" lon="4.82773">
        <ele>23.717792</ele>
        <time>2021-09-16T09:46:21.000Z</time>
      </trkpt>
      <trkpt lat="43.9441" lon="4.82767">
        <ele>23.733077</ele>
        <time>2021-09-16T09:46:24.000Z</time>
      </trkpt>
      <trkpt lat="43.94409" lon="4.82749">
        <ele>23.780965</ele>
        <time>2021-09-16T09:46:29.000Z</time>
      </trkpt>
      <trkpt lat="43.94409" lon="4.82744">
        <ele>23.793986</ele>
        <time>2021-09-16T09:46:31.000Z</time>
      </trkpt>
      <trkpt lat="43.94409" lon="4.82741">
        <ele>23.799376</ele>
        <time>2021-09-16T09:46:32.000Z</time>
      </trkpt>
      <trkpt lat="43.94408" lon="4.82721">
        <ele>23.850954</ele>
        <time>2021-09-16T09:46:36.000Z</time>
      </trkpt>
      <trkpt lat="43.94404" lon="4.82678">
        <ele>23.89988</ele>
        <time>2021-09-16T09:46:42.000Z</time>
      </trkpt>
      <trkpt lat="43.944" lon="4.82621">
        <ele>23.793759</ele>
        <time>2021-09-16T09:46:49.000Z</time>
      </trkpt>
      <trkpt lat="43.94396" lon="4.82582">
        <ele>23.720077</ele>
        <time>2021-09-16T09:46:54.000Z</time>
      </trkpt>
      <trkpt lat="43.94395" lon="4.82574">
        <ele>23.70589</ele>
        <time>2021-09-16T09:46:55.000Z</time>
      </trkpt>
      <trkpt lat="43.94393" lon="4.82559">
        <ele>23.67669</ele>
        <time>2021-09-16T09:46:57.000Z</time>
      </trkpt>
      <trkpt lat="43.9439" lon="4.82536">
        <ele>23.633536</ele>
        <time>2021-09-16T09:47:00.000Z</time>
      </trkpt>
      <trkpt lat="43.94389" lon="4.82528">
        <ele>23.618935</ele>
        <time>2021-09-16T09:47:01.000Z</time>
      </trkpt>
      <trkpt lat="43.94388" lon="4.8252">
        <ele>23.60397</ele>
        <time>2021-09-16T09:47:02.000Z</time>
      </trkpt>
      <trkpt lat="43.94386" lon="4.82505">
        <ele>23.574947</ele>
        <time>2021-09-16T09:47:04.000Z</time>
      </trkpt>
      <trkpt lat="43.94386" lon="4.82489">
        <ele>23.546119</ele>
        <time>2021-09-16T09:47:06.000Z</time>
      </trkpt>
      <trkpt lat="43.94386" lon="4.82482">
        <ele>23.531798</ele>
        <time>2021-09-16T09:47:07.000Z</time>
      </trkpt>
      <trkpt lat="43.94386" lon="4.82466">
        <ele>23.502598</ele>
        <time>2021-09-16T09:47:09.000Z</time>
      </trkpt>
      <trkpt lat="43.94388" lon="4.8245">
        <ele>23.47326</ele>
        <time>2021-09-16T09:47:11.000Z</time>
      </trkpt>
      <trkpt lat="43.94395" lon="4.82399">
        <ele>23.399213</ele>
        <time>2021-09-16T09:47:18.000Z</time>
      </trkpt>
      <trkpt lat="43.94413" lon="4.82347">
        <ele>23.322028</ele>
        <time>2021-09-16T09:47:25.000Z</time>
      </trkpt>
      <trkpt lat="43.9442" lon="4.82327">
        <ele>23.291622</ele>
        <time>2021-09-16T09:47:28.000Z</time>
      </trkpt>
      <trkpt lat="43.94424" lon="4.82316">
        <ele>23.2747</ele>
        <time>2021-09-16T09:47:30.000Z</time>
      </trkpt>
      <trkpt lat="43.9443" lon="4.82296">
        <ele>23.246036</ele>
        <time>2021-09-16T09:47:34.000Z</time>
      </trkpt>
      <trkpt lat="43.94434" lon="4.82286">
        <ele>23.230626</ele>
        <time>2021-09-16T09:47:36.000Z</time>
      </trkpt>
      <trkpt lat="43.94437" lon="4.82274">
        <ele>23.214007</ele>
        <time>2021-09-16T09:47:38.000Z</time>
      </trkpt>
      <trkpt lat="43.94441" lon="4.82261">
        <ele>23.19486</ele>
        <time>2021-09-16T09:47:40.000Z</time>
      </trkpt>
      <trkpt lat="43.94447" lon="4.8224">
        <ele>23.164611</ele>
        <time>2021-09-16T09:47:43.000Z</time>
      </trkpt>
      <trkpt lat="43.94449" lon="4.82233">
        <ele>23.154397</ele>
        <time>2021-09-16T09:47:44.000Z</time>
      </trkpt>
      <trkpt lat="43.94455" lon="4.82212">
        <ele>23.125775</ele>
        <time>2021-09-16T09:47:47.000Z</time>
      </trkpt>
      <trkpt lat="43.94457" lon="4.82205">
        <ele>23.129881</ele>
        <time>2021-09-16T09:47:48.000Z</time>
      </trkpt>
      <trkpt lat="43.94464" lon="4.8218">
        <ele>23.145036</ele>
        <time>2021-09-16T09:47:52.000Z</time>
      </trkpt>
      <trkpt lat="43.94468" lon="4.8217">
        <ele>23.151286</ele>
        <time>2021-09-16T09:47:54.000Z</time>
      </trkpt>
      <trkpt lat="43.94477" lon="4.82142">
        <ele>23.168548</ele>
        <time>2021-09-16T09:47:58.000Z</time>
      </trkpt>
      <trkpt lat="43.94481" lon="4.82126">
        <ele>23.177877</ele>
        <time>2021-09-16T09:48:00.000Z</time>
      </trkpt>
      <trkpt lat="43.94492" lon="4.82093">
        <ele>23.198013</ele>
        <time>2021-09-16T09:48:04.000Z</time>
      </trkpt>
      <trkpt lat="43.94496" lon="4.82079">
        <ele>23.206469</ele>
        <time>2021-09-16T09:48:06.000Z</time>
      </trkpt>
      <trkpt lat="43.94501" lon="4.82062">
        <ele>23.217178</ele>
        <time>2021-09-16T09:48:09.000Z</time>
      </trkpt>
      <trkpt lat="43.94509" lon="4.82051">
        <ele>23.225895</ele>
        <time>2021-09-16T09:48:12.000Z</time>
      </trkpt>
      <trkpt lat="43.94514" lon="4.82049">
        <ele>23.22958</ele>
        <time>2021-09-16T09:48:13.000Z</time>
      </trkpt>
      <trkpt lat="43.94517" lon="4.82047">
        <ele>23.232611</ele>
        <time>2021-09-16T09:48:14.000Z</time>
      </trkpt>
      <trkpt lat="43.94524" lon="4.82036">
        <ele>23.240294</ele>
        <time>2021-09-16T09:48:16.000Z</time>
      </trkpt>
      <trkpt lat="43.94529" lon="4.82023">
        <ele>23.248539</ele>
        <time>2021-09-16T09:48:18.000Z</time>
      </trkpt>
      <trkpt lat="43.94535" lon="4.82009">
        <ele>23.257965</ele>
        <time>2021-09-16T09:48:20.000Z</time>
      </trkpt>
      <trkpt lat="43.94547" lon="4.81982">
        <ele>23.325436</ele>
        <time>2021-09-16T09:48:24.000Z</time>
      </trkpt>
      <trkpt lat="43.9455" lon="4.81975">
        <ele>23.351354</ele>
        <time>2021-09-16T09:48:25.000Z</time>
      </trkpt>
      <trkpt lat="43.94564" lon="4.81941">
        <ele>23.480052</ele>
        <time>2021-09-16T09:48:30.000Z</time>
      </trkpt>
      <trkpt lat="43.94577" lon="4.81908">
        <ele>23.602717</ele>
        <time>2021-09-16T09:48:35.000Z</time>
      </trkpt>
      <trkpt lat="43.94581" lon="4.81895">
        <ele>23.647949</ele>
        <time>2021-09-16T09:48:37.000Z</time>
      </trkpt>
      <trkpt lat="43.94583" lon="4.8189">
        <ele>23.668325</ele>
        <time>2021-09-16T09:48:38.000Z</time>
      </trkpt>
      <trkpt lat="43.94585" lon="4.81884">
        <ele>23.687334</ele>
        <time>2021-09-16T09:48:39.000Z</time>
      </trkpt>
      <trkpt lat="43.94594" lon="4.81871">
        <ele>23.746592</ele>
        <time>2021-09-16T09:48:42.000Z</time>
      </trkpt>
      <trkpt lat="43.94597" lon="4.81865">
        <ele>23.76925</ele>
        <time>2021-09-16T09:48:43.000Z</time>
      </trkpt>
      <trkpt lat="43.94618" lon="4.81831">
        <ele>23.915597</ele>
        <time>2021-09-16T09:48:49.000Z</time>
      </trkpt>
      <trkpt lat="43.94622" lon="4.81825">
        <ele>23.940014</ele>
        <time>2021-09-16T09:48:50.000Z</time>
      </trkpt>
      <trkpt lat="43.9464" lon="4.81798">
        <ele>24.063664</ele>
        <time>2021-09-16T09:48:55.000Z</time>
      </trkpt>
      <trkpt lat="43.94654" lon="4.81777">
        <ele>24.516661</ele>
        <time>2021-09-16T09:48:59.000Z</time>
      </trkpt>
      <trkpt lat="43.9466" lon="4.81768">
        <ele>24.731004</ele>
        <time>2021-09-16T09:49:01.000Z</time>
      </trkpt>
      <trkpt lat="43.9466" lon="4.81762">
        <ele>24.843412</ele>
        <time>2021-09-16T09:49:04.000Z</time>
      </trkpt>
      <trkpt lat="43.94659" lon="4.81759">
        <ele>24.887948</ele>
        <time>2021-09-16T09:49:05.000Z</time>
      </trkpt>
      <trkpt lat="43.94655" lon="4.81747">
        <ele>25.12794</ele>
        <time>2021-09-16T09:49:10.000Z</time>
      </trkpt>
      <trkpt lat="43.94654" lon="4.81746">
        <ele>25.160489</ele>
        <time>2021-09-16T09:49:13.000Z</time>
      </trkpt>
      <trkpt lat="43.94657" lon="4.81748">
        <ele>25.235864</ele>
        <time>2021-09-16T09:50:53.000Z</time>
      </trkpt>
      <trkpt lat="43.94655" lon="4.81728">
        <ele>25.601794</ele>
        <time>2021-09-16T09:50:58.000Z</time>
      </trkpt>
      <trkpt lat="43.94653" lon="4.81727">
        <ele>25.643789</ele>
        <time>2021-09-16T09:51:03.000Z</time>
      </trkpt>
      <trkpt lat="43.94649" lon="4.81725">
        <ele>25.744891</ele>
        <time>2021-09-16T09:51:05.000Z</time>
      </trkpt>
      <trkpt lat="43.94646" lon="4.81722">
        <ele>25.846759</ele>
        <time>2021-09-16T09:51:07.000Z</time>
      </trkpt>
      <trkpt lat="43.94633" lon="4.81712">
        <ele>26.214298</ele>
        <time>2021-09-16T09:51:12.000Z</time>
      </trkpt>
      <trkpt lat="43.94613" lon="4.81699">
        <ele>26.759749</ele>
        <time>2021-09-16T09:51:18.000Z</time>
      </trkpt>
      <trkpt lat="43.94593" lon="4.81685">
        <ele>27.312029</ele>
        <time>2021-09-16T09:51:24.000Z</time>
      </trkpt>
      <trkpt lat="43.94569" lon="4.81667">
        <ele>27.989471</ele>
        <time>2021-09-16T09:51:30.000Z</time>
      </trkpt>
      <trkpt lat="43.94542" lon="4.81648">
        <ele>28.619377</ele>
        <time>2021-09-16T09:51:36.000Z</time>
      </trkpt>
      <trkpt lat="43.9451" lon="4.81625">
        <ele>29.014209</ele>
        <time>2021-09-16T09:51:43.000Z</time>
      </trkpt>
      <trkpt lat="43.94497" lon="4.81597">
        <ele>29.274875</ele>
        <time>2021-09-16T09:51:47.000Z</time>
      </trkpt>
      <trkpt lat="43.94487" lon="4.81593">
        <ele>29.392977</ele>
        <time>2021-09-16T09:51:49.000Z</time>
      </trkpt>
      <trkpt lat="43.94472" lon="4.81598">
        <ele>29.560652</ele>
        <time>2021-09-16T09:51:52.000Z</time>
      </trkpt>
      <trkpt lat="43.94464" lon="4.8159">
        <ele>29.666021</ele>
        <time>2021-09-16T09:51:54.000Z</time>
      </trkpt>
      <trkpt lat="43.94456" lon="4.81584">
        <ele>29.763347</ele>
        <time>2021-09-16T09:51:56.000Z</time>
      </trkpt>
      <trkpt lat="43.9445" lon="4.81579">
        <ele>29.840466</ele>
        <time>2021-09-16T09:51:58.000Z</time>
      </trkpt>
      <trkpt lat="43.94446" lon="4.81575">
        <ele>29.887501</ele>
        <time>2021-09-16T09:51:59.000Z</time>
      </trkpt>
      <trkpt lat="43.94451" lon="4.81547">
        <ele>30.120355</ele>
        <time>2021-09-16T09:52:01.000Z</time>
      </trkpt>
      <trkpt lat="43.9444" lon="4.81536">
        <ele>30.269935</ele>
        <time>2021-09-16T09:52:04.000Z</time>
      </trkpt>
      <trkpt lat="43.94433" lon="4.81529">
        <ele>30.363992</ele>
        <time>2021-09-16T09:52:06.000Z</time>
      </trkpt>
      <trkpt lat="43.94409" lon="4.81505">
        <ele>30.437</ele>
        <time>2021-09-16T09:52:14.000Z</time>
      </trkpt>
      <trkpt lat="43.94398" lon="4.81501">
        <ele>30.404504</ele>
        <time>2021-09-16T09:52:18.000Z</time>
      </trkpt>
      <trkpt lat="43.94393" lon="4.8149">
        <ele>30.377292</ele>
        <time>2021-09-16T09:52:23.000Z</time>
      </trkpt>
      <trkpt lat="43.94388" lon="4.81466">
        <ele>30.32541</ele>
        <time>2021-09-16T09:52:28.000Z</time>
      </trkpt>
      <trkpt lat="43.94377" lon="4.81419">
        <ele>30.223976</ele>
        <time>2021-09-16T09:52:35.000Z</time>
      </trkpt>
      <trkpt lat="43.94374" lon="4.81406">
        <ele>30.194553</ele>
        <time>2021-09-16T09:52:37.000Z</time>
      </trkpt>
      <trkpt lat="43.94368" lon="4.81378">
        <ele>30.132748</ele>
        <time>2021-09-16T09:52:41.000Z</time>
      </trkpt>
      <trkpt lat="43.94355" lon="4.81318">
        <ele>30.002573</ele>
        <time>2021-09-16T09:52:49.000Z</time>
      </trkpt>
      <trkpt lat="43.94345" lon="4.81268">
        <ele>29.969242</ele>
        <time>2021-09-16T09:52:56.000Z</time>
      </trkpt>
      <trkpt lat="43.94342" lon="4.81249">
        <ele>29.969242</ele>
        <time>2021-09-16T09:52:59.000Z</time>
      </trkpt>
      <trkpt lat="43.94339" lon="4.8124">
        <ele>29.969242</ele>
        <time>2021-09-16T09:53:01.000Z</time>
      </trkpt>
      <trkpt lat="43.94355" lon="4.81226">
        <ele>29.969242</ele>
        <time>2021-09-16T09:53:03.000Z</time>
      </trkpt>
      <trkpt lat="43.94358" lon="4.81224">
        <ele>29.969242</ele>
        <time>2021-09-16T09:53:09.000Z</time>
      </trkpt>
      <trkpt lat="43.94371" lon="4.81202">
        <ele>29.969242</ele>
        <time>2021-09-16T09:53:16.000Z</time>
      </trkpt>
      <trkpt lat="43.94385" lon="4.81179">
        <ele>29.969242</ele>
        <time>2021-09-16T09:53:23.000Z</time>
      </trkpt>
      <trkpt lat="43.94391" lon="4.81169">
        <ele>29.969242</ele>
        <time>2021-09-16T09:53:28.000Z</time>
      </trkpt>
      <trkpt lat="43.94394" lon="4.81165">
        <ele>29.969242</ele>
        <time>2021-09-16T09:53:30.000Z</time>
      </trkpt>
    </trkseg>
  </trk>
</gpx>